<?xml version="1.0" encoding="UTF-8" standalone="no" ?>
<gpx xmlns="http://www.topografix.com/GPX/1/1" xmlns:xsi="http://www.w3.org/2001/XMLSchema-instance" xsi:schemaLocation="http://www.topografix.com/GPX/1/1 http://www.topografix.com/GPX/1/1/gpx.xsd" version="1.1" creator="VisuGPX - https://www.visugpx.com">
  <metadata>
    <name>Course à pied matinale</name>
  </metadata>
  <trk>
    <name><![CDATA[Course à pied matinale]]></name>
    <trkseg>
      <trkpt lat="49.4287" lon="1.07823">
        <ele>12.4</ele>
        <time>2021-11-13T08:08:06Z</time>
      </trkpt>
      <trkpt lat="49.42867" lon="1.07821">
        <ele>12.4</ele>
        <time>2021-11-13T08:08:07Z</time>
      </trkpt>
      <trkpt lat="49.42864" lon="1.07818">
        <ele>12.5</ele>
        <time>2021-11-13T08:08:09Z</time>
      </trkpt>
      <trkpt lat="49.4286" lon="1.07816">
        <ele>12.5</ele>
        <time>2021-11-13T08:08:10Z</time>
      </trkpt>
      <trkpt lat="49.42856" lon="1.07814">
        <ele>12.6</ele>
        <time>2021-11-13T08:08:11Z</time>
      </trkpt>
      <trkpt lat="49.42852" lon="1.07812">
        <ele>12.6</ele>
        <time>2021-11-13T08:08:13Z</time>
      </trkpt>
      <trkpt lat="49.42848" lon="1.0781">
        <ele>12.6</ele>
        <time>2021-11-13T08:08:14Z</time>
      </trkpt>
      <trkpt lat="49.42845" lon="1.07809">
        <ele>12.7</ele>
        <time>2021-11-13T08:08:16Z</time>
      </trkpt>
      <trkpt lat="49.42841" lon="1.07809">
        <ele>12.7</ele>
        <time>2021-11-13T08:08:17Z</time>
      </trkpt>
      <trkpt lat="49.42839" lon="1.07808">
        <ele>12.7</ele>
        <time>2021-11-13T08:08:18Z</time>
      </trkpt>
      <trkpt lat="49.42837" lon="1.07807">
        <ele>12.7</ele>
        <time>2021-11-13T08:08:20Z</time>
      </trkpt>
      <trkpt lat="49.42833" lon="1.07805">
        <ele>12.7</ele>
        <time>2021-11-13T08:08:21Z</time>
      </trkpt>
      <trkpt lat="49.42832" lon="1.07805">
        <ele>12.7</ele>
        <time>2021-11-13T08:08:22Z</time>
      </trkpt>
      <trkpt lat="49.42827" lon="1.07802">
        <ele>12.7</ele>
        <time>2021-11-13T08:08:23Z</time>
      </trkpt>
      <trkpt lat="49.42824" lon="1.07799">
        <ele>12.8</ele>
        <time>2021-11-13T08:08:25Z</time>
      </trkpt>
      <trkpt lat="49.42822" lon="1.07798">
        <ele>12.8</ele>
        <time>2021-11-13T08:08:26Z</time>
      </trkpt>
      <trkpt lat="49.42819" lon="1.07794">
        <ele>12.8</ele>
        <time>2021-11-13T08:08:28Z</time>
      </trkpt>
      <trkpt lat="49.42816" lon="1.07791">
        <ele>12.8</ele>
        <time>2021-11-13T08:08:29Z</time>
      </trkpt>
      <trkpt lat="49.42812" lon="1.07787">
        <ele>12.8</ele>
        <time>2021-11-13T08:08:30Z</time>
      </trkpt>
      <trkpt lat="49.42808" lon="1.07784">
        <ele>12.8</ele>
        <time>2021-11-13T08:08:31Z</time>
      </trkpt>
      <trkpt lat="49.42803" lon="1.0778">
        <ele>12.8</ele>
        <time>2021-11-13T08:08:33Z</time>
      </trkpt>
      <trkpt lat="49.42798" lon="1.07775">
        <ele>12.8</ele>
        <time>2021-11-13T08:08:34Z</time>
      </trkpt>
      <trkpt lat="49.42794" lon="1.07771">
        <ele>12.9</ele>
        <time>2021-11-13T08:08:35Z</time>
      </trkpt>
      <trkpt lat="49.42791" lon="1.07768">
        <ele>12.9</ele>
        <time>2021-11-13T08:08:36Z</time>
      </trkpt>
      <trkpt lat="49.42787" lon="1.07765">
        <ele>12.9</ele>
        <time>2021-11-13T08:08:38Z</time>
      </trkpt>
      <trkpt lat="49.42784" lon="1.07762">
        <ele>12.9</ele>
        <time>2021-11-13T08:08:39Z</time>
      </trkpt>
      <trkpt lat="49.42781" lon="1.0776">
        <ele>12.9</ele>
        <time>2021-11-13T08:08:40Z</time>
      </trkpt>
      <trkpt lat="49.42776" lon="1.07756">
        <ele>12.9</ele>
        <time>2021-11-13T08:08:41Z</time>
      </trkpt>
      <trkpt lat="49.42773" lon="1.07753">
        <ele>12.9</ele>
        <time>2021-11-13T08:08:42Z</time>
      </trkpt>
      <trkpt lat="49.4277" lon="1.07751">
        <ele>12.9</ele>
        <time>2021-11-13T08:08:44Z</time>
      </trkpt>
      <trkpt lat="49.42767" lon="1.07746">
        <ele>13</ele>
        <time>2021-11-13T08:08:45Z</time>
      </trkpt>
      <trkpt lat="49.42764" lon="1.07743">
        <ele>13</ele>
        <time>2021-11-13T08:08:46Z</time>
      </trkpt>
      <trkpt lat="49.42761" lon="1.0774">
        <ele>13</ele>
        <time>2021-11-13T08:08:48Z</time>
      </trkpt>
      <trkpt lat="49.42758" lon="1.07738">
        <ele>13</ele>
        <time>2021-11-13T08:08:49Z</time>
      </trkpt>
      <trkpt lat="49.42755" lon="1.07735">
        <ele>13</ele>
        <time>2021-11-13T08:08:50Z</time>
      </trkpt>
      <trkpt lat="49.42752" lon="1.07733">
        <ele>13</ele>
        <time>2021-11-13T08:08:51Z</time>
      </trkpt>
      <trkpt lat="49.42749" lon="1.07731">
        <ele>13</ele>
        <time>2021-11-13T08:08:52Z</time>
      </trkpt>
      <trkpt lat="49.42745" lon="1.07728">
        <ele>13</ele>
        <time>2021-11-13T08:08:54Z</time>
      </trkpt>
      <trkpt lat="49.42741" lon="1.07724">
        <ele>13.1</ele>
        <time>2021-11-13T08:08:55Z</time>
      </trkpt>
      <trkpt lat="49.42738" lon="1.0772">
        <ele>13.1</ele>
        <time>2021-11-13T08:08:56Z</time>
      </trkpt>
      <trkpt lat="49.42732" lon="1.07716">
        <ele>13.1</ele>
        <time>2021-11-13T08:08:58Z</time>
      </trkpt>
      <trkpt lat="49.42729" lon="1.07715">
        <ele>13.1</ele>
        <time>2021-11-13T08:08:59Z</time>
      </trkpt>
      <trkpt lat="49.42726" lon="1.07714">
        <ele>13.2</ele>
        <time>2021-11-13T08:09:00Z</time>
      </trkpt>
      <trkpt lat="49.42723" lon="1.07714">
        <ele>13.2</ele>
        <time>2021-11-13T08:09:01Z</time>
      </trkpt>
      <trkpt lat="49.42718" lon="1.07713">
        <ele>13.2</ele>
        <time>2021-11-13T08:09:03Z</time>
      </trkpt>
      <trkpt lat="49.42716" lon="1.0771">
        <ele>13.2</ele>
        <time>2021-11-13T08:09:04Z</time>
      </trkpt>
      <trkpt lat="49.42714" lon="1.07707">
        <ele>13.2</ele>
        <time>2021-11-13T08:09:05Z</time>
      </trkpt>
      <trkpt lat="49.42712" lon="1.07703">
        <ele>13.3</ele>
        <time>2021-11-13T08:09:07Z</time>
      </trkpt>
      <trkpt lat="49.42709" lon="1.07699">
        <ele>13.2</ele>
        <time>2021-11-13T08:09:08Z</time>
      </trkpt>
      <trkpt lat="49.42706" lon="1.07697">
        <ele>13.2</ele>
        <time>2021-11-13T08:09:09Z</time>
      </trkpt>
      <trkpt lat="49.42702" lon="1.07696">
        <ele>13.2</ele>
        <time>2021-11-13T08:09:11Z</time>
      </trkpt>
      <trkpt lat="49.42699" lon="1.07695">
        <ele>13.1</ele>
        <time>2021-11-13T08:09:12Z</time>
      </trkpt>
      <trkpt lat="49.42694" lon="1.07695">
        <ele>13.1</ele>
        <time>2021-11-13T08:09:13Z</time>
      </trkpt>
      <trkpt lat="49.4269" lon="1.07695">
        <ele>13</ele>
        <time>2021-11-13T08:09:14Z</time>
      </trkpt>
      <trkpt lat="49.42687" lon="1.07695">
        <ele>13</ele>
        <time>2021-11-13T08:09:16Z</time>
      </trkpt>
      <trkpt lat="49.42685" lon="1.07696">
        <ele>13</ele>
        <time>2021-11-13T08:09:17Z</time>
      </trkpt>
      <trkpt lat="49.4268" lon="1.07695">
        <ele>13</ele>
        <time>2021-11-13T08:09:18Z</time>
      </trkpt>
      <trkpt lat="49.42677" lon="1.07694">
        <ele>13</ele>
        <time>2021-11-13T08:09:19Z</time>
      </trkpt>
      <trkpt lat="49.42673" lon="1.07692">
        <ele>12.8</ele>
        <time>2021-11-13T08:09:21Z</time>
      </trkpt>
      <trkpt lat="49.42671" lon="1.0769">
        <ele>12.8</ele>
        <time>2021-11-13T08:09:22Z</time>
      </trkpt>
      <trkpt lat="49.42668" lon="1.07688">
        <ele>12.7</ele>
        <time>2021-11-13T08:09:23Z</time>
      </trkpt>
      <trkpt lat="49.42666" lon="1.07686">
        <ele>12.7</ele>
        <time>2021-11-13T08:09:24Z</time>
      </trkpt>
      <trkpt lat="49.42662" lon="1.07684">
        <ele>12.6</ele>
        <time>2021-11-13T08:09:26Z</time>
      </trkpt>
      <trkpt lat="49.42659" lon="1.07682">
        <ele>12.5</ele>
        <time>2021-11-13T08:09:27Z</time>
      </trkpt>
      <trkpt lat="49.42655" lon="1.0768">
        <ele>12.4</ele>
        <time>2021-11-13T08:09:29Z</time>
      </trkpt>
      <trkpt lat="49.42652" lon="1.0768">
        <ele>12.3</ele>
        <time>2021-11-13T08:09:30Z</time>
      </trkpt>
      <trkpt lat="49.42648" lon="1.07679">
        <ele>12.2</ele>
        <time>2021-11-13T08:09:31Z</time>
      </trkpt>
      <trkpt lat="49.42646" lon="1.07678">
        <ele>12.1</ele>
        <time>2021-11-13T08:09:32Z</time>
      </trkpt>
      <trkpt lat="49.42642" lon="1.07678">
        <ele>12.1</ele>
        <time>2021-11-13T08:09:34Z</time>
      </trkpt>
      <trkpt lat="49.42641" lon="1.07677">
        <ele>12</ele>
        <time>2021-11-13T08:09:35Z</time>
      </trkpt>
      <trkpt lat="49.42638" lon="1.07675">
        <ele>11.9</ele>
        <time>2021-11-13T08:09:36Z</time>
      </trkpt>
      <trkpt lat="49.42635" lon="1.07673">
        <ele>11.8</ele>
        <time>2021-11-13T08:09:37Z</time>
      </trkpt>
      <trkpt lat="49.42633" lon="1.07672">
        <ele>11.8</ele>
        <time>2021-11-13T08:09:38Z</time>
      </trkpt>
      <trkpt lat="49.4263" lon="1.0767">
        <ele>11.7</ele>
        <time>2021-11-13T08:09:40Z</time>
      </trkpt>
      <trkpt lat="49.42625" lon="1.07668">
        <ele>11.6</ele>
        <time>2021-11-13T08:09:41Z</time>
      </trkpt>
      <trkpt lat="49.42622" lon="1.07666">
        <ele>11.5</ele>
        <time>2021-11-13T08:09:42Z</time>
      </trkpt>
      <trkpt lat="49.42619" lon="1.07664">
        <ele>11.5</ele>
        <time>2021-11-13T08:09:43Z</time>
      </trkpt>
      <trkpt lat="49.42616" lon="1.07663">
        <ele>11.4</ele>
        <time>2021-11-13T08:09:44Z</time>
      </trkpt>
      <trkpt lat="49.42613" lon="1.07661">
        <ele>11.3</ele>
        <time>2021-11-13T08:09:46Z</time>
      </trkpt>
      <trkpt lat="49.42611" lon="1.07659">
        <ele>11.3</ele>
        <time>2021-11-13T08:09:47Z</time>
      </trkpt>
      <trkpt lat="49.42607" lon="1.07658">
        <ele>11.2</ele>
        <time>2021-11-13T08:09:48Z</time>
      </trkpt>
      <trkpt lat="49.42601" lon="1.07655">
        <ele>11</ele>
        <time>2021-11-13T08:09:50Z</time>
      </trkpt>
      <trkpt lat="49.42595" lon="1.07652">
        <ele>10.9</ele>
        <time>2021-11-13T08:09:51Z</time>
      </trkpt>
      <trkpt lat="49.4259" lon="1.07649">
        <ele>10.8</ele>
        <time>2021-11-13T08:09:52Z</time>
      </trkpt>
      <trkpt lat="49.42584" lon="1.07646">
        <ele>10.7</ele>
        <time>2021-11-13T08:09:54Z</time>
      </trkpt>
      <trkpt lat="49.4258" lon="1.07644">
        <ele>10.6</ele>
        <time>2021-11-13T08:09:55Z</time>
      </trkpt>
      <trkpt lat="49.42576" lon="1.07642">
        <ele>10.5</ele>
        <time>2021-11-13T08:09:56Z</time>
      </trkpt>
      <trkpt lat="49.42572" lon="1.0764">
        <ele>10.4</ele>
        <time>2021-11-13T08:09:58Z</time>
      </trkpt>
      <trkpt lat="49.42569" lon="1.07638">
        <ele>10.4</ele>
        <time>2021-11-13T08:09:59Z</time>
      </trkpt>
      <trkpt lat="49.42566" lon="1.07636">
        <ele>10.3</ele>
        <time>2021-11-13T08:10:00Z</time>
      </trkpt>
      <trkpt lat="49.42562" lon="1.07632">
        <ele>10.2</ele>
        <time>2021-11-13T08:10:02Z</time>
      </trkpt>
      <trkpt lat="49.4256" lon="1.07631">
        <ele>10.2</ele>
        <time>2021-11-13T08:10:03Z</time>
      </trkpt>
      <trkpt lat="49.42559" lon="1.0763">
        <ele>10.2</ele>
        <time>2021-11-13T08:10:04Z</time>
      </trkpt>
      <trkpt lat="49.42556" lon="1.07628">
        <ele>10.1</ele>
        <time>2021-11-13T08:10:05Z</time>
      </trkpt>
      <trkpt lat="49.42554" lon="1.07626">
        <ele>10.1</ele>
        <time>2021-11-13T08:10:06Z</time>
      </trkpt>
      <trkpt lat="49.42549" lon="1.07624">
        <ele>10</ele>
        <time>2021-11-13T08:10:08Z</time>
      </trkpt>
      <trkpt lat="49.42548" lon="1.07623">
        <ele>10</ele>
        <time>2021-11-13T08:10:09Z</time>
      </trkpt>
      <trkpt lat="49.42546" lon="1.07622">
        <ele>10</ele>
        <time>2021-11-13T08:10:10Z</time>
      </trkpt>
      <trkpt lat="49.42542" lon="1.0762">
        <ele>10</ele>
        <time>2021-11-13T08:10:11Z</time>
      </trkpt>
      <trkpt lat="49.42538" lon="1.07619">
        <ele>9.9</ele>
        <time>2021-11-13T08:10:13Z</time>
      </trkpt>
      <trkpt lat="49.42536" lon="1.07617">
        <ele>9.9</ele>
        <time>2021-11-13T08:10:14Z</time>
      </trkpt>
      <trkpt lat="49.42531" lon="1.07615">
        <ele>9.9</ele>
        <time>2021-11-13T08:10:15Z</time>
      </trkpt>
      <trkpt lat="49.42529" lon="1.07613">
        <ele>9.9</ele>
        <time>2021-11-13T08:10:16Z</time>
      </trkpt>
      <trkpt lat="49.42527" lon="1.07611">
        <ele>9.8</ele>
        <time>2021-11-13T08:10:18Z</time>
      </trkpt>
      <trkpt lat="49.42523" lon="1.07608">
        <ele>9.8</ele>
        <time>2021-11-13T08:10:19Z</time>
      </trkpt>
      <trkpt lat="49.4252" lon="1.07605">
        <ele>9.7</ele>
        <time>2021-11-13T08:10:20Z</time>
      </trkpt>
      <trkpt lat="49.42514" lon="1.07601">
        <ele>9.7</ele>
        <time>2021-11-13T08:10:22Z</time>
      </trkpt>
      <trkpt lat="49.42509" lon="1.07598">
        <ele>9.7</ele>
        <time>2021-11-13T08:10:23Z</time>
      </trkpt>
      <trkpt lat="49.42504" lon="1.07596">
        <ele>9.6</ele>
        <time>2021-11-13T08:10:24Z</time>
      </trkpt>
      <trkpt lat="49.42499" lon="1.07594">
        <ele>9.6</ele>
        <time>2021-11-13T08:10:25Z</time>
      </trkpt>
      <trkpt lat="49.42494" lon="1.0759">
        <ele>9.6</ele>
        <time>2021-11-13T08:10:27Z</time>
      </trkpt>
      <trkpt lat="49.4249" lon="1.07585">
        <ele>9.6</ele>
        <time>2021-11-13T08:10:28Z</time>
      </trkpt>
      <trkpt lat="49.42487" lon="1.07582">
        <ele>9.6</ele>
        <time>2021-11-13T08:10:30Z</time>
      </trkpt>
      <trkpt lat="49.42484" lon="1.0758">
        <ele>9.6</ele>
        <time>2021-11-13T08:10:31Z</time>
      </trkpt>
      <trkpt lat="49.42481" lon="1.07577">
        <ele>9.6</ele>
        <time>2021-11-13T08:10:32Z</time>
      </trkpt>
      <trkpt lat="49.42479" lon="1.07575">
        <ele>9.6</ele>
        <time>2021-11-13T08:10:33Z</time>
      </trkpt>
      <trkpt lat="49.42475" lon="1.07572">
        <ele>9.6</ele>
        <time>2021-11-13T08:10:35Z</time>
      </trkpt>
      <trkpt lat="49.42473" lon="1.07569">
        <ele>9.6</ele>
        <time>2021-11-13T08:10:36Z</time>
      </trkpt>
      <trkpt lat="49.4247" lon="1.07565">
        <ele>9.6</ele>
        <time>2021-11-13T08:10:37Z</time>
      </trkpt>
      <trkpt lat="49.42468" lon="1.07561">
        <ele>9.6</ele>
        <time>2021-11-13T08:10:38Z</time>
      </trkpt>
      <trkpt lat="49.42465" lon="1.07558">
        <ele>9.6</ele>
        <time>2021-11-13T08:10:39Z</time>
      </trkpt>
      <trkpt lat="49.42462" lon="1.07556">
        <ele>9.6</ele>
        <time>2021-11-13T08:10:40Z</time>
      </trkpt>
      <trkpt lat="49.42459" lon="1.07555">
        <ele>9.6</ele>
        <time>2021-11-13T08:10:41Z</time>
      </trkpt>
      <trkpt lat="49.42454" lon="1.07552">
        <ele>9.6</ele>
        <time>2021-11-13T08:10:42Z</time>
      </trkpt>
      <trkpt lat="49.42449" lon="1.07553">
        <ele>9.6</ele>
        <time>2021-11-13T08:10:44Z</time>
      </trkpt>
      <trkpt lat="49.42446" lon="1.07556">
        <ele>9.6</ele>
        <time>2021-11-13T08:10:45Z</time>
      </trkpt>
      <trkpt lat="49.42442" lon="1.07555">
        <ele>9.6</ele>
        <time>2021-11-13T08:10:47Z</time>
      </trkpt>
      <trkpt lat="49.42438" lon="1.07555">
        <ele>9.6</ele>
        <time>2021-11-13T08:10:48Z</time>
      </trkpt>
      <trkpt lat="49.42434" lon="1.0756">
        <ele>9.5</ele>
        <time>2021-11-13T08:10:49Z</time>
      </trkpt>
      <trkpt lat="49.42432" lon="1.07562">
        <ele>9.5</ele>
        <time>2021-11-13T08:10:50Z</time>
      </trkpt>
      <trkpt lat="49.4243" lon="1.07563">
        <ele>9.5</ele>
        <time>2021-11-13T08:10:52Z</time>
      </trkpt>
      <trkpt lat="49.42426" lon="1.07564">
        <ele>9.5</ele>
        <time>2021-11-13T08:10:53Z</time>
      </trkpt>
      <trkpt lat="49.42424" lon="1.07563">
        <ele>9.5</ele>
        <time>2021-11-13T08:10:54Z</time>
      </trkpt>
      <trkpt lat="49.42422" lon="1.07563">
        <ele>9.5</ele>
        <time>2021-11-13T08:10:55Z</time>
      </trkpt>
      <trkpt lat="49.42417" lon="1.07561">
        <ele>9.6</ele>
        <time>2021-11-13T08:10:57Z</time>
      </trkpt>
      <trkpt lat="49.42414" lon="1.0756">
        <ele>9.6</ele>
        <time>2021-11-13T08:10:58Z</time>
      </trkpt>
      <trkpt lat="49.4241" lon="1.07559">
        <ele>9.6</ele>
        <time>2021-11-13T08:10:59Z</time>
      </trkpt>
      <trkpt lat="49.42405" lon="1.07557">
        <ele>9.7</ele>
        <time>2021-11-13T08:11:01Z</time>
      </trkpt>
      <trkpt lat="49.424" lon="1.07555">
        <ele>9.7</ele>
        <time>2021-11-13T08:11:02Z</time>
      </trkpt>
      <trkpt lat="49.42395" lon="1.07551">
        <ele>9.8</ele>
        <time>2021-11-13T08:11:04Z</time>
      </trkpt>
      <trkpt lat="49.42392" lon="1.07549">
        <ele>9.8</ele>
        <time>2021-11-13T08:11:05Z</time>
      </trkpt>
      <trkpt lat="49.42389" lon="1.07547">
        <ele>9.9</ele>
        <time>2021-11-13T08:11:06Z</time>
      </trkpt>
      <trkpt lat="49.42386" lon="1.07544">
        <ele>9.9</ele>
        <time>2021-11-13T08:11:07Z</time>
      </trkpt>
      <trkpt lat="49.42382" lon="1.07541">
        <ele>10</ele>
        <time>2021-11-13T08:11:09Z</time>
      </trkpt>
      <trkpt lat="49.42378" lon="1.07539">
        <ele>10.1</ele>
        <time>2021-11-13T08:11:10Z</time>
      </trkpt>
      <trkpt lat="49.42375" lon="1.07537">
        <ele>10.1</ele>
        <time>2021-11-13T08:11:12Z</time>
      </trkpt>
      <trkpt lat="49.42371" lon="1.07534">
        <ele>10.2</ele>
        <time>2021-11-13T08:11:13Z</time>
      </trkpt>
      <trkpt lat="49.42367" lon="1.07532">
        <ele>10.3</ele>
        <time>2021-11-13T08:11:15Z</time>
      </trkpt>
      <trkpt lat="49.42364" lon="1.0753">
        <ele>10.4</ele>
        <time>2021-11-13T08:11:16Z</time>
      </trkpt>
      <trkpt lat="49.42361" lon="1.07527">
        <ele>10.4</ele>
        <time>2021-11-13T08:11:17Z</time>
      </trkpt>
      <trkpt lat="49.42356" lon="1.07524">
        <ele>10.6</ele>
        <time>2021-11-13T08:11:19Z</time>
      </trkpt>
      <trkpt lat="49.42352" lon="1.07521">
        <ele>10.7</ele>
        <time>2021-11-13T08:11:20Z</time>
      </trkpt>
      <trkpt lat="49.42349" lon="1.07519">
        <ele>10.7</ele>
        <time>2021-11-13T08:11:21Z</time>
      </trkpt>
      <trkpt lat="49.42346" lon="1.07517">
        <ele>10.8</ele>
        <time>2021-11-13T08:11:22Z</time>
      </trkpt>
      <trkpt lat="49.42343" lon="1.07515">
        <ele>10.9</ele>
        <time>2021-11-13T08:11:24Z</time>
      </trkpt>
      <trkpt lat="49.42339" lon="1.07512">
        <ele>11</ele>
        <time>2021-11-13T08:11:25Z</time>
      </trkpt>
      <trkpt lat="49.42336" lon="1.0751">
        <ele>11</ele>
        <time>2021-11-13T08:11:26Z</time>
      </trkpt>
      <trkpt lat="49.42331" lon="1.07508">
        <ele>11.1</ele>
        <time>2021-11-13T08:11:28Z</time>
      </trkpt>
      <trkpt lat="49.42329" lon="1.07506">
        <ele>11.2</ele>
        <time>2021-11-13T08:11:29Z</time>
      </trkpt>
      <trkpt lat="49.42325" lon="1.07504">
        <ele>11.3</ele>
        <time>2021-11-13T08:11:31Z</time>
      </trkpt>
      <trkpt lat="49.42322" lon="1.07503">
        <ele>11.4</ele>
        <time>2021-11-13T08:11:32Z</time>
      </trkpt>
      <trkpt lat="49.42317" lon="1.07501">
        <ele>11.5</ele>
        <time>2021-11-13T08:11:33Z</time>
      </trkpt>
      <trkpt lat="49.42315" lon="1.07499">
        <ele>11.6</ele>
        <time>2021-11-13T08:11:34Z</time>
      </trkpt>
      <trkpt lat="49.42311" lon="1.07497">
        <ele>11.8</ele>
        <time>2021-11-13T08:11:36Z</time>
      </trkpt>
      <trkpt lat="49.42308" lon="1.07495">
        <ele>11.8</ele>
        <time>2021-11-13T08:11:37Z</time>
      </trkpt>
      <trkpt lat="49.42305" lon="1.07494">
        <ele>11.9</ele>
        <time>2021-11-13T08:11:38Z</time>
      </trkpt>
      <trkpt lat="49.423" lon="1.07492">
        <ele>12.1</ele>
        <time>2021-11-13T08:11:40Z</time>
      </trkpt>
      <trkpt lat="49.42298" lon="1.07491">
        <ele>12.1</ele>
        <time>2021-11-13T08:11:41Z</time>
      </trkpt>
      <trkpt lat="49.42296" lon="1.0749">
        <ele>12.2</ele>
        <time>2021-11-13T08:11:42Z</time>
      </trkpt>
      <trkpt lat="49.42294" lon="1.07488">
        <ele>12.3</ele>
        <time>2021-11-13T08:11:43Z</time>
      </trkpt>
      <trkpt lat="49.42291" lon="1.07486">
        <ele>12.4</ele>
        <time>2021-11-13T08:11:44Z</time>
      </trkpt>
      <trkpt lat="49.42287" lon="1.07485">
        <ele>12.5</ele>
        <time>2021-11-13T08:11:45Z</time>
      </trkpt>
      <trkpt lat="49.42284" lon="1.07483">
        <ele>12.6</ele>
        <time>2021-11-13T08:11:46Z</time>
      </trkpt>
      <trkpt lat="49.4228" lon="1.07481">
        <ele>12.7</ele>
        <time>2021-11-13T08:11:48Z</time>
      </trkpt>
      <trkpt lat="49.42276" lon="1.07478">
        <ele>12.8</ele>
        <time>2021-11-13T08:11:50Z</time>
      </trkpt>
      <trkpt lat="49.42272" lon="1.07475">
        <ele>13</ele>
        <time>2021-11-13T08:11:51Z</time>
      </trkpt>
      <trkpt lat="49.42269" lon="1.07474">
        <ele>13.1</ele>
        <time>2021-11-13T08:11:52Z</time>
      </trkpt>
      <trkpt lat="49.42266" lon="1.07472">
        <ele>13.2</ele>
        <time>2021-11-13T08:11:53Z</time>
      </trkpt>
      <trkpt lat="49.42262" lon="1.0747">
        <ele>13.4</ele>
        <time>2021-11-13T08:11:55Z</time>
      </trkpt>
      <trkpt lat="49.42257" lon="1.07468">
        <ele>13.5</ele>
        <time>2021-11-13T08:11:57Z</time>
      </trkpt>
      <trkpt lat="49.42255" lon="1.07467">
        <ele>13.6</ele>
        <time>2021-11-13T08:11:58Z</time>
      </trkpt>
      <trkpt lat="49.42252" lon="1.07465">
        <ele>13.8</ele>
        <time>2021-11-13T08:11:59Z</time>
      </trkpt>
      <trkpt lat="49.42249" lon="1.07462">
        <ele>13.9</ele>
        <time>2021-11-13T08:12:00Z</time>
      </trkpt>
      <trkpt lat="49.42245" lon="1.07459">
        <ele>14.1</ele>
        <time>2021-11-13T08:12:02Z</time>
      </trkpt>
      <trkpt lat="49.42242" lon="1.07457">
        <ele>14.2</ele>
        <time>2021-11-13T08:12:03Z</time>
      </trkpt>
      <trkpt lat="49.42238" lon="1.07455">
        <ele>14.3</ele>
        <time>2021-11-13T08:12:04Z</time>
      </trkpt>
      <trkpt lat="49.42235" lon="1.07454">
        <ele>14.5</ele>
        <time>2021-11-13T08:12:05Z</time>
      </trkpt>
      <trkpt lat="49.42231" lon="1.0745">
        <ele>14.6</ele>
        <time>2021-11-13T08:12:07Z</time>
      </trkpt>
      <trkpt lat="49.42228" lon="1.07448">
        <ele>14.8</ele>
        <time>2021-11-13T08:12:08Z</time>
      </trkpt>
      <trkpt lat="49.42224" lon="1.07446">
        <ele>14.9</ele>
        <time>2021-11-13T08:12:10Z</time>
      </trkpt>
      <trkpt lat="49.42221" lon="1.07445">
        <ele>15.1</ele>
        <time>2021-11-13T08:12:11Z</time>
      </trkpt>
      <trkpt lat="49.42217" lon="1.07442">
        <ele>15.2</ele>
        <time>2021-11-13T08:12:12Z</time>
      </trkpt>
      <trkpt lat="49.42214" lon="1.0744">
        <ele>15.3</ele>
        <time>2021-11-13T08:12:14Z</time>
      </trkpt>
      <trkpt lat="49.42211" lon="1.07438">
        <ele>15.4</ele>
        <time>2021-11-13T08:12:15Z</time>
      </trkpt>
      <trkpt lat="49.42207" lon="1.07436">
        <ele>15.6</ele>
        <time>2021-11-13T08:12:16Z</time>
      </trkpt>
      <trkpt lat="49.42204" lon="1.07435">
        <ele>15.7</ele>
        <time>2021-11-13T08:12:17Z</time>
      </trkpt>
      <trkpt lat="49.42201" lon="1.07433">
        <ele>15.8</ele>
        <time>2021-11-13T08:12:19Z</time>
      </trkpt>
      <trkpt lat="49.42196" lon="1.0743">
        <ele>15.9</ele>
        <time>2021-11-13T08:12:20Z</time>
      </trkpt>
      <trkpt lat="49.42193" lon="1.07429">
        <ele>16</ele>
        <time>2021-11-13T08:12:21Z</time>
      </trkpt>
      <trkpt lat="49.4219" lon="1.07427">
        <ele>16.1</ele>
        <time>2021-11-13T08:12:22Z</time>
      </trkpt>
      <trkpt lat="49.42186" lon="1.07426">
        <ele>16.3</ele>
        <time>2021-11-13T08:12:24Z</time>
      </trkpt>
      <trkpt lat="49.42183" lon="1.07425">
        <ele>16.4</ele>
        <time>2021-11-13T08:12:25Z</time>
      </trkpt>
      <trkpt lat="49.4218" lon="1.07423">
        <ele>16.5</ele>
        <time>2021-11-13T08:12:27Z</time>
      </trkpt>
      <trkpt lat="49.42179" lon="1.07423">
        <ele>16.5</ele>
        <time>2021-11-13T08:12:28Z</time>
      </trkpt>
      <trkpt lat="49.42178" lon="1.07422">
        <ele>16.5</ele>
        <time>2021-11-13T08:12:29Z</time>
      </trkpt>
      <trkpt lat="49.42176" lon="1.0742">
        <ele>16.6</ele>
        <time>2021-11-13T08:12:30Z</time>
      </trkpt>
      <trkpt lat="49.42174" lon="1.07418">
        <ele>16.7</ele>
        <time>2021-11-13T08:12:31Z</time>
      </trkpt>
      <trkpt lat="49.42172" lon="1.07418">
        <ele>16.7</ele>
        <time>2021-11-13T08:12:32Z</time>
      </trkpt>
      <trkpt lat="49.42169" lon="1.07415">
        <ele>16.8</ele>
        <time>2021-11-13T08:12:33Z</time>
      </trkpt>
      <trkpt lat="49.42168" lon="1.07414">
        <ele>16.9</ele>
        <time>2021-11-13T08:12:34Z</time>
      </trkpt>
      <trkpt lat="49.42163" lon="1.07412">
        <ele>17</ele>
        <time>2021-11-13T08:12:36Z</time>
      </trkpt>
      <trkpt lat="49.4216" lon="1.0741">
        <ele>17.2</ele>
        <time>2021-11-13T08:12:37Z</time>
      </trkpt>
      <trkpt lat="49.42157" lon="1.07409">
        <ele>17.3</ele>
        <time>2021-11-13T08:12:38Z</time>
      </trkpt>
      <trkpt lat="49.42152" lon="1.07407">
        <ele>17.4</ele>
        <time>2021-11-13T08:12:40Z</time>
      </trkpt>
      <trkpt lat="49.42149" lon="1.07406">
        <ele>17.5</ele>
        <time>2021-11-13T08:12:41Z</time>
      </trkpt>
      <trkpt lat="49.42145" lon="1.07405">
        <ele>17.7</ele>
        <time>2021-11-13T08:12:42Z</time>
      </trkpt>
      <trkpt lat="49.42142" lon="1.07404">
        <ele>17.8</ele>
        <time>2021-11-13T08:12:44Z</time>
      </trkpt>
      <trkpt lat="49.42138" lon="1.07402">
        <ele>17.9</ele>
        <time>2021-11-13T08:12:45Z</time>
      </trkpt>
      <trkpt lat="49.42134" lon="1.074">
        <ele>18.1</ele>
        <time>2021-11-13T08:12:46Z</time>
      </trkpt>
      <trkpt lat="49.42133" lon="1.07399">
        <ele>18.1</ele>
        <time>2021-11-13T08:12:47Z</time>
      </trkpt>
      <trkpt lat="49.42128" lon="1.07396">
        <ele>18.3</ele>
        <time>2021-11-13T08:12:49Z</time>
      </trkpt>
      <trkpt lat="49.42124" lon="1.07393">
        <ele>18.5</ele>
        <time>2021-11-13T08:12:50Z</time>
      </trkpt>
      <trkpt lat="49.42119" lon="1.0739">
        <ele>18.7</ele>
        <time>2021-11-13T08:12:51Z</time>
      </trkpt>
      <trkpt lat="49.42112" lon="1.07385">
        <ele>19</ele>
        <time>2021-11-13T08:12:53Z</time>
      </trkpt>
      <trkpt lat="49.42104" lon="1.07381">
        <ele>19.3</ele>
        <time>2021-11-13T08:12:55Z</time>
      </trkpt>
      <trkpt lat="49.42098" lon="1.0738">
        <ele>19.4</ele>
        <time>2021-11-13T08:12:57Z</time>
      </trkpt>
      <trkpt lat="49.42094" lon="1.07381">
        <ele>19.6</ele>
        <time>2021-11-13T08:12:59Z</time>
      </trkpt>
      <trkpt lat="49.42093" lon="1.07383">
        <ele>19.7</ele>
        <time>2021-11-13T08:13:00Z</time>
      </trkpt>
      <trkpt lat="49.42092" lon="1.07385">
        <ele>19.8</ele>
        <time>2021-11-13T08:13:01Z</time>
      </trkpt>
      <trkpt lat="49.42093" lon="1.07387">
        <ele>19.9</ele>
        <time>2021-11-13T08:13:02Z</time>
      </trkpt>
      <trkpt lat="49.42093" lon="1.07388">
        <ele>20</ele>
        <time>2021-11-13T08:13:03Z</time>
      </trkpt>
      <trkpt lat="49.42094" lon="1.07391">
        <ele>20.1</ele>
        <time>2021-11-13T08:13:05Z</time>
      </trkpt>
      <trkpt lat="49.42096" lon="1.07395">
        <ele>20.1</ele>
        <time>2021-11-13T08:13:06Z</time>
      </trkpt>
      <trkpt lat="49.42097" lon="1.07397">
        <ele>19.8</ele>
        <time>2021-11-13T08:13:07Z</time>
      </trkpt>
      <trkpt lat="49.42097" lon="1.07403">
        <ele>19.8</ele>
        <time>2021-11-13T08:13:08Z</time>
      </trkpt>
      <trkpt lat="49.42097" lon="1.07409">
        <ele>19.7</ele>
        <time>2021-11-13T08:13:09Z</time>
      </trkpt>
      <trkpt lat="49.42097" lon="1.07414">
        <ele>19.7</ele>
        <time>2021-11-13T08:13:10Z</time>
      </trkpt>
      <trkpt lat="49.42097" lon="1.0742">
        <ele>19.6</ele>
        <time>2021-11-13T08:13:11Z</time>
      </trkpt>
      <trkpt lat="49.42097" lon="1.07425">
        <ele>19.6</ele>
        <time>2021-11-13T08:13:12Z</time>
      </trkpt>
      <trkpt lat="49.42097" lon="1.07431">
        <ele>19.5</ele>
        <time>2021-11-13T08:13:14Z</time>
      </trkpt>
      <trkpt lat="49.42096" lon="1.07437">
        <ele>19.4</ele>
        <time>2021-11-13T08:13:15Z</time>
      </trkpt>
      <trkpt lat="49.42096" lon="1.07442">
        <ele>19.4</ele>
        <time>2021-11-13T08:13:16Z</time>
      </trkpt>
      <trkpt lat="49.42096" lon="1.07447">
        <ele>19.3</ele>
        <time>2021-11-13T08:13:17Z</time>
      </trkpt>
      <trkpt lat="49.42096" lon="1.07454">
        <ele>19.2</ele>
        <time>2021-11-13T08:13:18Z</time>
      </trkpt>
      <trkpt lat="49.42097" lon="1.0746">
        <ele>19.1</ele>
        <time>2021-11-13T08:13:19Z</time>
      </trkpt>
      <trkpt lat="49.42098" lon="1.07466">
        <ele>19</ele>
        <time>2021-11-13T08:13:21Z</time>
      </trkpt>
      <trkpt lat="49.42099" lon="1.07474">
        <ele>18.8</ele>
        <time>2021-11-13T08:13:22Z</time>
      </trkpt>
      <trkpt lat="49.421" lon="1.0748">
        <ele>18.7</ele>
        <time>2021-11-13T08:13:23Z</time>
      </trkpt>
      <trkpt lat="49.42101" lon="1.07486">
        <ele>18.5</ele>
        <time>2021-11-13T08:13:24Z</time>
      </trkpt>
      <trkpt lat="49.42104" lon="1.07491">
        <ele>18.2</ele>
        <time>2021-11-13T08:13:26Z</time>
      </trkpt>
      <trkpt lat="49.42105" lon="1.07494">
        <ele>18.1</ele>
        <time>2021-11-13T08:13:27Z</time>
      </trkpt>
      <trkpt lat="49.42107" lon="1.07498">
        <ele>17.9</ele>
        <time>2021-11-13T08:13:28Z</time>
      </trkpt>
      <trkpt lat="49.4211" lon="1.07503">
        <ele>17.6</ele>
        <time>2021-11-13T08:13:30Z</time>
      </trkpt>
      <trkpt lat="49.42112" lon="1.07507">
        <ele>17.4</ele>
        <time>2021-11-13T08:13:31Z</time>
      </trkpt>
      <trkpt lat="49.42115" lon="1.07513">
        <ele>17.2</ele>
        <time>2021-11-13T08:13:32Z</time>
      </trkpt>
      <trkpt lat="49.42118" lon="1.07518">
        <ele>17.1</ele>
        <time>2021-11-13T08:13:33Z</time>
      </trkpt>
      <trkpt lat="49.42121" lon="1.07524">
        <ele>17</ele>
        <time>2021-11-13T08:13:34Z</time>
      </trkpt>
      <trkpt lat="49.42123" lon="1.0753">
        <ele>16.8</ele>
        <time>2021-11-13T08:13:35Z</time>
      </trkpt>
      <trkpt lat="49.42124" lon="1.07537">
        <ele>16.7</ele>
        <time>2021-11-13T08:13:37Z</time>
      </trkpt>
      <trkpt lat="49.42126" lon="1.07542">
        <ele>16.6</ele>
        <time>2021-11-13T08:13:38Z</time>
      </trkpt>
      <trkpt lat="49.42127" lon="1.07548">
        <ele>16.5</ele>
        <time>2021-11-13T08:13:39Z</time>
      </trkpt>
      <trkpt lat="49.42127" lon="1.07554">
        <ele>16.4</ele>
        <time>2021-11-13T08:13:40Z</time>
      </trkpt>
      <trkpt lat="49.42127" lon="1.07559">
        <ele>16.3</ele>
        <time>2021-11-13T08:13:41Z</time>
      </trkpt>
      <trkpt lat="49.42125" lon="1.07565">
        <ele>16.3</ele>
        <time>2021-11-13T08:13:42Z</time>
      </trkpt>
      <trkpt lat="49.42124" lon="1.0757">
        <ele>16.2</ele>
        <time>2021-11-13T08:13:43Z</time>
      </trkpt>
      <trkpt lat="49.42121" lon="1.07577">
        <ele>16.2</ele>
        <time>2021-11-13T08:13:45Z</time>
      </trkpt>
      <trkpt lat="49.42118" lon="1.07582">
        <ele>16.1</ele>
        <time>2021-11-13T08:13:46Z</time>
      </trkpt>
      <trkpt lat="49.42114" lon="1.07588">
        <ele>16.1</ele>
        <time>2021-11-13T08:13:48Z</time>
      </trkpt>
      <trkpt lat="49.42109" lon="1.07593">
        <ele>16.1</ele>
        <time>2021-11-13T08:13:49Z</time>
      </trkpt>
      <trkpt lat="49.42106" lon="1.07596">
        <ele>16.2</ele>
        <time>2021-11-13T08:13:50Z</time>
      </trkpt>
      <trkpt lat="49.42103" lon="1.07599">
        <ele>16.3</ele>
        <time>2021-11-13T08:13:51Z</time>
      </trkpt>
      <trkpt lat="49.42099" lon="1.07602">
        <ele>16.4</ele>
        <time>2021-11-13T08:13:53Z</time>
      </trkpt>
      <trkpt lat="49.42097" lon="1.07605">
        <ele>16.4</ele>
        <time>2021-11-13T08:13:54Z</time>
      </trkpt>
      <trkpt lat="49.42094" lon="1.07607">
        <ele>16.5</ele>
        <time>2021-11-13T08:13:55Z</time>
      </trkpt>
      <trkpt lat="49.4209" lon="1.0761">
        <ele>16.5</ele>
        <time>2021-11-13T08:13:57Z</time>
      </trkpt>
      <trkpt lat="49.42087" lon="1.07611">
        <ele>16.6</ele>
        <time>2021-11-13T08:13:58Z</time>
      </trkpt>
      <trkpt lat="49.42083" lon="1.07613">
        <ele>16.6</ele>
        <time>2021-11-13T08:14:00Z</time>
      </trkpt>
      <trkpt lat="49.42079" lon="1.07614">
        <ele>16.7</ele>
        <time>2021-11-13T08:14:01Z</time>
      </trkpt>
      <trkpt lat="49.42076" lon="1.07615">
        <ele>16.7</ele>
        <time>2021-11-13T08:14:02Z</time>
      </trkpt>
      <trkpt lat="49.42072" lon="1.07615">
        <ele>16.8</ele>
        <time>2021-11-13T08:14:04Z</time>
      </trkpt>
      <trkpt lat="49.4207" lon="1.07615">
        <ele>16.8</ele>
        <time>2021-11-13T08:14:05Z</time>
      </trkpt>
      <trkpt lat="49.42066" lon="1.07617">
        <ele>16.9</ele>
        <time>2021-11-13T08:14:07Z</time>
      </trkpt>
      <trkpt lat="49.42062" lon="1.07619">
        <ele>16.9</ele>
        <time>2021-11-13T08:14:08Z</time>
      </trkpt>
      <trkpt lat="49.42059" lon="1.07621">
        <ele>16.9</ele>
        <time>2021-11-13T08:14:09Z</time>
      </trkpt>
      <trkpt lat="49.42056" lon="1.07625">
        <ele>16.9</ele>
        <time>2021-11-13T08:14:10Z</time>
      </trkpt>
      <trkpt lat="49.42053" lon="1.07629">
        <ele>17</ele>
        <time>2021-11-13T08:14:12Z</time>
      </trkpt>
      <trkpt lat="49.42049" lon="1.07634">
        <ele>17</ele>
        <time>2021-11-13T08:14:14Z</time>
      </trkpt>
      <trkpt lat="49.42047" lon="1.07638">
        <ele>17</ele>
        <time>2021-11-13T08:14:15Z</time>
      </trkpt>
      <trkpt lat="49.42043" lon="1.07643">
        <ele>17</ele>
        <time>2021-11-13T08:14:16Z</time>
      </trkpt>
      <trkpt lat="49.4204" lon="1.07649">
        <ele>17.1</ele>
        <time>2021-11-13T08:14:18Z</time>
      </trkpt>
      <trkpt lat="49.42038" lon="1.07652">
        <ele>17.2</ele>
        <time>2021-11-13T08:14:19Z</time>
      </trkpt>
      <trkpt lat="49.42036" lon="1.07658">
        <ele>17.2</ele>
        <time>2021-11-13T08:14:21Z</time>
      </trkpt>
      <trkpt lat="49.42033" lon="1.07663">
        <ele>17.3</ele>
        <time>2021-11-13T08:14:22Z</time>
      </trkpt>
      <trkpt lat="49.42031" lon="1.07667">
        <ele>17.3</ele>
        <time>2021-11-13T08:14:23Z</time>
      </trkpt>
      <trkpt lat="49.42029" lon="1.07673">
        <ele>17.2</ele>
        <time>2021-11-13T08:14:25Z</time>
      </trkpt>
      <trkpt lat="49.42027" lon="1.07679">
        <ele>17.1</ele>
        <time>2021-11-13T08:14:27Z</time>
      </trkpt>
      <trkpt lat="49.42025" lon="1.07686">
        <ele>17</ele>
        <time>2021-11-13T08:14:28Z</time>
      </trkpt>
      <trkpt lat="49.42024" lon="1.0769">
        <ele>16.9</ele>
        <time>2021-11-13T08:14:29Z</time>
      </trkpt>
      <trkpt lat="49.42023" lon="1.07697">
        <ele>16.8</ele>
        <time>2021-11-13T08:14:31Z</time>
      </trkpt>
      <trkpt lat="49.42022" lon="1.07702">
        <ele>16.7</ele>
        <time>2021-11-13T08:14:32Z</time>
      </trkpt>
      <trkpt lat="49.42021" lon="1.07708">
        <ele>16.6</ele>
        <time>2021-11-13T08:14:34Z</time>
      </trkpt>
      <trkpt lat="49.4202" lon="1.07716">
        <ele>16.5</ele>
        <time>2021-11-13T08:14:36Z</time>
      </trkpt>
      <trkpt lat="49.4202" lon="1.07721">
        <ele>16.5</ele>
        <time>2021-11-13T08:14:37Z</time>
      </trkpt>
      <trkpt lat="49.4202" lon="1.07726">
        <ele>16.4</ele>
        <time>2021-11-13T08:14:38Z</time>
      </trkpt>
      <trkpt lat="49.42019" lon="1.0773">
        <ele>16.4</ele>
        <time>2021-11-13T08:14:39Z</time>
      </trkpt>
      <trkpt lat="49.42019" lon="1.07736">
        <ele>16.4</ele>
        <time>2021-11-13T08:14:40Z</time>
      </trkpt>
      <trkpt lat="49.42019" lon="1.07741">
        <ele>16.3</ele>
        <time>2021-11-13T08:14:41Z</time>
      </trkpt>
      <trkpt lat="49.42019" lon="1.07748">
        <ele>16.3</ele>
        <time>2021-11-13T08:14:43Z</time>
      </trkpt>
      <trkpt lat="49.42019" lon="1.07753">
        <ele>16.3</ele>
        <time>2021-11-13T08:14:44Z</time>
      </trkpt>
      <trkpt lat="49.42019" lon="1.07761">
        <ele>16.3</ele>
        <time>2021-11-13T08:14:46Z</time>
      </trkpt>
      <trkpt lat="49.42019" lon="1.0777">
        <ele>16.2</ele>
        <time>2021-11-13T08:14:47Z</time>
      </trkpt>
      <trkpt lat="49.42019" lon="1.07777">
        <ele>16.2</ele>
        <time>2021-11-13T08:14:49Z</time>
      </trkpt>
      <trkpt lat="49.4202" lon="1.07782">
        <ele>16.1</ele>
        <time>2021-11-13T08:14:50Z</time>
      </trkpt>
      <trkpt lat="49.4202" lon="1.07787">
        <ele>16.1</ele>
        <time>2021-11-13T08:14:51Z</time>
      </trkpt>
      <trkpt lat="49.42019" lon="1.07793">
        <ele>16</ele>
        <time>2021-11-13T08:14:52Z</time>
      </trkpt>
      <trkpt lat="49.42019" lon="1.07798">
        <ele>16</ele>
        <time>2021-11-13T08:14:53Z</time>
      </trkpt>
      <trkpt lat="49.4202" lon="1.07802">
        <ele>15.9</ele>
        <time>2021-11-13T08:14:54Z</time>
      </trkpt>
      <trkpt lat="49.4202" lon="1.07805">
        <ele>15.8</ele>
        <time>2021-11-13T08:14:55Z</time>
      </trkpt>
      <trkpt lat="49.42022" lon="1.07809">
        <ele>15.8</ele>
        <time>2021-11-13T08:14:57Z</time>
      </trkpt>
      <trkpt lat="49.42023" lon="1.07812">
        <ele>15.7</ele>
        <time>2021-11-13T08:14:58Z</time>
      </trkpt>
      <trkpt lat="49.42025" lon="1.07816">
        <ele>15.6</ele>
        <time>2021-11-13T08:15:00Z</time>
      </trkpt>
      <trkpt lat="49.42026" lon="1.07819">
        <ele>15.6</ele>
        <time>2021-11-13T08:15:01Z</time>
      </trkpt>
      <trkpt lat="49.42029" lon="1.07824">
        <ele>15.5</ele>
        <time>2021-11-13T08:15:03Z</time>
      </trkpt>
      <trkpt lat="49.42032" lon="1.07829">
        <ele>15.4</ele>
        <time>2021-11-13T08:15:04Z</time>
      </trkpt>
      <trkpt lat="49.42034" lon="1.07831">
        <ele>15.4</ele>
        <time>2021-11-13T08:15:05Z</time>
      </trkpt>
      <trkpt lat="49.42037" lon="1.07835">
        <ele>15.2</ele>
        <time>2021-11-13T08:15:06Z</time>
      </trkpt>
      <trkpt lat="49.42039" lon="1.07838">
        <ele>15.2</ele>
        <time>2021-11-13T08:15:07Z</time>
      </trkpt>
      <trkpt lat="49.42042" lon="1.07842">
        <ele>15</ele>
        <time>2021-11-13T08:15:09Z</time>
      </trkpt>
      <trkpt lat="49.42044" lon="1.07844">
        <ele>15</ele>
        <time>2021-11-13T08:15:10Z</time>
      </trkpt>
      <trkpt lat="49.42047" lon="1.07847">
        <ele>14.9</ele>
        <time>2021-11-13T08:15:11Z</time>
      </trkpt>
      <trkpt lat="49.42052" lon="1.07852">
        <ele>14.7</ele>
        <time>2021-11-13T08:15:13Z</time>
      </trkpt>
      <trkpt lat="49.42055" lon="1.07855">
        <ele>14.6</ele>
        <time>2021-11-13T08:15:14Z</time>
      </trkpt>
      <trkpt lat="49.42058" lon="1.0786">
        <ele>14.5</ele>
        <time>2021-11-13T08:15:16Z</time>
      </trkpt>
      <trkpt lat="49.42061" lon="1.07862">
        <ele>14.4</ele>
        <time>2021-11-13T08:15:17Z</time>
      </trkpt>
      <trkpt lat="49.42064" lon="1.07865">
        <ele>14.3</ele>
        <time>2021-11-13T08:15:18Z</time>
      </trkpt>
      <trkpt lat="49.42068" lon="1.07868">
        <ele>14.2</ele>
        <time>2021-11-13T08:15:20Z</time>
      </trkpt>
      <trkpt lat="49.4207" lon="1.0787">
        <ele>14.2</ele>
        <time>2021-11-13T08:15:21Z</time>
      </trkpt>
      <trkpt lat="49.42075" lon="1.07874">
        <ele>14.1</ele>
        <time>2021-11-13T08:15:22Z</time>
      </trkpt>
      <trkpt lat="49.42078" lon="1.07877">
        <ele>14</ele>
        <time>2021-11-13T08:15:23Z</time>
      </trkpt>
      <trkpt lat="49.42083" lon="1.07881">
        <ele>13.9</ele>
        <time>2021-11-13T08:15:25Z</time>
      </trkpt>
      <trkpt lat="49.4209" lon="1.07885">
        <ele>13.7</ele>
        <time>2021-11-13T08:15:27Z</time>
      </trkpt>
      <trkpt lat="49.42094" lon="1.07888">
        <ele>13.6</ele>
        <time>2021-11-13T08:15:28Z</time>
      </trkpt>
      <trkpt lat="49.42101" lon="1.07892">
        <ele>13.4</ele>
        <time>2021-11-13T08:15:29Z</time>
      </trkpt>
      <trkpt lat="49.42105" lon="1.07895">
        <ele>13.3</ele>
        <time>2021-11-13T08:15:31Z</time>
      </trkpt>
      <trkpt lat="49.42109" lon="1.07897">
        <ele>13.2</ele>
        <time>2021-11-13T08:15:32Z</time>
      </trkpt>
      <trkpt lat="49.42112" lon="1.07899">
        <ele>13.2</ele>
        <time>2021-11-13T08:15:33Z</time>
      </trkpt>
      <trkpt lat="49.42115" lon="1.07902">
        <ele>13.1</ele>
        <time>2021-11-13T08:15:35Z</time>
      </trkpt>
      <trkpt lat="49.42119" lon="1.07904">
        <ele>13.1</ele>
        <time>2021-11-13T08:15:36Z</time>
      </trkpt>
      <trkpt lat="49.42121" lon="1.07907">
        <ele>13</ele>
        <time>2021-11-13T08:15:37Z</time>
      </trkpt>
      <trkpt lat="49.42125" lon="1.07909">
        <ele>12.9</ele>
        <time>2021-11-13T08:15:39Z</time>
      </trkpt>
      <trkpt lat="49.4213" lon="1.07913">
        <ele>12.9</ele>
        <time>2021-11-13T08:15:40Z</time>
      </trkpt>
      <trkpt lat="49.42133" lon="1.07916">
        <ele>12.9</ele>
        <time>2021-11-13T08:15:41Z</time>
      </trkpt>
      <trkpt lat="49.42138" lon="1.0792">
        <ele>12.8</ele>
        <time>2021-11-13T08:15:43Z</time>
      </trkpt>
      <trkpt lat="49.42141" lon="1.07923">
        <ele>12.8</ele>
        <time>2021-11-13T08:15:44Z</time>
      </trkpt>
      <trkpt lat="49.42145" lon="1.07927">
        <ele>12.7</ele>
        <time>2021-11-13T08:15:46Z</time>
      </trkpt>
      <trkpt lat="49.4215" lon="1.07931">
        <ele>12.7</ele>
        <time>2021-11-13T08:15:47Z</time>
      </trkpt>
      <trkpt lat="49.42153" lon="1.07933">
        <ele>12.6</ele>
        <time>2021-11-13T08:15:48Z</time>
      </trkpt>
      <trkpt lat="49.42156" lon="1.07935">
        <ele>12.6</ele>
        <time>2021-11-13T08:15:50Z</time>
      </trkpt>
      <trkpt lat="49.42159" lon="1.07936">
        <ele>12.3</ele>
        <time>2021-11-13T08:15:51Z</time>
      </trkpt>
      <trkpt lat="49.42163" lon="1.07934">
        <ele>12.3</ele>
        <time>2021-11-13T08:15:52Z</time>
      </trkpt>
      <trkpt lat="49.42166" lon="1.07931">
        <ele>12.3</ele>
        <time>2021-11-13T08:15:53Z</time>
      </trkpt>
      <trkpt lat="49.42167" lon="1.07927">
        <ele>12.3</ele>
        <time>2021-11-13T08:15:55Z</time>
      </trkpt>
      <trkpt lat="49.4217" lon="1.07921">
        <ele>12.3</ele>
        <time>2021-11-13T08:15:56Z</time>
      </trkpt>
      <trkpt lat="49.42172" lon="1.07918">
        <ele>12.3</ele>
        <time>2021-11-13T08:15:57Z</time>
      </trkpt>
      <trkpt lat="49.42174" lon="1.07915">
        <ele>12.3</ele>
        <time>2021-11-13T08:15:58Z</time>
      </trkpt>
      <trkpt lat="49.42176" lon="1.07911">
        <ele>12.3</ele>
        <time>2021-11-13T08:16:00Z</time>
      </trkpt>
      <trkpt lat="49.42176" lon="1.07909">
        <ele>12.3</ele>
        <time>2021-11-13T08:16:01Z</time>
      </trkpt>
      <trkpt lat="49.42177" lon="1.07905">
        <ele>12.3</ele>
        <time>2021-11-13T08:16:02Z</time>
      </trkpt>
      <trkpt lat="49.42177" lon="1.07904">
        <ele>12.3</ele>
        <time>2021-11-13T08:16:03Z</time>
      </trkpt>
      <trkpt lat="49.4218" lon="1.07898">
        <ele>12.3</ele>
        <time>2021-11-13T08:16:04Z</time>
      </trkpt>
      <trkpt lat="49.42181" lon="1.07896">
        <ele>12.3</ele>
        <time>2021-11-13T08:16:05Z</time>
      </trkpt>
      <trkpt lat="49.42184" lon="1.07888">
        <ele>12.4</ele>
        <time>2021-11-13T08:16:07Z</time>
      </trkpt>
      <trkpt lat="49.42186" lon="1.07884">
        <ele>12.4</ele>
        <time>2021-11-13T08:16:08Z</time>
      </trkpt>
      <trkpt lat="49.42188" lon="1.07877">
        <ele>12.4</ele>
        <time>2021-11-13T08:16:10Z</time>
      </trkpt>
      <trkpt lat="49.42188" lon="1.07873">
        <ele>12.5</ele>
        <time>2021-11-13T08:16:11Z</time>
      </trkpt>
      <trkpt lat="49.42186" lon="1.07866">
        <ele>12.5</ele>
        <time>2021-11-13T08:16:12Z</time>
      </trkpt>
      <trkpt lat="49.42185" lon="1.07863">
        <ele>12.5</ele>
        <time>2021-11-13T08:16:13Z</time>
      </trkpt>
      <trkpt lat="49.42183" lon="1.07859">
        <ele>12.5</ele>
        <time>2021-11-13T08:16:15Z</time>
      </trkpt>
      <trkpt lat="49.4218" lon="1.07857">
        <ele>12.6</ele>
        <time>2021-11-13T08:16:16Z</time>
      </trkpt>
      <trkpt lat="49.42177" lon="1.07855">
        <ele>12.6</ele>
        <time>2021-11-13T08:16:18Z</time>
      </trkpt>
      <trkpt lat="49.42173" lon="1.07856">
        <ele>12.6</ele>
        <time>2021-11-13T08:16:19Z</time>
      </trkpt>
      <trkpt lat="49.4217" lon="1.07855">
        <ele>12.6</ele>
        <time>2021-11-13T08:16:20Z</time>
      </trkpt>
      <trkpt lat="49.42167" lon="1.07854">
        <ele>12.6</ele>
        <time>2021-11-13T08:16:21Z</time>
      </trkpt>
      <trkpt lat="49.42164" lon="1.07851">
        <ele>12.7</ele>
        <time>2021-11-13T08:16:22Z</time>
      </trkpt>
      <trkpt lat="49.4216" lon="1.07849">
        <ele>12.7</ele>
        <time>2021-11-13T08:16:23Z</time>
      </trkpt>
      <trkpt lat="49.42157" lon="1.07846">
        <ele>12.6</ele>
        <time>2021-11-13T08:16:24Z</time>
      </trkpt>
      <trkpt lat="49.42155" lon="1.07841">
        <ele>12.6</ele>
        <time>2021-11-13T08:16:25Z</time>
      </trkpt>
      <trkpt lat="49.42154" lon="1.07837">
        <ele>12.5</ele>
        <time>2021-11-13T08:16:27Z</time>
      </trkpt>
      <trkpt lat="49.42154" lon="1.07831">
        <ele>12.4</ele>
        <time>2021-11-13T08:16:28Z</time>
      </trkpt>
      <trkpt lat="49.42154" lon="1.07825">
        <ele>12.4</ele>
        <time>2021-11-13T08:16:30Z</time>
      </trkpt>
      <trkpt lat="49.42155" lon="1.07821">
        <ele>12.4</ele>
        <time>2021-11-13T08:16:31Z</time>
      </trkpt>
      <trkpt lat="49.42157" lon="1.07815">
        <ele>12.3</ele>
        <time>2021-11-13T08:16:32Z</time>
      </trkpt>
      <trkpt lat="49.42158" lon="1.07813">
        <ele>12.3</ele>
        <time>2021-11-13T08:16:33Z</time>
      </trkpt>
      <trkpt lat="49.42159" lon="1.07808">
        <ele>12.3</ele>
        <time>2021-11-13T08:16:34Z</time>
      </trkpt>
      <trkpt lat="49.42161" lon="1.07803">
        <ele>12.3</ele>
        <time>2021-11-13T08:16:35Z</time>
      </trkpt>
      <trkpt lat="49.42164" lon="1.078">
        <ele>12.2</ele>
        <time>2021-11-13T08:16:36Z</time>
      </trkpt>
      <trkpt lat="49.42166" lon="1.07799">
        <ele>12.2</ele>
        <time>2021-11-13T08:16:37Z</time>
      </trkpt>
      <trkpt lat="49.42168" lon="1.07798">
        <ele>12.2</ele>
        <time>2021-11-13T08:16:39Z</time>
      </trkpt>
      <trkpt lat="49.4217" lon="1.07799">
        <ele>12.2</ele>
        <time>2021-11-13T08:16:40Z</time>
      </trkpt>
      <trkpt lat="49.42173" lon="1.078">
        <ele>12.2</ele>
        <time>2021-11-13T08:16:42Z</time>
      </trkpt>
      <trkpt lat="49.42177" lon="1.07801">
        <ele>12.2</ele>
        <time>2021-11-13T08:16:43Z</time>
      </trkpt>
      <trkpt lat="49.4218" lon="1.07803">
        <ele>12.2</ele>
        <time>2021-11-13T08:16:44Z</time>
      </trkpt>
      <trkpt lat="49.42186" lon="1.07805">
        <ele>12.2</ele>
        <time>2021-11-13T08:16:46Z</time>
      </trkpt>
      <trkpt lat="49.42188" lon="1.07805">
        <ele>12.2</ele>
        <time>2021-11-13T08:16:47Z</time>
      </trkpt>
      <trkpt lat="49.42192" lon="1.07806">
        <ele>12.2</ele>
        <time>2021-11-13T08:16:48Z</time>
      </trkpt>
      <trkpt lat="49.42195" lon="1.07806">
        <ele>12.1</ele>
        <time>2021-11-13T08:16:49Z</time>
      </trkpt>
      <trkpt lat="49.42198" lon="1.07806">
        <ele>12.1</ele>
        <time>2021-11-13T08:16:50Z</time>
      </trkpt>
      <trkpt lat="49.42201" lon="1.07806">
        <ele>12.1</ele>
        <time>2021-11-13T08:16:52Z</time>
      </trkpt>
      <trkpt lat="49.42206" lon="1.07805">
        <ele>12.1</ele>
        <time>2021-11-13T08:16:53Z</time>
      </trkpt>
      <trkpt lat="49.42208" lon="1.07805">
        <ele>12</ele>
        <time>2021-11-13T08:16:54Z</time>
      </trkpt>
      <trkpt lat="49.4221" lon="1.07804">
        <ele>12</ele>
        <time>2021-11-13T08:16:56Z</time>
      </trkpt>
      <trkpt lat="49.42213" lon="1.07804">
        <ele>12</ele>
        <time>2021-11-13T08:16:57Z</time>
      </trkpt>
      <trkpt lat="49.42214" lon="1.07804">
        <ele>11.9</ele>
        <time>2021-11-13T08:16:58Z</time>
      </trkpt>
      <trkpt lat="49.42217" lon="1.07805">
        <ele>11.9</ele>
        <time>2021-11-13T08:17:00Z</time>
      </trkpt>
      <trkpt lat="49.42218" lon="1.07805">
        <ele>11.9</ele>
        <time>2021-11-13T08:17:01Z</time>
      </trkpt>
      <trkpt lat="49.42221" lon="1.07806">
        <ele>11.8</ele>
        <time>2021-11-13T08:17:02Z</time>
      </trkpt>
      <trkpt lat="49.42226" lon="1.07807">
        <ele>11.8</ele>
        <time>2021-11-13T08:17:04Z</time>
      </trkpt>
      <trkpt lat="49.4223" lon="1.07808">
        <ele>11.7</ele>
        <time>2021-11-13T08:17:05Z</time>
      </trkpt>
      <trkpt lat="49.42239" lon="1.0781">
        <ele>11.6</ele>
        <time>2021-11-13T08:17:06Z</time>
      </trkpt>
      <trkpt lat="49.42243" lon="1.07811">
        <ele>11.5</ele>
        <time>2021-11-13T08:17:08Z</time>
      </trkpt>
      <trkpt lat="49.42247" lon="1.07812">
        <ele>11.5</ele>
        <time>2021-11-13T08:17:09Z</time>
      </trkpt>
      <trkpt lat="49.4225" lon="1.07812">
        <ele>11.5</ele>
        <time>2021-11-13T08:17:10Z</time>
      </trkpt>
      <trkpt lat="49.42254" lon="1.07812">
        <ele>11.5</ele>
        <time>2021-11-13T08:17:11Z</time>
      </trkpt>
      <trkpt lat="49.42256" lon="1.07811">
        <ele>11.4</ele>
        <time>2021-11-13T08:17:12Z</time>
      </trkpt>
      <trkpt lat="49.42258" lon="1.07809">
        <ele>11.4</ele>
        <time>2021-11-13T08:17:13Z</time>
      </trkpt>
      <trkpt lat="49.42261" lon="1.07805">
        <ele>11.4</ele>
        <time>2021-11-13T08:17:15Z</time>
      </trkpt>
      <trkpt lat="49.42263" lon="1.07801">
        <ele>11.3</ele>
        <time>2021-11-13T08:17:16Z</time>
      </trkpt>
      <trkpt lat="49.42264" lon="1.07796">
        <ele>11.3</ele>
        <time>2021-11-13T08:17:17Z</time>
      </trkpt>
      <trkpt lat="49.42265" lon="1.0779">
        <ele>11.3</ele>
        <time>2021-11-13T08:17:19Z</time>
      </trkpt>
      <trkpt lat="49.42267" lon="1.07783">
        <ele>11.4</ele>
        <time>2021-11-13T08:17:20Z</time>
      </trkpt>
      <trkpt lat="49.42268" lon="1.07778">
        <ele>11.4</ele>
        <time>2021-11-13T08:17:21Z</time>
      </trkpt>
      <trkpt lat="49.42269" lon="1.07771">
        <ele>11.4</ele>
        <time>2021-11-13T08:17:23Z</time>
      </trkpt>
      <trkpt lat="49.42271" lon="1.07765">
        <ele>11.4</ele>
        <time>2021-11-13T08:17:24Z</time>
      </trkpt>
      <trkpt lat="49.42272" lon="1.07762">
        <ele>11.5</ele>
        <time>2021-11-13T08:17:25Z</time>
      </trkpt>
      <trkpt lat="49.42274" lon="1.07757">
        <ele>11.6</ele>
        <time>2021-11-13T08:17:27Z</time>
      </trkpt>
      <trkpt lat="49.42276" lon="1.07753">
        <ele>11.6</ele>
        <time>2021-11-13T08:17:28Z</time>
      </trkpt>
      <trkpt lat="49.42278" lon="1.07748">
        <ele>11.6</ele>
        <time>2021-11-13T08:17:30Z</time>
      </trkpt>
      <trkpt lat="49.42279" lon="1.07746">
        <ele>11.7</ele>
        <time>2021-11-13T08:17:31Z</time>
      </trkpt>
      <trkpt lat="49.4228" lon="1.07743">
        <ele>11.7</ele>
        <time>2021-11-13T08:17:32Z</time>
      </trkpt>
      <trkpt lat="49.42281" lon="1.07739">
        <ele>11.8</ele>
        <time>2021-11-13T08:17:33Z</time>
      </trkpt>
      <trkpt lat="49.42282" lon="1.07737">
        <ele>11.9</ele>
        <time>2021-11-13T08:17:34Z</time>
      </trkpt>
      <trkpt lat="49.42283" lon="1.07733">
        <ele>12</ele>
        <time>2021-11-13T08:17:35Z</time>
      </trkpt>
      <trkpt lat="49.42284" lon="1.07729">
        <ele>12.1</ele>
        <time>2021-11-13T08:17:36Z</time>
      </trkpt>
      <trkpt lat="49.42284" lon="1.07723">
        <ele>12.3</ele>
        <time>2021-11-13T08:17:38Z</time>
      </trkpt>
      <trkpt lat="49.42284" lon="1.07716">
        <ele>12.6</ele>
        <time>2021-11-13T08:17:39Z</time>
      </trkpt>
      <trkpt lat="49.42284" lon="1.07711">
        <ele>12.8</ele>
        <time>2021-11-13T08:17:40Z</time>
      </trkpt>
      <trkpt lat="49.42284" lon="1.07706">
        <ele>13</ele>
        <time>2021-11-13T08:17:42Z</time>
      </trkpt>
      <trkpt lat="49.42283" lon="1.07699">
        <ele>13.3</ele>
        <time>2021-11-13T08:17:43Z</time>
      </trkpt>
      <trkpt lat="49.42282" lon="1.07693">
        <ele>13.4</ele>
        <time>2021-11-13T08:17:44Z</time>
      </trkpt>
      <trkpt lat="49.42282" lon="1.07688">
        <ele>13.5</ele>
        <time>2021-11-13T08:17:45Z</time>
      </trkpt>
      <trkpt lat="49.4228" lon="1.07679">
        <ele>13.6</ele>
        <time>2021-11-13T08:17:47Z</time>
      </trkpt>
      <trkpt lat="49.42279" lon="1.07673">
        <ele>13.6</ele>
        <time>2021-11-13T08:17:48Z</time>
      </trkpt>
      <trkpt lat="49.42278" lon="1.07665">
        <ele>13.6</ele>
        <time>2021-11-13T08:17:50Z</time>
      </trkpt>
      <trkpt lat="49.42276" lon="1.07658">
        <ele>13.5</ele>
        <time>2021-11-13T08:17:51Z</time>
      </trkpt>
      <trkpt lat="49.42274" lon="1.07651">
        <ele>13.3</ele>
        <time>2021-11-13T08:17:53Z</time>
      </trkpt>
      <trkpt lat="49.42272" lon="1.07647">
        <ele>13.1</ele>
        <time>2021-11-13T08:17:54Z</time>
      </trkpt>
      <trkpt lat="49.42269" lon="1.07643">
        <ele>12.9</ele>
        <time>2021-11-13T08:17:56Z</time>
      </trkpt>
      <trkpt lat="49.42265" lon="1.07639">
        <ele>12.5</ele>
        <time>2021-11-13T08:17:57Z</time>
      </trkpt>
      <trkpt lat="49.42262" lon="1.07635">
        <ele>12.3</ele>
        <time>2021-11-13T08:17:58Z</time>
      </trkpt>
      <trkpt lat="49.4226" lon="1.07631">
        <ele>12.1</ele>
        <time>2021-11-13T08:18:00Z</time>
      </trkpt>
      <trkpt lat="49.42257" lon="1.07624">
        <ele>12</ele>
        <time>2021-11-13T08:18:02Z</time>
      </trkpt>
      <trkpt lat="49.42255" lon="1.07621">
        <ele>12</ele>
        <time>2021-11-13T08:18:03Z</time>
      </trkpt>
      <trkpt lat="49.42254" lon="1.07617">
        <ele>12</ele>
        <time>2021-11-13T08:18:04Z</time>
      </trkpt>
      <trkpt lat="49.42253" lon="1.07613">
        <ele>12</ele>
        <time>2021-11-13T08:18:05Z</time>
      </trkpt>
      <trkpt lat="49.42251" lon="1.07606">
        <ele>12</ele>
        <time>2021-11-13T08:18:07Z</time>
      </trkpt>
      <trkpt lat="49.42249" lon="1.076">
        <ele>12</ele>
        <time>2021-11-13T08:18:09Z</time>
      </trkpt>
      <trkpt lat="49.42247" lon="1.07595">
        <ele>12</ele>
        <time>2021-11-13T08:18:10Z</time>
      </trkpt>
      <trkpt lat="49.42245" lon="1.07588">
        <ele>12.1</ele>
        <time>2021-11-13T08:18:12Z</time>
      </trkpt>
      <trkpt lat="49.42244" lon="1.07586">
        <ele>12.1</ele>
        <time>2021-11-13T08:18:13Z</time>
      </trkpt>
      <trkpt lat="49.42243" lon="1.07584">
        <ele>12.1</ele>
        <time>2021-11-13T08:18:14Z</time>
      </trkpt>
      <trkpt lat="49.42241" lon="1.0758">
        <ele>12.1</ele>
        <time>2021-11-13T08:18:15Z</time>
      </trkpt>
      <trkpt lat="49.42239" lon="1.07575">
        <ele>12.2</ele>
        <time>2021-11-13T08:18:16Z</time>
      </trkpt>
      <trkpt lat="49.42236" lon="1.07571">
        <ele>12.2</ele>
        <time>2021-11-13T08:18:17Z</time>
      </trkpt>
      <trkpt lat="49.42234" lon="1.07567">
        <ele>12.3</ele>
        <time>2021-11-13T08:18:18Z</time>
      </trkpt>
      <trkpt lat="49.42231" lon="1.07563">
        <ele>12.3</ele>
        <time>2021-11-13T08:18:20Z</time>
      </trkpt>
      <trkpt lat="49.42227" lon="1.07558">
        <ele>12.4</ele>
        <time>2021-11-13T08:18:21Z</time>
      </trkpt>
      <trkpt lat="49.42224" lon="1.07553">
        <ele>12.5</ele>
        <time>2021-11-13T08:18:23Z</time>
      </trkpt>
      <trkpt lat="49.4222" lon="1.07547">
        <ele>12.7</ele>
        <time>2021-11-13T08:18:24Z</time>
      </trkpt>
      <trkpt lat="49.42217" lon="1.07543">
        <ele>12.8</ele>
        <time>2021-11-13T08:18:25Z</time>
      </trkpt>
      <trkpt lat="49.42213" lon="1.0754">
        <ele>12.9</ele>
        <time>2021-11-13T08:18:27Z</time>
      </trkpt>
      <trkpt lat="49.42209" lon="1.07537">
        <ele>12.9</ele>
        <time>2021-11-13T08:18:28Z</time>
      </trkpt>
      <trkpt lat="49.42206" lon="1.07535">
        <ele>13</ele>
        <time>2021-11-13T08:18:29Z</time>
      </trkpt>
      <trkpt lat="49.42202" lon="1.07533">
        <ele>13.1</ele>
        <time>2021-11-13T08:18:31Z</time>
      </trkpt>
      <trkpt lat="49.422" lon="1.07531">
        <ele>13.2</ele>
        <time>2021-11-13T08:18:32Z</time>
      </trkpt>
      <trkpt lat="49.42195" lon="1.07529">
        <ele>13.3</ele>
        <time>2021-11-13T08:18:34Z</time>
      </trkpt>
      <trkpt lat="49.42191" lon="1.07526">
        <ele>13.4</ele>
        <time>2021-11-13T08:18:35Z</time>
      </trkpt>
      <trkpt lat="49.42188" lon="1.07523">
        <ele>13.4</ele>
        <time>2021-11-13T08:18:37Z</time>
      </trkpt>
      <trkpt lat="49.42187" lon="1.07521">
        <ele>13.5</ele>
        <time>2021-11-13T08:18:38Z</time>
      </trkpt>
      <trkpt lat="49.42186" lon="1.07515">
        <ele>13.6</ele>
        <time>2021-11-13T08:18:40Z</time>
      </trkpt>
      <trkpt lat="49.42186" lon="1.07508">
        <ele>13.7</ele>
        <time>2021-11-13T08:18:41Z</time>
      </trkpt>
      <trkpt lat="49.42186" lon="1.07502">
        <ele>13.8</ele>
        <time>2021-11-13T08:18:42Z</time>
      </trkpt>
      <trkpt lat="49.42187" lon="1.07496">
        <ele>13.9</ele>
        <time>2021-11-13T08:18:43Z</time>
      </trkpt>
      <trkpt lat="49.42187" lon="1.07491">
        <ele>14</ele>
        <time>2021-11-13T08:18:45Z</time>
      </trkpt>
      <trkpt lat="49.42186" lon="1.07487">
        <ele>14.1</ele>
        <time>2021-11-13T08:18:46Z</time>
      </trkpt>
      <trkpt lat="49.42185" lon="1.07481">
        <ele>14.2</ele>
        <time>2021-11-13T08:18:47Z</time>
      </trkpt>
      <trkpt lat="49.42183" lon="1.07476">
        <ele>14.3</ele>
        <time>2021-11-13T08:18:49Z</time>
      </trkpt>
      <trkpt lat="49.42183" lon="1.07474">
        <ele>14.4</ele>
        <time>2021-11-13T08:18:50Z</time>
      </trkpt>
      <trkpt lat="49.42182" lon="1.0747">
        <ele>14.5</ele>
        <time>2021-11-13T08:18:51Z</time>
      </trkpt>
      <trkpt lat="49.42181" lon="1.07468">
        <ele>14.6</ele>
        <time>2021-11-13T08:18:52Z</time>
      </trkpt>
      <trkpt lat="49.42179" lon="1.07466">
        <ele>14.7</ele>
        <time>2021-11-13T08:18:53Z</time>
      </trkpt>
      <trkpt lat="49.42177" lon="1.07463">
        <ele>14.9</ele>
        <time>2021-11-13T08:18:55Z</time>
      </trkpt>
      <trkpt lat="49.42176" lon="1.07458">
        <ele>15.1</ele>
        <time>2021-11-13T08:18:56Z</time>
      </trkpt>
      <trkpt lat="49.42174" lon="1.07453">
        <ele>15.3</ele>
        <time>2021-11-13T08:18:58Z</time>
      </trkpt>
      <trkpt lat="49.42171" lon="1.07449">
        <ele>15.5</ele>
        <time>2021-11-13T08:18:59Z</time>
      </trkpt>
      <trkpt lat="49.4217" lon="1.07448">
        <ele>15.6</ele>
        <time>2021-11-13T08:19:00Z</time>
      </trkpt>
      <trkpt lat="49.42166" lon="1.07443">
        <ele>15.9</ele>
        <time>2021-11-13T08:19:01Z</time>
      </trkpt>
      <trkpt lat="49.42164" lon="1.07441">
        <ele>16</ele>
        <time>2021-11-13T08:19:02Z</time>
      </trkpt>
      <trkpt lat="49.42161" lon="1.07438">
        <ele>16.3</ele>
        <time>2021-11-13T08:19:04Z</time>
      </trkpt>
      <trkpt lat="49.42158" lon="1.07434">
        <ele>16.5</ele>
        <time>2021-11-13T08:19:06Z</time>
      </trkpt>
      <trkpt lat="49.42155" lon="1.07431">
        <ele>16.7</ele>
        <time>2021-11-13T08:19:07Z</time>
      </trkpt>
      <trkpt lat="49.42152" lon="1.07429">
        <ele>16.9</ele>
        <time>2021-11-13T08:19:09Z</time>
      </trkpt>
      <trkpt lat="49.42148" lon="1.07427">
        <ele>17.1</ele>
        <time>2021-11-13T08:19:10Z</time>
      </trkpt>
      <trkpt lat="49.42144" lon="1.07425">
        <ele>17.4</ele>
        <time>2021-11-13T08:19:12Z</time>
      </trkpt>
      <trkpt lat="49.42138" lon="1.07424">
        <ele>17.7</ele>
        <time>2021-11-13T08:19:13Z</time>
      </trkpt>
      <trkpt lat="49.42134" lon="1.07422">
        <ele>17.9</ele>
        <time>2021-11-13T08:19:14Z</time>
      </trkpt>
      <trkpt lat="49.42129" lon="1.07418">
        <ele>18.2</ele>
        <time>2021-11-13T08:19:16Z</time>
      </trkpt>
      <trkpt lat="49.42125" lon="1.07416">
        <ele>18.4</ele>
        <time>2021-11-13T08:19:18Z</time>
      </trkpt>
      <trkpt lat="49.42121" lon="1.07414">
        <ele>18.6</ele>
        <time>2021-11-13T08:19:19Z</time>
      </trkpt>
      <trkpt lat="49.42119" lon="1.07413">
        <ele>18.7</ele>
        <time>2021-11-13T08:19:20Z</time>
      </trkpt>
      <trkpt lat="49.42116" lon="1.07413">
        <ele>18.9</ele>
        <time>2021-11-13T08:19:22Z</time>
      </trkpt>
      <trkpt lat="49.42112" lon="1.07415">
        <ele>19</ele>
        <time>2021-11-13T08:19:23Z</time>
      </trkpt>
      <trkpt lat="49.4211" lon="1.07418">
        <ele>19.7</ele>
        <time>2021-11-13T08:19:24Z</time>
      </trkpt>
      <trkpt lat="49.42107" lon="1.07421">
        <ele>19.6</ele>
        <time>2021-11-13T08:19:26Z</time>
      </trkpt>
      <trkpt lat="49.42105" lon="1.07424">
        <ele>19.6</ele>
        <time>2021-11-13T08:19:27Z</time>
      </trkpt>
      <trkpt lat="49.42103" lon="1.07428">
        <ele>19.6</ele>
        <time>2021-11-13T08:19:28Z</time>
      </trkpt>
      <trkpt lat="49.42102" lon="1.07432">
        <ele>19.5</ele>
        <time>2021-11-13T08:19:29Z</time>
      </trkpt>
      <trkpt lat="49.421" lon="1.07437">
        <ele>19.5</ele>
        <time>2021-11-13T08:19:30Z</time>
      </trkpt>
      <trkpt lat="49.42099" lon="1.07442">
        <ele>19.4</ele>
        <time>2021-11-13T08:19:31Z</time>
      </trkpt>
      <trkpt lat="49.42099" lon="1.07447">
        <ele>19.4</ele>
        <time>2021-11-13T08:19:32Z</time>
      </trkpt>
      <trkpt lat="49.42099" lon="1.07452">
        <ele>19.3</ele>
        <time>2021-11-13T08:19:34Z</time>
      </trkpt>
      <trkpt lat="49.42099" lon="1.07459">
        <ele>19.2</ele>
        <time>2021-11-13T08:19:35Z</time>
      </trkpt>
      <trkpt lat="49.42099" lon="1.07464">
        <ele>19.1</ele>
        <time>2021-11-13T08:19:36Z</time>
      </trkpt>
      <trkpt lat="49.42099" lon="1.0747">
        <ele>19</ele>
        <time>2021-11-13T08:19:38Z</time>
      </trkpt>
      <trkpt lat="49.42099" lon="1.07474">
        <ele>18.8</ele>
        <time>2021-11-13T08:19:39Z</time>
      </trkpt>
      <trkpt lat="49.421" lon="1.0748">
        <ele>18.7</ele>
        <time>2021-11-13T08:19:41Z</time>
      </trkpt>
      <trkpt lat="49.42101" lon="1.07484">
        <ele>18.6</ele>
        <time>2021-11-13T08:19:42Z</time>
      </trkpt>
      <trkpt lat="49.42102" lon="1.07489">
        <ele>18.4</ele>
        <time>2021-11-13T08:19:43Z</time>
      </trkpt>
      <trkpt lat="49.42104" lon="1.07496">
        <ele>18.1</ele>
        <time>2021-11-13T08:19:44Z</time>
      </trkpt>
      <trkpt lat="49.42106" lon="1.07501">
        <ele>17.9</ele>
        <time>2021-11-13T08:19:46Z</time>
      </trkpt>
      <trkpt lat="49.42109" lon="1.07506">
        <ele>17.7</ele>
        <time>2021-11-13T08:19:47Z</time>
      </trkpt>
      <trkpt lat="49.42111" lon="1.07511">
        <ele>17.4</ele>
        <time>2021-11-13T08:19:48Z</time>
      </trkpt>
      <trkpt lat="49.42113" lon="1.07517">
        <ele>17.1</ele>
        <time>2021-11-13T08:19:50Z</time>
      </trkpt>
      <trkpt lat="49.42114" lon="1.07522">
        <ele>17.1</ele>
        <time>2021-11-13T08:19:51Z</time>
      </trkpt>
      <trkpt lat="49.42115" lon="1.07526">
        <ele>17</ele>
        <time>2021-11-13T08:19:52Z</time>
      </trkpt>
      <trkpt lat="49.42116" lon="1.07531">
        <ele>16.9</ele>
        <time>2021-11-13T08:19:53Z</time>
      </trkpt>
      <trkpt lat="49.42117" lon="1.07536">
        <ele>16.7</ele>
        <time>2021-11-13T08:19:54Z</time>
      </trkpt>
      <trkpt lat="49.42117" lon="1.07542">
        <ele>16.6</ele>
        <time>2021-11-13T08:19:56Z</time>
      </trkpt>
      <trkpt lat="49.42117" lon="1.07548">
        <ele>16.5</ele>
        <time>2021-11-13T08:19:57Z</time>
      </trkpt>
      <trkpt lat="49.42118" lon="1.07554">
        <ele>16.4</ele>
        <time>2021-11-13T08:19:58Z</time>
      </trkpt>
      <trkpt lat="49.42117" lon="1.07561">
        <ele>16.3</ele>
        <time>2021-11-13T08:20:00Z</time>
      </trkpt>
      <trkpt lat="49.42116" lon="1.07568">
        <ele>16.2</ele>
        <time>2021-11-13T08:20:01Z</time>
      </trkpt>
      <trkpt lat="49.42115" lon="1.07573">
        <ele>16.2</ele>
        <time>2021-11-13T08:20:02Z</time>
      </trkpt>
      <trkpt lat="49.42114" lon="1.07578">
        <ele>16.2</ele>
        <time>2021-11-13T08:20:03Z</time>
      </trkpt>
      <trkpt lat="49.42113" lon="1.07582">
        <ele>16.1</ele>
        <time>2021-11-13T08:20:05Z</time>
      </trkpt>
      <trkpt lat="49.42111" lon="1.07588">
        <ele>16.1</ele>
        <time>2021-11-13T08:20:06Z</time>
      </trkpt>
      <trkpt lat="49.42108" lon="1.07592">
        <ele>16.1</ele>
        <time>2021-11-13T08:20:07Z</time>
      </trkpt>
      <trkpt lat="49.42104" lon="1.07596">
        <ele>16.2</ele>
        <time>2021-11-13T08:20:09Z</time>
      </trkpt>
      <trkpt lat="49.42102" lon="1.07598">
        <ele>16.3</ele>
        <time>2021-11-13T08:20:10Z</time>
      </trkpt>
      <trkpt lat="49.42101" lon="1.076">
        <ele>16.3</ele>
        <time>2021-11-13T08:20:11Z</time>
      </trkpt>
      <trkpt lat="49.42097" lon="1.07603">
        <ele>16.4</ele>
        <time>2021-11-13T08:20:12Z</time>
      </trkpt>
      <trkpt lat="49.42096" lon="1.07604">
        <ele>16.4</ele>
        <time>2021-11-13T08:20:13Z</time>
      </trkpt>
      <trkpt lat="49.42094" lon="1.07606">
        <ele>16.5</ele>
        <time>2021-11-13T08:20:14Z</time>
      </trkpt>
      <trkpt lat="49.4209" lon="1.07608">
        <ele>16.5</ele>
        <time>2021-11-13T08:20:16Z</time>
      </trkpt>
      <trkpt lat="49.42087" lon="1.07609">
        <ele>16.6</ele>
        <time>2021-11-13T08:20:17Z</time>
      </trkpt>
      <trkpt lat="49.42084" lon="1.0761">
        <ele>16.6</ele>
        <time>2021-11-13T08:20:18Z</time>
      </trkpt>
      <trkpt lat="49.42081" lon="1.07611">
        <ele>16.6</ele>
        <time>2021-11-13T08:20:19Z</time>
      </trkpt>
      <trkpt lat="49.42078" lon="1.07612">
        <ele>16.7</ele>
        <time>2021-11-13T08:20:21Z</time>
      </trkpt>
      <trkpt lat="49.42074" lon="1.07614">
        <ele>16.8</ele>
        <time>2021-11-13T08:20:22Z</time>
      </trkpt>
      <trkpt lat="49.42073" lon="1.07615">
        <ele>16.8</ele>
        <time>2021-11-13T08:20:23Z</time>
      </trkpt>
      <trkpt lat="49.4207" lon="1.07616">
        <ele>16.8</ele>
        <time>2021-11-13T08:20:24Z</time>
      </trkpt>
      <trkpt lat="49.42067" lon="1.07618">
        <ele>16.8</ele>
        <time>2021-11-13T08:20:25Z</time>
      </trkpt>
      <trkpt lat="49.42063" lon="1.07622">
        <ele>16.9</ele>
        <time>2021-11-13T08:20:27Z</time>
      </trkpt>
      <trkpt lat="49.42059" lon="1.07627">
        <ele>16.9</ele>
        <time>2021-11-13T08:20:28Z</time>
      </trkpt>
      <trkpt lat="49.42056" lon="1.0763">
        <ele>16.9</ele>
        <time>2021-11-13T08:20:29Z</time>
      </trkpt>
      <trkpt lat="49.42053" lon="1.07633">
        <ele>17</ele>
        <time>2021-11-13T08:20:30Z</time>
      </trkpt>
      <trkpt lat="49.42051" lon="1.07635">
        <ele>17</ele>
        <time>2021-11-13T08:20:32Z</time>
      </trkpt>
      <trkpt lat="49.42048" lon="1.07638">
        <ele>17</ele>
        <time>2021-11-13T08:20:33Z</time>
      </trkpt>
      <trkpt lat="49.42046" lon="1.07641">
        <ele>17</ele>
        <time>2021-11-13T08:20:34Z</time>
      </trkpt>
      <trkpt lat="49.42044" lon="1.07644">
        <ele>17</ele>
        <time>2021-11-13T08:20:35Z</time>
      </trkpt>
      <trkpt lat="49.42041" lon="1.07648">
        <ele>17.1</ele>
        <time>2021-11-13T08:20:36Z</time>
      </trkpt>
      <trkpt lat="49.42039" lon="1.07652">
        <ele>17.2</ele>
        <time>2021-11-13T08:20:37Z</time>
      </trkpt>
      <trkpt lat="49.42037" lon="1.07657">
        <ele>17.2</ele>
        <time>2021-11-13T08:20:38Z</time>
      </trkpt>
      <trkpt lat="49.42035" lon="1.07661">
        <ele>17.2</ele>
        <time>2021-11-13T08:20:39Z</time>
      </trkpt>
      <trkpt lat="49.42033" lon="1.07665">
        <ele>17.3</ele>
        <time>2021-11-13T08:20:40Z</time>
      </trkpt>
      <trkpt lat="49.4203" lon="1.0767">
        <ele>17.3</ele>
        <time>2021-11-13T08:20:42Z</time>
      </trkpt>
      <trkpt lat="49.42028" lon="1.07675">
        <ele>17.2</ele>
        <time>2021-11-13T08:20:44Z</time>
      </trkpt>
      <trkpt lat="49.42025" lon="1.07681">
        <ele>17.1</ele>
        <time>2021-11-13T08:20:45Z</time>
      </trkpt>
      <trkpt lat="49.42024" lon="1.07683">
        <ele>17.1</ele>
        <time>2021-11-13T08:20:46Z</time>
      </trkpt>
      <trkpt lat="49.42024" lon="1.07687">
        <ele>17</ele>
        <time>2021-11-13T08:20:47Z</time>
      </trkpt>
      <trkpt lat="49.42022" lon="1.07692">
        <ele>16.9</ele>
        <time>2021-11-13T08:20:49Z</time>
      </trkpt>
      <trkpt lat="49.42021" lon="1.07696">
        <ele>16.8</ele>
        <time>2021-11-13T08:20:50Z</time>
      </trkpt>
      <trkpt lat="49.42019" lon="1.07701">
        <ele>16.7</ele>
        <time>2021-11-13T08:20:52Z</time>
      </trkpt>
      <trkpt lat="49.42019" lon="1.07702">
        <ele>16.7</ele>
        <time>2021-11-13T08:20:53Z</time>
      </trkpt>
      <trkpt lat="49.42017" lon="1.07707">
        <ele>16.6</ele>
        <time>2021-11-13T08:20:54Z</time>
      </trkpt>
      <trkpt lat="49.42015" lon="1.07711">
        <ele>16.6</ele>
        <time>2021-11-13T08:20:55Z</time>
      </trkpt>
      <trkpt lat="49.42013" lon="1.07716">
        <ele>16.5</ele>
        <time>2021-11-13T08:20:57Z</time>
      </trkpt>
      <trkpt lat="49.4201" lon="1.07721">
        <ele>16.5</ele>
        <time>2021-11-13T08:20:58Z</time>
      </trkpt>
      <trkpt lat="49.42006" lon="1.07729">
        <ele>16.4</ele>
        <time>2021-11-13T08:20:59Z</time>
      </trkpt>
      <trkpt lat="49.42003" lon="1.07736">
        <ele>16.4</ele>
        <time>2021-11-13T08:21:00Z</time>
      </trkpt>
      <trkpt lat="49.42001" lon="1.07742">
        <ele>16.3</ele>
        <time>2021-11-13T08:21:02Z</time>
      </trkpt>
      <trkpt lat="49.42001" lon="1.0775">
        <ele>16.3</ele>
        <time>2021-11-13T08:21:03Z</time>
      </trkpt>
      <trkpt lat="49.42001" lon="1.07756">
        <ele>16.3</ele>
        <time>2021-11-13T08:21:04Z</time>
      </trkpt>
      <trkpt lat="49.41999" lon="1.0776">
        <ele>16.3</ele>
        <time>2021-11-13T08:21:05Z</time>
      </trkpt>
      <trkpt lat="49.41997" lon="1.07766">
        <ele>16.2</ele>
        <time>2021-11-13T08:21:07Z</time>
      </trkpt>
      <trkpt lat="49.41997" lon="1.07773">
        <ele>16.1</ele>
        <time>2021-11-13T08:21:08Z</time>
      </trkpt>
      <trkpt lat="49.41997" lon="1.07777">
        <ele>15.8</ele>
        <time>2021-11-13T08:21:10Z</time>
      </trkpt>
      <trkpt lat="49.41996" lon="1.07784">
        <ele>15.8</ele>
        <time>2021-11-13T08:21:11Z</time>
      </trkpt>
      <trkpt lat="49.41995" lon="1.07789">
        <ele>15.7</ele>
        <time>2021-11-13T08:21:12Z</time>
      </trkpt>
      <trkpt lat="49.41991" lon="1.07792">
        <ele>15.7</ele>
        <time>2021-11-13T08:21:14Z</time>
      </trkpt>
      <trkpt lat="49.41988" lon="1.07792">
        <ele>15.7</ele>
        <time>2021-11-13T08:21:15Z</time>
      </trkpt>
      <trkpt lat="49.41984" lon="1.0779">
        <ele>15.7</ele>
        <time>2021-11-13T08:21:17Z</time>
      </trkpt>
      <trkpt lat="49.41982" lon="1.07791">
        <ele>16.1</ele>
        <time>2021-11-13T08:21:18Z</time>
      </trkpt>
      <trkpt lat="49.41979" lon="1.0779">
        <ele>16.2</ele>
        <time>2021-11-13T08:21:19Z</time>
      </trkpt>
      <trkpt lat="49.41979" lon="1.07789">
        <ele>16.2</ele>
        <time>2021-11-13T08:21:21Z</time>
      </trkpt>
      <trkpt lat="49.41978" lon="1.07788">
        <ele>16.3</ele>
        <time>2021-11-13T08:21:22Z</time>
      </trkpt>
      <trkpt lat="49.41977" lon="1.07787">
        <ele>16.3</ele>
        <time>2021-11-13T08:21:24Z</time>
      </trkpt>
      <trkpt lat="49.41976" lon="1.07785">
        <ele>16.3</ele>
        <time>2021-11-13T08:21:25Z</time>
      </trkpt>
      <trkpt lat="49.41975" lon="1.07783">
        <ele>16.4</ele>
        <time>2021-11-13T08:21:26Z</time>
      </trkpt>
      <trkpt lat="49.41974" lon="1.07781">
        <ele>16.4</ele>
        <time>2021-11-13T08:21:28Z</time>
      </trkpt>
      <trkpt lat="49.41973" lon="1.07779">
        <ele>16.5</ele>
        <time>2021-11-13T08:21:29Z</time>
      </trkpt>
      <trkpt lat="49.41971" lon="1.07778">
        <ele>16.5</ele>
        <time>2021-11-13T08:21:30Z</time>
      </trkpt>
      <trkpt lat="49.41968" lon="1.07777">
        <ele>16.5</ele>
        <time>2021-11-13T08:21:31Z</time>
      </trkpt>
      <trkpt lat="49.41967" lon="1.07777">
        <ele>16.5</ele>
        <time>2021-11-13T08:21:32Z</time>
      </trkpt>
      <trkpt lat="49.41966" lon="1.07776">
        <ele>16.6</ele>
        <time>2021-11-13T08:21:33Z</time>
      </trkpt>
      <trkpt lat="49.41964" lon="1.07776">
        <ele>16.6</ele>
        <time>2021-11-13T08:21:34Z</time>
      </trkpt>
      <trkpt lat="49.41961" lon="1.07775">
        <ele>16.6</ele>
        <time>2021-11-13T08:21:36Z</time>
      </trkpt>
      <trkpt lat="49.4196" lon="1.07774">
        <ele>16.6</ele>
        <time>2021-11-13T08:21:37Z</time>
      </trkpt>
      <trkpt lat="49.41958" lon="1.07772">
        <ele>16.7</ele>
        <time>2021-11-13T08:21:39Z</time>
      </trkpt>
      <trkpt lat="49.41954" lon="1.0777">
        <ele>16.7</ele>
        <time>2021-11-13T08:21:40Z</time>
      </trkpt>
      <trkpt lat="49.41947" lon="1.07769">
        <ele>16.8</ele>
        <time>2021-11-13T08:21:42Z</time>
      </trkpt>
      <trkpt lat="49.41942" lon="1.07768">
        <ele>17.2</ele>
        <time>2021-11-13T08:21:43Z</time>
      </trkpt>
      <trkpt lat="49.41936" lon="1.07767">
        <ele>17.5</ele>
        <time>2021-11-13T08:21:45Z</time>
      </trkpt>
      <trkpt lat="49.41929" lon="1.07765">
        <ele>17.8</ele>
        <time>2021-11-13T08:21:46Z</time>
      </trkpt>
      <trkpt lat="49.41924" lon="1.07764">
        <ele>17.9</ele>
        <time>2021-11-13T08:21:47Z</time>
      </trkpt>
      <trkpt lat="49.41919" lon="1.07763">
        <ele>18.1</ele>
        <time>2021-11-13T08:21:49Z</time>
      </trkpt>
      <trkpt lat="49.41915" lon="1.07763">
        <ele>18.3</ele>
        <time>2021-11-13T08:21:50Z</time>
      </trkpt>
      <trkpt lat="49.41911" lon="1.07762">
        <ele>18.4</ele>
        <time>2021-11-13T08:21:51Z</time>
      </trkpt>
      <trkpt lat="49.41906" lon="1.0776">
        <ele>18.5</ele>
        <time>2021-11-13T08:21:53Z</time>
      </trkpt>
      <trkpt lat="49.41903" lon="1.07759">
        <ele>18.6</ele>
        <time>2021-11-13T08:21:54Z</time>
      </trkpt>
      <trkpt lat="49.419" lon="1.07757">
        <ele>18.7</ele>
        <time>2021-11-13T08:21:55Z</time>
      </trkpt>
      <trkpt lat="49.41897" lon="1.07755">
        <ele>18.8</ele>
        <time>2021-11-13T08:21:57Z</time>
      </trkpt>
      <trkpt lat="49.41894" lon="1.07753">
        <ele>18.9</ele>
        <time>2021-11-13T08:21:58Z</time>
      </trkpt>
      <trkpt lat="49.41891" lon="1.07751">
        <ele>19</ele>
        <time>2021-11-13T08:21:59Z</time>
      </trkpt>
      <trkpt lat="49.41888" lon="1.07748">
        <ele>19.2</ele>
        <time>2021-11-13T08:22:00Z</time>
      </trkpt>
      <trkpt lat="49.41887" lon="1.07747">
        <ele>19.2</ele>
        <time>2021-11-13T08:22:01Z</time>
      </trkpt>
      <trkpt lat="49.41884" lon="1.07745">
        <ele>19.3</ele>
        <time>2021-11-13T08:22:02Z</time>
      </trkpt>
      <trkpt lat="49.41881" lon="1.07742">
        <ele>19.4</ele>
        <time>2021-11-13T08:22:04Z</time>
      </trkpt>
      <trkpt lat="49.41877" lon="1.07738">
        <ele>19.6</ele>
        <time>2021-11-13T08:22:05Z</time>
      </trkpt>
      <trkpt lat="49.41874" lon="1.07736">
        <ele>19.8</ele>
        <time>2021-11-13T08:22:07Z</time>
      </trkpt>
      <trkpt lat="49.4187" lon="1.07733">
        <ele>19.9</ele>
        <time>2021-11-13T08:22:08Z</time>
      </trkpt>
      <trkpt lat="49.41867" lon="1.07731">
        <ele>20.1</ele>
        <time>2021-11-13T08:22:09Z</time>
      </trkpt>
      <trkpt lat="49.41864" lon="1.07729">
        <ele>20.2</ele>
        <time>2021-11-13T08:22:11Z</time>
      </trkpt>
      <trkpt lat="49.41861" lon="1.07727">
        <ele>20.4</ele>
        <time>2021-11-13T08:22:12Z</time>
      </trkpt>
      <trkpt lat="49.41857" lon="1.07724">
        <ele>20.6</ele>
        <time>2021-11-13T08:22:14Z</time>
      </trkpt>
      <trkpt lat="49.41854" lon="1.07721">
        <ele>20.7</ele>
        <time>2021-11-13T08:22:15Z</time>
      </trkpt>
      <trkpt lat="49.41852" lon="1.07719">
        <ele>20.9</ele>
        <time>2021-11-13T08:22:16Z</time>
      </trkpt>
      <trkpt lat="49.41849" lon="1.07716">
        <ele>21</ele>
        <time>2021-11-13T08:22:18Z</time>
      </trkpt>
      <trkpt lat="49.41846" lon="1.07713">
        <ele>21.2</ele>
        <time>2021-11-13T08:22:19Z</time>
      </trkpt>
      <trkpt lat="49.41843" lon="1.07711">
        <ele>21.3</ele>
        <time>2021-11-13T08:22:21Z</time>
      </trkpt>
      <trkpt lat="49.4184" lon="1.07708">
        <ele>21.5</ele>
        <time>2021-11-13T08:22:22Z</time>
      </trkpt>
      <trkpt lat="49.41838" lon="1.07705">
        <ele>21.6</ele>
        <time>2021-11-13T08:22:23Z</time>
      </trkpt>
      <trkpt lat="49.41835" lon="1.07703">
        <ele>21.7</ele>
        <time>2021-11-13T08:22:25Z</time>
      </trkpt>
      <trkpt lat="49.41832" lon="1.077">
        <ele>21.9</ele>
        <time>2021-11-13T08:22:26Z</time>
      </trkpt>
      <trkpt lat="49.41829" lon="1.07697">
        <ele>22</ele>
        <time>2021-11-13T08:22:27Z</time>
      </trkpt>
      <trkpt lat="49.41826" lon="1.07694">
        <ele>22.2</ele>
        <time>2021-11-13T08:22:28Z</time>
      </trkpt>
      <trkpt lat="49.41824" lon="1.07692">
        <ele>22.3</ele>
        <time>2021-11-13T08:22:30Z</time>
      </trkpt>
      <trkpt lat="49.4182" lon="1.07689">
        <ele>22.5</ele>
        <time>2021-11-13T08:22:31Z</time>
      </trkpt>
      <trkpt lat="49.41817" lon="1.07687">
        <ele>22.6</ele>
        <time>2021-11-13T08:22:32Z</time>
      </trkpt>
      <trkpt lat="49.41813" lon="1.07685">
        <ele>22.8</ele>
        <time>2021-11-13T08:22:34Z</time>
      </trkpt>
      <trkpt lat="49.4181" lon="1.07683">
        <ele>23</ele>
        <time>2021-11-13T08:22:35Z</time>
      </trkpt>
      <trkpt lat="49.41807" lon="1.07681">
        <ele>23.1</ele>
        <time>2021-11-13T08:22:36Z</time>
      </trkpt>
      <trkpt lat="49.41803" lon="1.07678">
        <ele>23.3</ele>
        <time>2021-11-13T08:22:38Z</time>
      </trkpt>
      <trkpt lat="49.418" lon="1.07676">
        <ele>23.5</ele>
        <time>2021-11-13T08:22:39Z</time>
      </trkpt>
      <trkpt lat="49.41798" lon="1.07674">
        <ele>23.6</ele>
        <time>2021-11-13T08:22:40Z</time>
      </trkpt>
      <trkpt lat="49.41794" lon="1.07671">
        <ele>23.8</ele>
        <time>2021-11-13T08:22:42Z</time>
      </trkpt>
      <trkpt lat="49.4179" lon="1.07668">
        <ele>24</ele>
        <time>2021-11-13T08:22:43Z</time>
      </trkpt>
      <trkpt lat="49.41788" lon="1.07666">
        <ele>24.1</ele>
        <time>2021-11-13T08:22:44Z</time>
      </trkpt>
      <trkpt lat="49.41785" lon="1.07664">
        <ele>24.2</ele>
        <time>2021-11-13T08:22:45Z</time>
      </trkpt>
      <trkpt lat="49.41782" lon="1.07661">
        <ele>24.3</ele>
        <time>2021-11-13T08:22:47Z</time>
      </trkpt>
      <trkpt lat="49.41778" lon="1.07659">
        <ele>24.5</ele>
        <time>2021-11-13T08:22:48Z</time>
      </trkpt>
      <trkpt lat="49.41775" lon="1.07659">
        <ele>24.6</ele>
        <time>2021-11-13T08:22:49Z</time>
      </trkpt>
      <trkpt lat="49.41772" lon="1.07657">
        <ele>24.8</ele>
        <time>2021-11-13T08:22:50Z</time>
      </trkpt>
      <trkpt lat="49.41768" lon="1.07654">
        <ele>24.9</ele>
        <time>2021-11-13T08:22:52Z</time>
      </trkpt>
      <trkpt lat="49.41764" lon="1.07652">
        <ele>25.1</ele>
        <time>2021-11-13T08:22:54Z</time>
      </trkpt>
      <trkpt lat="49.41761" lon="1.0765">
        <ele>25.2</ele>
        <time>2021-11-13T08:22:55Z</time>
      </trkpt>
      <trkpt lat="49.41757" lon="1.07648">
        <ele>25.4</ele>
        <time>2021-11-13T08:22:56Z</time>
      </trkpt>
      <trkpt lat="49.41754" lon="1.07646">
        <ele>25.5</ele>
        <time>2021-11-13T08:22:57Z</time>
      </trkpt>
      <trkpt lat="49.41752" lon="1.07644">
        <ele>25.7</ele>
        <time>2021-11-13T08:22:59Z</time>
      </trkpt>
      <trkpt lat="49.41748" lon="1.07641">
        <ele>25.8</ele>
        <time>2021-11-13T08:23:00Z</time>
      </trkpt>
      <trkpt lat="49.41745" lon="1.07639">
        <ele>25.9</ele>
        <time>2021-11-13T08:23:01Z</time>
      </trkpt>
      <trkpt lat="49.41742" lon="1.07638">
        <ele>26</ele>
        <time>2021-11-13T08:23:02Z</time>
      </trkpt>
      <trkpt lat="49.41739" lon="1.07635">
        <ele>26.2</ele>
        <time>2021-11-13T08:23:04Z</time>
      </trkpt>
      <trkpt lat="49.41736" lon="1.07632">
        <ele>26.3</ele>
        <time>2021-11-13T08:23:05Z</time>
      </trkpt>
      <trkpt lat="49.41733" lon="1.07629">
        <ele>26.5</ele>
        <time>2021-11-13T08:23:07Z</time>
      </trkpt>
      <trkpt lat="49.41729" lon="1.07625">
        <ele>26.6</ele>
        <time>2021-11-13T08:23:08Z</time>
      </trkpt>
      <trkpt lat="49.41726" lon="1.07623">
        <ele>26.7</ele>
        <time>2021-11-13T08:23:09Z</time>
      </trkpt>
      <trkpt lat="49.41723" lon="1.07619">
        <ele>26.8</ele>
        <time>2021-11-13T08:23:11Z</time>
      </trkpt>
      <trkpt lat="49.41721" lon="1.07617">
        <ele>26.9</ele>
        <time>2021-11-13T08:23:12Z</time>
      </trkpt>
      <trkpt lat="49.41718" lon="1.07616">
        <ele>27</ele>
        <time>2021-11-13T08:23:13Z</time>
      </trkpt>
      <trkpt lat="49.41715" lon="1.07614">
        <ele>27.1</ele>
        <time>2021-11-13T08:23:14Z</time>
      </trkpt>
      <trkpt lat="49.41712" lon="1.07613">
        <ele>27.2</ele>
        <time>2021-11-13T08:23:15Z</time>
      </trkpt>
      <trkpt lat="49.41709" lon="1.07611">
        <ele>27.3</ele>
        <time>2021-11-13T08:23:16Z</time>
      </trkpt>
      <trkpt lat="49.41707" lon="1.0761">
        <ele>27.3</ele>
        <time>2021-11-13T08:23:17Z</time>
      </trkpt>
      <trkpt lat="49.41706" lon="1.07608">
        <ele>27.3</ele>
        <time>2021-11-13T08:23:18Z</time>
      </trkpt>
      <trkpt lat="49.41705" lon="1.07607">
        <ele>27.4</ele>
        <time>2021-11-13T08:23:20Z</time>
      </trkpt>
      <trkpt lat="49.41702" lon="1.07606">
        <ele>27.4</ele>
        <time>2021-11-13T08:23:21Z</time>
      </trkpt>
      <trkpt lat="49.417" lon="1.07606">
        <ele>27.5</ele>
        <time>2021-11-13T08:23:22Z</time>
      </trkpt>
      <trkpt lat="49.41698" lon="1.07605">
        <ele>27.5</ele>
        <time>2021-11-13T08:23:24Z</time>
      </trkpt>
      <trkpt lat="49.41696" lon="1.07603">
        <ele>27.6</ele>
        <time>2021-11-13T08:23:25Z</time>
      </trkpt>
      <trkpt lat="49.41692" lon="1.07601">
        <ele>27.7</ele>
        <time>2021-11-13T08:23:27Z</time>
      </trkpt>
      <trkpt lat="49.41688" lon="1.07599">
        <ele>27.8</ele>
        <time>2021-11-13T08:23:28Z</time>
      </trkpt>
      <trkpt lat="49.41685" lon="1.07595">
        <ele>27.9</ele>
        <time>2021-11-13T08:23:29Z</time>
      </trkpt>
      <trkpt lat="49.41682" lon="1.07593">
        <ele>27.9</ele>
        <time>2021-11-13T08:23:30Z</time>
      </trkpt>
      <trkpt lat="49.41679" lon="1.0759">
        <ele>28</ele>
        <time>2021-11-13T08:23:31Z</time>
      </trkpt>
      <trkpt lat="49.41676" lon="1.07588">
        <ele>28.1</ele>
        <time>2021-11-13T08:23:32Z</time>
      </trkpt>
      <trkpt lat="49.41673" lon="1.07585">
        <ele>28.1</ele>
        <time>2021-11-13T08:23:33Z</time>
      </trkpt>
      <trkpt lat="49.41671" lon="1.07583">
        <ele>28.2</ele>
        <time>2021-11-13T08:23:34Z</time>
      </trkpt>
      <trkpt lat="49.41668" lon="1.07582">
        <ele>28.2</ele>
        <time>2021-11-13T08:23:35Z</time>
      </trkpt>
      <trkpt lat="49.41666" lon="1.07579">
        <ele>28.3</ele>
        <time>2021-11-13T08:23:36Z</time>
      </trkpt>
      <trkpt lat="49.41663" lon="1.07575">
        <ele>28.3</ele>
        <time>2021-11-13T08:23:38Z</time>
      </trkpt>
      <trkpt lat="49.41661" lon="1.07573">
        <ele>28.4</ele>
        <time>2021-11-13T08:23:39Z</time>
      </trkpt>
      <trkpt lat="49.41657" lon="1.07569">
        <ele>28.4</ele>
        <time>2021-11-13T08:23:41Z</time>
      </trkpt>
      <trkpt lat="49.4165" lon="1.07566">
        <ele>28.6</ele>
        <time>2021-11-13T08:23:42Z</time>
      </trkpt>
      <trkpt lat="49.41646" lon="1.07564">
        <ele>28.6</ele>
        <time>2021-11-13T08:23:43Z</time>
      </trkpt>
      <trkpt lat="49.41642" lon="1.07561">
        <ele>28.7</ele>
        <time>2021-11-13T08:23:44Z</time>
      </trkpt>
      <trkpt lat="49.41639" lon="1.07559">
        <ele>28.7</ele>
        <time>2021-11-13T08:23:46Z</time>
      </trkpt>
      <trkpt lat="49.41634" lon="1.07556">
        <ele>28.8</ele>
        <time>2021-11-13T08:23:47Z</time>
      </trkpt>
      <trkpt lat="49.4163" lon="1.07557">
        <ele>28.9</ele>
        <time>2021-11-13T08:23:48Z</time>
      </trkpt>
      <trkpt lat="49.41627" lon="1.07557">
        <ele>28.9</ele>
        <time>2021-11-13T08:23:49Z</time>
      </trkpt>
      <trkpt lat="49.41624" lon="1.07556">
        <ele>28.9</ele>
        <time>2021-11-13T08:23:51Z</time>
      </trkpt>
      <trkpt lat="49.4162" lon="1.07553">
        <ele>29</ele>
        <time>2021-11-13T08:23:52Z</time>
      </trkpt>
      <trkpt lat="49.41616" lon="1.0755">
        <ele>29</ele>
        <time>2021-11-13T08:23:54Z</time>
      </trkpt>
      <trkpt lat="49.41614" lon="1.07546">
        <ele>29.1</ele>
        <time>2021-11-13T08:23:55Z</time>
      </trkpt>
      <trkpt lat="49.41611" lon="1.07543">
        <ele>29.1</ele>
        <time>2021-11-13T08:23:56Z</time>
      </trkpt>
      <trkpt lat="49.41609" lon="1.07541">
        <ele>29.2</ele>
        <time>2021-11-13T08:23:57Z</time>
      </trkpt>
      <trkpt lat="49.41606" lon="1.07539">
        <ele>29.2</ele>
        <time>2021-11-13T08:23:59Z</time>
      </trkpt>
      <trkpt lat="49.41603" lon="1.07537">
        <ele>29.2</ele>
        <time>2021-11-13T08:24:00Z</time>
      </trkpt>
      <trkpt lat="49.416" lon="1.07535">
        <ele>29.3</ele>
        <time>2021-11-13T08:24:01Z</time>
      </trkpt>
      <trkpt lat="49.41597" lon="1.07533">
        <ele>29.3</ele>
        <time>2021-11-13T08:24:02Z</time>
      </trkpt>
      <trkpt lat="49.41594" lon="1.0753">
        <ele>29.3</ele>
        <time>2021-11-13T08:24:04Z</time>
      </trkpt>
      <trkpt lat="49.41591" lon="1.07527">
        <ele>29.4</ele>
        <time>2021-11-13T08:24:05Z</time>
      </trkpt>
      <trkpt lat="49.41588" lon="1.07526">
        <ele>29.4</ele>
        <time>2021-11-13T08:24:06Z</time>
      </trkpt>
      <trkpt lat="49.41585" lon="1.07523">
        <ele>29.4</ele>
        <time>2021-11-13T08:24:08Z</time>
      </trkpt>
      <trkpt lat="49.41581" lon="1.07521">
        <ele>29.4</ele>
        <time>2021-11-13T08:24:09Z</time>
      </trkpt>
      <trkpt lat="49.41579" lon="1.0752">
        <ele>29.5</ele>
        <time>2021-11-13T08:24:10Z</time>
      </trkpt>
      <trkpt lat="49.41575" lon="1.07518">
        <ele>29.5</ele>
        <time>2021-11-13T08:24:11Z</time>
      </trkpt>
      <trkpt lat="49.41573" lon="1.07515">
        <ele>29.5</ele>
        <time>2021-11-13T08:24:12Z</time>
      </trkpt>
      <trkpt lat="49.41569" lon="1.07512">
        <ele>29.6</ele>
        <time>2021-11-13T08:24:14Z</time>
      </trkpt>
      <trkpt lat="49.41566" lon="1.0751">
        <ele>29.6</ele>
        <time>2021-11-13T08:24:15Z</time>
      </trkpt>
      <trkpt lat="49.41561" lon="1.07508">
        <ele>29.6</ele>
        <time>2021-11-13T08:24:17Z</time>
      </trkpt>
      <trkpt lat="49.41557" lon="1.07506">
        <ele>29.7</ele>
        <time>2021-11-13T08:24:18Z</time>
      </trkpt>
      <trkpt lat="49.41555" lon="1.07504">
        <ele>29.7</ele>
        <time>2021-11-13T08:24:19Z</time>
      </trkpt>
      <trkpt lat="49.41552" lon="1.07501">
        <ele>29.8</ele>
        <time>2021-11-13T08:24:20Z</time>
      </trkpt>
      <trkpt lat="49.41549" lon="1.07499">
        <ele>29.8</ele>
        <time>2021-11-13T08:24:22Z</time>
      </trkpt>
      <trkpt lat="49.41545" lon="1.07497">
        <ele>29.9</ele>
        <time>2021-11-13T08:24:23Z</time>
      </trkpt>
      <trkpt lat="49.41543" lon="1.07495">
        <ele>29.9</ele>
        <time>2021-11-13T08:24:24Z</time>
      </trkpt>
      <trkpt lat="49.41539" lon="1.07492">
        <ele>29.9</ele>
        <time>2021-11-13T08:24:26Z</time>
      </trkpt>
      <trkpt lat="49.41536" lon="1.07489">
        <ele>30</ele>
        <time>2021-11-13T08:24:27Z</time>
      </trkpt>
      <trkpt lat="49.41533" lon="1.07487">
        <ele>30</ele>
        <time>2021-11-13T08:24:28Z</time>
      </trkpt>
      <trkpt lat="49.4153" lon="1.07483">
        <ele>30.1</ele>
        <time>2021-11-13T08:24:30Z</time>
      </trkpt>
      <trkpt lat="49.41527" lon="1.07479">
        <ele>30.1</ele>
        <time>2021-11-13T08:24:31Z</time>
      </trkpt>
      <trkpt lat="49.41524" lon="1.07477">
        <ele>30.2</ele>
        <time>2021-11-13T08:24:32Z</time>
      </trkpt>
      <trkpt lat="49.41522" lon="1.07474">
        <ele>30.2</ele>
        <time>2021-11-13T08:24:34Z</time>
      </trkpt>
      <trkpt lat="49.4152" lon="1.07472">
        <ele>30.2</ele>
        <time>2021-11-13T08:24:35Z</time>
      </trkpt>
      <trkpt lat="49.41517" lon="1.0747">
        <ele>30.3</ele>
        <time>2021-11-13T08:24:37Z</time>
      </trkpt>
      <trkpt lat="49.41514" lon="1.07468">
        <ele>30.3</ele>
        <time>2021-11-13T08:24:38Z</time>
      </trkpt>
      <trkpt lat="49.41513" lon="1.07468">
        <ele>30.3</ele>
        <time>2021-11-13T08:24:39Z</time>
      </trkpt>
      <trkpt lat="49.4151" lon="1.07466">
        <ele>30.3</ele>
        <time>2021-11-13T08:24:40Z</time>
      </trkpt>
      <trkpt lat="49.41507" lon="1.07466">
        <ele>30.3</ele>
        <time>2021-11-13T08:24:41Z</time>
      </trkpt>
      <trkpt lat="49.41505" lon="1.07464">
        <ele>30.4</ele>
        <time>2021-11-13T08:24:43Z</time>
      </trkpt>
      <trkpt lat="49.41502" lon="1.07462">
        <ele>30.4</ele>
        <time>2021-11-13T08:24:44Z</time>
      </trkpt>
      <trkpt lat="49.41498" lon="1.0746">
        <ele>30.4</ele>
        <time>2021-11-13T08:24:46Z</time>
      </trkpt>
      <trkpt lat="49.41495" lon="1.07457">
        <ele>30.5</ele>
        <time>2021-11-13T08:24:47Z</time>
      </trkpt>
      <trkpt lat="49.41495" lon="1.07457">
        <ele>30.5</ele>
        <time>2021-11-13T08:24:48Z</time>
      </trkpt>
      <trkpt lat="49.41492" lon="1.07454">
        <ele>30.5</ele>
        <time>2021-11-13T08:24:49Z</time>
      </trkpt>
      <trkpt lat="49.41491" lon="1.07454">
        <ele>30.5</ele>
        <time>2021-11-13T08:24:50Z</time>
      </trkpt>
      <trkpt lat="49.41487" lon="1.07452">
        <ele>30.5</ele>
        <time>2021-11-13T08:24:52Z</time>
      </trkpt>
      <trkpt lat="49.41484" lon="1.07449">
        <ele>30.5</ele>
        <time>2021-11-13T08:24:53Z</time>
      </trkpt>
      <trkpt lat="49.4148" lon="1.07447">
        <ele>30.6</ele>
        <time>2021-11-13T08:24:54Z</time>
      </trkpt>
      <trkpt lat="49.41475" lon="1.07443">
        <ele>30.6</ele>
        <time>2021-11-13T08:24:55Z</time>
      </trkpt>
      <trkpt lat="49.41472" lon="1.0744">
        <ele>30.6</ele>
        <time>2021-11-13T08:24:57Z</time>
      </trkpt>
      <trkpt lat="49.41468" lon="1.07437">
        <ele>30.7</ele>
        <time>2021-11-13T08:24:58Z</time>
      </trkpt>
      <trkpt lat="49.41465" lon="1.07435">
        <ele>30.8</ele>
        <time>2021-11-13T08:24:59Z</time>
      </trkpt>
      <trkpt lat="49.41462" lon="1.07432">
        <ele>30.8</ele>
        <time>2021-11-13T08:25:00Z</time>
      </trkpt>
      <trkpt lat="49.41458" lon="1.0743">
        <ele>30.8</ele>
        <time>2021-11-13T08:25:01Z</time>
      </trkpt>
      <trkpt lat="49.41455" lon="1.07427">
        <ele>30.9</ele>
        <time>2021-11-13T08:25:03Z</time>
      </trkpt>
      <trkpt lat="49.41449" lon="1.07424">
        <ele>30.9</ele>
        <time>2021-11-13T08:25:04Z</time>
      </trkpt>
      <trkpt lat="49.41445" lon="1.07422">
        <ele>30.9</ele>
        <time>2021-11-13T08:25:05Z</time>
      </trkpt>
      <trkpt lat="49.41441" lon="1.0742">
        <ele>31</ele>
        <time>2021-11-13T08:25:06Z</time>
      </trkpt>
      <trkpt lat="49.41438" lon="1.07417">
        <ele>31</ele>
        <time>2021-11-13T08:25:07Z</time>
      </trkpt>
      <trkpt lat="49.41434" lon="1.07415">
        <ele>31.1</ele>
        <time>2021-11-13T08:25:09Z</time>
      </trkpt>
      <trkpt lat="49.41429" lon="1.07411">
        <ele>31.1</ele>
        <time>2021-11-13T08:25:10Z</time>
      </trkpt>
      <trkpt lat="49.41426" lon="1.07409">
        <ele>31.1</ele>
        <time>2021-11-13T08:25:11Z</time>
      </trkpt>
      <trkpt lat="49.41422" lon="1.07407">
        <ele>31.2</ele>
        <time>2021-11-13T08:25:12Z</time>
      </trkpt>
      <trkpt lat="49.41418" lon="1.07402">
        <ele>31.3</ele>
        <time>2021-11-13T08:25:14Z</time>
      </trkpt>
      <trkpt lat="49.41415" lon="1.074">
        <ele>31.3</ele>
        <time>2021-11-13T08:25:15Z</time>
      </trkpt>
      <trkpt lat="49.41413" lon="1.07398">
        <ele>31.3</ele>
        <time>2021-11-13T08:25:16Z</time>
      </trkpt>
      <trkpt lat="49.41411" lon="1.07394">
        <ele>31.4</ele>
        <time>2021-11-13T08:25:17Z</time>
      </trkpt>
      <trkpt lat="49.41405" lon="1.0739">
        <ele>31.4</ele>
        <time>2021-11-13T08:25:20Z</time>
      </trkpt>
      <trkpt lat="49.41402" lon="1.07387">
        <ele>31.5</ele>
        <time>2021-11-13T08:25:21Z</time>
      </trkpt>
      <trkpt lat="49.41399" lon="1.07385">
        <ele>31.5</ele>
        <time>2021-11-13T08:25:22Z</time>
      </trkpt>
      <trkpt lat="49.41395" lon="1.07382">
        <ele>31.6</ele>
        <time>2021-11-13T08:25:24Z</time>
      </trkpt>
      <trkpt lat="49.41392" lon="1.0738">
        <ele>31.6</ele>
        <time>2021-11-13T08:25:25Z</time>
      </trkpt>
      <trkpt lat="49.41388" lon="1.07376">
        <ele>31.7</ele>
        <time>2021-11-13T08:25:26Z</time>
      </trkpt>
      <trkpt lat="49.41385" lon="1.07374">
        <ele>31.7</ele>
        <time>2021-11-13T08:25:28Z</time>
      </trkpt>
      <trkpt lat="49.41382" lon="1.07372">
        <ele>31.7</ele>
        <time>2021-11-13T08:25:29Z</time>
      </trkpt>
      <trkpt lat="49.41378" lon="1.0737">
        <ele>31.8</ele>
        <time>2021-11-13T08:25:30Z</time>
      </trkpt>
      <trkpt lat="49.41376" lon="1.07367">
        <ele>31.8</ele>
        <time>2021-11-13T08:25:31Z</time>
      </trkpt>
      <trkpt lat="49.41373" lon="1.07364">
        <ele>31.8</ele>
        <time>2021-11-13T08:25:33Z</time>
      </trkpt>
      <trkpt lat="49.41369" lon="1.07362">
        <ele>31.9</ele>
        <time>2021-11-13T08:25:34Z</time>
      </trkpt>
      <trkpt lat="49.41366" lon="1.0736">
        <ele>31.9</ele>
        <time>2021-11-13T08:25:35Z</time>
      </trkpt>
      <trkpt lat="49.41363" lon="1.07358">
        <ele>31.9</ele>
        <time>2021-11-13T08:25:36Z</time>
      </trkpt>
      <trkpt lat="49.41359" lon="1.07355">
        <ele>32</ele>
        <time>2021-11-13T08:25:38Z</time>
      </trkpt>
      <trkpt lat="49.41356" lon="1.07353">
        <ele>32</ele>
        <time>2021-11-13T08:25:39Z</time>
      </trkpt>
      <trkpt lat="49.41353" lon="1.0735">
        <ele>32</ele>
        <time>2021-11-13T08:25:41Z</time>
      </trkpt>
      <trkpt lat="49.4135" lon="1.07348">
        <ele>32.1</ele>
        <time>2021-11-13T08:25:42Z</time>
      </trkpt>
      <trkpt lat="49.41345" lon="1.07345">
        <ele>32.1</ele>
        <time>2021-11-13T08:25:43Z</time>
      </trkpt>
      <trkpt lat="49.41342" lon="1.07343">
        <ele>32.2</ele>
        <time>2021-11-13T08:25:44Z</time>
      </trkpt>
      <trkpt lat="49.4134" lon="1.07342">
        <ele>32.2</ele>
        <time>2021-11-13T08:25:46Z</time>
      </trkpt>
      <trkpt lat="49.41337" lon="1.0734">
        <ele>32.2</ele>
        <time>2021-11-13T08:25:47Z</time>
      </trkpt>
      <trkpt lat="49.41332" lon="1.07338">
        <ele>32.3</ele>
        <time>2021-11-13T08:25:48Z</time>
      </trkpt>
      <trkpt lat="49.41328" lon="1.07335">
        <ele>32.3</ele>
        <time>2021-11-13T08:25:50Z</time>
      </trkpt>
      <trkpt lat="49.41325" lon="1.07333">
        <ele>32.4</ele>
        <time>2021-11-13T08:25:51Z</time>
      </trkpt>
      <trkpt lat="49.41322" lon="1.07331">
        <ele>32.4</ele>
        <time>2021-11-13T08:25:52Z</time>
      </trkpt>
      <trkpt lat="49.41319" lon="1.07329">
        <ele>32.5</ele>
        <time>2021-11-13T08:25:53Z</time>
      </trkpt>
      <trkpt lat="49.41316" lon="1.07327">
        <ele>32.6</ele>
        <time>2021-11-13T08:25:54Z</time>
      </trkpt>
      <trkpt lat="49.41313" lon="1.07325">
        <ele>32.6</ele>
        <time>2021-11-13T08:25:55Z</time>
      </trkpt>
      <trkpt lat="49.4131" lon="1.07321">
        <ele>32.7</ele>
        <time>2021-11-13T08:25:57Z</time>
      </trkpt>
      <trkpt lat="49.41307" lon="1.07319">
        <ele>32.7</ele>
        <time>2021-11-13T08:25:58Z</time>
      </trkpt>
      <trkpt lat="49.41304" lon="1.07316">
        <ele>32.8</ele>
        <time>2021-11-13T08:26:00Z</time>
      </trkpt>
      <trkpt lat="49.41301" lon="1.07315">
        <ele>32.8</ele>
        <time>2021-11-13T08:26:01Z</time>
      </trkpt>
      <trkpt lat="49.41297" lon="1.07313">
        <ele>32.9</ele>
        <time>2021-11-13T08:26:02Z</time>
      </trkpt>
      <trkpt lat="49.41294" lon="1.07312">
        <ele>32.9</ele>
        <time>2021-11-13T08:26:03Z</time>
      </trkpt>
      <trkpt lat="49.4129" lon="1.07309">
        <ele>33</ele>
        <time>2021-11-13T08:26:05Z</time>
      </trkpt>
      <trkpt lat="49.41288" lon="1.07308">
        <ele>33</ele>
        <time>2021-11-13T08:26:06Z</time>
      </trkpt>
      <trkpt lat="49.41285" lon="1.07306">
        <ele>33</ele>
        <time>2021-11-13T08:26:07Z</time>
      </trkpt>
      <trkpt lat="49.41282" lon="1.07304">
        <ele>33.1</ele>
        <time>2021-11-13T08:26:09Z</time>
      </trkpt>
      <trkpt lat="49.41279" lon="1.07302">
        <ele>33.1</ele>
        <time>2021-11-13T08:26:10Z</time>
      </trkpt>
      <trkpt lat="49.41277" lon="1.073">
        <ele>33.2</ele>
        <time>2021-11-13T08:26:11Z</time>
      </trkpt>
      <trkpt lat="49.41273" lon="1.07295">
        <ele>33.2</ele>
        <time>2021-11-13T08:26:13Z</time>
      </trkpt>
      <trkpt lat="49.41271" lon="1.07291">
        <ele>33.3</ele>
        <time>2021-11-13T08:26:14Z</time>
      </trkpt>
      <trkpt lat="49.41268" lon="1.07284">
        <ele>33.3</ele>
        <time>2021-11-13T08:26:15Z</time>
      </trkpt>
      <trkpt lat="49.41266" lon="1.07278">
        <ele>33.3</ele>
        <time>2021-11-13T08:26:16Z</time>
      </trkpt>
      <trkpt lat="49.41266" lon="1.07274">
        <ele>33.4</ele>
        <time>2021-11-13T08:26:18Z</time>
      </trkpt>
      <trkpt lat="49.41265" lon="1.07269">
        <ele>33.4</ele>
        <time>2021-11-13T08:26:19Z</time>
      </trkpt>
      <trkpt lat="49.41263" lon="1.07263">
        <ele>33.4</ele>
        <time>2021-11-13T08:26:20Z</time>
      </trkpt>
      <trkpt lat="49.41261" lon="1.07258">
        <ele>33.5</ele>
        <time>2021-11-13T08:26:21Z</time>
      </trkpt>
      <trkpt lat="49.4126" lon="1.07254">
        <ele>33.5</ele>
        <time>2021-11-13T08:26:22Z</time>
      </trkpt>
      <trkpt lat="49.41258" lon="1.07249">
        <ele>33.5</ele>
        <time>2021-11-13T08:26:24Z</time>
      </trkpt>
      <trkpt lat="49.41257" lon="1.07242">
        <ele>33.5</ele>
        <time>2021-11-13T08:26:25Z</time>
      </trkpt>
      <trkpt lat="49.41255" lon="1.07238">
        <ele>33.4</ele>
        <time>2021-11-13T08:26:26Z</time>
      </trkpt>
      <trkpt lat="49.41253" lon="1.07234">
        <ele>33.4</ele>
        <time>2021-11-13T08:26:27Z</time>
      </trkpt>
      <trkpt lat="49.41251" lon="1.07228">
        <ele>33.4</ele>
        <time>2021-11-13T08:26:29Z</time>
      </trkpt>
      <trkpt lat="49.41251" lon="1.07226">
        <ele>33.4</ele>
        <time>2021-11-13T08:26:30Z</time>
      </trkpt>
      <trkpt lat="49.4125" lon="1.07224">
        <ele>33.4</ele>
        <time>2021-11-13T08:26:31Z</time>
      </trkpt>
      <trkpt lat="49.41249" lon="1.0722">
        <ele>33.4</ele>
        <time>2021-11-13T08:26:32Z</time>
      </trkpt>
      <trkpt lat="49.41247" lon="1.07216">
        <ele>33.4</ele>
        <time>2021-11-13T08:26:34Z</time>
      </trkpt>
      <trkpt lat="49.41245" lon="1.07209">
        <ele>33.4</ele>
        <time>2021-11-13T08:26:35Z</time>
      </trkpt>
      <trkpt lat="49.41244" lon="1.07203">
        <ele>33.4</ele>
        <time>2021-11-13T08:26:36Z</time>
      </trkpt>
      <trkpt lat="49.41243" lon="1.07195">
        <ele>33.4</ele>
        <time>2021-11-13T08:26:38Z</time>
      </trkpt>
      <trkpt lat="49.41241" lon="1.0719">
        <ele>33.4</ele>
        <time>2021-11-13T08:26:39Z</time>
      </trkpt>
      <trkpt lat="49.41238" lon="1.07186">
        <ele>33.3</ele>
        <time>2021-11-13T08:26:40Z</time>
      </trkpt>
      <trkpt lat="49.41235" lon="1.07182">
        <ele>33.3</ele>
        <time>2021-11-13T08:26:41Z</time>
      </trkpt>
      <trkpt lat="49.41232" lon="1.0718">
        <ele>33.3</ele>
        <time>2021-11-13T08:26:42Z</time>
      </trkpt>
      <trkpt lat="49.4123" lon="1.07177">
        <ele>33.3</ele>
        <time>2021-11-13T08:26:43Z</time>
      </trkpt>
      <trkpt lat="49.41227" lon="1.07174">
        <ele>33.3</ele>
        <time>2021-11-13T08:26:45Z</time>
      </trkpt>
      <trkpt lat="49.41224" lon="1.0717">
        <ele>33.3</ele>
        <time>2021-11-13T08:26:46Z</time>
      </trkpt>
      <trkpt lat="49.41222" lon="1.07168">
        <ele>33.3</ele>
        <time>2021-11-13T08:26:47Z</time>
      </trkpt>
      <trkpt lat="49.41217" lon="1.07166">
        <ele>33.3</ele>
        <time>2021-11-13T08:26:49Z</time>
      </trkpt>
      <trkpt lat="49.41215" lon="1.07167">
        <ele>33.3</ele>
        <time>2021-11-13T08:26:50Z</time>
      </trkpt>
      <trkpt lat="49.41213" lon="1.07167">
        <ele>33.3</ele>
        <time>2021-11-13T08:26:51Z</time>
      </trkpt>
      <trkpt lat="49.41212" lon="1.07169">
        <ele>33.3</ele>
        <time>2021-11-13T08:26:52Z</time>
      </trkpt>
      <trkpt lat="49.41211" lon="1.07171">
        <ele>33.3</ele>
        <time>2021-11-13T08:26:54Z</time>
      </trkpt>
      <trkpt lat="49.4121" lon="1.07176">
        <ele>33.3</ele>
        <time>2021-11-13T08:26:55Z</time>
      </trkpt>
      <trkpt lat="49.41209" lon="1.07178">
        <ele>33.3</ele>
        <time>2021-11-13T08:26:56Z</time>
      </trkpt>
      <trkpt lat="49.41206" lon="1.07181">
        <ele>33.4</ele>
        <time>2021-11-13T08:26:57Z</time>
      </trkpt>
      <trkpt lat="49.41202" lon="1.07182">
        <ele>33.4</ele>
        <time>2021-11-13T08:26:58Z</time>
      </trkpt>
      <trkpt lat="49.41197" lon="1.07184">
        <ele>33.4</ele>
        <time>2021-11-13T08:27:00Z</time>
      </trkpt>
      <trkpt lat="49.41193" lon="1.07187">
        <ele>33.5</ele>
        <time>2021-11-13T08:27:01Z</time>
      </trkpt>
      <trkpt lat="49.41187" lon="1.07191">
        <ele>33.5</ele>
        <time>2021-11-13T08:27:02Z</time>
      </trkpt>
      <trkpt lat="49.41183" lon="1.07193">
        <ele>33.5</ele>
        <time>2021-11-13T08:27:03Z</time>
      </trkpt>
      <trkpt lat="49.41179" lon="1.07196">
        <ele>33.6</ele>
        <time>2021-11-13T08:27:05Z</time>
      </trkpt>
      <trkpt lat="49.41176" lon="1.07199">
        <ele>33.6</ele>
        <time>2021-11-13T08:27:06Z</time>
      </trkpt>
      <trkpt lat="49.4117" lon="1.07204">
        <ele>33.6</ele>
        <time>2021-11-13T08:27:07Z</time>
      </trkpt>
      <trkpt lat="49.41167" lon="1.07205">
        <ele>33.6</ele>
        <time>2021-11-13T08:27:08Z</time>
      </trkpt>
      <trkpt lat="49.41162" lon="1.07203">
        <ele>33.6</ele>
        <time>2021-11-13T08:27:10Z</time>
      </trkpt>
      <trkpt lat="49.4116" lon="1.07202">
        <ele>33.6</ele>
        <time>2021-11-13T08:27:11Z</time>
      </trkpt>
      <trkpt lat="49.41157" lon="1.072">
        <ele>33.6</ele>
        <time>2021-11-13T08:27:12Z</time>
      </trkpt>
      <trkpt lat="49.41153" lon="1.07199">
        <ele>33.6</ele>
        <time>2021-11-13T08:27:14Z</time>
      </trkpt>
      <trkpt lat="49.41148" lon="1.07198">
        <ele>33.5</ele>
        <time>2021-11-13T08:27:15Z</time>
      </trkpt>
      <trkpt lat="49.41145" lon="1.07196">
        <ele>33.5</ele>
        <time>2021-11-13T08:27:16Z</time>
      </trkpt>
      <trkpt lat="49.41142" lon="1.07195">
        <ele>33.5</ele>
        <time>2021-11-13T08:27:17Z</time>
      </trkpt>
      <trkpt lat="49.41139" lon="1.07192">
        <ele>33.5</ele>
        <time>2021-11-13T08:27:19Z</time>
      </trkpt>
      <trkpt lat="49.41136" lon="1.0719">
        <ele>33.5</ele>
        <time>2021-11-13T08:27:20Z</time>
      </trkpt>
      <trkpt lat="49.41131" lon="1.07188">
        <ele>33.5</ele>
        <time>2021-11-13T08:27:21Z</time>
      </trkpt>
      <trkpt lat="49.41127" lon="1.07186">
        <ele>33.5</ele>
        <time>2021-11-13T08:27:22Z</time>
      </trkpt>
      <trkpt lat="49.41123" lon="1.07183">
        <ele>33.5</ele>
        <time>2021-11-13T08:27:24Z</time>
      </trkpt>
      <trkpt lat="49.41119" lon="1.0718">
        <ele>33.5</ele>
        <time>2021-11-13T08:27:26Z</time>
      </trkpt>
      <trkpt lat="49.41115" lon="1.07178">
        <ele>33.5</ele>
        <time>2021-11-13T08:27:27Z</time>
      </trkpt>
      <trkpt lat="49.41111" lon="1.07176">
        <ele>33.5</ele>
        <time>2021-11-13T08:27:28Z</time>
      </trkpt>
      <trkpt lat="49.41108" lon="1.07175">
        <ele>33.5</ele>
        <time>2021-11-13T08:27:30Z</time>
      </trkpt>
      <trkpt lat="49.41106" lon="1.07175">
        <ele>33.5</ele>
        <time>2021-11-13T08:27:31Z</time>
      </trkpt>
      <trkpt lat="49.41102" lon="1.07176">
        <ele>33.5</ele>
        <time>2021-11-13T08:27:33Z</time>
      </trkpt>
      <trkpt lat="49.411" lon="1.07177">
        <ele>33.5</ele>
        <time>2021-11-13T08:27:34Z</time>
      </trkpt>
      <trkpt lat="49.41099" lon="1.07178">
        <ele>33.5</ele>
        <time>2021-11-13T08:27:35Z</time>
      </trkpt>
      <trkpt lat="49.41097" lon="1.07178">
        <ele>33.5</ele>
        <time>2021-11-13T08:27:36Z</time>
      </trkpt>
      <trkpt lat="49.41095" lon="1.07177">
        <ele>33.5</ele>
        <time>2021-11-13T08:27:37Z</time>
      </trkpt>
      <trkpt lat="49.41089" lon="1.07174">
        <ele>33.5</ele>
        <time>2021-11-13T08:27:39Z</time>
      </trkpt>
      <trkpt lat="49.41086" lon="1.07173">
        <ele>33.6</ele>
        <time>2021-11-13T08:27:40Z</time>
      </trkpt>
      <trkpt lat="49.41082" lon="1.07171">
        <ele>33.6</ele>
        <time>2021-11-13T08:27:41Z</time>
      </trkpt>
      <trkpt lat="49.41077" lon="1.07169">
        <ele>33.6</ele>
        <time>2021-11-13T08:27:42Z</time>
      </trkpt>
      <trkpt lat="49.41072" lon="1.07166">
        <ele>33.6</ele>
        <time>2021-11-13T08:27:44Z</time>
      </trkpt>
      <trkpt lat="49.41068" lon="1.07164">
        <ele>33.6</ele>
        <time>2021-11-13T08:27:45Z</time>
      </trkpt>
      <trkpt lat="49.41062" lon="1.07161">
        <ele>33.7</ele>
        <time>2021-11-13T08:27:46Z</time>
      </trkpt>
      <trkpt lat="49.41058" lon="1.07159">
        <ele>33.7</ele>
        <time>2021-11-13T08:27:47Z</time>
      </trkpt>
      <trkpt lat="49.41055" lon="1.07157">
        <ele>33.7</ele>
        <time>2021-11-13T08:27:48Z</time>
      </trkpt>
      <trkpt lat="49.41051" lon="1.07154">
        <ele>33.7</ele>
        <time>2021-11-13T08:27:50Z</time>
      </trkpt>
      <trkpt lat="49.41046" lon="1.07151">
        <ele>33.8</ele>
        <time>2021-11-13T08:27:51Z</time>
      </trkpt>
      <trkpt lat="49.41043" lon="1.07149">
        <ele>33.8</ele>
        <time>2021-11-13T08:27:52Z</time>
      </trkpt>
      <trkpt lat="49.4104" lon="1.07147">
        <ele>33.8</ele>
        <time>2021-11-13T08:27:53Z</time>
      </trkpt>
      <trkpt lat="49.41037" lon="1.07142">
        <ele>33.8</ele>
        <time>2021-11-13T08:27:55Z</time>
      </trkpt>
      <trkpt lat="49.41034" lon="1.07138">
        <ele>33.9</ele>
        <time>2021-11-13T08:27:56Z</time>
      </trkpt>
      <trkpt lat="49.4103" lon="1.07136">
        <ele>33.9</ele>
        <time>2021-11-13T08:27:57Z</time>
      </trkpt>
      <trkpt lat="49.41026" lon="1.07134">
        <ele>34</ele>
        <time>2021-11-13T08:27:59Z</time>
      </trkpt>
      <trkpt lat="49.41022" lon="1.07133">
        <ele>33.8</ele>
        <time>2021-11-13T08:28:00Z</time>
      </trkpt>
      <trkpt lat="49.4102" lon="1.07132">
        <ele>33.7</ele>
        <time>2021-11-13T08:28:01Z</time>
      </trkpt>
      <trkpt lat="49.41017" lon="1.07136">
        <ele>33.7</ele>
        <time>2021-11-13T08:28:02Z</time>
      </trkpt>
      <trkpt lat="49.41017" lon="1.07137">
        <ele>33.7</ele>
        <time>2021-11-13T08:28:03Z</time>
      </trkpt>
      <trkpt lat="49.41016" lon="1.0714">
        <ele>33.8</ele>
        <time>2021-11-13T08:28:05Z</time>
      </trkpt>
      <trkpt lat="49.41015" lon="1.07141">
        <ele>33.8</ele>
        <time>2021-11-13T08:28:06Z</time>
      </trkpt>
      <trkpt lat="49.41013" lon="1.07144">
        <ele>33.8</ele>
        <time>2021-11-13T08:28:07Z</time>
      </trkpt>
      <trkpt lat="49.41012" lon="1.07146">
        <ele>33.9</ele>
        <time>2021-11-13T08:28:09Z</time>
      </trkpt>
      <trkpt lat="49.41011" lon="1.07147">
        <ele>34</ele>
        <time>2021-11-13T08:28:10Z</time>
      </trkpt>
      <trkpt lat="49.4101" lon="1.07149">
        <ele>33.9</ele>
        <time>2021-11-13T08:28:11Z</time>
      </trkpt>
      <trkpt lat="49.41009" lon="1.07152">
        <ele>34</ele>
        <time>2021-11-13T08:28:12Z</time>
      </trkpt>
      <trkpt lat="49.41007" lon="1.07152">
        <ele>34</ele>
        <time>2021-11-13T08:28:13Z</time>
      </trkpt>
      <trkpt lat="49.41006" lon="1.07153">
        <ele>34</ele>
        <time>2021-11-13T08:28:14Z</time>
      </trkpt>
      <trkpt lat="49.41004" lon="1.07155">
        <ele>34</ele>
        <time>2021-11-13T08:28:16Z</time>
      </trkpt>
      <trkpt lat="49.41" lon="1.07156">
        <ele>34</ele>
        <time>2021-11-13T08:28:17Z</time>
      </trkpt>
      <trkpt lat="49.40999" lon="1.07157">
        <ele>34</ele>
        <time>2021-11-13T08:28:18Z</time>
      </trkpt>
      <trkpt lat="49.40995" lon="1.07158">
        <ele>34</ele>
        <time>2021-11-13T08:28:19Z</time>
      </trkpt>
      <trkpt lat="49.40992" lon="1.07162">
        <ele>34.1</ele>
        <time>2021-11-13T08:28:21Z</time>
      </trkpt>
      <trkpt lat="49.40991" lon="1.07163">
        <ele>34.1</ele>
        <time>2021-11-13T08:28:22Z</time>
      </trkpt>
      <trkpt lat="49.40988" lon="1.07167">
        <ele>34.1</ele>
        <time>2021-11-13T08:28:23Z</time>
      </trkpt>
      <trkpt lat="49.40986" lon="1.07169">
        <ele>34.2</ele>
        <time>2021-11-13T08:28:24Z</time>
      </trkpt>
      <trkpt lat="49.40981" lon="1.07175">
        <ele>34.2</ele>
        <time>2021-11-13T08:28:26Z</time>
      </trkpt>
      <trkpt lat="49.40978" lon="1.07177">
        <ele>34.2</ele>
        <time>2021-11-13T08:28:27Z</time>
      </trkpt>
      <trkpt lat="49.40974" lon="1.07182">
        <ele>34.2</ele>
        <time>2021-11-13T08:28:28Z</time>
      </trkpt>
      <trkpt lat="49.4097" lon="1.07187">
        <ele>34.2</ele>
        <time>2021-11-13T08:28:30Z</time>
      </trkpt>
      <trkpt lat="49.40965" lon="1.07193">
        <ele>34.1</ele>
        <time>2021-11-13T08:28:31Z</time>
      </trkpt>
      <trkpt lat="49.40962" lon="1.07196">
        <ele>34.1</ele>
        <time>2021-11-13T08:28:32Z</time>
      </trkpt>
      <trkpt lat="49.40959" lon="1.072">
        <ele>34</ele>
        <time>2021-11-13T08:28:34Z</time>
      </trkpt>
      <trkpt lat="49.40955" lon="1.07205">
        <ele>33.9</ele>
        <time>2021-11-13T08:28:35Z</time>
      </trkpt>
      <trkpt lat="49.40953" lon="1.07209">
        <ele>33.9</ele>
        <time>2021-11-13T08:28:36Z</time>
      </trkpt>
      <trkpt lat="49.40951" lon="1.07214">
        <ele>33.8</ele>
        <time>2021-11-13T08:28:37Z</time>
      </trkpt>
      <trkpt lat="49.4095" lon="1.07218">
        <ele>33.8</ele>
        <time>2021-11-13T08:28:39Z</time>
      </trkpt>
      <trkpt lat="49.40947" lon="1.07222">
        <ele>33.7</ele>
        <time>2021-11-13T08:28:40Z</time>
      </trkpt>
      <trkpt lat="49.40945" lon="1.07226">
        <ele>33.6</ele>
        <time>2021-11-13T08:28:42Z</time>
      </trkpt>
      <trkpt lat="49.40943" lon="1.0723">
        <ele>33.6</ele>
        <time>2021-11-13T08:28:43Z</time>
      </trkpt>
      <trkpt lat="49.40941" lon="1.07233">
        <ele>33.6</ele>
        <time>2021-11-13T08:28:44Z</time>
      </trkpt>
      <trkpt lat="49.40939" lon="1.07236">
        <ele>33.5</ele>
        <time>2021-11-13T08:28:45Z</time>
      </trkpt>
      <trkpt lat="49.40937" lon="1.0724">
        <ele>33.5</ele>
        <time>2021-11-13T08:28:46Z</time>
      </trkpt>
      <trkpt lat="49.40934" lon="1.07244">
        <ele>33.4</ele>
        <time>2021-11-13T08:28:48Z</time>
      </trkpt>
      <trkpt lat="49.40932" lon="1.07248">
        <ele>33.4</ele>
        <time>2021-11-13T08:28:49Z</time>
      </trkpt>
      <trkpt lat="49.40929" lon="1.07251">
        <ele>33.4</ele>
        <time>2021-11-13T08:28:51Z</time>
      </trkpt>
      <trkpt lat="49.40927" lon="1.07254">
        <ele>33.4</ele>
        <time>2021-11-13T08:28:52Z</time>
      </trkpt>
      <trkpt lat="49.40924" lon="1.07257">
        <ele>33.4</ele>
        <time>2021-11-13T08:28:53Z</time>
      </trkpt>
      <trkpt lat="49.4092" lon="1.0726">
        <ele>33.4</ele>
        <time>2021-11-13T08:28:55Z</time>
      </trkpt>
      <trkpt lat="49.40918" lon="1.07263">
        <ele>33.4</ele>
        <time>2021-11-13T08:28:56Z</time>
      </trkpt>
      <trkpt lat="49.40916" lon="1.07266">
        <ele>33.4</ele>
        <time>2021-11-13T08:28:57Z</time>
      </trkpt>
      <trkpt lat="49.40913" lon="1.07272">
        <ele>33.4</ele>
        <time>2021-11-13T08:28:58Z</time>
      </trkpt>
      <trkpt lat="49.40912" lon="1.07277">
        <ele>33.4</ele>
        <time>2021-11-13T08:28:59Z</time>
      </trkpt>
      <trkpt lat="49.4091" lon="1.07282">
        <ele>33.4</ele>
        <time>2021-11-13T08:29:01Z</time>
      </trkpt>
      <trkpt lat="49.40909" lon="1.0729">
        <ele>33.3</ele>
        <time>2021-11-13T08:29:03Z</time>
      </trkpt>
      <trkpt lat="49.40907" lon="1.07298">
        <ele>33.3</ele>
        <time>2021-11-13T08:29:05Z</time>
      </trkpt>
      <trkpt lat="49.40908" lon="1.07303">
        <ele>33.3</ele>
        <time>2021-11-13T08:29:06Z</time>
      </trkpt>
      <trkpt lat="49.40908" lon="1.07305">
        <ele>33.3</ele>
        <time>2021-11-13T08:29:07Z</time>
      </trkpt>
      <trkpt lat="49.40906" lon="1.07312">
        <ele>33.3</ele>
        <time>2021-11-13T08:29:09Z</time>
      </trkpt>
      <trkpt lat="49.40906" lon="1.07314">
        <ele>33.3</ele>
        <time>2021-11-13T08:29:10Z</time>
      </trkpt>
      <trkpt lat="49.40905" lon="1.07317">
        <ele>33.3</ele>
        <time>2021-11-13T08:29:11Z</time>
      </trkpt>
      <trkpt lat="49.40905" lon="1.07321">
        <ele>33.3</ele>
        <time>2021-11-13T08:29:12Z</time>
      </trkpt>
      <trkpt lat="49.40903" lon="1.07324">
        <ele>33.3</ele>
        <time>2021-11-13T08:29:13Z</time>
      </trkpt>
      <trkpt lat="49.40902" lon="1.07328">
        <ele>33.3</ele>
        <time>2021-11-13T08:29:15Z</time>
      </trkpt>
      <trkpt lat="49.40901" lon="1.07333">
        <ele>33.3</ele>
        <time>2021-11-13T08:29:16Z</time>
      </trkpt>
      <trkpt lat="49.40899" lon="1.07337">
        <ele>33.3</ele>
        <time>2021-11-13T08:29:17Z</time>
      </trkpt>
      <trkpt lat="49.40897" lon="1.07342">
        <ele>33.3</ele>
        <time>2021-11-13T08:29:19Z</time>
      </trkpt>
      <trkpt lat="49.40896" lon="1.07346">
        <ele>33.3</ele>
        <time>2021-11-13T08:29:20Z</time>
      </trkpt>
      <trkpt lat="49.40894" lon="1.07351">
        <ele>33.3</ele>
        <time>2021-11-13T08:29:21Z</time>
      </trkpt>
      <trkpt lat="49.40892" lon="1.07359">
        <ele>33.3</ele>
        <time>2021-11-13T08:29:23Z</time>
      </trkpt>
      <trkpt lat="49.40891" lon="1.07365">
        <ele>33.4</ele>
        <time>2021-11-13T08:29:24Z</time>
      </trkpt>
      <trkpt lat="49.40888" lon="1.07373">
        <ele>33.4</ele>
        <time>2021-11-13T08:29:25Z</time>
      </trkpt>
      <trkpt lat="49.40887" lon="1.07377">
        <ele>33.4</ele>
        <time>2021-11-13T08:29:26Z</time>
      </trkpt>
      <trkpt lat="49.40885" lon="1.07382">
        <ele>33.4</ele>
        <time>2021-11-13T08:29:28Z</time>
      </trkpt>
      <trkpt lat="49.40884" lon="1.07384">
        <ele>33.4</ele>
        <time>2021-11-13T08:29:29Z</time>
      </trkpt>
      <trkpt lat="49.40882" lon="1.07389">
        <ele>33.4</ele>
        <time>2021-11-13T08:29:30Z</time>
      </trkpt>
      <trkpt lat="49.40881" lon="1.07392">
        <ele>33.5</ele>
        <time>2021-11-13T08:29:31Z</time>
      </trkpt>
      <trkpt lat="49.40879" lon="1.07399">
        <ele>33.5</ele>
        <time>2021-11-13T08:29:33Z</time>
      </trkpt>
      <trkpt lat="49.40877" lon="1.07404">
        <ele>33.5</ele>
        <time>2021-11-13T08:29:34Z</time>
      </trkpt>
      <trkpt lat="49.40875" lon="1.0741">
        <ele>33.5</ele>
        <time>2021-11-13T08:29:35Z</time>
      </trkpt>
      <trkpt lat="49.40873" lon="1.07416">
        <ele>33.5</ele>
        <time>2021-11-13T08:29:36Z</time>
      </trkpt>
      <trkpt lat="49.40871" lon="1.07421">
        <ele>33.6</ele>
        <time>2021-11-13T08:29:38Z</time>
      </trkpt>
      <trkpt lat="49.40869" lon="1.07426">
        <ele>33.6</ele>
        <time>2021-11-13T08:29:39Z</time>
      </trkpt>
      <trkpt lat="49.40867" lon="1.0743">
        <ele>33.6</ele>
        <time>2021-11-13T08:29:40Z</time>
      </trkpt>
      <trkpt lat="49.40865" lon="1.07435">
        <ele>33.6</ele>
        <time>2021-11-13T08:29:41Z</time>
      </trkpt>
      <trkpt lat="49.40864" lon="1.07439">
        <ele>33.6</ele>
        <time>2021-11-13T08:29:42Z</time>
      </trkpt>
      <trkpt lat="49.40863" lon="1.07444">
        <ele>33.6</ele>
        <time>2021-11-13T08:29:43Z</time>
      </trkpt>
      <trkpt lat="49.40861" lon="1.0745">
        <ele>33.6</ele>
        <time>2021-11-13T08:29:45Z</time>
      </trkpt>
      <trkpt lat="49.4086" lon="1.07455">
        <ele>33.6</ele>
        <time>2021-11-13T08:29:46Z</time>
      </trkpt>
      <trkpt lat="49.40859" lon="1.07459">
        <ele>33.7</ele>
        <time>2021-11-13T08:29:47Z</time>
      </trkpt>
      <trkpt lat="49.40857" lon="1.07463">
        <ele>33.7</ele>
        <time>2021-11-13T08:29:48Z</time>
      </trkpt>
      <trkpt lat="49.40855" lon="1.07469">
        <ele>33.7</ele>
        <time>2021-11-13T08:29:50Z</time>
      </trkpt>
      <trkpt lat="49.40853" lon="1.07474">
        <ele>33.7</ele>
        <time>2021-11-13T08:29:51Z</time>
      </trkpt>
      <trkpt lat="49.4085" lon="1.07479">
        <ele>33.8</ele>
        <time>2021-11-13T08:29:53Z</time>
      </trkpt>
      <trkpt lat="49.40847" lon="1.07484">
        <ele>33.8</ele>
        <time>2021-11-13T08:29:54Z</time>
      </trkpt>
      <trkpt lat="49.40845" lon="1.07488">
        <ele>33.8</ele>
        <time>2021-11-13T08:29:55Z</time>
      </trkpt>
      <trkpt lat="49.40842" lon="1.07491">
        <ele>33.8</ele>
        <time>2021-11-13T08:29:57Z</time>
      </trkpt>
      <trkpt lat="49.40839" lon="1.07493">
        <ele>33.9</ele>
        <time>2021-11-13T08:29:58Z</time>
      </trkpt>
      <trkpt lat="49.40837" lon="1.07497">
        <ele>33.9</ele>
        <time>2021-11-13T08:29:59Z</time>
      </trkpt>
      <trkpt lat="49.40836" lon="1.07499">
        <ele>33.9</ele>
        <time>2021-11-13T08:30:00Z</time>
      </trkpt>
      <trkpt lat="49.40833" lon="1.07501">
        <ele>34</ele>
        <time>2021-11-13T08:30:02Z</time>
      </trkpt>
      <trkpt lat="49.40832" lon="1.07502">
        <ele>34</ele>
        <time>2021-11-13T08:30:03Z</time>
      </trkpt>
      <trkpt lat="49.40829" lon="1.07504">
        <ele>34</ele>
        <time>2021-11-13T08:30:05Z</time>
      </trkpt>
      <trkpt lat="49.40826" lon="1.07506">
        <ele>34</ele>
        <time>2021-11-13T08:30:06Z</time>
      </trkpt>
      <trkpt lat="49.40823" lon="1.07509">
        <ele>34.1</ele>
        <time>2021-11-13T08:30:07Z</time>
      </trkpt>
      <trkpt lat="49.40818" lon="1.07513">
        <ele>34.1</ele>
        <time>2021-11-13T08:30:09Z</time>
      </trkpt>
      <trkpt lat="49.40815" lon="1.07516">
        <ele>34.2</ele>
        <time>2021-11-13T08:30:10Z</time>
      </trkpt>
      <trkpt lat="49.40811" lon="1.07519">
        <ele>34.2</ele>
        <time>2021-11-13T08:30:11Z</time>
      </trkpt>
      <trkpt lat="49.40808" lon="1.07521">
        <ele>34.3</ele>
        <time>2021-11-13T08:30:12Z</time>
      </trkpt>
      <trkpt lat="49.40804" lon="1.07523">
        <ele>34.3</ele>
        <time>2021-11-13T08:30:14Z</time>
      </trkpt>
      <trkpt lat="49.408" lon="1.07525">
        <ele>34.4</ele>
        <time>2021-11-13T08:30:15Z</time>
      </trkpt>
      <trkpt lat="49.40799" lon="1.07526">
        <ele>34.4</ele>
        <time>2021-11-13T08:30:16Z</time>
      </trkpt>
      <trkpt lat="49.40797" lon="1.07526">
        <ele>34.4</ele>
        <time>2021-11-13T08:30:17Z</time>
      </trkpt>
      <trkpt lat="49.40794" lon="1.07526">
        <ele>34.5</ele>
        <time>2021-11-13T08:30:19Z</time>
      </trkpt>
      <trkpt lat="49.4079" lon="1.07527">
        <ele>34.5</ele>
        <time>2021-11-13T08:30:20Z</time>
      </trkpt>
      <trkpt lat="49.40788" lon="1.07527">
        <ele>34.5</ele>
        <time>2021-11-13T08:30:21Z</time>
      </trkpt>
      <trkpt lat="49.40785" lon="1.07527">
        <ele>34.6</ele>
        <time>2021-11-13T08:30:22Z</time>
      </trkpt>
      <trkpt lat="49.4078" lon="1.07528">
        <ele>34.7</ele>
        <time>2021-11-13T08:30:24Z</time>
      </trkpt>
      <trkpt lat="49.40776" lon="1.07528">
        <ele>34.7</ele>
        <time>2021-11-13T08:30:25Z</time>
      </trkpt>
      <trkpt lat="49.40771" lon="1.07528">
        <ele>34.8</ele>
        <time>2021-11-13T08:30:27Z</time>
      </trkpt>
      <trkpt lat="49.40767" lon="1.07527">
        <ele>34.8</ele>
        <time>2021-11-13T08:30:28Z</time>
      </trkpt>
      <trkpt lat="49.40762" lon="1.07527">
        <ele>34.9</ele>
        <time>2021-11-13T08:30:29Z</time>
      </trkpt>
      <trkpt lat="49.40758" lon="1.07527">
        <ele>35</ele>
        <time>2021-11-13T08:30:30Z</time>
      </trkpt>
      <trkpt lat="49.40755" lon="1.07527">
        <ele>35</ele>
        <time>2021-11-13T08:30:32Z</time>
      </trkpt>
      <trkpt lat="49.4075" lon="1.07527">
        <ele>35.1</ele>
        <time>2021-11-13T08:30:33Z</time>
      </trkpt>
      <trkpt lat="49.40747" lon="1.07527">
        <ele>35.2</ele>
        <time>2021-11-13T08:30:34Z</time>
      </trkpt>
      <trkpt lat="49.40743" lon="1.07527">
        <ele>35.2</ele>
        <time>2021-11-13T08:30:36Z</time>
      </trkpt>
      <trkpt lat="49.4074" lon="1.07526">
        <ele>35.3</ele>
        <time>2021-11-13T08:30:37Z</time>
      </trkpt>
      <trkpt lat="49.40736" lon="1.07526">
        <ele>35.4</ele>
        <time>2021-11-13T08:30:38Z</time>
      </trkpt>
      <trkpt lat="49.40733" lon="1.07526">
        <ele>35.4</ele>
        <time>2021-11-13T08:30:40Z</time>
      </trkpt>
      <trkpt lat="49.40729" lon="1.07525">
        <ele>35.5</ele>
        <time>2021-11-13T08:30:41Z</time>
      </trkpt>
      <trkpt lat="49.40725" lon="1.07525">
        <ele>35.6</ele>
        <time>2021-11-13T08:30:42Z</time>
      </trkpt>
      <trkpt lat="49.40722" lon="1.07525">
        <ele>35.6</ele>
        <time>2021-11-13T08:30:44Z</time>
      </trkpt>
      <trkpt lat="49.40718" lon="1.07524">
        <ele>35.7</ele>
        <time>2021-11-13T08:30:46Z</time>
      </trkpt>
      <trkpt lat="49.40714" lon="1.07523">
        <ele>35.8</ele>
        <time>2021-11-13T08:30:47Z</time>
      </trkpt>
      <trkpt lat="49.4071" lon="1.07523">
        <ele>35.9</ele>
        <time>2021-11-13T08:30:49Z</time>
      </trkpt>
      <trkpt lat="49.40706" lon="1.07522">
        <ele>36</ele>
        <time>2021-11-13T08:30:50Z</time>
      </trkpt>
      <trkpt lat="49.40704" lon="1.07522">
        <ele>36</ele>
        <time>2021-11-13T08:30:51Z</time>
      </trkpt>
      <trkpt lat="49.407" lon="1.07521">
        <ele>36.1</ele>
        <time>2021-11-13T08:30:53Z</time>
      </trkpt>
      <trkpt lat="49.40696" lon="1.07521">
        <ele>36.2</ele>
        <time>2021-11-13T08:30:54Z</time>
      </trkpt>
      <trkpt lat="49.40693" lon="1.0752">
        <ele>36.2</ele>
        <time>2021-11-13T08:30:55Z</time>
      </trkpt>
      <trkpt lat="49.40689" lon="1.0752">
        <ele>36.3</ele>
        <time>2021-11-13T08:30:57Z</time>
      </trkpt>
      <trkpt lat="49.40686" lon="1.0752">
        <ele>36.4</ele>
        <time>2021-11-13T08:30:58Z</time>
      </trkpt>
      <trkpt lat="49.40682" lon="1.07521">
        <ele>36.5</ele>
        <time>2021-11-13T08:31:00Z</time>
      </trkpt>
      <trkpt lat="49.40678" lon="1.07521">
        <ele>36.6</ele>
        <time>2021-11-13T08:31:02Z</time>
      </trkpt>
      <trkpt lat="49.40674" lon="1.0752">
        <ele>36.7</ele>
        <time>2021-11-13T08:31:03Z</time>
      </trkpt>
      <trkpt lat="49.40671" lon="1.0752">
        <ele>36.8</ele>
        <time>2021-11-13T08:31:04Z</time>
      </trkpt>
      <trkpt lat="49.40669" lon="1.07519">
        <ele>36.8</ele>
        <time>2021-11-13T08:31:05Z</time>
      </trkpt>
      <trkpt lat="49.40666" lon="1.07519">
        <ele>36.9</ele>
        <time>2021-11-13T08:31:07Z</time>
      </trkpt>
      <trkpt lat="49.40664" lon="1.07518">
        <ele>37</ele>
        <time>2021-11-13T08:31:08Z</time>
      </trkpt>
      <trkpt lat="49.40661" lon="1.07518">
        <ele>37</ele>
        <time>2021-11-13T08:31:10Z</time>
      </trkpt>
      <trkpt lat="49.40658" lon="1.07517">
        <ele>37.1</ele>
        <time>2021-11-13T08:31:11Z</time>
      </trkpt>
      <trkpt lat="49.40657" lon="1.07517">
        <ele>37.1</ele>
        <time>2021-11-13T08:31:12Z</time>
      </trkpt>
      <trkpt lat="49.40653" lon="1.07517">
        <ele>37.2</ele>
        <time>2021-11-13T08:31:14Z</time>
      </trkpt>
      <trkpt lat="49.40647" lon="1.07516">
        <ele>37.3</ele>
        <time>2021-11-13T08:31:15Z</time>
      </trkpt>
      <trkpt lat="49.40643" lon="1.07516">
        <ele>37.4</ele>
        <time>2021-11-13T08:31:16Z</time>
      </trkpt>
      <trkpt lat="49.40638" lon="1.07516">
        <ele>37.5</ele>
        <time>2021-11-13T08:31:18Z</time>
      </trkpt>
      <trkpt lat="49.40634" lon="1.07516">
        <ele>37.6</ele>
        <time>2021-11-13T08:31:19Z</time>
      </trkpt>
      <trkpt lat="49.40629" lon="1.07515">
        <ele>37.7</ele>
        <time>2021-11-13T08:31:21Z</time>
      </trkpt>
      <trkpt lat="49.40626" lon="1.07515">
        <ele>37.8</ele>
        <time>2021-11-13T08:31:22Z</time>
      </trkpt>
      <trkpt lat="49.4062" lon="1.07514">
        <ele>37.9</ele>
        <time>2021-11-13T08:31:23Z</time>
      </trkpt>
      <trkpt lat="49.40617" lon="1.07514">
        <ele>38</ele>
        <time>2021-11-13T08:31:24Z</time>
      </trkpt>
      <trkpt lat="49.40613" lon="1.07513">
        <ele>38.1</ele>
        <time>2021-11-13T08:31:26Z</time>
      </trkpt>
      <trkpt lat="49.40609" lon="1.07513">
        <ele>38.2</ele>
        <time>2021-11-13T08:31:27Z</time>
      </trkpt>
      <trkpt lat="49.40606" lon="1.07512">
        <ele>38.3</ele>
        <time>2021-11-13T08:31:28Z</time>
      </trkpt>
      <trkpt lat="49.40602" lon="1.07511">
        <ele>38.4</ele>
        <time>2021-11-13T08:31:30Z</time>
      </trkpt>
      <trkpt lat="49.40599" lon="1.07509">
        <ele>38.5</ele>
        <time>2021-11-13T08:31:31Z</time>
      </trkpt>
      <trkpt lat="49.40595" lon="1.07508">
        <ele>38.6</ele>
        <time>2021-11-13T08:31:33Z</time>
      </trkpt>
      <trkpt lat="49.4059" lon="1.07507">
        <ele>38.7</ele>
        <time>2021-11-13T08:31:34Z</time>
      </trkpt>
      <trkpt lat="49.40587" lon="1.07507">
        <ele>38.8</ele>
        <time>2021-11-13T08:31:35Z</time>
      </trkpt>
      <trkpt lat="49.40584" lon="1.07507">
        <ele>38.9</ele>
        <time>2021-11-13T08:31:37Z</time>
      </trkpt>
      <trkpt lat="49.4058" lon="1.07507">
        <ele>39</ele>
        <time>2021-11-13T08:31:38Z</time>
      </trkpt>
      <trkpt lat="49.40577" lon="1.07507">
        <ele>39.1</ele>
        <time>2021-11-13T08:31:39Z</time>
      </trkpt>
      <trkpt lat="49.40574" lon="1.07506">
        <ele>39.2</ele>
        <time>2021-11-13T08:31:40Z</time>
      </trkpt>
      <trkpt lat="49.4057" lon="1.07506">
        <ele>39.3</ele>
        <time>2021-11-13T08:31:42Z</time>
      </trkpt>
      <trkpt lat="49.40566" lon="1.07506">
        <ele>39.3</ele>
        <time>2021-11-13T08:31:43Z</time>
      </trkpt>
      <trkpt lat="49.40562" lon="1.07505">
        <ele>39.4</ele>
        <time>2021-11-13T08:31:45Z</time>
      </trkpt>
      <trkpt lat="49.40559" lon="1.07505">
        <ele>39.5</ele>
        <time>2021-11-13T08:31:46Z</time>
      </trkpt>
      <trkpt lat="49.40555" lon="1.07505">
        <ele>39.6</ele>
        <time>2021-11-13T08:31:48Z</time>
      </trkpt>
      <trkpt lat="49.40552" lon="1.07505">
        <ele>39.6</ele>
        <time>2021-11-13T08:31:49Z</time>
      </trkpt>
      <trkpt lat="49.40548" lon="1.07505">
        <ele>39.7</ele>
        <time>2021-11-13T08:31:50Z</time>
      </trkpt>
      <trkpt lat="49.40544" lon="1.07505">
        <ele>39.8</ele>
        <time>2021-11-13T08:31:51Z</time>
      </trkpt>
      <trkpt lat="49.40541" lon="1.07504">
        <ele>39.9</ele>
        <time>2021-11-13T08:31:53Z</time>
      </trkpt>
      <trkpt lat="49.40537" lon="1.07504">
        <ele>40</ele>
        <time>2021-11-13T08:31:54Z</time>
      </trkpt>
      <trkpt lat="49.40533" lon="1.07504">
        <ele>40.1</ele>
        <time>2021-11-13T08:31:55Z</time>
      </trkpt>
      <trkpt lat="49.4053" lon="1.07504">
        <ele>40.1</ele>
        <time>2021-11-13T08:31:56Z</time>
      </trkpt>
      <trkpt lat="49.40527" lon="1.07503">
        <ele>40.2</ele>
        <time>2021-11-13T08:31:58Z</time>
      </trkpt>
      <trkpt lat="49.40524" lon="1.07502">
        <ele>40.3</ele>
        <time>2021-11-13T08:31:59Z</time>
      </trkpt>
      <trkpt lat="49.4052" lon="1.07502">
        <ele>40.4</ele>
        <time>2021-11-13T08:32:01Z</time>
      </trkpt>
      <trkpt lat="49.40517" lon="1.07501">
        <ele>40.4</ele>
        <time>2021-11-13T08:32:02Z</time>
      </trkpt>
      <trkpt lat="49.40514" lon="1.07501">
        <ele>40.5</ele>
        <time>2021-11-13T08:32:03Z</time>
      </trkpt>
      <trkpt lat="49.40508" lon="1.07499">
        <ele>40.6</ele>
        <time>2021-11-13T08:32:05Z</time>
      </trkpt>
      <trkpt lat="49.40506" lon="1.07498">
        <ele>40.7</ele>
        <time>2021-11-13T08:32:06Z</time>
      </trkpt>
      <trkpt lat="49.40504" lon="1.07497">
        <ele>40.7</ele>
        <time>2021-11-13T08:32:07Z</time>
      </trkpt>
      <trkpt lat="49.405" lon="1.07496">
        <ele>40.8</ele>
        <time>2021-11-13T08:32:09Z</time>
      </trkpt>
      <trkpt lat="49.40498" lon="1.07494">
        <ele>40.9</ele>
        <time>2021-11-13T08:32:10Z</time>
      </trkpt>
      <trkpt lat="49.40494" lon="1.07492">
        <ele>41</ele>
        <time>2021-11-13T08:32:12Z</time>
      </trkpt>
      <trkpt lat="49.4049" lon="1.0749">
        <ele>41.1</ele>
        <time>2021-11-13T08:32:13Z</time>
      </trkpt>
      <trkpt lat="49.40487" lon="1.07488">
        <ele>41.1</ele>
        <time>2021-11-13T08:32:14Z</time>
      </trkpt>
      <trkpt lat="49.40484" lon="1.07484">
        <ele>41.2</ele>
        <time>2021-11-13T08:32:16Z</time>
      </trkpt>
      <trkpt lat="49.4048" lon="1.07481">
        <ele>41.3</ele>
        <time>2021-11-13T08:32:17Z</time>
      </trkpt>
      <trkpt lat="49.40476" lon="1.07476">
        <ele>41.4</ele>
        <time>2021-11-13T08:32:19Z</time>
      </trkpt>
      <trkpt lat="49.40474" lon="1.07474">
        <ele>41.5</ele>
        <time>2021-11-13T08:32:20Z</time>
      </trkpt>
      <trkpt lat="49.40472" lon="1.07472">
        <ele>41.5</ele>
        <time>2021-11-13T08:32:21Z</time>
      </trkpt>
      <trkpt lat="49.4047" lon="1.07468">
        <ele>41.5</ele>
        <time>2021-11-13T08:32:23Z</time>
      </trkpt>
      <trkpt lat="49.40468" lon="1.07464">
        <ele>41.6</ele>
        <time>2021-11-13T08:32:24Z</time>
      </trkpt>
      <trkpt lat="49.40465" lon="1.07459">
        <ele>41.7</ele>
        <time>2021-11-13T08:32:26Z</time>
      </trkpt>
      <trkpt lat="49.40463" lon="1.07455">
        <ele>41.7</ele>
        <time>2021-11-13T08:32:27Z</time>
      </trkpt>
      <trkpt lat="49.40462" lon="1.07451">
        <ele>41.7</ele>
        <time>2021-11-13T08:32:28Z</time>
      </trkpt>
      <trkpt lat="49.4046" lon="1.07445">
        <ele>41.8</ele>
        <time>2021-11-13T08:32:29Z</time>
      </trkpt>
      <trkpt lat="49.40459" lon="1.07441">
        <ele>41.8</ele>
        <time>2021-11-13T08:32:31Z</time>
      </trkpt>
      <trkpt lat="49.40458" lon="1.07437">
        <ele>41.8</ele>
        <time>2021-11-13T08:32:32Z</time>
      </trkpt>
      <trkpt lat="49.40456" lon="1.0743">
        <ele>41.8</ele>
        <time>2021-11-13T08:32:33Z</time>
      </trkpt>
      <trkpt lat="49.40456" lon="1.07426">
        <ele>41.8</ele>
        <time>2021-11-13T08:32:34Z</time>
      </trkpt>
      <trkpt lat="49.40455" lon="1.07422">
        <ele>41.8</ele>
        <time>2021-11-13T08:32:35Z</time>
      </trkpt>
      <trkpt lat="49.40454" lon="1.07415">
        <ele>41.8</ele>
        <time>2021-11-13T08:32:37Z</time>
      </trkpt>
      <trkpt lat="49.40454" lon="1.0741">
        <ele>41.8</ele>
        <time>2021-11-13T08:32:38Z</time>
      </trkpt>
      <trkpt lat="49.40453" lon="1.07404">
        <ele>41.9</ele>
        <time>2021-11-13T08:32:40Z</time>
      </trkpt>
      <trkpt lat="49.40452" lon="1.07398">
        <ele>41.9</ele>
        <time>2021-11-13T08:32:41Z</time>
      </trkpt>
      <trkpt lat="49.40451" lon="1.07397">
        <ele>41.9</ele>
        <time>2021-11-13T08:32:42Z</time>
      </trkpt>
      <trkpt lat="49.40451" lon="1.07391">
        <ele>41.9</ele>
        <time>2021-11-13T08:32:44Z</time>
      </trkpt>
      <trkpt lat="49.4045" lon="1.07385">
        <ele>41.8</ele>
        <time>2021-11-13T08:32:45Z</time>
      </trkpt>
      <trkpt lat="49.4045" lon="1.07383">
        <ele>41.8</ele>
        <time>2021-11-13T08:32:46Z</time>
      </trkpt>
      <trkpt lat="49.4045" lon="1.0738">
        <ele>41.8</ele>
        <time>2021-11-13T08:32:47Z</time>
      </trkpt>
      <trkpt lat="49.40451" lon="1.07374">
        <ele>41.8</ele>
        <time>2021-11-13T08:32:49Z</time>
      </trkpt>
      <trkpt lat="49.4045" lon="1.0737">
        <ele>41.8</ele>
        <time>2021-11-13T08:32:50Z</time>
      </trkpt>
      <trkpt lat="49.40451" lon="1.07364">
        <ele>41.8</ele>
        <time>2021-11-13T08:32:51Z</time>
      </trkpt>
      <trkpt lat="49.40451" lon="1.07359">
        <ele>41.8</ele>
        <time>2021-11-13T08:32:53Z</time>
      </trkpt>
      <trkpt lat="49.40452" lon="1.07357">
        <ele>41.8</ele>
        <time>2021-11-13T08:32:54Z</time>
      </trkpt>
      <trkpt lat="49.40453" lon="1.0735">
        <ele>41.8</ele>
        <time>2021-11-13T08:32:55Z</time>
      </trkpt>
      <trkpt lat="49.40454" lon="1.07346">
        <ele>41.7</ele>
        <time>2021-11-13T08:32:56Z</time>
      </trkpt>
      <trkpt lat="49.40456" lon="1.07341">
        <ele>41.7</ele>
        <time>2021-11-13T08:32:58Z</time>
      </trkpt>
      <trkpt lat="49.40458" lon="1.07336">
        <ele>41.7</ele>
        <time>2021-11-13T08:32:59Z</time>
      </trkpt>
      <trkpt lat="49.4046" lon="1.07327">
        <ele>41.7</ele>
        <time>2021-11-13T08:33:00Z</time>
      </trkpt>
      <trkpt lat="49.40462" lon="1.07321">
        <ele>41.6</ele>
        <time>2021-11-13T08:33:01Z</time>
      </trkpt>
      <trkpt lat="49.40464" lon="1.07315">
        <ele>41.6</ele>
        <time>2021-11-13T08:33:03Z</time>
      </trkpt>
      <trkpt lat="49.40465" lon="1.0731">
        <ele>41.6</ele>
        <time>2021-11-13T08:33:04Z</time>
      </trkpt>
      <trkpt lat="49.40467" lon="1.07302">
        <ele>41.5</ele>
        <time>2021-11-13T08:33:05Z</time>
      </trkpt>
      <trkpt lat="49.40469" lon="1.07296">
        <ele>41.5</ele>
        <time>2021-11-13T08:33:06Z</time>
      </trkpt>
      <trkpt lat="49.40471" lon="1.07289">
        <ele>41.4</ele>
        <time>2021-11-13T08:33:08Z</time>
      </trkpt>
      <trkpt lat="49.40473" lon="1.07285">
        <ele>41.4</ele>
        <time>2021-11-13T08:33:09Z</time>
      </trkpt>
      <trkpt lat="49.40474" lon="1.07281">
        <ele>41.4</ele>
        <time>2021-11-13T08:33:10Z</time>
      </trkpt>
      <trkpt lat="49.40476" lon="1.07276">
        <ele>41.3</ele>
        <time>2021-11-13T08:33:11Z</time>
      </trkpt>
      <trkpt lat="49.40478" lon="1.07271">
        <ele>41.3</ele>
        <time>2021-11-13T08:33:13Z</time>
      </trkpt>
      <trkpt lat="49.40479" lon="1.07266">
        <ele>41.3</ele>
        <time>2021-11-13T08:33:14Z</time>
      </trkpt>
      <trkpt lat="49.4048" lon="1.07261">
        <ele>41.2</ele>
        <time>2021-11-13T08:33:15Z</time>
      </trkpt>
      <trkpt lat="49.4048" lon="1.07259">
        <ele>41.2</ele>
        <time>2021-11-13T08:33:16Z</time>
      </trkpt>
      <trkpt lat="49.40481" lon="1.07255">
        <ele>41.2</ele>
        <time>2021-11-13T08:33:18Z</time>
      </trkpt>
      <trkpt lat="49.40483" lon="1.07251">
        <ele>41.1</ele>
        <time>2021-11-13T08:33:19Z</time>
      </trkpt>
      <trkpt lat="49.40484" lon="1.07247">
        <ele>41.1</ele>
        <time>2021-11-13T08:33:20Z</time>
      </trkpt>
      <trkpt lat="49.40487" lon="1.07238">
        <ele>41</ele>
        <time>2021-11-13T08:33:22Z</time>
      </trkpt>
      <trkpt lat="49.40488" lon="1.07235">
        <ele>41</ele>
        <time>2021-11-13T08:33:23Z</time>
      </trkpt>
      <trkpt lat="49.4049" lon="1.07228">
        <ele>41</ele>
        <time>2021-11-13T08:33:25Z</time>
      </trkpt>
      <trkpt lat="49.40492" lon="1.0722">
        <ele>40.9</ele>
        <time>2021-11-13T08:33:26Z</time>
      </trkpt>
      <trkpt lat="49.40494" lon="1.07215">
        <ele>40.8</ele>
        <time>2021-11-13T08:33:27Z</time>
      </trkpt>
      <trkpt lat="49.40495" lon="1.07211">
        <ele>40.8</ele>
        <time>2021-11-13T08:33:28Z</time>
      </trkpt>
      <trkpt lat="49.40496" lon="1.07205">
        <ele>40.7</ele>
        <time>2021-11-13T08:33:30Z</time>
      </trkpt>
      <trkpt lat="49.40498" lon="1.072">
        <ele>40.7</ele>
        <time>2021-11-13T08:33:31Z</time>
      </trkpt>
      <trkpt lat="49.40499" lon="1.07196">
        <ele>40.7</ele>
        <time>2021-11-13T08:33:32Z</time>
      </trkpt>
      <trkpt lat="49.40501" lon="1.07189">
        <ele>40.6</ele>
        <time>2021-11-13T08:33:33Z</time>
      </trkpt>
      <trkpt lat="49.40502" lon="1.07185">
        <ele>40.5</ele>
        <time>2021-11-13T08:33:34Z</time>
      </trkpt>
      <trkpt lat="49.40503" lon="1.07178">
        <ele>40.5</ele>
        <time>2021-11-13T08:33:36Z</time>
      </trkpt>
      <trkpt lat="49.40504" lon="1.07174">
        <ele>40.4</ele>
        <time>2021-11-13T08:33:37Z</time>
      </trkpt>
      <trkpt lat="49.40506" lon="1.07169">
        <ele>40.3</ele>
        <time>2021-11-13T08:33:38Z</time>
      </trkpt>
      <trkpt lat="49.40508" lon="1.07164">
        <ele>40.3</ele>
        <time>2021-11-13T08:33:40Z</time>
      </trkpt>
      <trkpt lat="49.40509" lon="1.07159">
        <ele>40.2</ele>
        <time>2021-11-13T08:33:41Z</time>
      </trkpt>
      <trkpt lat="49.4051" lon="1.07155">
        <ele>40.1</ele>
        <time>2021-11-13T08:33:42Z</time>
      </trkpt>
      <trkpt lat="49.40512" lon="1.07148">
        <ele>40.1</ele>
        <time>2021-11-13T08:33:44Z</time>
      </trkpt>
      <trkpt lat="49.40514" lon="1.07143">
        <ele>40</ele>
        <time>2021-11-13T08:33:45Z</time>
      </trkpt>
      <trkpt lat="49.40516" lon="1.07138">
        <ele>39.9</ele>
        <time>2021-11-13T08:33:46Z</time>
      </trkpt>
      <trkpt lat="49.40518" lon="1.07134">
        <ele>39.8</ele>
        <time>2021-11-13T08:33:47Z</time>
      </trkpt>
      <trkpt lat="49.40519" lon="1.0713">
        <ele>39.7</ele>
        <time>2021-11-13T08:33:49Z</time>
      </trkpt>
      <trkpt lat="49.40521" lon="1.07126">
        <ele>39.7</ele>
        <time>2021-11-13T08:33:50Z</time>
      </trkpt>
      <trkpt lat="49.40523" lon="1.0712">
        <ele>39.6</ele>
        <time>2021-11-13T08:33:51Z</time>
      </trkpt>
      <trkpt lat="49.40525" lon="1.07115">
        <ele>39.5</ele>
        <time>2021-11-13T08:33:52Z</time>
      </trkpt>
      <trkpt lat="49.40526" lon="1.07108">
        <ele>39.4</ele>
        <time>2021-11-13T08:33:54Z</time>
      </trkpt>
      <trkpt lat="49.40528" lon="1.07103">
        <ele>39.3</ele>
        <time>2021-11-13T08:33:55Z</time>
      </trkpt>
      <trkpt lat="49.40529" lon="1.07098">
        <ele>39.2</ele>
        <time>2021-11-13T08:33:56Z</time>
      </trkpt>
      <trkpt lat="49.40531" lon="1.07092">
        <ele>39.1</ele>
        <time>2021-11-13T08:33:58Z</time>
      </trkpt>
      <trkpt lat="49.40532" lon="1.07085">
        <ele>39</ele>
        <time>2021-11-13T08:33:59Z</time>
      </trkpt>
      <trkpt lat="49.40533" lon="1.07081">
        <ele>39</ele>
        <time>2021-11-13T08:34:00Z</time>
      </trkpt>
      <trkpt lat="49.40535" lon="1.07077">
        <ele>38.9</ele>
        <time>2021-11-13T08:34:02Z</time>
      </trkpt>
      <trkpt lat="49.40536" lon="1.07073">
        <ele>38.8</ele>
        <time>2021-11-13T08:34:03Z</time>
      </trkpt>
      <trkpt lat="49.40538" lon="1.07066">
        <ele>38.7</ele>
        <time>2021-11-13T08:34:04Z</time>
      </trkpt>
      <trkpt lat="49.4054" lon="1.07062">
        <ele>38.7</ele>
        <time>2021-11-13T08:34:05Z</time>
      </trkpt>
      <trkpt lat="49.40541" lon="1.07058">
        <ele>38.6</ele>
        <time>2021-11-13T08:34:07Z</time>
      </trkpt>
      <trkpt lat="49.40543" lon="1.07052">
        <ele>38.5</ele>
        <time>2021-11-13T08:34:08Z</time>
      </trkpt>
      <trkpt lat="49.40544" lon="1.07047">
        <ele>38.4</ele>
        <time>2021-11-13T08:34:09Z</time>
      </trkpt>
      <trkpt lat="49.40545" lon="1.07042">
        <ele>38.3</ele>
        <time>2021-11-13T08:34:10Z</time>
      </trkpt>
      <trkpt lat="49.40547" lon="1.07036">
        <ele>38.2</ele>
        <time>2021-11-13T08:34:12Z</time>
      </trkpt>
      <trkpt lat="49.40549" lon="1.07031">
        <ele>38.2</ele>
        <time>2021-11-13T08:34:13Z</time>
      </trkpt>
      <trkpt lat="49.40549" lon="1.07029">
        <ele>38.1</ele>
        <time>2021-11-13T08:34:14Z</time>
      </trkpt>
      <trkpt lat="49.40552" lon="1.07022">
        <ele>38</ele>
        <time>2021-11-13T08:34:16Z</time>
      </trkpt>
      <trkpt lat="49.40553" lon="1.0702">
        <ele>38</ele>
        <time>2021-11-13T08:34:17Z</time>
      </trkpt>
      <trkpt lat="49.40553" lon="1.07018">
        <ele>37.9</ele>
        <time>2021-11-13T08:34:18Z</time>
      </trkpt>
      <trkpt lat="49.40555" lon="1.07013">
        <ele>37.9</ele>
        <time>2021-11-13T08:34:20Z</time>
      </trkpt>
      <trkpt lat="49.40557" lon="1.07009">
        <ele>37.8</ele>
        <time>2021-11-13T08:34:21Z</time>
      </trkpt>
      <trkpt lat="49.4056" lon="1.07003">
        <ele>37.7</ele>
        <time>2021-11-13T08:34:22Z</time>
      </trkpt>
      <trkpt lat="49.40562" lon="1.06998">
        <ele>37.6</ele>
        <time>2021-11-13T08:34:23Z</time>
      </trkpt>
      <trkpt lat="49.40564" lon="1.06993">
        <ele>37.5</ele>
        <time>2021-11-13T08:34:24Z</time>
      </trkpt>
      <trkpt lat="49.40566" lon="1.06988">
        <ele>37.4</ele>
        <time>2021-11-13T08:34:26Z</time>
      </trkpt>
      <trkpt lat="49.4057" lon="1.06982">
        <ele>37.3</ele>
        <time>2021-11-13T08:34:27Z</time>
      </trkpt>
      <trkpt lat="49.40573" lon="1.06978">
        <ele>37.2</ele>
        <time>2021-11-13T08:34:28Z</time>
      </trkpt>
      <trkpt lat="49.40576" lon="1.06974">
        <ele>37.1</ele>
        <time>2021-11-13T08:34:29Z</time>
      </trkpt>
      <trkpt lat="49.4058" lon="1.06969">
        <ele>37</ele>
        <time>2021-11-13T08:34:31Z</time>
      </trkpt>
      <trkpt lat="49.40583" lon="1.06965">
        <ele>36.9</ele>
        <time>2021-11-13T08:34:33Z</time>
      </trkpt>
      <trkpt lat="49.40586" lon="1.06962">
        <ele>36.9</ele>
        <time>2021-11-13T08:34:34Z</time>
      </trkpt>
      <trkpt lat="49.40588" lon="1.06959">
        <ele>36.8</ele>
        <time>2021-11-13T08:34:35Z</time>
      </trkpt>
      <trkpt lat="49.40592" lon="1.06957">
        <ele>36.7</ele>
        <time>2021-11-13T08:34:36Z</time>
      </trkpt>
      <trkpt lat="49.40596" lon="1.06955">
        <ele>36.6</ele>
        <time>2021-11-13T08:34:37Z</time>
      </trkpt>
      <trkpt lat="49.40599" lon="1.06954">
        <ele>36.5</ele>
        <time>2021-11-13T08:34:39Z</time>
      </trkpt>
      <trkpt lat="49.40604" lon="1.06952">
        <ele>36.4</ele>
        <time>2021-11-13T08:34:41Z</time>
      </trkpt>
      <trkpt lat="49.40608" lon="1.0695">
        <ele>36.3</ele>
        <time>2021-11-13T08:34:43Z</time>
      </trkpt>
      <trkpt lat="49.40612" lon="1.06949">
        <ele>36.2</ele>
        <time>2021-11-13T08:34:44Z</time>
      </trkpt>
      <trkpt lat="49.40613" lon="1.06949">
        <ele>36.2</ele>
        <time>2021-11-13T08:34:45Z</time>
      </trkpt>
      <trkpt lat="49.40617" lon="1.06948">
        <ele>36.1</ele>
        <time>2021-11-13T08:34:46Z</time>
      </trkpt>
      <trkpt lat="49.40618" lon="1.06948">
        <ele>36.1</ele>
        <time>2021-11-13T08:34:47Z</time>
      </trkpt>
      <trkpt lat="49.40621" lon="1.06947">
        <ele>36</ele>
        <time>2021-11-13T08:34:49Z</time>
      </trkpt>
      <trkpt lat="49.40624" lon="1.06949">
        <ele>36</ele>
        <time>2021-11-13T08:34:50Z</time>
      </trkpt>
      <trkpt lat="49.40627" lon="1.06946">
        <ele>35.9</ele>
        <time>2021-11-13T08:34:51Z</time>
      </trkpt>
      <trkpt lat="49.40632" lon="1.06947">
        <ele>35.8</ele>
        <time>2021-11-13T08:34:53Z</time>
      </trkpt>
      <trkpt lat="49.40634" lon="1.06949">
        <ele>35.8</ele>
        <time>2021-11-13T08:34:54Z</time>
      </trkpt>
      <trkpt lat="49.40637" lon="1.06951">
        <ele>35.7</ele>
        <time>2021-11-13T08:34:55Z</time>
      </trkpt>
      <trkpt lat="49.4064" lon="1.06951">
        <ele>35.6</ele>
        <time>2021-11-13T08:34:56Z</time>
      </trkpt>
      <trkpt lat="49.40644" lon="1.06952">
        <ele>35.6</ele>
        <time>2021-11-13T08:34:58Z</time>
      </trkpt>
      <trkpt lat="49.40645" lon="1.06952">
        <ele>35.6</ele>
        <time>2021-11-13T08:34:59Z</time>
      </trkpt>
      <trkpt lat="49.40648" lon="1.06956">
        <ele>35.5</ele>
        <time>2021-11-13T08:35:00Z</time>
      </trkpt>
      <trkpt lat="49.40652" lon="1.06958">
        <ele>35.5</ele>
        <time>2021-11-13T08:35:01Z</time>
      </trkpt>
      <trkpt lat="49.40656" lon="1.06959">
        <ele>35.4</ele>
        <time>2021-11-13T08:35:02Z</time>
      </trkpt>
      <trkpt lat="49.40661" lon="1.06962">
        <ele>35.3</ele>
        <time>2021-11-13T08:35:03Z</time>
      </trkpt>
      <trkpt lat="49.40665" lon="1.06965">
        <ele>35.3</ele>
        <time>2021-11-13T08:35:04Z</time>
      </trkpt>
      <trkpt lat="49.40668" lon="1.06968">
        <ele>35.2</ele>
        <time>2021-11-13T08:35:05Z</time>
      </trkpt>
      <trkpt lat="49.40671" lon="1.06969">
        <ele>35.2</ele>
        <time>2021-11-13T08:35:06Z</time>
      </trkpt>
      <trkpt lat="49.40674" lon="1.06971">
        <ele>35.2</ele>
        <time>2021-11-13T08:35:08Z</time>
      </trkpt>
      <trkpt lat="49.40677" lon="1.06973">
        <ele>35.1</ele>
        <time>2021-11-13T08:35:09Z</time>
      </trkpt>
      <trkpt lat="49.4068" lon="1.06976">
        <ele>35.1</ele>
        <time>2021-11-13T08:35:10Z</time>
      </trkpt>
      <trkpt lat="49.40685" lon="1.06979">
        <ele>35.1</ele>
        <time>2021-11-13T08:35:12Z</time>
      </trkpt>
      <trkpt lat="49.40689" lon="1.06982">
        <ele>35</ele>
        <time>2021-11-13T08:35:13Z</time>
      </trkpt>
      <trkpt lat="49.40694" lon="1.06985">
        <ele>34.9</ele>
        <time>2021-11-13T08:35:15Z</time>
      </trkpt>
      <trkpt lat="49.40698" lon="1.06988">
        <ele>34.9</ele>
        <time>2021-11-13T08:35:16Z</time>
      </trkpt>
      <trkpt lat="49.40701" lon="1.06991">
        <ele>34.8</ele>
        <time>2021-11-13T08:35:17Z</time>
      </trkpt>
      <trkpt lat="49.40705" lon="1.06994">
        <ele>34.8</ele>
        <time>2021-11-13T08:35:19Z</time>
      </trkpt>
      <trkpt lat="49.40709" lon="1.06997">
        <ele>34.7</ele>
        <time>2021-11-13T08:35:20Z</time>
      </trkpt>
      <trkpt lat="49.40713" lon="1.07">
        <ele>34.7</ele>
        <time>2021-11-13T08:35:22Z</time>
      </trkpt>
      <trkpt lat="49.40715" lon="1.07001">
        <ele>34.7</ele>
        <time>2021-11-13T08:35:23Z</time>
      </trkpt>
      <trkpt lat="49.40719" lon="1.07004">
        <ele>34.6</ele>
        <time>2021-11-13T08:35:25Z</time>
      </trkpt>
      <trkpt lat="49.40722" lon="1.07007">
        <ele>34.6</ele>
        <time>2021-11-13T08:35:26Z</time>
      </trkpt>
      <trkpt lat="49.40723" lon="1.07007">
        <ele>34.6</ele>
        <time>2021-11-13T08:35:27Z</time>
      </trkpt>
      <trkpt lat="49.40726" lon="1.07009">
        <ele>34.5</ele>
        <time>2021-11-13T08:35:28Z</time>
      </trkpt>
      <trkpt lat="49.40727" lon="1.07011">
        <ele>34.5</ele>
        <time>2021-11-13T08:35:29Z</time>
      </trkpt>
      <trkpt lat="49.4073" lon="1.07013">
        <ele>34.5</ele>
        <time>2021-11-13T08:35:30Z</time>
      </trkpt>
      <trkpt lat="49.40733" lon="1.07015">
        <ele>34.5</ele>
        <time>2021-11-13T08:35:32Z</time>
      </trkpt>
      <trkpt lat="49.40734" lon="1.07016">
        <ele>34.5</ele>
        <time>2021-11-13T08:35:33Z</time>
      </trkpt>
      <trkpt lat="49.40736" lon="1.07018">
        <ele>34.4</ele>
        <time>2021-11-13T08:35:34Z</time>
      </trkpt>
      <trkpt lat="49.40739" lon="1.0702">
        <ele>34.4</ele>
        <time>2021-11-13T08:35:35Z</time>
      </trkpt>
      <trkpt lat="49.40743" lon="1.07023">
        <ele>34.4</ele>
        <time>2021-11-13T08:35:37Z</time>
      </trkpt>
      <trkpt lat="49.40746" lon="1.07026">
        <ele>34.3</ele>
        <time>2021-11-13T08:35:38Z</time>
      </trkpt>
      <trkpt lat="49.4075" lon="1.07028">
        <ele>34.3</ele>
        <time>2021-11-13T08:35:39Z</time>
      </trkpt>
      <trkpt lat="49.40754" lon="1.07031">
        <ele>34.3</ele>
        <time>2021-11-13T08:35:40Z</time>
      </trkpt>
      <trkpt lat="49.4076" lon="1.07035">
        <ele>34.2</ele>
        <time>2021-11-13T08:35:42Z</time>
      </trkpt>
      <trkpt lat="49.40764" lon="1.07038">
        <ele>34.2</ele>
        <time>2021-11-13T08:35:43Z</time>
      </trkpt>
      <trkpt lat="49.40769" lon="1.0704">
        <ele>34.1</ele>
        <time>2021-11-13T08:35:44Z</time>
      </trkpt>
      <trkpt lat="49.40773" lon="1.07042">
        <ele>34.1</ele>
        <time>2021-11-13T08:35:46Z</time>
      </trkpt>
      <trkpt lat="49.40777" lon="1.07046">
        <ele>34.1</ele>
        <time>2021-11-13T08:35:47Z</time>
      </trkpt>
      <trkpt lat="49.40781" lon="1.07048">
        <ele>34.1</ele>
        <time>2021-11-13T08:35:48Z</time>
      </trkpt>
      <trkpt lat="49.40785" lon="1.0705">
        <ele>34</ele>
        <time>2021-11-13T08:35:50Z</time>
      </trkpt>
      <trkpt lat="49.40788" lon="1.07052">
        <ele>34</ele>
        <time>2021-11-13T08:35:51Z</time>
      </trkpt>
      <trkpt lat="49.40792" lon="1.07055">
        <ele>34</ele>
        <time>2021-11-13T08:35:53Z</time>
      </trkpt>
      <trkpt lat="49.40796" lon="1.07059">
        <ele>34</ele>
        <time>2021-11-13T08:35:54Z</time>
      </trkpt>
      <trkpt lat="49.40798" lon="1.07061">
        <ele>34</ele>
        <time>2021-11-13T08:35:55Z</time>
      </trkpt>
      <trkpt lat="49.40801" lon="1.07063">
        <ele>34</ele>
        <time>2021-11-13T08:35:56Z</time>
      </trkpt>
      <trkpt lat="49.40804" lon="1.07065">
        <ele>34</ele>
        <time>2021-11-13T08:35:58Z</time>
      </trkpt>
      <trkpt lat="49.40807" lon="1.07069">
        <ele>34</ele>
        <time>2021-11-13T08:35:59Z</time>
      </trkpt>
      <trkpt lat="49.4081" lon="1.07071">
        <ele>34</ele>
        <time>2021-11-13T08:36:00Z</time>
      </trkpt>
      <trkpt lat="49.40813" lon="1.07073">
        <ele>34</ele>
        <time>2021-11-13T08:36:01Z</time>
      </trkpt>
      <trkpt lat="49.40815" lon="1.07076">
        <ele>33.9</ele>
        <time>2021-11-13T08:36:03Z</time>
      </trkpt>
      <trkpt lat="49.40819" lon="1.07079">
        <ele>33.9</ele>
        <time>2021-11-13T08:36:04Z</time>
      </trkpt>
      <trkpt lat="49.40822" lon="1.07082">
        <ele>33.9</ele>
        <time>2021-11-13T08:36:05Z</time>
      </trkpt>
      <trkpt lat="49.40825" lon="1.07085">
        <ele>33.9</ele>
        <time>2021-11-13T08:36:06Z</time>
      </trkpt>
      <trkpt lat="49.40827" lon="1.07087">
        <ele>33.9</ele>
        <time>2021-11-13T08:36:08Z</time>
      </trkpt>
      <trkpt lat="49.4083" lon="1.07089">
        <ele>33.8</ele>
        <time>2021-11-13T08:36:09Z</time>
      </trkpt>
      <trkpt lat="49.40834" lon="1.07092">
        <ele>33.8</ele>
        <time>2021-11-13T08:36:10Z</time>
      </trkpt>
      <trkpt lat="49.40837" lon="1.07094">
        <ele>33.8</ele>
        <time>2021-11-13T08:36:11Z</time>
      </trkpt>
      <trkpt lat="49.4084" lon="1.07096">
        <ele>33.8</ele>
        <time>2021-11-13T08:36:12Z</time>
      </trkpt>
      <trkpt lat="49.40842" lon="1.07099">
        <ele>33.8</ele>
        <time>2021-11-13T08:36:14Z</time>
      </trkpt>
      <trkpt lat="49.40846" lon="1.07102">
        <ele>33.8</ele>
        <time>2021-11-13T08:36:15Z</time>
      </trkpt>
      <trkpt lat="49.40849" lon="1.07104">
        <ele>33.8</ele>
        <time>2021-11-13T08:36:16Z</time>
      </trkpt>
      <trkpt lat="49.40852" lon="1.07107">
        <ele>33.7</ele>
        <time>2021-11-13T08:36:17Z</time>
      </trkpt>
      <trkpt lat="49.40855" lon="1.07109">
        <ele>33.7</ele>
        <time>2021-11-13T08:36:18Z</time>
      </trkpt>
      <trkpt lat="49.40858" lon="1.07113">
        <ele>33.7</ele>
        <time>2021-11-13T08:36:20Z</time>
      </trkpt>
      <trkpt lat="49.40861" lon="1.07116">
        <ele>33.7</ele>
        <time>2021-11-13T08:36:21Z</time>
      </trkpt>
      <trkpt lat="49.40864" lon="1.07119">
        <ele>33.7</ele>
        <time>2021-11-13T08:36:22Z</time>
      </trkpt>
      <trkpt lat="49.40866" lon="1.07121">
        <ele>33.7</ele>
        <time>2021-11-13T08:36:23Z</time>
      </trkpt>
      <trkpt lat="49.4087" lon="1.07125">
        <ele>33.7</ele>
        <time>2021-11-13T08:36:25Z</time>
      </trkpt>
      <trkpt lat="49.40872" lon="1.07127">
        <ele>33.7</ele>
        <time>2021-11-13T08:36:26Z</time>
      </trkpt>
      <trkpt lat="49.40873" lon="1.07129">
        <ele>33.7</ele>
        <time>2021-11-13T08:36:27Z</time>
      </trkpt>
      <trkpt lat="49.40877" lon="1.07133">
        <ele>33.6</ele>
        <time>2021-11-13T08:36:28Z</time>
      </trkpt>
      <trkpt lat="49.4088" lon="1.07136">
        <ele>33.6</ele>
        <time>2021-11-13T08:36:29Z</time>
      </trkpt>
      <trkpt lat="49.40882" lon="1.07139">
        <ele>33.6</ele>
        <time>2021-11-13T08:36:31Z</time>
      </trkpt>
      <trkpt lat="49.40886" lon="1.07143">
        <ele>33.6</ele>
        <time>2021-11-13T08:36:32Z</time>
      </trkpt>
      <trkpt lat="49.40889" lon="1.07146">
        <ele>33.6</ele>
        <time>2021-11-13T08:36:33Z</time>
      </trkpt>
      <trkpt lat="49.40891" lon="1.0715">
        <ele>33.6</ele>
        <time>2021-11-13T08:36:35Z</time>
      </trkpt>
      <trkpt lat="49.40894" lon="1.07154">
        <ele>33.6</ele>
        <time>2021-11-13T08:36:36Z</time>
      </trkpt>
      <trkpt lat="49.40896" lon="1.07157">
        <ele>33.5</ele>
        <time>2021-11-13T08:36:37Z</time>
      </trkpt>
      <trkpt lat="49.40898" lon="1.07161">
        <ele>33.5</ele>
        <time>2021-11-13T08:36:38Z</time>
      </trkpt>
      <trkpt lat="49.409" lon="1.07166">
        <ele>33.5</ele>
        <time>2021-11-13T08:36:40Z</time>
      </trkpt>
      <trkpt lat="49.40902" lon="1.0717">
        <ele>33.5</ele>
        <time>2021-11-13T08:36:41Z</time>
      </trkpt>
      <trkpt lat="49.40904" lon="1.07175">
        <ele>33.5</ele>
        <time>2021-11-13T08:36:42Z</time>
      </trkpt>
      <trkpt lat="49.40906" lon="1.07181">
        <ele>33.5</ele>
        <time>2021-11-13T08:36:44Z</time>
      </trkpt>
      <trkpt lat="49.40907" lon="1.07185">
        <ele>33.5</ele>
        <time>2021-11-13T08:36:45Z</time>
      </trkpt>
      <trkpt lat="49.40909" lon="1.07193">
        <ele>33.5</ele>
        <time>2021-11-13T08:36:47Z</time>
      </trkpt>
      <trkpt lat="49.4091" lon="1.07199">
        <ele>33.5</ele>
        <time>2021-11-13T08:36:49Z</time>
      </trkpt>
      <trkpt lat="49.40911" lon="1.07204">
        <ele>33.5</ele>
        <time>2021-11-13T08:36:51Z</time>
      </trkpt>
      <trkpt lat="49.40912" lon="1.07206">
        <ele>33.5</ele>
        <time>2021-11-13T08:36:52Z</time>
      </trkpt>
      <trkpt lat="49.40912" lon="1.07208">
        <ele>33.5</ele>
        <time>2021-11-13T08:36:53Z</time>
      </trkpt>
      <trkpt lat="49.40913" lon="1.07213">
        <ele>33.5</ele>
        <time>2021-11-13T08:36:54Z</time>
      </trkpt>
      <trkpt lat="49.40913" lon="1.07214">
        <ele>33.5</ele>
        <time>2021-11-13T08:36:55Z</time>
      </trkpt>
      <trkpt lat="49.40914" lon="1.07217">
        <ele>33.5</ele>
        <time>2021-11-13T08:36:56Z</time>
      </trkpt>
      <trkpt lat="49.40914" lon="1.07223">
        <ele>33.5</ele>
        <time>2021-11-13T08:36:58Z</time>
      </trkpt>
      <trkpt lat="49.40914" lon="1.07229">
        <ele>33.5</ele>
        <time>2021-11-13T08:36:59Z</time>
      </trkpt>
      <trkpt lat="49.40914" lon="1.07234">
        <ele>33.5</ele>
        <time>2021-11-13T08:37:00Z</time>
      </trkpt>
      <trkpt lat="49.40914" lon="1.07239">
        <ele>33.5</ele>
        <time>2021-11-13T08:37:01Z</time>
      </trkpt>
      <trkpt lat="49.40914" lon="1.07244">
        <ele>33.5</ele>
        <time>2021-11-13T08:37:02Z</time>
      </trkpt>
      <trkpt lat="49.40913" lon="1.07249">
        <ele>33.4</ele>
        <time>2021-11-13T08:37:04Z</time>
      </trkpt>
      <trkpt lat="49.40913" lon="1.07254">
        <ele>33.4</ele>
        <time>2021-11-13T08:37:05Z</time>
      </trkpt>
      <trkpt lat="49.40912" lon="1.07262">
        <ele>33.4</ele>
        <time>2021-11-13T08:37:07Z</time>
      </trkpt>
      <trkpt lat="49.40911" lon="1.07268">
        <ele>33.4</ele>
        <time>2021-11-13T08:37:08Z</time>
      </trkpt>
      <trkpt lat="49.4091" lon="1.07278">
        <ele>33.4</ele>
        <time>2021-11-13T08:37:09Z</time>
      </trkpt>
      <trkpt lat="49.40909" lon="1.07285">
        <ele>33.3</ele>
        <time>2021-11-13T08:37:10Z</time>
      </trkpt>
      <trkpt lat="49.40908" lon="1.07292">
        <ele>33.3</ele>
        <time>2021-11-13T08:37:12Z</time>
      </trkpt>
      <trkpt lat="49.40907" lon="1.07297">
        <ele>33.3</ele>
        <time>2021-11-13T08:37:13Z</time>
      </trkpt>
      <trkpt lat="49.40905" lon="1.07305">
        <ele>33.3</ele>
        <time>2021-11-13T08:37:14Z</time>
      </trkpt>
      <trkpt lat="49.40904" lon="1.0731">
        <ele>33.3</ele>
        <time>2021-11-13T08:37:15Z</time>
      </trkpt>
      <trkpt lat="49.40903" lon="1.07315">
        <ele>33.3</ele>
        <time>2021-11-13T08:37:16Z</time>
      </trkpt>
      <trkpt lat="49.40902" lon="1.07322">
        <ele>33.3</ele>
        <time>2021-11-13T08:37:18Z</time>
      </trkpt>
      <trkpt lat="49.409" lon="1.07327">
        <ele>33.3</ele>
        <time>2021-11-13T08:37:19Z</time>
      </trkpt>
      <trkpt lat="49.40899" lon="1.07332">
        <ele>33.3</ele>
        <time>2021-11-13T08:37:20Z</time>
      </trkpt>
      <trkpt lat="49.40898" lon="1.07336">
        <ele>33.3</ele>
        <time>2021-11-13T08:37:21Z</time>
      </trkpt>
      <trkpt lat="49.40895" lon="1.07341">
        <ele>33.3</ele>
        <time>2021-11-13T08:37:23Z</time>
      </trkpt>
      <trkpt lat="49.40894" lon="1.07345">
        <ele>33.3</ele>
        <time>2021-11-13T08:37:24Z</time>
      </trkpt>
      <trkpt lat="49.40891" lon="1.07351">
        <ele>33.3</ele>
        <time>2021-11-13T08:37:26Z</time>
      </trkpt>
      <trkpt lat="49.4089" lon="1.07355">
        <ele>33.3</ele>
        <time>2021-11-13T08:37:27Z</time>
      </trkpt>
      <trkpt lat="49.40888" lon="1.07361">
        <ele>33.3</ele>
        <time>2021-11-13T08:37:28Z</time>
      </trkpt>
      <trkpt lat="49.40886" lon="1.07365">
        <ele>33.4</ele>
        <time>2021-11-13T08:37:29Z</time>
      </trkpt>
      <trkpt lat="49.40885" lon="1.07369">
        <ele>33.4</ele>
        <time>2021-11-13T08:37:31Z</time>
      </trkpt>
      <trkpt lat="49.40883" lon="1.07373">
        <ele>33.4</ele>
        <time>2021-11-13T08:37:32Z</time>
      </trkpt>
      <trkpt lat="49.40881" lon="1.07379">
        <ele>33.4</ele>
        <time>2021-11-13T08:37:34Z</time>
      </trkpt>
      <trkpt lat="49.4088" lon="1.07383">
        <ele>33.4</ele>
        <time>2021-11-13T08:37:35Z</time>
      </trkpt>
      <trkpt lat="49.40878" lon="1.07388">
        <ele>33.4</ele>
        <time>2021-11-13T08:37:37Z</time>
      </trkpt>
      <trkpt lat="49.40877" lon="1.07393">
        <ele>33.5</ele>
        <time>2021-11-13T08:37:39Z</time>
      </trkpt>
      <trkpt lat="49.40876" lon="1.07396">
        <ele>33.5</ele>
        <time>2021-11-13T08:37:40Z</time>
      </trkpt>
      <trkpt lat="49.40874" lon="1.07401">
        <ele>33.5</ele>
        <time>2021-11-13T08:37:42Z</time>
      </trkpt>
      <trkpt lat="49.40873" lon="1.07405">
        <ele>33.5</ele>
        <time>2021-11-13T08:37:43Z</time>
      </trkpt>
      <trkpt lat="49.40872" lon="1.07411">
        <ele>33.5</ele>
        <time>2021-11-13T08:37:45Z</time>
      </trkpt>
      <trkpt lat="49.40871" lon="1.07417">
        <ele>33.5</ele>
        <time>2021-11-13T08:37:46Z</time>
      </trkpt>
      <trkpt lat="49.40871" lon="1.07419">
        <ele>33.6</ele>
        <time>2021-11-13T08:37:47Z</time>
      </trkpt>
      <trkpt lat="49.40871" lon="1.07428">
        <ele>33.6</ele>
        <time>2021-11-13T08:37:49Z</time>
      </trkpt>
      <trkpt lat="49.4087" lon="1.07433">
        <ele>33.6</ele>
        <time>2021-11-13T08:37:50Z</time>
      </trkpt>
      <trkpt lat="49.40869" lon="1.07438">
        <ele>33.6</ele>
        <time>2021-11-13T08:37:51Z</time>
      </trkpt>
      <trkpt lat="49.40865" lon="1.07446">
        <ele>33.6</ele>
        <time>2021-11-13T08:37:53Z</time>
      </trkpt>
      <trkpt lat="49.40859" lon="1.07459">
        <ele>33.7</ele>
        <time>2021-11-13T08:37:55Z</time>
      </trkpt>
      <trkpt lat="49.40857" lon="1.07464">
        <ele>33.7</ele>
        <time>2021-11-13T08:37:56Z</time>
      </trkpt>
      <trkpt lat="49.40854" lon="1.07472">
        <ele>33.7</ele>
        <time>2021-11-13T08:37:58Z</time>
      </trkpt>
      <trkpt lat="49.40852" lon="1.07476">
        <ele>33.7</ele>
        <time>2021-11-13T08:37:59Z</time>
      </trkpt>
      <trkpt lat="49.4085" lon="1.07479">
        <ele>33.8</ele>
        <time>2021-11-13T08:38:00Z</time>
      </trkpt>
      <trkpt lat="49.40848" lon="1.07482">
        <ele>33.8</ele>
        <time>2021-11-13T08:38:01Z</time>
      </trkpt>
      <trkpt lat="49.40848" lon="1.07484">
        <ele>33.8</ele>
        <time>2021-11-13T08:38:02Z</time>
      </trkpt>
      <trkpt lat="49.40846" lon="1.07488">
        <ele>33.8</ele>
        <time>2021-11-13T08:38:03Z</time>
      </trkpt>
      <trkpt lat="49.40845" lon="1.0749">
        <ele>33.8</ele>
        <time>2021-11-13T08:38:04Z</time>
      </trkpt>
      <trkpt lat="49.40843" lon="1.07492">
        <ele>33.8</ele>
        <time>2021-11-13T08:38:05Z</time>
      </trkpt>
      <trkpt lat="49.40842" lon="1.07493">
        <ele>33.9</ele>
        <time>2021-11-13T08:38:07Z</time>
      </trkpt>
      <trkpt lat="49.40838" lon="1.07496">
        <ele>33.9</ele>
        <time>2021-11-13T08:38:09Z</time>
      </trkpt>
      <trkpt lat="49.40835" lon="1.07499">
        <ele>33.9</ele>
        <time>2021-11-13T08:38:10Z</time>
      </trkpt>
      <trkpt lat="49.40834" lon="1.075">
        <ele>34</ele>
        <time>2021-11-13T08:38:11Z</time>
      </trkpt>
      <trkpt lat="49.40832" lon="1.07503">
        <ele>34</ele>
        <time>2021-11-13T08:38:12Z</time>
      </trkpt>
      <trkpt lat="49.40829" lon="1.07507">
        <ele>34</ele>
        <time>2021-11-13T08:38:13Z</time>
      </trkpt>
      <trkpt lat="49.40826" lon="1.0751">
        <ele>34.1</ele>
        <time>2021-11-13T08:38:14Z</time>
      </trkpt>
      <trkpt lat="49.40823" lon="1.07511">
        <ele>34.1</ele>
        <time>2021-11-13T08:38:16Z</time>
      </trkpt>
      <trkpt lat="49.40821" lon="1.07512">
        <ele>34.1</ele>
        <time>2021-11-13T08:38:17Z</time>
      </trkpt>
      <trkpt lat="49.40818" lon="1.07513">
        <ele>34.2</ele>
        <time>2021-11-13T08:38:19Z</time>
      </trkpt>
      <trkpt lat="49.40814" lon="1.07517">
        <ele>34.2</ele>
        <time>2021-11-13T08:38:20Z</time>
      </trkpt>
      <trkpt lat="49.40811" lon="1.07517">
        <ele>34.2</ele>
        <time>2021-11-13T08:38:22Z</time>
      </trkpt>
      <trkpt lat="49.40807" lon="1.0752">
        <ele>34.3</ele>
        <time>2021-11-13T08:38:23Z</time>
      </trkpt>
      <trkpt lat="49.40802" lon="1.0752">
        <ele>34.3</ele>
        <time>2021-11-13T08:38:24Z</time>
      </trkpt>
      <trkpt lat="49.40798" lon="1.07525">
        <ele>34.4</ele>
        <time>2021-11-13T08:38:25Z</time>
      </trkpt>
      <trkpt lat="49.40795" lon="1.07527">
        <ele>34.4</ele>
        <time>2021-11-13T08:38:26Z</time>
      </trkpt>
      <trkpt lat="49.40791" lon="1.07527">
        <ele>34.5</ele>
        <time>2021-11-13T08:38:27Z</time>
      </trkpt>
      <trkpt lat="49.40787" lon="1.07528">
        <ele>34.5</ele>
        <time>2021-11-13T08:38:29Z</time>
      </trkpt>
      <trkpt lat="49.40785" lon="1.07528">
        <ele>34.6</ele>
        <time>2021-11-13T08:38:30Z</time>
      </trkpt>
      <trkpt lat="49.40781" lon="1.07529">
        <ele>34.6</ele>
        <time>2021-11-13T08:38:32Z</time>
      </trkpt>
      <trkpt lat="49.40777" lon="1.0753">
        <ele>34.7</ele>
        <time>2021-11-13T08:38:33Z</time>
      </trkpt>
      <trkpt lat="49.40775" lon="1.0753">
        <ele>34.7</ele>
        <time>2021-11-13T08:38:34Z</time>
      </trkpt>
      <trkpt lat="49.40771" lon="1.0753">
        <ele>34.8</ele>
        <time>2021-11-13T08:38:35Z</time>
      </trkpt>
      <trkpt lat="49.40768" lon="1.0753">
        <ele>34.8</ele>
        <time>2021-11-13T08:38:37Z</time>
      </trkpt>
      <trkpt lat="49.40762" lon="1.0753">
        <ele>34.9</ele>
        <time>2021-11-13T08:38:38Z</time>
      </trkpt>
      <trkpt lat="49.40759" lon="1.0753">
        <ele>35</ele>
        <time>2021-11-13T08:38:39Z</time>
      </trkpt>
      <trkpt lat="49.40754" lon="1.0753">
        <ele>35.1</ele>
        <time>2021-11-13T08:38:41Z</time>
      </trkpt>
      <trkpt lat="49.40749" lon="1.07529">
        <ele>35.1</ele>
        <time>2021-11-13T08:38:42Z</time>
      </trkpt>
      <trkpt lat="49.40746" lon="1.07529">
        <ele>35.2</ele>
        <time>2021-11-13T08:38:43Z</time>
      </trkpt>
      <trkpt lat="49.40741" lon="1.07528">
        <ele>35.3</ele>
        <time>2021-11-13T08:38:45Z</time>
      </trkpt>
      <trkpt lat="49.40738" lon="1.07527">
        <ele>35.3</ele>
        <time>2021-11-13T08:38:46Z</time>
      </trkpt>
      <trkpt lat="49.40735" lon="1.07527">
        <ele>35.4</ele>
        <time>2021-11-13T08:38:47Z</time>
      </trkpt>
      <trkpt lat="49.4073" lon="1.07526">
        <ele>35.5</ele>
        <time>2021-11-13T08:38:49Z</time>
      </trkpt>
      <trkpt lat="49.40728" lon="1.07525">
        <ele>35.5</ele>
        <time>2021-11-13T08:38:50Z</time>
      </trkpt>
      <trkpt lat="49.40726" lon="1.07525">
        <ele>35.6</ele>
        <time>2021-11-13T08:38:51Z</time>
      </trkpt>
      <trkpt lat="49.40723" lon="1.07525">
        <ele>35.6</ele>
        <time>2021-11-13T08:38:52Z</time>
      </trkpt>
      <trkpt lat="49.4072" lon="1.07524">
        <ele>35.7</ele>
        <time>2021-11-13T08:38:53Z</time>
      </trkpt>
      <trkpt lat="49.40717" lon="1.07523">
        <ele>35.7</ele>
        <time>2021-11-13T08:38:54Z</time>
      </trkpt>
      <trkpt lat="49.40714" lon="1.07523">
        <ele>35.8</ele>
        <time>2021-11-13T08:38:55Z</time>
      </trkpt>
      <trkpt lat="49.4071" lon="1.07522">
        <ele>35.9</ele>
        <time>2021-11-13T08:38:57Z</time>
      </trkpt>
      <trkpt lat="49.40708" lon="1.07522">
        <ele>35.9</ele>
        <time>2021-11-13T08:38:58Z</time>
      </trkpt>
      <trkpt lat="49.40704" lon="1.07521">
        <ele>36</ele>
        <time>2021-11-13T08:39:00Z</time>
      </trkpt>
      <trkpt lat="49.40699" lon="1.07519">
        <ele>36.1</ele>
        <time>2021-11-13T08:39:01Z</time>
      </trkpt>
      <trkpt lat="49.40696" lon="1.07519">
        <ele>36.2</ele>
        <time>2021-11-13T08:39:02Z</time>
      </trkpt>
      <trkpt lat="49.40692" lon="1.07518">
        <ele>36.3</ele>
        <time>2021-11-13T08:39:04Z</time>
      </trkpt>
      <trkpt lat="49.40688" lon="1.07518">
        <ele>36.4</ele>
        <time>2021-11-13T08:39:05Z</time>
      </trkpt>
      <trkpt lat="49.40687" lon="1.07518">
        <ele>36.4</ele>
        <time>2021-11-13T08:39:06Z</time>
      </trkpt>
      <trkpt lat="49.40684" lon="1.07518">
        <ele>36.5</ele>
        <time>2021-11-13T08:39:07Z</time>
      </trkpt>
      <trkpt lat="49.40681" lon="1.07518">
        <ele>36.5</ele>
        <time>2021-11-13T08:39:08Z</time>
      </trkpt>
      <trkpt lat="49.40678" lon="1.07518">
        <ele>36.6</ele>
        <time>2021-11-13T08:39:09Z</time>
      </trkpt>
      <trkpt lat="49.40675" lon="1.07519">
        <ele>36.7</ele>
        <time>2021-11-13T08:39:10Z</time>
      </trkpt>
      <trkpt lat="49.40671" lon="1.07519">
        <ele>36.8</ele>
        <time>2021-11-13T08:39:12Z</time>
      </trkpt>
      <trkpt lat="49.40667" lon="1.07519">
        <ele>36.9</ele>
        <time>2021-11-13T08:39:14Z</time>
      </trkpt>
      <trkpt lat="49.40664" lon="1.07518">
        <ele>36.9</ele>
        <time>2021-11-13T08:39:15Z</time>
      </trkpt>
      <trkpt lat="49.40659" lon="1.07518">
        <ele>37</ele>
        <time>2021-11-13T08:39:16Z</time>
      </trkpt>
      <trkpt lat="49.40656" lon="1.07518">
        <ele>37.1</ele>
        <time>2021-11-13T08:39:17Z</time>
      </trkpt>
      <trkpt lat="49.40652" lon="1.07517">
        <ele>37.2</ele>
        <time>2021-11-13T08:39:19Z</time>
      </trkpt>
      <trkpt lat="49.40649" lon="1.07517">
        <ele>37.3</ele>
        <time>2021-11-13T08:39:20Z</time>
      </trkpt>
      <trkpt lat="49.40645" lon="1.07516">
        <ele>37.3</ele>
        <time>2021-11-13T08:39:22Z</time>
      </trkpt>
      <trkpt lat="49.40641" lon="1.07514">
        <ele>37.4</ele>
        <time>2021-11-13T08:39:23Z</time>
      </trkpt>
      <trkpt lat="49.40638" lon="1.07513">
        <ele>37.5</ele>
        <time>2021-11-13T08:39:24Z</time>
      </trkpt>
      <trkpt lat="49.40633" lon="1.07512">
        <ele>37.6</ele>
        <time>2021-11-13T08:39:26Z</time>
      </trkpt>
      <trkpt lat="49.40632" lon="1.07512">
        <ele>37.7</ele>
        <time>2021-11-13T08:39:27Z</time>
      </trkpt>
      <trkpt lat="49.40629" lon="1.07511">
        <ele>37.7</ele>
        <time>2021-11-13T08:39:28Z</time>
      </trkpt>
      <trkpt lat="49.40625" lon="1.0751">
        <ele>37.8</ele>
        <time>2021-11-13T08:39:30Z</time>
      </trkpt>
      <trkpt lat="49.40621" lon="1.0751">
        <ele>37.9</ele>
        <time>2021-11-13T08:39:31Z</time>
      </trkpt>
      <trkpt lat="49.40617" lon="1.07509">
        <ele>38</ele>
        <time>2021-11-13T08:39:32Z</time>
      </trkpt>
      <trkpt lat="49.40614" lon="1.07509">
        <ele>38.1</ele>
        <time>2021-11-13T08:39:34Z</time>
      </trkpt>
      <trkpt lat="49.4061" lon="1.07509">
        <ele>38.2</ele>
        <time>2021-11-13T08:39:35Z</time>
      </trkpt>
      <trkpt lat="49.40607" lon="1.07509">
        <ele>38.3</ele>
        <time>2021-11-13T08:39:37Z</time>
      </trkpt>
      <trkpt lat="49.40602" lon="1.07508">
        <ele>38.4</ele>
        <time>2021-11-13T08:39:38Z</time>
      </trkpt>
      <trkpt lat="49.406" lon="1.07508">
        <ele>38.4</ele>
        <time>2021-11-13T08:39:39Z</time>
      </trkpt>
      <trkpt lat="49.40596" lon="1.07508">
        <ele>38.6</ele>
        <time>2021-11-13T08:39:41Z</time>
      </trkpt>
      <trkpt lat="49.40592" lon="1.07507">
        <ele>38.7</ele>
        <time>2021-11-13T08:39:42Z</time>
      </trkpt>
      <trkpt lat="49.40589" lon="1.07507">
        <ele>38.8</ele>
        <time>2021-11-13T08:39:43Z</time>
      </trkpt>
      <trkpt lat="49.40586" lon="1.07507">
        <ele>38.9</ele>
        <time>2021-11-13T08:39:44Z</time>
      </trkpt>
      <trkpt lat="49.40583" lon="1.07506">
        <ele>39</ele>
        <time>2021-11-13T08:39:46Z</time>
      </trkpt>
      <trkpt lat="49.40578" lon="1.07506">
        <ele>39.1</ele>
        <time>2021-11-13T08:39:47Z</time>
      </trkpt>
      <trkpt lat="49.40575" lon="1.07506">
        <ele>39.2</ele>
        <time>2021-11-13T08:39:48Z</time>
      </trkpt>
      <trkpt lat="49.40571" lon="1.07506">
        <ele>39.2</ele>
        <time>2021-11-13T08:39:49Z</time>
      </trkpt>
      <trkpt lat="49.40568" lon="1.07505">
        <ele>39.3</ele>
        <time>2021-11-13T08:39:51Z</time>
      </trkpt>
      <trkpt lat="49.40565" lon="1.07505">
        <ele>39.4</ele>
        <time>2021-11-13T08:39:52Z</time>
      </trkpt>
      <trkpt lat="49.40561" lon="1.07505">
        <ele>39.4</ele>
        <time>2021-11-13T08:39:54Z</time>
      </trkpt>
      <trkpt lat="49.40558" lon="1.07504">
        <ele>39.5</ele>
        <time>2021-11-13T08:39:55Z</time>
      </trkpt>
      <trkpt lat="49.40553" lon="1.07504">
        <ele>39.6</ele>
        <time>2021-11-13T08:39:56Z</time>
      </trkpt>
      <trkpt lat="49.4055" lon="1.07504">
        <ele>39.7</ele>
        <time>2021-11-13T08:39:58Z</time>
      </trkpt>
      <trkpt lat="49.40547" lon="1.07504">
        <ele>39.8</ele>
        <time>2021-11-13T08:39:59Z</time>
      </trkpt>
      <trkpt lat="49.40543" lon="1.07503">
        <ele>39.8</ele>
        <time>2021-11-13T08:40:01Z</time>
      </trkpt>
      <trkpt lat="49.40541" lon="1.07503">
        <ele>39.9</ele>
        <time>2021-11-13T08:40:02Z</time>
      </trkpt>
      <trkpt lat="49.40536" lon="1.07503">
        <ele>40</ele>
        <time>2021-11-13T08:40:03Z</time>
      </trkpt>
      <trkpt lat="49.40532" lon="1.07503">
        <ele>40.1</ele>
        <time>2021-11-13T08:40:05Z</time>
      </trkpt>
      <trkpt lat="49.40529" lon="1.07503">
        <ele>40.2</ele>
        <time>2021-11-13T08:40:06Z</time>
      </trkpt>
      <trkpt lat="49.40524" lon="1.07502">
        <ele>40.3</ele>
        <time>2021-11-13T08:40:08Z</time>
      </trkpt>
      <trkpt lat="49.4052" lon="1.07502">
        <ele>40.4</ele>
        <time>2021-11-13T08:40:09Z</time>
      </trkpt>
      <trkpt lat="49.40517" lon="1.07501">
        <ele>40.5</ele>
        <time>2021-11-13T08:40:10Z</time>
      </trkpt>
      <trkpt lat="49.40512" lon="1.07501">
        <ele>40.6</ele>
        <time>2021-11-13T08:40:12Z</time>
      </trkpt>
      <trkpt lat="49.4051" lon="1.075">
        <ele>40.6</ele>
        <time>2021-11-13T08:40:13Z</time>
      </trkpt>
      <trkpt lat="49.40509" lon="1.075">
        <ele>40.6</ele>
        <time>2021-11-13T08:40:14Z</time>
      </trkpt>
      <trkpt lat="49.40506" lon="1.075">
        <ele>40.7</ele>
        <time>2021-11-13T08:40:15Z</time>
      </trkpt>
      <trkpt lat="49.40504" lon="1.07499">
        <ele>40.7</ele>
        <time>2021-11-13T08:40:16Z</time>
      </trkpt>
      <trkpt lat="49.40503" lon="1.07497">
        <ele>40.8</ele>
        <time>2021-11-13T08:40:17Z</time>
      </trkpt>
      <trkpt lat="49.40501" lon="1.07497">
        <ele>40.8</ele>
        <time>2021-11-13T08:40:18Z</time>
      </trkpt>
      <trkpt lat="49.405" lon="1.07496">
        <ele>40.8</ele>
        <time>2021-11-13T08:40:20Z</time>
      </trkpt>
      <trkpt lat="49.40497" lon="1.07494">
        <ele>40.9</ele>
        <time>2021-11-13T08:40:21Z</time>
      </trkpt>
      <trkpt lat="49.40494" lon="1.07491">
        <ele>41</ele>
        <time>2021-11-13T08:40:22Z</time>
      </trkpt>
      <trkpt lat="49.40493" lon="1.0749">
        <ele>41</ele>
        <time>2021-11-13T08:40:23Z</time>
      </trkpt>
      <trkpt lat="49.4049" lon="1.07487">
        <ele>41.1</ele>
        <time>2021-11-13T08:40:25Z</time>
      </trkpt>
      <trkpt lat="49.40486" lon="1.07484">
        <ele>41.2</ele>
        <time>2021-11-13T08:40:27Z</time>
      </trkpt>
      <trkpt lat="49.40484" lon="1.07481">
        <ele>41.3</ele>
        <time>2021-11-13T08:40:28Z</time>
      </trkpt>
      <trkpt lat="49.40479" lon="1.07476">
        <ele>41.4</ele>
        <time>2021-11-13T08:40:29Z</time>
      </trkpt>
      <trkpt lat="49.40475" lon="1.0747">
        <ele>41.5</ele>
        <time>2021-11-13T08:40:31Z</time>
      </trkpt>
      <trkpt lat="49.40472" lon="1.07465">
        <ele>41.5</ele>
        <time>2021-11-13T08:40:32Z</time>
      </trkpt>
      <trkpt lat="49.40469" lon="1.07461">
        <ele>41.6</ele>
        <time>2021-11-13T08:40:33Z</time>
      </trkpt>
      <trkpt lat="49.40466" lon="1.07455">
        <ele>41.7</ele>
        <time>2021-11-13T08:40:35Z</time>
      </trkpt>
      <trkpt lat="49.40463" lon="1.07449">
        <ele>41.7</ele>
        <time>2021-11-13T08:40:36Z</time>
      </trkpt>
      <trkpt lat="49.40461" lon="1.07444">
        <ele>41.8</ele>
        <time>2021-11-13T08:40:37Z</time>
      </trkpt>
      <trkpt lat="49.40459" lon="1.0744">
        <ele>41.8</ele>
        <time>2021-11-13T08:40:39Z</time>
      </trkpt>
      <trkpt lat="49.40456" lon="1.07433">
        <ele>41.8</ele>
        <time>2021-11-13T08:40:40Z</time>
      </trkpt>
      <trkpt lat="49.40455" lon="1.07428">
        <ele>41.8</ele>
        <time>2021-11-13T08:40:41Z</time>
      </trkpt>
      <trkpt lat="49.40454" lon="1.07423">
        <ele>41.8</ele>
        <time>2021-11-13T08:40:42Z</time>
      </trkpt>
      <trkpt lat="49.40452" lon="1.07417">
        <ele>41.8</ele>
        <time>2021-11-13T08:40:44Z</time>
      </trkpt>
      <trkpt lat="49.40451" lon="1.07412">
        <ele>41.8</ele>
        <time>2021-11-13T08:40:45Z</time>
      </trkpt>
      <trkpt lat="49.4045" lon="1.07407">
        <ele>41.9</ele>
        <time>2021-11-13T08:40:47Z</time>
      </trkpt>
      <trkpt lat="49.40449" lon="1.074">
        <ele>41.9</ele>
        <time>2021-11-13T08:40:48Z</time>
      </trkpt>
      <trkpt lat="49.40448" lon="1.07396">
        <ele>41.9</ele>
        <time>2021-11-13T08:40:49Z</time>
      </trkpt>
      <trkpt lat="49.40448" lon="1.07389">
        <ele>41.9</ele>
        <time>2021-11-13T08:40:51Z</time>
      </trkpt>
      <trkpt lat="49.40447" lon="1.07385">
        <ele>41.8</ele>
        <time>2021-11-13T08:40:52Z</time>
      </trkpt>
      <trkpt lat="49.40447" lon="1.07379">
        <ele>41.8</ele>
        <time>2021-11-13T08:40:54Z</time>
      </trkpt>
      <trkpt lat="49.40448" lon="1.07372">
        <ele>41.8</ele>
        <time>2021-11-13T08:40:55Z</time>
      </trkpt>
      <trkpt lat="49.40449" lon="1.07367">
        <ele>41.8</ele>
        <time>2021-11-13T08:40:56Z</time>
      </trkpt>
      <trkpt lat="49.40449" lon="1.07363">
        <ele>41.8</ele>
        <time>2021-11-13T08:40:57Z</time>
      </trkpt>
      <trkpt lat="49.4045" lon="1.07358">
        <ele>41.8</ele>
        <time>2021-11-13T08:40:59Z</time>
      </trkpt>
      <trkpt lat="49.40451" lon="1.07353">
        <ele>41.8</ele>
        <time>2021-11-13T08:41:00Z</time>
      </trkpt>
      <trkpt lat="49.40452" lon="1.07349">
        <ele>41.8</ele>
        <time>2021-11-13T08:41:01Z</time>
      </trkpt>
      <trkpt lat="49.40454" lon="1.07345">
        <ele>41.7</ele>
        <time>2021-11-13T08:41:02Z</time>
      </trkpt>
      <trkpt lat="49.40455" lon="1.07338">
        <ele>41.7</ele>
        <time>2021-11-13T08:41:04Z</time>
      </trkpt>
      <trkpt lat="49.40456" lon="1.07333">
        <ele>41.7</ele>
        <time>2021-11-13T08:41:05Z</time>
      </trkpt>
      <trkpt lat="49.40458" lon="1.07329">
        <ele>41.7</ele>
        <time>2021-11-13T08:41:06Z</time>
      </trkpt>
      <trkpt lat="49.4046" lon="1.07323">
        <ele>41.6</ele>
        <time>2021-11-13T08:41:08Z</time>
      </trkpt>
      <trkpt lat="49.40462" lon="1.07316">
        <ele>41.6</ele>
        <time>2021-11-13T08:41:09Z</time>
      </trkpt>
      <trkpt lat="49.40464" lon="1.07312">
        <ele>41.6</ele>
        <time>2021-11-13T08:41:10Z</time>
      </trkpt>
      <trkpt lat="49.40465" lon="1.07307">
        <ele>41.5</ele>
        <time>2021-11-13T08:41:12Z</time>
      </trkpt>
      <trkpt lat="49.40466" lon="1.07303">
        <ele>41.5</ele>
        <time>2021-11-13T08:41:13Z</time>
      </trkpt>
      <trkpt lat="49.40468" lon="1.07297">
        <ele>41.5</ele>
        <time>2021-11-13T08:41:14Z</time>
      </trkpt>
      <trkpt lat="49.4047" lon="1.07293">
        <ele>41.5</ele>
        <time>2021-11-13T08:41:15Z</time>
      </trkpt>
      <trkpt lat="49.40471" lon="1.07286">
        <ele>41.4</ele>
        <time>2021-11-13T08:41:17Z</time>
      </trkpt>
      <trkpt lat="49.40472" lon="1.07281">
        <ele>41.4</ele>
        <time>2021-11-13T08:41:18Z</time>
      </trkpt>
      <trkpt lat="49.40474" lon="1.07276">
        <ele>41.3</ele>
        <time>2021-11-13T08:41:20Z</time>
      </trkpt>
      <trkpt lat="49.40476" lon="1.07271">
        <ele>41.3</ele>
        <time>2021-11-13T08:41:21Z</time>
      </trkpt>
      <trkpt lat="49.40477" lon="1.07269">
        <ele>41.3</ele>
        <time>2021-11-13T08:41:22Z</time>
      </trkpt>
      <trkpt lat="49.40478" lon="1.07265">
        <ele>41.3</ele>
        <time>2021-11-13T08:41:23Z</time>
      </trkpt>
      <trkpt lat="49.40479" lon="1.0726">
        <ele>41.2</ele>
        <time>2021-11-13T08:41:24Z</time>
      </trkpt>
      <trkpt lat="49.40479" lon="1.07258">
        <ele>41.2</ele>
        <time>2021-11-13T08:41:25Z</time>
      </trkpt>
      <trkpt lat="49.4048" lon="1.07255">
        <ele>41.2</ele>
        <time>2021-11-13T08:41:26Z</time>
      </trkpt>
      <trkpt lat="49.4048" lon="1.07253">
        <ele>41.2</ele>
        <time>2021-11-13T08:41:27Z</time>
      </trkpt>
      <trkpt lat="49.40482" lon="1.07248">
        <ele>41.1</ele>
        <time>2021-11-13T08:41:29Z</time>
      </trkpt>
      <trkpt lat="49.40483" lon="1.07246">
        <ele>41.1</ele>
        <time>2021-11-13T08:41:30Z</time>
      </trkpt>
      <trkpt lat="49.40483" lon="1.07242">
        <ele>41.1</ele>
        <time>2021-11-13T08:41:31Z</time>
      </trkpt>
      <trkpt lat="49.40485" lon="1.07237">
        <ele>41</ele>
        <time>2021-11-13T08:41:33Z</time>
      </trkpt>
      <trkpt lat="49.40486" lon="1.07233">
        <ele>41</ele>
        <time>2021-11-13T08:41:34Z</time>
      </trkpt>
      <trkpt lat="49.40488" lon="1.07228">
        <ele>41</ele>
        <time>2021-11-13T08:41:35Z</time>
      </trkpt>
      <trkpt lat="49.4049" lon="1.07221">
        <ele>40.9</ele>
        <time>2021-11-13T08:41:37Z</time>
      </trkpt>
      <trkpt lat="49.40493" lon="1.07213">
        <ele>40.8</ele>
        <time>2021-11-13T08:41:38Z</time>
      </trkpt>
      <trkpt lat="49.40494" lon="1.07207">
        <ele>40.8</ele>
        <time>2021-11-13T08:41:39Z</time>
      </trkpt>
      <trkpt lat="49.40496" lon="1.07201">
        <ele>40.7</ele>
        <time>2021-11-13T08:41:41Z</time>
      </trkpt>
      <trkpt lat="49.40499" lon="1.07193">
        <ele>40.6</ele>
        <time>2021-11-13T08:41:42Z</time>
      </trkpt>
      <trkpt lat="49.40501" lon="1.07188">
        <ele>40.6</ele>
        <time>2021-11-13T08:41:43Z</time>
      </trkpt>
      <trkpt lat="49.40502" lon="1.07182">
        <ele>40.5</ele>
        <time>2021-11-13T08:41:45Z</time>
      </trkpt>
      <trkpt lat="49.40504" lon="1.07177">
        <ele>40.4</ele>
        <time>2021-11-13T08:41:46Z</time>
      </trkpt>
      <trkpt lat="49.40506" lon="1.07171">
        <ele>40.4</ele>
        <time>2021-11-13T08:41:48Z</time>
      </trkpt>
      <trkpt lat="49.40508" lon="1.07165">
        <ele>40.3</ele>
        <time>2021-11-13T08:41:49Z</time>
      </trkpt>
      <trkpt lat="49.40509" lon="1.07162">
        <ele>40.2</ele>
        <time>2021-11-13T08:41:50Z</time>
      </trkpt>
      <trkpt lat="49.40509" lon="1.07158">
        <ele>40.2</ele>
        <time>2021-11-13T08:41:51Z</time>
      </trkpt>
      <trkpt lat="49.40511" lon="1.07154">
        <ele>40.1</ele>
        <time>2021-11-13T08:41:53Z</time>
      </trkpt>
      <trkpt lat="49.40512" lon="1.07149">
        <ele>40.1</ele>
        <time>2021-11-13T08:41:54Z</time>
      </trkpt>
      <trkpt lat="49.40514" lon="1.07144">
        <ele>40</ele>
        <time>2021-11-13T08:41:56Z</time>
      </trkpt>
      <trkpt lat="49.40516" lon="1.0714">
        <ele>39.9</ele>
        <time>2021-11-13T08:41:57Z</time>
      </trkpt>
      <trkpt lat="49.40518" lon="1.07136">
        <ele>39.8</ele>
        <time>2021-11-13T08:41:58Z</time>
      </trkpt>
      <trkpt lat="49.40519" lon="1.0713">
        <ele>39.7</ele>
        <time>2021-11-13T08:42:00Z</time>
      </trkpt>
      <trkpt lat="49.40521" lon="1.07123">
        <ele>39.6</ele>
        <time>2021-11-13T08:42:01Z</time>
      </trkpt>
      <trkpt lat="49.40523" lon="1.07118">
        <ele>39.5</ele>
        <time>2021-11-13T08:42:03Z</time>
      </trkpt>
      <trkpt lat="49.40526" lon="1.0711">
        <ele>39.4</ele>
        <time>2021-11-13T08:42:04Z</time>
      </trkpt>
      <trkpt lat="49.40528" lon="1.07104">
        <ele>39.3</ele>
        <time>2021-11-13T08:42:05Z</time>
      </trkpt>
      <trkpt lat="49.40529" lon="1.07099">
        <ele>39.2</ele>
        <time>2021-11-13T08:42:06Z</time>
      </trkpt>
      <trkpt lat="49.40531" lon="1.07091">
        <ele>39.1</ele>
        <time>2021-11-13T08:42:08Z</time>
      </trkpt>
      <trkpt lat="49.40533" lon="1.07085">
        <ele>39</ele>
        <time>2021-11-13T08:42:10Z</time>
      </trkpt>
      <trkpt lat="49.40534" lon="1.0708">
        <ele>38.9</ele>
        <time>2021-11-13T08:42:11Z</time>
      </trkpt>
      <trkpt lat="49.40536" lon="1.07073">
        <ele>38.8</ele>
        <time>2021-11-13T08:42:12Z</time>
      </trkpt>
      <trkpt lat="49.40538" lon="1.07068">
        <ele>38.7</ele>
        <time>2021-11-13T08:42:14Z</time>
      </trkpt>
      <trkpt lat="49.4054" lon="1.07063">
        <ele>38.7</ele>
        <time>2021-11-13T08:42:15Z</time>
      </trkpt>
      <trkpt lat="49.40542" lon="1.07057">
        <ele>38.6</ele>
        <time>2021-11-13T08:42:17Z</time>
      </trkpt>
      <trkpt lat="49.40543" lon="1.07053">
        <ele>38.5</ele>
        <time>2021-11-13T08:42:18Z</time>
      </trkpt>
      <trkpt lat="49.40546" lon="1.07047">
        <ele>38.4</ele>
        <time>2021-11-13T08:42:19Z</time>
      </trkpt>
      <trkpt lat="49.40547" lon="1.07042">
        <ele>38.3</ele>
        <time>2021-11-13T08:42:21Z</time>
      </trkpt>
      <trkpt lat="49.40548" lon="1.07038">
        <ele>38.3</ele>
        <time>2021-11-13T08:42:22Z</time>
      </trkpt>
      <trkpt lat="49.4055" lon="1.07033">
        <ele>38.2</ele>
        <time>2021-11-13T08:42:23Z</time>
      </trkpt>
      <trkpt lat="49.40551" lon="1.07029">
        <ele>38.1</ele>
        <time>2021-11-13T08:42:24Z</time>
      </trkpt>
      <trkpt lat="49.40552" lon="1.07024">
        <ele>38</ele>
        <time>2021-11-13T08:42:25Z</time>
      </trkpt>
      <trkpt lat="49.40553" lon="1.07019">
        <ele>38</ele>
        <time>2021-11-13T08:42:26Z</time>
      </trkpt>
      <trkpt lat="49.40555" lon="1.07014">
        <ele>37.9</ele>
        <time>2021-11-13T08:42:28Z</time>
      </trkpt>
      <trkpt lat="49.40557" lon="1.07009">
        <ele>37.8</ele>
        <time>2021-11-13T08:42:29Z</time>
      </trkpt>
      <trkpt lat="49.40559" lon="1.07003">
        <ele>37.7</ele>
        <time>2021-11-13T08:42:30Z</time>
      </trkpt>
      <trkpt lat="49.4056" lon="1.06999">
        <ele>37.6</ele>
        <time>2021-11-13T08:42:32Z</time>
      </trkpt>
      <trkpt lat="49.40563" lon="1.06993">
        <ele>37.5</ele>
        <time>2021-11-13T08:42:33Z</time>
      </trkpt>
      <trkpt lat="49.40565" lon="1.06989">
        <ele>37.4</ele>
        <time>2021-11-13T08:42:34Z</time>
      </trkpt>
      <trkpt lat="49.40567" lon="1.06986">
        <ele>37.4</ele>
        <time>2021-11-13T08:42:36Z</time>
      </trkpt>
      <trkpt lat="49.4057" lon="1.06981">
        <ele>37.3</ele>
        <time>2021-11-13T08:42:37Z</time>
      </trkpt>
      <trkpt lat="49.40573" lon="1.06977">
        <ele>37.2</ele>
        <time>2021-11-13T08:42:39Z</time>
      </trkpt>
      <trkpt lat="49.40576" lon="1.06973">
        <ele>37.1</ele>
        <time>2021-11-13T08:42:40Z</time>
      </trkpt>
      <trkpt lat="49.40579" lon="1.0697">
        <ele>37.1</ele>
        <time>2021-11-13T08:42:41Z</time>
      </trkpt>
      <trkpt lat="49.40581" lon="1.06968">
        <ele>37</ele>
        <time>2021-11-13T08:42:43Z</time>
      </trkpt>
      <trkpt lat="49.40583" lon="1.06966">
        <ele>36.9</ele>
        <time>2021-11-13T08:42:44Z</time>
      </trkpt>
      <trkpt lat="49.40587" lon="1.06963">
        <ele>36.8</ele>
        <time>2021-11-13T08:42:45Z</time>
      </trkpt>
      <trkpt lat="49.4059" lon="1.06961">
        <ele>36.7</ele>
        <time>2021-11-13T08:42:46Z</time>
      </trkpt>
      <trkpt lat="49.40594" lon="1.06958">
        <ele>36.7</ele>
        <time>2021-11-13T08:42:48Z</time>
      </trkpt>
      <trkpt lat="49.40597" lon="1.06957">
        <ele>36.6</ele>
        <time>2021-11-13T08:42:49Z</time>
      </trkpt>
      <trkpt lat="49.406" lon="1.06955">
        <ele>36.5</ele>
        <time>2021-11-13T08:42:50Z</time>
      </trkpt>
      <trkpt lat="49.40604" lon="1.06953">
        <ele>36.4</ele>
        <time>2021-11-13T08:42:52Z</time>
      </trkpt>
      <trkpt lat="49.40607" lon="1.06952">
        <ele>36.3</ele>
        <time>2021-11-13T08:42:53Z</time>
      </trkpt>
      <trkpt lat="49.40611" lon="1.06951">
        <ele>36.2</ele>
        <time>2021-11-13T08:42:55Z</time>
      </trkpt>
      <trkpt lat="49.40614" lon="1.0695">
        <ele>36.2</ele>
        <time>2021-11-13T08:42:56Z</time>
      </trkpt>
      <trkpt lat="49.40619" lon="1.0695">
        <ele>36.1</ele>
        <time>2021-11-13T08:42:57Z</time>
      </trkpt>
      <trkpt lat="49.40623" lon="1.06949">
        <ele>36</ele>
        <time>2021-11-13T08:42:59Z</time>
      </trkpt>
      <trkpt lat="49.40628" lon="1.06949">
        <ele>35.9</ele>
        <time>2021-11-13T08:43:00Z</time>
      </trkpt>
      <trkpt lat="49.40631" lon="1.06949">
        <ele>35.8</ele>
        <time>2021-11-13T08:43:01Z</time>
      </trkpt>
      <trkpt lat="49.40635" lon="1.0695">
        <ele>35.8</ele>
        <time>2021-11-13T08:43:02Z</time>
      </trkpt>
      <trkpt lat="49.40639" lon="1.06951">
        <ele>35.7</ele>
        <time>2021-11-13T08:43:04Z</time>
      </trkpt>
      <trkpt lat="49.40642" lon="1.06952">
        <ele>35.6</ele>
        <time>2021-11-13T08:43:05Z</time>
      </trkpt>
      <trkpt lat="49.40646" lon="1.06954">
        <ele>35.5</ele>
        <time>2021-11-13T08:43:07Z</time>
      </trkpt>
      <trkpt lat="49.4065" lon="1.06955">
        <ele>35.5</ele>
        <time>2021-11-13T08:43:08Z</time>
      </trkpt>
      <trkpt lat="49.40653" lon="1.06957">
        <ele>35.4</ele>
        <time>2021-11-13T08:43:09Z</time>
      </trkpt>
      <trkpt lat="49.40656" lon="1.06959">
        <ele>35.4</ele>
        <time>2021-11-13T08:43:10Z</time>
      </trkpt>
      <trkpt lat="49.40659" lon="1.0696">
        <ele>35.4</ele>
        <time>2021-11-13T08:43:12Z</time>
      </trkpt>
      <trkpt lat="49.40664" lon="1.06962">
        <ele>35.3</ele>
        <time>2021-11-13T08:43:13Z</time>
      </trkpt>
      <trkpt lat="49.40668" lon="1.06965">
        <ele>35.3</ele>
        <time>2021-11-13T08:43:15Z</time>
      </trkpt>
      <trkpt lat="49.4067" lon="1.06967">
        <ele>35.2</ele>
        <time>2021-11-13T08:43:16Z</time>
      </trkpt>
      <trkpt lat="49.40674" lon="1.06969">
        <ele>35.2</ele>
        <time>2021-11-13T08:43:17Z</time>
      </trkpt>
      <trkpt lat="49.40677" lon="1.06971">
        <ele>35.1</ele>
        <time>2021-11-13T08:43:18Z</time>
      </trkpt>
      <trkpt lat="49.4068" lon="1.06972">
        <ele>35.1</ele>
        <time>2021-11-13T08:43:19Z</time>
      </trkpt>
      <trkpt lat="49.40683" lon="1.06974">
        <ele>35.1</ele>
        <time>2021-11-13T08:43:20Z</time>
      </trkpt>
      <trkpt lat="49.40686" lon="1.06977">
        <ele>35</ele>
        <time>2021-11-13T08:43:21Z</time>
      </trkpt>
      <trkpt lat="49.4069" lon="1.0698">
        <ele>35</ele>
        <time>2021-11-13T08:43:23Z</time>
      </trkpt>
      <trkpt lat="49.40693" lon="1.06982">
        <ele>34.9</ele>
        <time>2021-11-13T08:43:24Z</time>
      </trkpt>
      <trkpt lat="49.40697" lon="1.06984">
        <ele>34.9</ele>
        <time>2021-11-13T08:43:26Z</time>
      </trkpt>
      <trkpt lat="49.40701" lon="1.06987">
        <ele>34.8</ele>
        <time>2021-11-13T08:43:27Z</time>
      </trkpt>
      <trkpt lat="49.40704" lon="1.06989">
        <ele>34.8</ele>
        <time>2021-11-13T08:43:29Z</time>
      </trkpt>
      <trkpt lat="49.40707" lon="1.06991">
        <ele>34.8</ele>
        <time>2021-11-13T08:43:30Z</time>
      </trkpt>
      <trkpt lat="49.4071" lon="1.06994">
        <ele>34.7</ele>
        <time>2021-11-13T08:43:31Z</time>
      </trkpt>
      <trkpt lat="49.40713" lon="1.06998">
        <ele>34.7</ele>
        <time>2021-11-13T08:43:33Z</time>
      </trkpt>
      <trkpt lat="49.40714" lon="1.06999">
        <ele>34.7</ele>
        <time>2021-11-13T08:43:34Z</time>
      </trkpt>
      <trkpt lat="49.40716" lon="1.07001">
        <ele>34.7</ele>
        <time>2021-11-13T08:43:35Z</time>
      </trkpt>
      <trkpt lat="49.40718" lon="1.07004">
        <ele>34.6</ele>
        <time>2021-11-13T08:43:36Z</time>
      </trkpt>
      <trkpt lat="49.40719" lon="1.07004">
        <ele>34.6</ele>
        <time>2021-11-13T08:43:37Z</time>
      </trkpt>
      <trkpt lat="49.40724" lon="1.07008">
        <ele>34.6</ele>
        <time>2021-11-13T08:43:39Z</time>
      </trkpt>
      <trkpt lat="49.40726" lon="1.07009">
        <ele>34.6</ele>
        <time>2021-11-13T08:43:40Z</time>
      </trkpt>
      <trkpt lat="49.40728" lon="1.0701">
        <ele>34.5</ele>
        <time>2021-11-13T08:43:41Z</time>
      </trkpt>
      <trkpt lat="49.40732" lon="1.07013">
        <ele>34.5</ele>
        <time>2021-11-13T08:43:43Z</time>
      </trkpt>
      <trkpt lat="49.40736" lon="1.07015">
        <ele>34.4</ele>
        <time>2021-11-13T08:43:44Z</time>
      </trkpt>
      <trkpt lat="49.40739" lon="1.07018">
        <ele>34.4</ele>
        <time>2021-11-13T08:43:45Z</time>
      </trkpt>
      <trkpt lat="49.40744" lon="1.07021">
        <ele>34.4</ele>
        <time>2021-11-13T08:43:46Z</time>
      </trkpt>
      <trkpt lat="49.40747" lon="1.07022">
        <ele>34.3</ele>
        <time>2021-11-13T08:43:47Z</time>
      </trkpt>
      <trkpt lat="49.40751" lon="1.07025">
        <ele>34.3</ele>
        <time>2021-11-13T08:43:49Z</time>
      </trkpt>
      <trkpt lat="49.40754" lon="1.07028">
        <ele>34.3</ele>
        <time>2021-11-13T08:43:50Z</time>
      </trkpt>
      <trkpt lat="49.40757" lon="1.0703">
        <ele>34.2</ele>
        <time>2021-11-13T08:43:51Z</time>
      </trkpt>
      <trkpt lat="49.40762" lon="1.07033">
        <ele>34.2</ele>
        <time>2021-11-13T08:43:53Z</time>
      </trkpt>
      <trkpt lat="49.40766" lon="1.07036">
        <ele>34.2</ele>
        <time>2021-11-13T08:43:54Z</time>
      </trkpt>
      <trkpt lat="49.40769" lon="1.07039">
        <ele>34.1</ele>
        <time>2021-11-13T08:43:55Z</time>
      </trkpt>
      <trkpt lat="49.40772" lon="1.07041">
        <ele>34.1</ele>
        <time>2021-11-13T08:43:56Z</time>
      </trkpt>
      <trkpt lat="49.40776" lon="1.07044">
        <ele>34.1</ele>
        <time>2021-11-13T08:43:57Z</time>
      </trkpt>
      <trkpt lat="49.40779" lon="1.07046">
        <ele>34.1</ele>
        <time>2021-11-13T08:43:59Z</time>
      </trkpt>
      <trkpt lat="49.40784" lon="1.07049">
        <ele>34</ele>
        <time>2021-11-13T08:44:00Z</time>
      </trkpt>
      <trkpt lat="49.40787" lon="1.07052">
        <ele>34</ele>
        <time>2021-11-13T08:44:01Z</time>
      </trkpt>
      <trkpt lat="49.40792" lon="1.07054">
        <ele>34</ele>
        <time>2021-11-13T08:44:03Z</time>
      </trkpt>
      <trkpt lat="49.40794" lon="1.07056">
        <ele>34</ele>
        <time>2021-11-13T08:44:04Z</time>
      </trkpt>
      <trkpt lat="49.40798" lon="1.07059">
        <ele>34</ele>
        <time>2021-11-13T08:44:06Z</time>
      </trkpt>
      <trkpt lat="49.40801" lon="1.07061">
        <ele>34</ele>
        <time>2021-11-13T08:44:07Z</time>
      </trkpt>
      <trkpt lat="49.40804" lon="1.07065">
        <ele>34</ele>
        <time>2021-11-13T08:44:08Z</time>
      </trkpt>
      <trkpt lat="49.40807" lon="1.07067">
        <ele>34</ele>
        <time>2021-11-13T08:44:09Z</time>
      </trkpt>
      <trkpt lat="49.40811" lon="1.07071">
        <ele>34</ele>
        <time>2021-11-13T08:44:11Z</time>
      </trkpt>
      <trkpt lat="49.40813" lon="1.07073">
        <ele>33.9</ele>
        <time>2021-11-13T08:44:12Z</time>
      </trkpt>
      <trkpt lat="49.40817" lon="1.07076">
        <ele>33.9</ele>
        <time>2021-11-13T08:44:14Z</time>
      </trkpt>
      <trkpt lat="49.4082" lon="1.07079">
        <ele>33.9</ele>
        <time>2021-11-13T08:44:15Z</time>
      </trkpt>
      <trkpt lat="49.40825" lon="1.07081">
        <ele>33.9</ele>
        <time>2021-11-13T08:44:16Z</time>
      </trkpt>
      <trkpt lat="49.40828" lon="1.07084">
        <ele>33.9</ele>
        <time>2021-11-13T08:44:17Z</time>
      </trkpt>
      <trkpt lat="49.40832" lon="1.07086">
        <ele>33.8</ele>
        <time>2021-11-13T08:44:19Z</time>
      </trkpt>
      <trkpt lat="49.40835" lon="1.07088">
        <ele>33.8</ele>
        <time>2021-11-13T08:44:20Z</time>
      </trkpt>
      <trkpt lat="49.40838" lon="1.0709">
        <ele>33.8</ele>
        <time>2021-11-13T08:44:21Z</time>
      </trkpt>
      <trkpt lat="49.40842" lon="1.07092">
        <ele>33.8</ele>
        <time>2021-11-13T08:44:23Z</time>
      </trkpt>
      <trkpt lat="49.40847" lon="1.07095">
        <ele>33.8</ele>
        <time>2021-11-13T08:44:24Z</time>
      </trkpt>
      <trkpt lat="49.4085" lon="1.07098">
        <ele>33.8</ele>
        <time>2021-11-13T08:44:25Z</time>
      </trkpt>
      <trkpt lat="49.40854" lon="1.071">
        <ele>33.7</ele>
        <time>2021-11-13T08:44:27Z</time>
      </trkpt>
      <trkpt lat="49.40857" lon="1.07101">
        <ele>33.7</ele>
        <time>2021-11-13T08:44:28Z</time>
      </trkpt>
      <trkpt lat="49.4086" lon="1.07103">
        <ele>33.7</ele>
        <time>2021-11-13T08:44:29Z</time>
      </trkpt>
      <trkpt lat="49.40864" lon="1.07105">
        <ele>33.7</ele>
        <time>2021-11-13T08:44:31Z</time>
      </trkpt>
      <trkpt lat="49.40867" lon="1.07108">
        <ele>33.7</ele>
        <time>2021-11-13T08:44:32Z</time>
      </trkpt>
      <trkpt lat="49.4087" lon="1.0711">
        <ele>33.7</ele>
        <time>2021-11-13T08:44:33Z</time>
      </trkpt>
      <trkpt lat="49.40874" lon="1.07113">
        <ele>33.7</ele>
        <time>2021-11-13T08:44:35Z</time>
      </trkpt>
      <trkpt lat="49.40877" lon="1.07115">
        <ele>33.7</ele>
        <time>2021-11-13T08:44:36Z</time>
      </trkpt>
      <trkpt lat="49.4088" lon="1.07117">
        <ele>33.7</ele>
        <time>2021-11-13T08:44:37Z</time>
      </trkpt>
      <trkpt lat="49.40883" lon="1.0712">
        <ele>33.6</ele>
        <time>2021-11-13T08:44:38Z</time>
      </trkpt>
      <trkpt lat="49.40886" lon="1.07121">
        <ele>33.6</ele>
        <time>2021-11-13T08:44:40Z</time>
      </trkpt>
      <trkpt lat="49.4089" lon="1.07124">
        <ele>33.6</ele>
        <time>2021-11-13T08:44:41Z</time>
      </trkpt>
      <trkpt lat="49.40893" lon="1.07125">
        <ele>33.6</ele>
        <time>2021-11-13T08:44:42Z</time>
      </trkpt>
      <trkpt lat="49.40895" lon="1.07127">
        <ele>33.6</ele>
        <time>2021-11-13T08:44:43Z</time>
      </trkpt>
      <trkpt lat="49.40898" lon="1.0713">
        <ele>33.7</ele>
        <time>2021-11-13T08:44:45Z</time>
      </trkpt>
      <trkpt lat="49.409" lon="1.07131">
        <ele>33.7</ele>
        <time>2021-11-13T08:44:46Z</time>
      </trkpt>
      <trkpt lat="49.40903" lon="1.07136">
        <ele>33.7</ele>
        <time>2021-11-13T08:44:48Z</time>
      </trkpt>
      <trkpt lat="49.40906" lon="1.07138">
        <ele>33.8</ele>
        <time>2021-11-13T08:44:49Z</time>
      </trkpt>
      <trkpt lat="49.40907" lon="1.07139">
        <ele>33.8</ele>
        <time>2021-11-13T08:44:50Z</time>
      </trkpt>
      <trkpt lat="49.40909" lon="1.07141">
        <ele>33.8</ele>
        <time>2021-11-13T08:44:51Z</time>
      </trkpt>
      <trkpt lat="49.40913" lon="1.07144">
        <ele>33.8</ele>
        <time>2021-11-13T08:44:53Z</time>
      </trkpt>
      <trkpt lat="49.40916" lon="1.07148">
        <ele>33.8</ele>
        <time>2021-11-13T08:44:54Z</time>
      </trkpt>
      <trkpt lat="49.40918" lon="1.07149">
        <ele>33.8</ele>
        <time>2021-11-13T08:44:55Z</time>
      </trkpt>
      <trkpt lat="49.40921" lon="1.07151">
        <ele>33.8</ele>
        <time>2021-11-13T08:44:56Z</time>
      </trkpt>
      <trkpt lat="49.40925" lon="1.07153">
        <ele>33.9</ele>
        <time>2021-11-13T08:44:58Z</time>
      </trkpt>
      <trkpt lat="49.40927" lon="1.07154">
        <ele>33.9</ele>
        <time>2021-11-13T08:44:59Z</time>
      </trkpt>
      <trkpt lat="49.40929" lon="1.07156">
        <ele>33.9</ele>
        <time>2021-11-13T08:45:00Z</time>
      </trkpt>
      <trkpt lat="49.40931" lon="1.07156">
        <ele>33.9</ele>
        <time>2021-11-13T08:45:01Z</time>
      </trkpt>
      <trkpt lat="49.40934" lon="1.07157">
        <ele>33.9</ele>
        <time>2021-11-13T08:45:03Z</time>
      </trkpt>
      <trkpt lat="49.40936" lon="1.07157">
        <ele>33.9</ele>
        <time>2021-11-13T08:45:04Z</time>
      </trkpt>
      <trkpt lat="49.4094" lon="1.07158">
        <ele>33.9</ele>
        <time>2021-11-13T08:45:06Z</time>
      </trkpt>
      <trkpt lat="49.40944" lon="1.07158">
        <ele>33.9</ele>
        <time>2021-11-13T08:45:07Z</time>
      </trkpt>
      <trkpt lat="49.40948" lon="1.07158">
        <ele>33.8</ele>
        <time>2021-11-13T08:45:08Z</time>
      </trkpt>
      <trkpt lat="49.40956" lon="1.07159">
        <ele>33.8</ele>
        <time>2021-11-13T08:45:09Z</time>
      </trkpt>
      <trkpt lat="49.40961" lon="1.07159">
        <ele>33.7</ele>
        <time>2021-11-13T08:45:11Z</time>
      </trkpt>
      <trkpt lat="49.40965" lon="1.07158">
        <ele>33.7</ele>
        <time>2021-11-13T08:45:12Z</time>
      </trkpt>
      <trkpt lat="49.4097" lon="1.07156">
        <ele>33.7</ele>
        <time>2021-11-13T08:45:13Z</time>
      </trkpt>
      <trkpt lat="49.40973" lon="1.07156">
        <ele>33.7</ele>
        <time>2021-11-13T08:45:14Z</time>
      </trkpt>
      <trkpt lat="49.40977" lon="1.07157">
        <ele>33.7</ele>
        <time>2021-11-13T08:45:15Z</time>
      </trkpt>
      <trkpt lat="49.4098" lon="1.07157">
        <ele>33.7</ele>
        <time>2021-11-13T08:45:17Z</time>
      </trkpt>
      <trkpt lat="49.40985" lon="1.07158">
        <ele>33.6</ele>
        <time>2021-11-13T08:45:18Z</time>
      </trkpt>
      <trkpt lat="49.40989" lon="1.07158">
        <ele>33.6</ele>
        <time>2021-11-13T08:45:19Z</time>
      </trkpt>
      <trkpt lat="49.40992" lon="1.07158">
        <ele>33.6</ele>
        <time>2021-11-13T08:45:21Z</time>
      </trkpt>
      <trkpt lat="49.40996" lon="1.07158">
        <ele>33.6</ele>
        <time>2021-11-13T08:45:22Z</time>
      </trkpt>
      <trkpt lat="49.41" lon="1.07157">
        <ele>33.6</ele>
        <time>2021-11-13T08:45:23Z</time>
      </trkpt>
      <trkpt lat="49.41004" lon="1.07156">
        <ele>33.6</ele>
        <time>2021-11-13T08:45:25Z</time>
      </trkpt>
      <trkpt lat="49.41006" lon="1.07154">
        <ele>33.8</ele>
        <time>2021-11-13T08:45:26Z</time>
      </trkpt>
      <trkpt lat="49.41009" lon="1.07152">
        <ele>33.8</ele>
        <time>2021-11-13T08:45:27Z</time>
      </trkpt>
      <trkpt lat="49.41011" lon="1.0715">
        <ele>33.9</ele>
        <time>2021-11-13T08:45:28Z</time>
      </trkpt>
      <trkpt lat="49.41014" lon="1.07146">
        <ele>33.9</ele>
        <time>2021-11-13T08:45:29Z</time>
      </trkpt>
      <trkpt lat="49.41016" lon="1.07143">
        <ele>33.9</ele>
        <time>2021-11-13T08:45:30Z</time>
      </trkpt>
      <trkpt lat="49.41018" lon="1.07138">
        <ele>34</ele>
        <time>2021-11-13T08:45:31Z</time>
      </trkpt>
      <trkpt lat="49.4102" lon="1.07134">
        <ele>34.2</ele>
        <time>2021-11-13T08:45:32Z</time>
      </trkpt>
      <trkpt lat="49.41022" lon="1.0713">
        <ele>34.1</ele>
        <time>2021-11-13T08:45:33Z</time>
      </trkpt>
      <trkpt lat="49.41024" lon="1.07127">
        <ele>34.1</ele>
        <time>2021-11-13T08:45:34Z</time>
      </trkpt>
      <trkpt lat="49.41027" lon="1.07126">
        <ele>33.9</ele>
        <time>2021-11-13T08:45:36Z</time>
      </trkpt>
      <trkpt lat="49.41031" lon="1.07126">
        <ele>33.9</ele>
        <time>2021-11-13T08:45:37Z</time>
      </trkpt>
      <trkpt lat="49.41033" lon="1.07126">
        <ele>33.9</ele>
        <time>2021-11-13T08:45:38Z</time>
      </trkpt>
      <trkpt lat="49.41036" lon="1.07126">
        <ele>33.9</ele>
        <time>2021-11-13T08:45:40Z</time>
      </trkpt>
      <trkpt lat="49.41039" lon="1.07126">
        <ele>33.9</ele>
        <time>2021-11-13T08:45:41Z</time>
      </trkpt>
      <trkpt lat="49.41043" lon="1.07127">
        <ele>33.8</ele>
        <time>2021-11-13T08:45:43Z</time>
      </trkpt>
      <trkpt lat="49.41044" lon="1.07128">
        <ele>33.8</ele>
        <time>2021-11-13T08:45:44Z</time>
      </trkpt>
      <trkpt lat="49.41046" lon="1.07129">
        <ele>33.8</ele>
        <time>2021-11-13T08:45:45Z</time>
      </trkpt>
      <trkpt lat="49.41049" lon="1.07132">
        <ele>33.8</ele>
        <time>2021-11-13T08:45:47Z</time>
      </trkpt>
      <trkpt lat="49.4105" lon="1.07137">
        <ele>33.7</ele>
        <time>2021-11-13T08:45:48Z</time>
      </trkpt>
      <trkpt lat="49.41051" lon="1.07139">
        <ele>33.7</ele>
        <time>2021-11-13T08:45:49Z</time>
      </trkpt>
      <trkpt lat="49.41053" lon="1.07143">
        <ele>33.7</ele>
        <time>2021-11-13T08:45:50Z</time>
      </trkpt>
      <trkpt lat="49.41054" lon="1.07144">
        <ele>33.7</ele>
        <time>2021-11-13T08:45:51Z</time>
      </trkpt>
      <trkpt lat="49.41057" lon="1.07146">
        <ele>33.7</ele>
        <time>2021-11-13T08:45:52Z</time>
      </trkpt>
      <trkpt lat="49.4106" lon="1.07148">
        <ele>33.7</ele>
        <time>2021-11-13T08:45:53Z</time>
      </trkpt>
      <trkpt lat="49.41062" lon="1.07149">
        <ele>33.7</ele>
        <time>2021-11-13T08:45:54Z</time>
      </trkpt>
      <trkpt lat="49.41067" lon="1.07149">
        <ele>33.6</ele>
        <time>2021-11-13T08:45:56Z</time>
      </trkpt>
      <trkpt lat="49.41068" lon="1.07149">
        <ele>33.6</ele>
        <time>2021-11-13T08:45:57Z</time>
      </trkpt>
      <trkpt lat="49.41072" lon="1.0715">
        <ele>33.6</ele>
        <time>2021-11-13T08:45:58Z</time>
      </trkpt>
      <trkpt lat="49.41076" lon="1.0715">
        <ele>33.6</ele>
        <time>2021-11-13T08:45:59Z</time>
      </trkpt>
      <trkpt lat="49.41081" lon="1.07152">
        <ele>33.6</ele>
        <time>2021-11-13T08:46:00Z</time>
      </trkpt>
      <trkpt lat="49.41085" lon="1.07154">
        <ele>33.6</ele>
        <time>2021-11-13T08:46:02Z</time>
      </trkpt>
      <trkpt lat="49.41089" lon="1.07156">
        <ele>33.6</ele>
        <time>2021-11-13T08:46:03Z</time>
      </trkpt>
      <trkpt lat="49.41095" lon="1.07161">
        <ele>33.5</ele>
        <time>2021-11-13T08:46:04Z</time>
      </trkpt>
      <trkpt lat="49.41099" lon="1.07165">
        <ele>33.5</ele>
        <time>2021-11-13T08:46:05Z</time>
      </trkpt>
      <trkpt lat="49.41102" lon="1.07168">
        <ele>33.5</ele>
        <time>2021-11-13T08:46:07Z</time>
      </trkpt>
      <trkpt lat="49.41106" lon="1.07171">
        <ele>33.5</ele>
        <time>2021-11-13T08:46:08Z</time>
      </trkpt>
      <trkpt lat="49.41111" lon="1.07177">
        <ele>33.5</ele>
        <time>2021-11-13T08:46:09Z</time>
      </trkpt>
      <trkpt lat="49.41114" lon="1.0718">
        <ele>33.5</ele>
        <time>2021-11-13T08:46:10Z</time>
      </trkpt>
      <trkpt lat="49.41119" lon="1.07185">
        <ele>33.5</ele>
        <time>2021-11-13T08:46:12Z</time>
      </trkpt>
      <trkpt lat="49.41122" lon="1.07187">
        <ele>33.5</ele>
        <time>2021-11-13T08:46:13Z</time>
      </trkpt>
      <trkpt lat="49.41125" lon="1.07189">
        <ele>33.5</ele>
        <time>2021-11-13T08:46:14Z</time>
      </trkpt>
      <trkpt lat="49.41129" lon="1.07192">
        <ele>33.5</ele>
        <time>2021-11-13T08:46:16Z</time>
      </trkpt>
      <trkpt lat="49.41134" lon="1.07196">
        <ele>33.5</ele>
        <time>2021-11-13T08:46:17Z</time>
      </trkpt>
      <trkpt lat="49.41137" lon="1.07198">
        <ele>33.5</ele>
        <time>2021-11-13T08:46:18Z</time>
      </trkpt>
      <trkpt lat="49.41139" lon="1.072">
        <ele>33.5</ele>
        <time>2021-11-13T08:46:20Z</time>
      </trkpt>
      <trkpt lat="49.41143" lon="1.07203">
        <ele>33.5</ele>
        <time>2021-11-13T08:46:21Z</time>
      </trkpt>
      <trkpt lat="49.41146" lon="1.07205">
        <ele>33.6</ele>
        <time>2021-11-13T08:46:22Z</time>
      </trkpt>
      <trkpt lat="49.41149" lon="1.07207">
        <ele>33.6</ele>
        <time>2021-11-13T08:46:23Z</time>
      </trkpt>
      <trkpt lat="49.41152" lon="1.07209">
        <ele>33.6</ele>
        <time>2021-11-13T08:46:25Z</time>
      </trkpt>
      <trkpt lat="49.41156" lon="1.07211">
        <ele>33.6</ele>
        <time>2021-11-13T08:46:26Z</time>
      </trkpt>
      <trkpt lat="49.41159" lon="1.07213">
        <ele>33.6</ele>
        <time>2021-11-13T08:46:27Z</time>
      </trkpt>
      <trkpt lat="49.41162" lon="1.07213">
        <ele>33.6</ele>
        <time>2021-11-13T08:46:28Z</time>
      </trkpt>
      <trkpt lat="49.41165" lon="1.0721">
        <ele>33.6</ele>
        <time>2021-11-13T08:46:30Z</time>
      </trkpt>
      <trkpt lat="49.41168" lon="1.07208">
        <ele>33.6</ele>
        <time>2021-11-13T08:46:31Z</time>
      </trkpt>
      <trkpt lat="49.41171" lon="1.07204">
        <ele>33.6</ele>
        <time>2021-11-13T08:46:33Z</time>
      </trkpt>
      <trkpt lat="49.41175" lon="1.072">
        <ele>33.6</ele>
        <time>2021-11-13T08:46:34Z</time>
      </trkpt>
      <trkpt lat="49.41177" lon="1.07197">
        <ele>33.6</ele>
        <time>2021-11-13T08:46:35Z</time>
      </trkpt>
      <trkpt lat="49.4118" lon="1.07194">
        <ele>33.6</ele>
        <time>2021-11-13T08:46:36Z</time>
      </trkpt>
      <trkpt lat="49.41182" lon="1.07191">
        <ele>33.5</ele>
        <time>2021-11-13T08:46:38Z</time>
      </trkpt>
      <trkpt lat="49.41184" lon="1.07189">
        <ele>33.5</ele>
        <time>2021-11-13T08:46:39Z</time>
      </trkpt>
      <trkpt lat="49.41189" lon="1.07185">
        <ele>33.5</ele>
        <time>2021-11-13T08:46:40Z</time>
      </trkpt>
      <trkpt lat="49.41191" lon="1.07183">
        <ele>33.5</ele>
        <time>2021-11-13T08:46:41Z</time>
      </trkpt>
      <trkpt lat="49.41194" lon="1.0718">
        <ele>33.5</ele>
        <time>2021-11-13T08:46:43Z</time>
      </trkpt>
      <trkpt lat="49.41197" lon="1.07178">
        <ele>33.4</ele>
        <time>2021-11-13T08:46:44Z</time>
      </trkpt>
      <trkpt lat="49.412" lon="1.07177">
        <ele>33.4</ele>
        <time>2021-11-13T08:46:45Z</time>
      </trkpt>
      <trkpt lat="49.41204" lon="1.07176">
        <ele>33.4</ele>
        <time>2021-11-13T08:46:46Z</time>
      </trkpt>
      <trkpt lat="49.41209" lon="1.07175">
        <ele>33.3</ele>
        <time>2021-11-13T08:46:48Z</time>
      </trkpt>
      <trkpt lat="49.41211" lon="1.07174">
        <ele>33.3</ele>
        <time>2021-11-13T08:46:49Z</time>
      </trkpt>
      <trkpt lat="49.41214" lon="1.07174">
        <ele>33.3</ele>
        <time>2021-11-13T08:46:50Z</time>
      </trkpt>
      <trkpt lat="49.41216" lon="1.07174">
        <ele>33.3</ele>
        <time>2021-11-13T08:46:51Z</time>
      </trkpt>
      <trkpt lat="49.41219" lon="1.07176">
        <ele>33.3</ele>
        <time>2021-11-13T08:46:52Z</time>
      </trkpt>
      <trkpt lat="49.41221" lon="1.07179">
        <ele>33.3</ele>
        <time>2021-11-13T08:46:54Z</time>
      </trkpt>
      <trkpt lat="49.41223" lon="1.07179">
        <ele>33.3</ele>
        <time>2021-11-13T08:46:55Z</time>
      </trkpt>
      <trkpt lat="49.41224" lon="1.07179">
        <ele>33.3</ele>
        <time>2021-11-13T08:46:56Z</time>
      </trkpt>
      <trkpt lat="49.41227" lon="1.07179">
        <ele>33.3</ele>
        <time>2021-11-13T08:46:57Z</time>
      </trkpt>
      <trkpt lat="49.41229" lon="1.07179">
        <ele>33.3</ele>
        <time>2021-11-13T08:46:58Z</time>
      </trkpt>
      <trkpt lat="49.41231" lon="1.07181">
        <ele>33.3</ele>
        <time>2021-11-13T08:46:59Z</time>
      </trkpt>
      <trkpt lat="49.41234" lon="1.07183">
        <ele>33.3</ele>
        <time>2021-11-13T08:47:00Z</time>
      </trkpt>
      <trkpt lat="49.41238" lon="1.07186">
        <ele>33.3</ele>
        <time>2021-11-13T08:47:01Z</time>
      </trkpt>
      <trkpt lat="49.41242" lon="1.07189">
        <ele>33.4</ele>
        <time>2021-11-13T08:47:02Z</time>
      </trkpt>
      <trkpt lat="49.41248" lon="1.07195">
        <ele>33.4</ele>
        <time>2021-11-13T08:47:04Z</time>
      </trkpt>
      <trkpt lat="49.41251" lon="1.07199">
        <ele>33.4</ele>
        <time>2021-11-13T08:47:05Z</time>
      </trkpt>
      <trkpt lat="49.41254" lon="1.07203">
        <ele>33.4</ele>
        <time>2021-11-13T08:47:06Z</time>
      </trkpt>
      <trkpt lat="49.41257" lon="1.07208">
        <ele>33.4</ele>
        <time>2021-11-13T08:47:07Z</time>
      </trkpt>
      <trkpt lat="49.41259" lon="1.07214">
        <ele>33.4</ele>
        <time>2021-11-13T08:47:09Z</time>
      </trkpt>
      <trkpt lat="49.4126" lon="1.07221">
        <ele>33.4</ele>
        <time>2021-11-13T08:47:11Z</time>
      </trkpt>
      <trkpt lat="49.41262" lon="1.07227">
        <ele>33.4</ele>
        <time>2021-11-13T08:47:13Z</time>
      </trkpt>
      <trkpt lat="49.41264" lon="1.07232">
        <ele>33.4</ele>
        <time>2021-11-13T08:47:15Z</time>
      </trkpt>
      <trkpt lat="49.41265" lon="1.07236">
        <ele>33.5</ele>
        <time>2021-11-13T08:47:16Z</time>
      </trkpt>
      <trkpt lat="49.41265" lon="1.07238">
        <ele>33.5</ele>
        <time>2021-11-13T08:47:17Z</time>
      </trkpt>
      <trkpt lat="49.41265" lon="1.0724">
        <ele>33.5</ele>
        <time>2021-11-13T08:47:18Z</time>
      </trkpt>
      <trkpt lat="49.41263" lon="1.07245">
        <ele>33.5</ele>
        <time>2021-11-13T08:47:20Z</time>
      </trkpt>
      <trkpt lat="49.41263" lon="1.07248">
        <ele>33.5</ele>
        <time>2021-11-13T08:47:21Z</time>
      </trkpt>
      <trkpt lat="49.41264" lon="1.07254">
        <ele>33.5</ele>
        <time>2021-11-13T08:47:22Z</time>
      </trkpt>
      <trkpt lat="49.41264" lon="1.07256">
        <ele>33.5</ele>
        <time>2021-11-13T08:47:23Z</time>
      </trkpt>
      <trkpt lat="49.41264" lon="1.07263">
        <ele>33.5</ele>
        <time>2021-11-13T08:47:25Z</time>
      </trkpt>
      <trkpt lat="49.41265" lon="1.07266">
        <ele>33.5</ele>
        <time>2021-11-13T08:47:26Z</time>
      </trkpt>
      <trkpt lat="49.41265" lon="1.07271">
        <ele>33.5</ele>
        <time>2021-11-13T08:47:27Z</time>
      </trkpt>
      <trkpt lat="49.41266" lon="1.07278">
        <ele>33.5</ele>
        <time>2021-11-13T08:47:28Z</time>
      </trkpt>
      <trkpt lat="49.41267" lon="1.07284">
        <ele>33.5</ele>
        <time>2021-11-13T08:47:30Z</time>
      </trkpt>
      <trkpt lat="49.41269" lon="1.07292">
        <ele>33.5</ele>
        <time>2021-11-13T08:47:32Z</time>
      </trkpt>
      <trkpt lat="49.4127" lon="1.07296">
        <ele>33.5</ele>
        <time>2021-11-13T08:47:33Z</time>
      </trkpt>
      <trkpt lat="49.41272" lon="1.07302">
        <ele>33.4</ele>
        <time>2021-11-13T08:47:35Z</time>
      </trkpt>
      <trkpt lat="49.41273" lon="1.07305">
        <ele>33.4</ele>
        <time>2021-11-13T08:47:36Z</time>
      </trkpt>
      <trkpt lat="49.41276" lon="1.07311">
        <ele>33.3</ele>
        <time>2021-11-13T08:47:38Z</time>
      </trkpt>
      <trkpt lat="49.41279" lon="1.07314">
        <ele>33.3</ele>
        <time>2021-11-13T08:47:39Z</time>
      </trkpt>
      <trkpt lat="49.41283" lon="1.07316">
        <ele>33.2</ele>
        <time>2021-11-13T08:47:40Z</time>
      </trkpt>
      <trkpt lat="49.41288" lon="1.07318">
        <ele>33.1</ele>
        <time>2021-11-13T08:47:41Z</time>
      </trkpt>
      <trkpt lat="49.41291" lon="1.0732">
        <ele>33.1</ele>
        <time>2021-11-13T08:47:43Z</time>
      </trkpt>
      <trkpt lat="49.41296" lon="1.07322">
        <ele>33</ele>
        <time>2021-11-13T08:47:44Z</time>
      </trkpt>
      <trkpt lat="49.41302" lon="1.07325">
        <ele>33</ele>
        <time>2021-11-13T08:47:45Z</time>
      </trkpt>
      <trkpt lat="49.41307" lon="1.07328">
        <ele>32.9</ele>
        <time>2021-11-13T08:47:46Z</time>
      </trkpt>
      <trkpt lat="49.41311" lon="1.07329">
        <ele>32.8</ele>
        <time>2021-11-13T08:47:47Z</time>
      </trkpt>
      <trkpt lat="49.41317" lon="1.07331">
        <ele>32.6</ele>
        <time>2021-11-13T08:47:49Z</time>
      </trkpt>
      <trkpt lat="49.41321" lon="1.07332">
        <ele>32.5</ele>
        <time>2021-11-13T08:47:50Z</time>
      </trkpt>
      <trkpt lat="49.41325" lon="1.07333">
        <ele>32.4</ele>
        <time>2021-11-13T08:47:51Z</time>
      </trkpt>
      <trkpt lat="49.41329" lon="1.07336">
        <ele>32.3</ele>
        <time>2021-11-13T08:47:53Z</time>
      </trkpt>
      <trkpt lat="49.41332" lon="1.07338">
        <ele>32.3</ele>
        <time>2021-11-13T08:47:54Z</time>
      </trkpt>
      <trkpt lat="49.41336" lon="1.0734">
        <ele>32.3</ele>
        <time>2021-11-13T08:47:55Z</time>
      </trkpt>
      <trkpt lat="49.4134" lon="1.07343">
        <ele>32.2</ele>
        <time>2021-11-13T08:47:57Z</time>
      </trkpt>
      <trkpt lat="49.41343" lon="1.07344">
        <ele>32.2</ele>
        <time>2021-11-13T08:47:58Z</time>
      </trkpt>
      <trkpt lat="49.41345" lon="1.07345">
        <ele>32.1</ele>
        <time>2021-11-13T08:47:59Z</time>
      </trkpt>
      <trkpt lat="49.41349" lon="1.07347">
        <ele>32.1</ele>
        <time>2021-11-13T08:48:00Z</time>
      </trkpt>
      <trkpt lat="49.4135" lon="1.07348">
        <ele>32.1</ele>
        <time>2021-11-13T08:48:01Z</time>
      </trkpt>
      <trkpt lat="49.41353" lon="1.07351">
        <ele>32</ele>
        <time>2021-11-13T08:48:02Z</time>
      </trkpt>
      <trkpt lat="49.41358" lon="1.07354">
        <ele>32</ele>
        <time>2021-11-13T08:48:04Z</time>
      </trkpt>
      <trkpt lat="49.41363" lon="1.07358">
        <ele>31.9</ele>
        <time>2021-11-13T08:48:06Z</time>
      </trkpt>
      <trkpt lat="49.41369" lon="1.07361">
        <ele>31.9</ele>
        <time>2021-11-13T08:48:08Z</time>
      </trkpt>
      <trkpt lat="49.41374" lon="1.07364">
        <ele>31.8</ele>
        <time>2021-11-13T08:48:09Z</time>
      </trkpt>
      <trkpt lat="49.41379" lon="1.07366">
        <ele>31.8</ele>
        <time>2021-11-13T08:48:11Z</time>
      </trkpt>
      <trkpt lat="49.41383" lon="1.0737">
        <ele>31.7</ele>
        <time>2021-11-13T08:48:12Z</time>
      </trkpt>
      <trkpt lat="49.41385" lon="1.07372">
        <ele>31.7</ele>
        <time>2021-11-13T08:48:13Z</time>
      </trkpt>
      <trkpt lat="49.41388" lon="1.07373">
        <ele>31.7</ele>
        <time>2021-11-13T08:48:14Z</time>
      </trkpt>
      <trkpt lat="49.4139" lon="1.07375">
        <ele>31.7</ele>
        <time>2021-11-13T08:48:16Z</time>
      </trkpt>
      <trkpt lat="49.41394" lon="1.07378">
        <ele>31.6</ele>
        <time>2021-11-13T08:48:17Z</time>
      </trkpt>
      <trkpt lat="49.41397" lon="1.07379">
        <ele>31.6</ele>
        <time>2021-11-13T08:48:18Z</time>
      </trkpt>
      <trkpt lat="49.41399" lon="1.0738">
        <ele>31.5</ele>
        <time>2021-11-13T08:48:20Z</time>
      </trkpt>
      <trkpt lat="49.41402" lon="1.07382">
        <ele>31.5</ele>
        <time>2021-11-13T08:48:21Z</time>
      </trkpt>
      <trkpt lat="49.41406" lon="1.07385">
        <ele>31.4</ele>
        <time>2021-11-13T08:48:22Z</time>
      </trkpt>
      <trkpt lat="49.41407" lon="1.07385">
        <ele>31.4</ele>
        <time>2021-11-13T08:48:23Z</time>
      </trkpt>
      <trkpt lat="49.41411" lon="1.07387">
        <ele>31.4</ele>
        <time>2021-11-13T08:48:25Z</time>
      </trkpt>
      <trkpt lat="49.41414" lon="1.0739">
        <ele>31.3</ele>
        <time>2021-11-13T08:48:26Z</time>
      </trkpt>
      <trkpt lat="49.41418" lon="1.07392">
        <ele>31.3</ele>
        <time>2021-11-13T08:48:27Z</time>
      </trkpt>
      <trkpt lat="49.41421" lon="1.07394">
        <ele>31.3</ele>
        <time>2021-11-13T08:48:29Z</time>
      </trkpt>
      <trkpt lat="49.41424" lon="1.07399">
        <ele>31.2</ele>
        <time>2021-11-13T08:48:30Z</time>
      </trkpt>
      <trkpt lat="49.41427" lon="1.07402">
        <ele>31.2</ele>
        <time>2021-11-13T08:48:31Z</time>
      </trkpt>
      <trkpt lat="49.4143" lon="1.07406">
        <ele>31.1</ele>
        <time>2021-11-13T08:48:32Z</time>
      </trkpt>
      <trkpt lat="49.41434" lon="1.0741">
        <ele>31.1</ele>
        <time>2021-11-13T08:48:34Z</time>
      </trkpt>
      <trkpt lat="49.41437" lon="1.07413">
        <ele>31</ele>
        <time>2021-11-13T08:48:35Z</time>
      </trkpt>
      <trkpt lat="49.41441" lon="1.07417">
        <ele>31</ele>
        <time>2021-11-13T08:48:37Z</time>
      </trkpt>
      <trkpt lat="49.41443" lon="1.0742">
        <ele>31</ele>
        <time>2021-11-13T08:48:38Z</time>
      </trkpt>
      <trkpt lat="49.41446" lon="1.07425">
        <ele>30.9</ele>
        <time>2021-11-13T08:48:39Z</time>
      </trkpt>
      <trkpt lat="49.41449" lon="1.07426">
        <ele>30.9</ele>
        <time>2021-11-13T08:48:40Z</time>
      </trkpt>
      <trkpt lat="49.41453" lon="1.07428">
        <ele>30.9</ele>
        <time>2021-11-13T08:48:42Z</time>
      </trkpt>
      <trkpt lat="49.41455" lon="1.0743">
        <ele>30.8</ele>
        <time>2021-11-13T08:48:43Z</time>
      </trkpt>
      <trkpt lat="49.41459" lon="1.07434">
        <ele>30.8</ele>
        <time>2021-11-13T08:48:45Z</time>
      </trkpt>
      <trkpt lat="49.41462" lon="1.07437">
        <ele>30.8</ele>
        <time>2021-11-13T08:48:46Z</time>
      </trkpt>
      <trkpt lat="49.41465" lon="1.07439">
        <ele>30.8</ele>
        <time>2021-11-13T08:48:47Z</time>
      </trkpt>
      <trkpt lat="49.41469" lon="1.07441">
        <ele>30.7</ele>
        <time>2021-11-13T08:48:48Z</time>
      </trkpt>
      <trkpt lat="49.41472" lon="1.07443">
        <ele>30.6</ele>
        <time>2021-11-13T08:48:50Z</time>
      </trkpt>
      <trkpt lat="49.41476" lon="1.07446">
        <ele>30.6</ele>
        <time>2021-11-13T08:48:51Z</time>
      </trkpt>
      <trkpt lat="49.41479" lon="1.07448">
        <ele>30.6</ele>
        <time>2021-11-13T08:48:52Z</time>
      </trkpt>
      <trkpt lat="49.41482" lon="1.07451">
        <ele>30.6</ele>
        <time>2021-11-13T08:48:54Z</time>
      </trkpt>
      <trkpt lat="49.41485" lon="1.07453">
        <ele>30.5</ele>
        <time>2021-11-13T08:48:55Z</time>
      </trkpt>
      <trkpt lat="49.41486" lon="1.07454">
        <ele>30.5</ele>
        <time>2021-11-13T08:48:56Z</time>
      </trkpt>
      <trkpt lat="49.41489" lon="1.07456">
        <ele>30.5</ele>
        <time>2021-11-13T08:48:58Z</time>
      </trkpt>
      <trkpt lat="49.4149" lon="1.07456">
        <ele>30.5</ele>
        <time>2021-11-13T08:48:59Z</time>
      </trkpt>
      <trkpt lat="49.41492" lon="1.07458">
        <ele>30.5</ele>
        <time>2021-11-13T08:49:00Z</time>
      </trkpt>
      <trkpt lat="49.41494" lon="1.07458">
        <ele>30.5</ele>
        <time>2021-11-13T08:49:01Z</time>
      </trkpt>
      <trkpt lat="49.41496" lon="1.07459">
        <ele>30.4</ele>
        <time>2021-11-13T08:49:03Z</time>
      </trkpt>
      <trkpt lat="49.415" lon="1.0746">
        <ele>30.4</ele>
        <time>2021-11-13T08:49:04Z</time>
      </trkpt>
      <trkpt lat="49.41505" lon="1.07464">
        <ele>30.4</ele>
        <time>2021-11-13T08:49:05Z</time>
      </trkpt>
      <trkpt lat="49.41508" lon="1.07466">
        <ele>30.3</ele>
        <time>2021-11-13T08:49:06Z</time>
      </trkpt>
      <trkpt lat="49.41512" lon="1.07468">
        <ele>30.3</ele>
        <time>2021-11-13T08:49:07Z</time>
      </trkpt>
      <trkpt lat="49.41516" lon="1.0747">
        <ele>30.3</ele>
        <time>2021-11-13T08:49:09Z</time>
      </trkpt>
      <trkpt lat="49.41521" lon="1.07471">
        <ele>30.2</ele>
        <time>2021-11-13T08:49:10Z</time>
      </trkpt>
      <trkpt lat="49.41527" lon="1.07474">
        <ele>30.2</ele>
        <time>2021-11-13T08:49:11Z</time>
      </trkpt>
      <trkpt lat="49.41531" lon="1.07476">
        <ele>30.1</ele>
        <time>2021-11-13T08:49:12Z</time>
      </trkpt>
      <trkpt lat="49.41534" lon="1.07479">
        <ele>30</ele>
        <time>2021-11-13T08:49:13Z</time>
      </trkpt>
      <trkpt lat="49.41538" lon="1.07482">
        <ele>30</ele>
        <time>2021-11-13T08:49:15Z</time>
      </trkpt>
      <trkpt lat="49.41542" lon="1.07485">
        <ele>29.9</ele>
        <time>2021-11-13T08:49:16Z</time>
      </trkpt>
      <trkpt lat="49.41547" lon="1.0749">
        <ele>29.9</ele>
        <time>2021-11-13T08:49:17Z</time>
      </trkpt>
      <trkpt lat="49.4155" lon="1.07494">
        <ele>29.8</ele>
        <time>2021-11-13T08:49:18Z</time>
      </trkpt>
      <trkpt lat="49.41554" lon="1.07497">
        <ele>29.8</ele>
        <time>2021-11-13T08:49:20Z</time>
      </trkpt>
      <trkpt lat="49.41558" lon="1.075">
        <ele>29.7</ele>
        <time>2021-11-13T08:49:21Z</time>
      </trkpt>
      <trkpt lat="49.41562" lon="1.07503">
        <ele>29.6</ele>
        <time>2021-11-13T08:49:23Z</time>
      </trkpt>
      <trkpt lat="49.41565" lon="1.07505">
        <ele>29.6</ele>
        <time>2021-11-13T08:49:24Z</time>
      </trkpt>
      <trkpt lat="49.41569" lon="1.07509">
        <ele>29.6</ele>
        <time>2021-11-13T08:49:25Z</time>
      </trkpt>
      <trkpt lat="49.41571" lon="1.07511">
        <ele>29.5</ele>
        <time>2021-11-13T08:49:26Z</time>
      </trkpt>
      <trkpt lat="49.41574" lon="1.07514">
        <ele>29.5</ele>
        <time>2021-11-13T08:49:27Z</time>
      </trkpt>
      <trkpt lat="49.41577" lon="1.07516">
        <ele>29.5</ele>
        <time>2021-11-13T08:49:29Z</time>
      </trkpt>
      <trkpt lat="49.41581" lon="1.0752">
        <ele>29.4</ele>
        <time>2021-11-13T08:49:30Z</time>
      </trkpt>
      <trkpt lat="49.41584" lon="1.07522">
        <ele>29.4</ele>
        <time>2021-11-13T08:49:31Z</time>
      </trkpt>
      <trkpt lat="49.41587" lon="1.07524">
        <ele>29.4</ele>
        <time>2021-11-13T08:49:32Z</time>
      </trkpt>
      <trkpt lat="49.4159" lon="1.07526">
        <ele>29.4</ele>
        <time>2021-11-13T08:49:34Z</time>
      </trkpt>
      <trkpt lat="49.41594" lon="1.0753">
        <ele>29.3</ele>
        <time>2021-11-13T08:49:35Z</time>
      </trkpt>
      <trkpt lat="49.41596" lon="1.07532">
        <ele>29.3</ele>
        <time>2021-11-13T08:49:36Z</time>
      </trkpt>
      <trkpt lat="49.41599" lon="1.07534">
        <ele>29.3</ele>
        <time>2021-11-13T08:49:37Z</time>
      </trkpt>
      <trkpt lat="49.41602" lon="1.07536">
        <ele>29.2</ele>
        <time>2021-11-13T08:49:38Z</time>
      </trkpt>
      <trkpt lat="49.41605" lon="1.07539">
        <ele>29.2</ele>
        <time>2021-11-13T08:49:40Z</time>
      </trkpt>
      <trkpt lat="49.41607" lon="1.07541">
        <ele>29.2</ele>
        <time>2021-11-13T08:49:41Z</time>
      </trkpt>
      <trkpt lat="49.41609" lon="1.07543">
        <ele>29.1</ele>
        <time>2021-11-13T08:49:42Z</time>
      </trkpt>
      <trkpt lat="49.41612" lon="1.07547">
        <ele>29.1</ele>
        <time>2021-11-13T08:49:43Z</time>
      </trkpt>
      <trkpt lat="49.41614" lon="1.07549">
        <ele>29.1</ele>
        <time>2021-11-13T08:49:44Z</time>
      </trkpt>
      <trkpt lat="49.41615" lon="1.0755">
        <ele>29.1</ele>
        <time>2021-11-13T08:49:46Z</time>
      </trkpt>
      <trkpt lat="49.41616" lon="1.07551">
        <ele>29</ele>
        <time>2021-11-13T08:49:47Z</time>
      </trkpt>
      <trkpt lat="49.41619" lon="1.07552">
        <ele>29</ele>
        <time>2021-11-13T08:49:48Z</time>
      </trkpt>
      <trkpt lat="49.41622" lon="1.07553">
        <ele>29</ele>
        <time>2021-11-13T08:49:49Z</time>
      </trkpt>
      <trkpt lat="49.41627" lon="1.07557">
        <ele>28.9</ele>
        <time>2021-11-13T08:49:51Z</time>
      </trkpt>
      <trkpt lat="49.41629" lon="1.07559">
        <ele>28.9</ele>
        <time>2021-11-13T08:49:52Z</time>
      </trkpt>
      <trkpt lat="49.41632" lon="1.0756">
        <ele>28.8</ele>
        <time>2021-11-13T08:49:53Z</time>
      </trkpt>
      <trkpt lat="49.41635" lon="1.07562">
        <ele>28.8</ele>
        <time>2021-11-13T08:49:55Z</time>
      </trkpt>
      <trkpt lat="49.41638" lon="1.07564">
        <ele>28.7</ele>
        <time>2021-11-13T08:49:56Z</time>
      </trkpt>
      <trkpt lat="49.41642" lon="1.07566">
        <ele>28.7</ele>
        <time>2021-11-13T08:49:57Z</time>
      </trkpt>
      <trkpt lat="49.41645" lon="1.07568">
        <ele>28.6</ele>
        <time>2021-11-13T08:49:58Z</time>
      </trkpt>
      <trkpt lat="49.41648" lon="1.0757">
        <ele>28.6</ele>
        <time>2021-11-13T08:49:59Z</time>
      </trkpt>
      <trkpt lat="49.41652" lon="1.07572">
        <ele>28.5</ele>
        <time>2021-11-13T08:50:00Z</time>
      </trkpt>
      <trkpt lat="49.41656" lon="1.07573">
        <ele>28.4</ele>
        <time>2021-11-13T08:50:02Z</time>
      </trkpt>
      <trkpt lat="49.41659" lon="1.07575">
        <ele>28.4</ele>
        <time>2021-11-13T08:50:03Z</time>
      </trkpt>
      <trkpt lat="49.41663" lon="1.07578">
        <ele>28.3</ele>
        <time>2021-11-13T08:50:04Z</time>
      </trkpt>
      <trkpt lat="49.41665" lon="1.0758">
        <ele>28.3</ele>
        <time>2021-11-13T08:50:06Z</time>
      </trkpt>
      <trkpt lat="49.41668" lon="1.07583">
        <ele>28.2</ele>
        <time>2021-11-13T08:50:07Z</time>
      </trkpt>
      <trkpt lat="49.41671" lon="1.07584">
        <ele>28.2</ele>
        <time>2021-11-13T08:50:08Z</time>
      </trkpt>
      <trkpt lat="49.41674" lon="1.07586">
        <ele>28.1</ele>
        <time>2021-11-13T08:50:09Z</time>
      </trkpt>
      <trkpt lat="49.41679" lon="1.07591">
        <ele>28</ele>
        <time>2021-11-13T08:50:11Z</time>
      </trkpt>
      <trkpt lat="49.41682" lon="1.07594">
        <ele>27.9</ele>
        <time>2021-11-13T08:50:12Z</time>
      </trkpt>
      <trkpt lat="49.41687" lon="1.07597">
        <ele>27.8</ele>
        <time>2021-11-13T08:50:13Z</time>
      </trkpt>
      <trkpt lat="49.41691" lon="1.076">
        <ele>27.7</ele>
        <time>2021-11-13T08:50:15Z</time>
      </trkpt>
      <trkpt lat="49.41695" lon="1.07603">
        <ele>27.6</ele>
        <time>2021-11-13T08:50:16Z</time>
      </trkpt>
      <trkpt lat="49.41699" lon="1.07606">
        <ele>27.5</ele>
        <time>2021-11-13T08:50:17Z</time>
      </trkpt>
      <trkpt lat="49.41703" lon="1.07609">
        <ele>27.4</ele>
        <time>2021-11-13T08:50:19Z</time>
      </trkpt>
      <trkpt lat="49.41704" lon="1.07611">
        <ele>27.4</ele>
        <time>2021-11-13T08:50:20Z</time>
      </trkpt>
      <trkpt lat="49.41707" lon="1.07613">
        <ele>27.3</ele>
        <time>2021-11-13T08:50:21Z</time>
      </trkpt>
      <trkpt lat="49.41708" lon="1.07614">
        <ele>27.3</ele>
        <time>2021-11-13T08:50:22Z</time>
      </trkpt>
      <trkpt lat="49.41711" lon="1.07615">
        <ele>27.2</ele>
        <time>2021-11-13T08:50:23Z</time>
      </trkpt>
      <trkpt lat="49.41713" lon="1.07617">
        <ele>27.1</ele>
        <time>2021-11-13T08:50:25Z</time>
      </trkpt>
      <trkpt lat="49.41716" lon="1.07619">
        <ele>27</ele>
        <time>2021-11-13T08:50:26Z</time>
      </trkpt>
      <trkpt lat="49.41719" lon="1.07622">
        <ele>26.9</ele>
        <time>2021-11-13T08:50:27Z</time>
      </trkpt>
      <trkpt lat="49.41722" lon="1.07623">
        <ele>26.8</ele>
        <time>2021-11-13T08:50:28Z</time>
      </trkpt>
      <trkpt lat="49.41724" lon="1.07625">
        <ele>26.7</ele>
        <time>2021-11-13T08:50:30Z</time>
      </trkpt>
      <trkpt lat="49.41729" lon="1.07628">
        <ele>26.6</ele>
        <time>2021-11-13T08:50:31Z</time>
      </trkpt>
      <trkpt lat="49.41732" lon="1.07631">
        <ele>26.5</ele>
        <time>2021-11-13T08:50:32Z</time>
      </trkpt>
      <trkpt lat="49.41736" lon="1.07633">
        <ele>26.3</ele>
        <time>2021-11-13T08:50:33Z</time>
      </trkpt>
      <trkpt lat="49.4174" lon="1.07635">
        <ele>26.1</ele>
        <time>2021-11-13T08:50:35Z</time>
      </trkpt>
      <trkpt lat="49.41746" lon="1.07638">
        <ele>25.9</ele>
        <time>2021-11-13T08:50:36Z</time>
      </trkpt>
      <trkpt lat="49.41751" lon="1.07641">
        <ele>25.7</ele>
        <time>2021-11-13T08:50:37Z</time>
      </trkpt>
      <trkpt lat="49.41756" lon="1.07645">
        <ele>25.5</ele>
        <time>2021-11-13T08:50:39Z</time>
      </trkpt>
      <trkpt lat="49.41759" lon="1.07647">
        <ele>25.4</ele>
        <time>2021-11-13T08:50:40Z</time>
      </trkpt>
      <trkpt lat="49.41762" lon="1.0765">
        <ele>25.2</ele>
        <time>2021-11-13T08:50:41Z</time>
      </trkpt>
      <trkpt lat="49.41768" lon="1.07653">
        <ele>25</ele>
        <time>2021-11-13T08:50:42Z</time>
      </trkpt>
      <trkpt lat="49.41771" lon="1.07656">
        <ele>24.8</ele>
        <time>2021-11-13T08:50:43Z</time>
      </trkpt>
      <trkpt lat="49.41774" lon="1.07658">
        <ele>24.7</ele>
        <time>2021-11-13T08:50:45Z</time>
      </trkpt>
      <trkpt lat="49.41777" lon="1.0766">
        <ele>24.5</ele>
        <time>2021-11-13T08:50:46Z</time>
      </trkpt>
      <trkpt lat="49.41781" lon="1.07664">
        <ele>24.3</ele>
        <time>2021-11-13T08:50:47Z</time>
      </trkpt>
      <trkpt lat="49.41783" lon="1.07666">
        <ele>24.2</ele>
        <time>2021-11-13T08:50:48Z</time>
      </trkpt>
      <trkpt lat="49.41786" lon="1.07669">
        <ele>24.1</ele>
        <time>2021-11-13T08:50:49Z</time>
      </trkpt>
      <trkpt lat="49.41787" lon="1.07671">
        <ele>24</ele>
        <time>2021-11-13T08:50:51Z</time>
      </trkpt>
      <trkpt lat="49.41791" lon="1.07674">
        <ele>23.9</ele>
        <time>2021-11-13T08:50:52Z</time>
      </trkpt>
      <trkpt lat="49.41792" lon="1.07676">
        <ele>23.8</ele>
        <time>2021-11-13T08:50:53Z</time>
      </trkpt>
      <trkpt lat="49.41794" lon="1.07678">
        <ele>23.7</ele>
        <time>2021-11-13T08:50:54Z</time>
      </trkpt>
      <trkpt lat="49.41796" lon="1.0768">
        <ele>23.6</ele>
        <time>2021-11-13T08:50:56Z</time>
      </trkpt>
      <trkpt lat="49.41798" lon="1.07684">
        <ele>23.4</ele>
        <time>2021-11-13T08:50:57Z</time>
      </trkpt>
      <trkpt lat="49.41801" lon="1.07687">
        <ele>23.3</ele>
        <time>2021-11-13T08:50:59Z</time>
      </trkpt>
      <trkpt lat="49.41804" lon="1.0769">
        <ele>23.1</ele>
        <time>2021-11-13T08:51:01Z</time>
      </trkpt>
      <trkpt lat="49.41807" lon="1.07692">
        <ele>22.9</ele>
        <time>2021-11-13T08:51:02Z</time>
      </trkpt>
      <trkpt lat="49.41808" lon="1.07693">
        <ele>22.9</ele>
        <time>2021-11-13T08:51:03Z</time>
      </trkpt>
      <trkpt lat="49.41809" lon="1.07694">
        <ele>22.8</ele>
        <time>2021-11-13T08:51:04Z</time>
      </trkpt>
      <trkpt lat="49.41812" lon="1.07695">
        <ele>22.7</ele>
        <time>2021-11-13T08:51:06Z</time>
      </trkpt>
      <trkpt lat="49.4182" lon="1.077">
        <ele>22.3</ele>
        <time>2021-11-13T08:51:08Z</time>
      </trkpt>
      <trkpt lat="49.4183" lon="1.07706">
        <ele>21.9</ele>
        <time>2021-11-13T08:51:10Z</time>
      </trkpt>
      <trkpt lat="49.41834" lon="1.07707">
        <ele>21.7</ele>
        <time>2021-11-13T08:51:11Z</time>
      </trkpt>
      <trkpt lat="49.41838" lon="1.0771">
        <ele>21.5</ele>
        <time>2021-11-13T08:51:12Z</time>
      </trkpt>
      <trkpt lat="49.41841" lon="1.07713">
        <ele>21.4</ele>
        <time>2021-11-13T08:51:13Z</time>
      </trkpt>
      <trkpt lat="49.41844" lon="1.07715">
        <ele>21.2</ele>
        <time>2021-11-13T08:51:14Z</time>
      </trkpt>
      <trkpt lat="49.41846" lon="1.07716">
        <ele>21.1</ele>
        <time>2021-11-13T08:51:15Z</time>
      </trkpt>
      <trkpt lat="49.41849" lon="1.07719">
        <ele>21</ele>
        <time>2021-11-13T08:51:16Z</time>
      </trkpt>
      <trkpt lat="49.41851" lon="1.07721">
        <ele>20.8</ele>
        <time>2021-11-13T08:51:17Z</time>
      </trkpt>
      <trkpt lat="49.41857" lon="1.07726">
        <ele>20.6</ele>
        <time>2021-11-13T08:51:19Z</time>
      </trkpt>
      <trkpt lat="49.41859" lon="1.07728">
        <ele>20.4</ele>
        <time>2021-11-13T08:51:20Z</time>
      </trkpt>
      <trkpt lat="49.41864" lon="1.07731">
        <ele>20.2</ele>
        <time>2021-11-13T08:51:21Z</time>
      </trkpt>
      <trkpt lat="49.41869" lon="1.07735">
        <ele>19.9</ele>
        <time>2021-11-13T08:51:23Z</time>
      </trkpt>
      <trkpt lat="49.41873" lon="1.07737">
        <ele>19.8</ele>
        <time>2021-11-13T08:51:24Z</time>
      </trkpt>
      <trkpt lat="49.41875" lon="1.07739">
        <ele>19.7</ele>
        <time>2021-11-13T08:51:25Z</time>
      </trkpt>
      <trkpt lat="49.41878" lon="1.0774">
        <ele>19.6</ele>
        <time>2021-11-13T08:51:26Z</time>
      </trkpt>
      <trkpt lat="49.41882" lon="1.07742">
        <ele>19.4</ele>
        <time>2021-11-13T08:51:27Z</time>
      </trkpt>
      <trkpt lat="49.41883" lon="1.07743">
        <ele>19.4</ele>
        <time>2021-11-13T08:51:28Z</time>
      </trkpt>
      <trkpt lat="49.41885" lon="1.07745">
        <ele>19.3</ele>
        <time>2021-11-13T08:51:29Z</time>
      </trkpt>
      <trkpt lat="49.41888" lon="1.07746">
        <ele>19.2</ele>
        <time>2021-11-13T08:51:30Z</time>
      </trkpt>
      <trkpt lat="49.41891" lon="1.07749">
        <ele>19.1</ele>
        <time>2021-11-13T08:51:32Z</time>
      </trkpt>
      <trkpt lat="49.41894" lon="1.07753">
        <ele>18.9</ele>
        <time>2021-11-13T08:51:33Z</time>
      </trkpt>
      <trkpt lat="49.41899" lon="1.07757">
        <ele>18.8</ele>
        <time>2021-11-13T08:51:35Z</time>
      </trkpt>
      <trkpt lat="49.41903" lon="1.07759">
        <ele>18.6</ele>
        <time>2021-11-13T08:51:36Z</time>
      </trkpt>
      <trkpt lat="49.41909" lon="1.07764">
        <ele>18.4</ele>
        <time>2021-11-13T08:51:37Z</time>
      </trkpt>
      <trkpt lat="49.41913" lon="1.07768">
        <ele>18.3</ele>
        <time>2021-11-13T08:51:38Z</time>
      </trkpt>
      <trkpt lat="49.41917" lon="1.0777">
        <ele>18.1</ele>
        <time>2021-11-13T08:51:40Z</time>
      </trkpt>
      <trkpt lat="49.41921" lon="1.07771">
        <ele>18</ele>
        <time>2021-11-13T08:51:41Z</time>
      </trkpt>
      <trkpt lat="49.41927" lon="1.07775">
        <ele>17.8</ele>
        <time>2021-11-13T08:51:42Z</time>
      </trkpt>
      <trkpt lat="49.4193" lon="1.07777">
        <ele>17.6</ele>
        <time>2021-11-13T08:51:43Z</time>
      </trkpt>
      <trkpt lat="49.41933" lon="1.07777">
        <ele>17.5</ele>
        <time>2021-11-13T08:51:44Z</time>
      </trkpt>
      <trkpt lat="49.41937" lon="1.07776">
        <ele>17.3</ele>
        <time>2021-11-13T08:51:46Z</time>
      </trkpt>
      <trkpt lat="49.41939" lon="1.07776">
        <ele>17.3</ele>
        <time>2021-11-13T08:51:47Z</time>
      </trkpt>
      <trkpt lat="49.41943" lon="1.07775">
        <ele>17.2</ele>
        <time>2021-11-13T08:51:48Z</time>
      </trkpt>
      <trkpt lat="49.41946" lon="1.07775">
        <ele>16.9</ele>
        <time>2021-11-13T08:51:49Z</time>
      </trkpt>
      <trkpt lat="49.41949" lon="1.07774">
        <ele>16.8</ele>
        <time>2021-11-13T08:51:51Z</time>
      </trkpt>
      <trkpt lat="49.41951" lon="1.07774">
        <ele>16.7</ele>
        <time>2021-11-13T08:51:52Z</time>
      </trkpt>
      <trkpt lat="49.41954" lon="1.07774">
        <ele>16.7</ele>
        <time>2021-11-13T08:51:54Z</time>
      </trkpt>
      <trkpt lat="49.41957" lon="1.07775">
        <ele>16.7</ele>
        <time>2021-11-13T08:51:55Z</time>
      </trkpt>
      <trkpt lat="49.41958" lon="1.07776">
        <ele>16.6</ele>
        <time>2021-11-13T08:51:56Z</time>
      </trkpt>
      <trkpt lat="49.41959" lon="1.07778">
        <ele>16.6</ele>
        <time>2021-11-13T08:51:57Z</time>
      </trkpt>
      <trkpt lat="49.4196" lon="1.0778">
        <ele>16.6</ele>
        <time>2021-11-13T08:51:59Z</time>
      </trkpt>
      <trkpt lat="49.41962" lon="1.07784">
        <ele>16.6</ele>
        <time>2021-11-13T08:52:00Z</time>
      </trkpt>
      <trkpt lat="49.41965" lon="1.07789">
        <ele>16.4</ele>
        <time>2021-11-13T08:52:02Z</time>
      </trkpt>
      <trkpt lat="49.4197" lon="1.07795">
        <ele>16.1</ele>
        <time>2021-11-13T08:52:03Z</time>
      </trkpt>
      <trkpt lat="49.41975" lon="1.07798">
        <ele>16</ele>
        <time>2021-11-13T08:52:04Z</time>
      </trkpt>
      <trkpt lat="49.41979" lon="1.078">
        <ele>15.9</ele>
        <time>2021-11-13T08:52:06Z</time>
      </trkpt>
      <trkpt lat="49.41985" lon="1.07802">
        <ele>15.8</ele>
        <time>2021-11-13T08:52:07Z</time>
      </trkpt>
      <trkpt lat="49.41989" lon="1.07804">
        <ele>15.7</ele>
        <time>2021-11-13T08:52:08Z</time>
      </trkpt>
      <trkpt lat="49.41993" lon="1.07805">
        <ele>15.7</ele>
        <time>2021-11-13T08:52:10Z</time>
      </trkpt>
      <trkpt lat="49.41997" lon="1.07806">
        <ele>15.7</ele>
        <time>2021-11-13T08:52:11Z</time>
      </trkpt>
      <trkpt lat="49.42001" lon="1.07808">
        <ele>15.8</ele>
        <time>2021-11-13T08:52:12Z</time>
      </trkpt>
      <trkpt lat="49.42007" lon="1.07812">
        <ele>15.9</ele>
        <time>2021-11-13T08:52:14Z</time>
      </trkpt>
      <trkpt lat="49.4201" lon="1.07813">
        <ele>15.8</ele>
        <time>2021-11-13T08:52:15Z</time>
      </trkpt>
      <trkpt lat="49.42015" lon="1.07816">
        <ele>15.7</ele>
        <time>2021-11-13T08:52:16Z</time>
      </trkpt>
      <trkpt lat="49.4202" lon="1.0782">
        <ele>15.6</ele>
        <time>2021-11-13T08:52:18Z</time>
      </trkpt>
      <trkpt lat="49.42023" lon="1.07823">
        <ele>15.6</ele>
        <time>2021-11-13T08:52:19Z</time>
      </trkpt>
      <trkpt lat="49.42028" lon="1.07828">
        <ele>15.5</ele>
        <time>2021-11-13T08:52:21Z</time>
      </trkpt>
      <trkpt lat="49.42034" lon="1.07834">
        <ele>15.3</ele>
        <time>2021-11-13T08:52:22Z</time>
      </trkpt>
      <trkpt lat="49.42037" lon="1.07838">
        <ele>15.2</ele>
        <time>2021-11-13T08:52:23Z</time>
      </trkpt>
      <trkpt lat="49.42041" lon="1.07841">
        <ele>15.1</ele>
        <time>2021-11-13T08:52:24Z</time>
      </trkpt>
      <trkpt lat="49.42044" lon="1.07843">
        <ele>15</ele>
        <time>2021-11-13T08:52:26Z</time>
      </trkpt>
      <trkpt lat="49.42047" lon="1.07846">
        <ele>14.9</ele>
        <time>2021-11-13T08:52:27Z</time>
      </trkpt>
      <trkpt lat="49.4205" lon="1.07848">
        <ele>14.8</ele>
        <time>2021-11-13T08:52:28Z</time>
      </trkpt>
      <trkpt lat="49.42053" lon="1.07851">
        <ele>14.7</ele>
        <time>2021-11-13T08:52:29Z</time>
      </trkpt>
      <trkpt lat="49.42055" lon="1.07853">
        <ele>14.6</ele>
        <time>2021-11-13T08:52:30Z</time>
      </trkpt>
      <trkpt lat="49.42058" lon="1.07857">
        <ele>14.5</ele>
        <time>2021-11-13T08:52:31Z</time>
      </trkpt>
      <trkpt lat="49.4206" lon="1.0786">
        <ele>14.4</ele>
        <time>2021-11-13T08:52:32Z</time>
      </trkpt>
      <trkpt lat="49.42063" lon="1.07863">
        <ele>14.4</ele>
        <time>2021-11-13T08:52:33Z</time>
      </trkpt>
      <trkpt lat="49.42066" lon="1.07865">
        <ele>14.3</ele>
        <time>2021-11-13T08:52:35Z</time>
      </trkpt>
      <trkpt lat="49.42068" lon="1.07865">
        <ele>14.2</ele>
        <time>2021-11-13T08:52:36Z</time>
      </trkpt>
      <trkpt lat="49.42071" lon="1.07868">
        <ele>14.2</ele>
        <time>2021-11-13T08:52:38Z</time>
      </trkpt>
      <trkpt lat="49.42072" lon="1.07869">
        <ele>14.1</ele>
        <time>2021-11-13T08:52:39Z</time>
      </trkpt>
      <trkpt lat="49.42074" lon="1.0787">
        <ele>14.1</ele>
        <time>2021-11-13T08:52:40Z</time>
      </trkpt>
      <trkpt lat="49.42076" lon="1.07873">
        <ele>14.1</ele>
        <time>2021-11-13T08:52:41Z</time>
      </trkpt>
      <trkpt lat="49.42079" lon="1.07876">
        <ele>14</ele>
        <time>2021-11-13T08:52:43Z</time>
      </trkpt>
      <trkpt lat="49.42083" lon="1.07879">
        <ele>13.9</ele>
        <time>2021-11-13T08:52:44Z</time>
      </trkpt>
      <trkpt lat="49.42086" lon="1.07882">
        <ele>13.8</ele>
        <time>2021-11-13T08:52:45Z</time>
      </trkpt>
      <trkpt lat="49.42089" lon="1.07884">
        <ele>13.7</ele>
        <time>2021-11-13T08:52:46Z</time>
      </trkpt>
      <trkpt lat="49.42094" lon="1.07888">
        <ele>13.6</ele>
        <time>2021-11-13T08:52:48Z</time>
      </trkpt>
      <trkpt lat="49.42097" lon="1.0789">
        <ele>13.5</ele>
        <time>2021-11-13T08:52:49Z</time>
      </trkpt>
      <trkpt lat="49.42101" lon="1.07894">
        <ele>13.4</ele>
        <time>2021-11-13T08:52:51Z</time>
      </trkpt>
      <trkpt lat="49.42106" lon="1.07898">
        <ele>13.3</ele>
        <time>2021-11-13T08:52:52Z</time>
      </trkpt>
      <trkpt lat="49.4211" lon="1.07901">
        <ele>13.2</ele>
        <time>2021-11-13T08:52:53Z</time>
      </trkpt>
      <trkpt lat="49.42113" lon="1.07903">
        <ele>13.1</ele>
        <time>2021-11-13T08:52:55Z</time>
      </trkpt>
      <trkpt lat="49.42117" lon="1.07907">
        <ele>13.1</ele>
        <time>2021-11-13T08:52:56Z</time>
      </trkpt>
      <trkpt lat="49.42119" lon="1.07909">
        <ele>13</ele>
        <time>2021-11-13T08:52:57Z</time>
      </trkpt>
      <trkpt lat="49.42122" lon="1.07911">
        <ele>13</ele>
        <time>2021-11-13T08:52:58Z</time>
      </trkpt>
      <trkpt lat="49.42127" lon="1.07914">
        <ele>12.9</ele>
        <time>2021-11-13T08:53:00Z</time>
      </trkpt>
      <trkpt lat="49.4213" lon="1.07917">
        <ele>12.9</ele>
        <time>2021-11-13T08:53:02Z</time>
      </trkpt>
      <trkpt lat="49.42134" lon="1.0792">
        <ele>12.8</ele>
        <time>2021-11-13T08:53:03Z</time>
      </trkpt>
      <trkpt lat="49.42137" lon="1.07921">
        <ele>12.8</ele>
        <time>2021-11-13T08:53:04Z</time>
      </trkpt>
      <trkpt lat="49.4214" lon="1.07924">
        <ele>12.8</ele>
        <time>2021-11-13T08:53:05Z</time>
      </trkpt>
      <trkpt lat="49.42144" lon="1.07927">
        <ele>12.7</ele>
        <time>2021-11-13T08:53:07Z</time>
      </trkpt>
      <trkpt lat="49.42148" lon="1.0793">
        <ele>12.7</ele>
        <time>2021-11-13T08:53:09Z</time>
      </trkpt>
      <trkpt lat="49.42151" lon="1.07932">
        <ele>12.7</ele>
        <time>2021-11-13T08:53:10Z</time>
      </trkpt>
      <trkpt lat="49.42156" lon="1.07935">
        <ele>12.6</ele>
        <time>2021-11-13T08:53:11Z</time>
      </trkpt>
      <trkpt lat="49.4216" lon="1.07937">
        <ele>12.5</ele>
        <time>2021-11-13T08:53:12Z</time>
      </trkpt>
      <trkpt lat="49.42164" lon="1.07939">
        <ele>12.4</ele>
        <time>2021-11-13T08:53:14Z</time>
      </trkpt>
      <trkpt lat="49.42167" lon="1.0794">
        <ele>12.3</ele>
        <time>2021-11-13T08:53:15Z</time>
      </trkpt>
      <trkpt lat="49.4217" lon="1.07938">
        <ele>12.3</ele>
        <time>2021-11-13T08:53:16Z</time>
      </trkpt>
      <trkpt lat="49.42173" lon="1.07932">
        <ele>12.3</ele>
        <time>2021-11-13T08:53:18Z</time>
      </trkpt>
      <trkpt lat="49.42173" lon="1.07929">
        <ele>12.3</ele>
        <time>2021-11-13T08:53:19Z</time>
      </trkpt>
      <trkpt lat="49.42174" lon="1.07927">
        <ele>12.3</ele>
        <time>2021-11-13T08:53:20Z</time>
      </trkpt>
      <trkpt lat="49.42175" lon="1.07923">
        <ele>12.3</ele>
        <time>2021-11-13T08:53:21Z</time>
      </trkpt>
      <trkpt lat="49.42176" lon="1.07917">
        <ele>12.3</ele>
        <time>2021-11-13T08:53:22Z</time>
      </trkpt>
      <trkpt lat="49.42176" lon="1.07915">
        <ele>12.3</ele>
        <time>2021-11-13T08:53:23Z</time>
      </trkpt>
      <trkpt lat="49.42178" lon="1.07911">
        <ele>12.3</ele>
        <time>2021-11-13T08:53:24Z</time>
      </trkpt>
      <trkpt lat="49.42179" lon="1.07907">
        <ele>12.3</ele>
        <time>2021-11-13T08:53:26Z</time>
      </trkpt>
      <trkpt lat="49.42181" lon="1.07899">
        <ele>12.4</ele>
        <time>2021-11-13T08:53:27Z</time>
      </trkpt>
      <trkpt lat="49.42182" lon="1.07893">
        <ele>12.4</ele>
        <time>2021-11-13T08:53:29Z</time>
      </trkpt>
      <trkpt lat="49.42184" lon="1.07889">
        <ele>12.4</ele>
        <time>2021-11-13T08:53:30Z</time>
      </trkpt>
      <trkpt lat="49.42186" lon="1.07883">
        <ele>12.4</ele>
        <time>2021-11-13T08:53:32Z</time>
      </trkpt>
      <trkpt lat="49.42186" lon="1.07876">
        <ele>12.5</ele>
        <time>2021-11-13T08:53:33Z</time>
      </trkpt>
      <trkpt lat="49.42186" lon="1.0787">
        <ele>12.5</ele>
        <time>2021-11-13T08:53:34Z</time>
      </trkpt>
      <trkpt lat="49.42185" lon="1.07862">
        <ele>12.6</ele>
        <time>2021-11-13T08:53:36Z</time>
      </trkpt>
      <trkpt lat="49.42184" lon="1.07859">
        <ele>12.6</ele>
        <time>2021-11-13T08:53:37Z</time>
      </trkpt>
      <trkpt lat="49.42184" lon="1.07857">
        <ele>12.6</ele>
        <time>2021-11-13T08:53:38Z</time>
      </trkpt>
      <trkpt lat="49.42181" lon="1.07853">
        <ele>12.7</ele>
        <time>2021-11-13T08:53:39Z</time>
      </trkpt>
      <trkpt lat="49.4218" lon="1.07852">
        <ele>12.7</ele>
        <time>2021-11-13T08:53:40Z</time>
      </trkpt>
      <trkpt lat="49.42177" lon="1.07851">
        <ele>12.7</ele>
        <time>2021-11-13T08:53:41Z</time>
      </trkpt>
      <trkpt lat="49.42174" lon="1.0785">
        <ele>12.7</ele>
        <time>2021-11-13T08:53:43Z</time>
      </trkpt>
      <trkpt lat="49.42172" lon="1.0785">
        <ele>12.7</ele>
        <time>2021-11-13T08:53:44Z</time>
      </trkpt>
      <trkpt lat="49.42168" lon="1.07852">
        <ele>12.7</ele>
        <time>2021-11-13T08:53:46Z</time>
      </trkpt>
      <trkpt lat="49.42166" lon="1.07855">
        <ele>12.7</ele>
        <time>2021-11-13T08:53:47Z</time>
      </trkpt>
      <trkpt lat="49.42163" lon="1.07856">
        <ele>12.7</ele>
        <time>2021-11-13T08:53:48Z</time>
      </trkpt>
      <trkpt lat="49.4216" lon="1.07853">
        <ele>12.7</ele>
        <time>2021-11-13T08:53:50Z</time>
      </trkpt>
      <trkpt lat="49.42157" lon="1.07852">
        <ele>12.7</ele>
        <time>2021-11-13T08:53:51Z</time>
      </trkpt>
      <trkpt lat="49.42155" lon="1.07848">
        <ele>12.6</ele>
        <time>2021-11-13T08:53:53Z</time>
      </trkpt>
      <trkpt lat="49.42154" lon="1.07846">
        <ele>12.6</ele>
        <time>2021-11-13T08:53:54Z</time>
      </trkpt>
      <trkpt lat="49.42153" lon="1.07842">
        <ele>12.6</ele>
        <time>2021-11-13T08:53:55Z</time>
      </trkpt>
      <trkpt lat="49.42153" lon="1.07838">
        <ele>12.5</ele>
        <time>2021-11-13T08:53:57Z</time>
      </trkpt>
      <trkpt lat="49.42154" lon="1.07834">
        <ele>12.5</ele>
        <time>2021-11-13T08:53:58Z</time>
      </trkpt>
      <trkpt lat="49.42155" lon="1.07828">
        <ele>12.4</ele>
        <time>2021-11-13T08:54:00Z</time>
      </trkpt>
      <trkpt lat="49.42156" lon="1.07821">
        <ele>12.4</ele>
        <time>2021-11-13T08:54:01Z</time>
      </trkpt>
      <trkpt lat="49.42157" lon="1.07818">
        <ele>12.3</ele>
        <time>2021-11-13T08:54:02Z</time>
      </trkpt>
      <trkpt lat="49.42159" lon="1.07815">
        <ele>12.3</ele>
        <time>2021-11-13T08:54:03Z</time>
      </trkpt>
      <trkpt lat="49.42164" lon="1.07809">
        <ele>12.3</ele>
        <time>2021-11-13T08:54:05Z</time>
      </trkpt>
      <trkpt lat="49.42166" lon="1.07806">
        <ele>12.3</ele>
        <time>2021-11-13T08:54:06Z</time>
      </trkpt>
      <trkpt lat="49.42169" lon="1.07803">
        <ele>12.2</ele>
        <time>2021-11-13T08:54:07Z</time>
      </trkpt>
      <trkpt lat="49.42173" lon="1.07802">
        <ele>12.2</ele>
        <time>2021-11-13T08:54:09Z</time>
      </trkpt>
      <trkpt lat="49.42179" lon="1.07803">
        <ele>12.2</ele>
        <time>2021-11-13T08:54:10Z</time>
      </trkpt>
      <trkpt lat="49.42182" lon="1.07803">
        <ele>12.2</ele>
        <time>2021-11-13T08:54:11Z</time>
      </trkpt>
      <trkpt lat="49.42187" lon="1.07805">
        <ele>12.2</ele>
        <time>2021-11-13T08:54:13Z</time>
      </trkpt>
      <trkpt lat="49.42188" lon="1.07806">
        <ele>12.2</ele>
        <time>2021-11-13T08:54:14Z</time>
      </trkpt>
      <trkpt lat="49.4219" lon="1.07807">
        <ele>12.2</ele>
        <time>2021-11-13T08:54:15Z</time>
      </trkpt>
      <trkpt lat="49.42192" lon="1.07809">
        <ele>12.2</ele>
        <time>2021-11-13T08:54:16Z</time>
      </trkpt>
      <trkpt lat="49.42193" lon="1.07809">
        <ele>12.1</ele>
        <time>2021-11-13T08:54:17Z</time>
      </trkpt>
      <trkpt lat="49.42195" lon="1.07809">
        <ele>12.1</ele>
        <time>2021-11-13T08:54:18Z</time>
      </trkpt>
      <trkpt lat="49.42197" lon="1.07809">
        <ele>12.1</ele>
        <time>2021-11-13T08:54:20Z</time>
      </trkpt>
      <trkpt lat="49.42199" lon="1.07809">
        <ele>12.1</ele>
        <time>2021-11-13T08:54:21Z</time>
      </trkpt>
      <trkpt lat="49.42202" lon="1.07808">
        <ele>12.1</ele>
        <time>2021-11-13T08:54:23Z</time>
      </trkpt>
      <trkpt lat="49.42205" lon="1.07808">
        <ele>12.1</ele>
        <time>2021-11-13T08:54:24Z</time>
      </trkpt>
      <trkpt lat="49.42209" lon="1.07807">
        <ele>12</ele>
        <time>2021-11-13T08:54:25Z</time>
      </trkpt>
      <trkpt lat="49.42214" lon="1.07805">
        <ele>11.9</ele>
        <time>2021-11-13T08:54:27Z</time>
      </trkpt>
      <trkpt lat="49.42216" lon="1.07805">
        <ele>11.9</ele>
        <time>2021-11-13T08:54:28Z</time>
      </trkpt>
      <trkpt lat="49.42218" lon="1.07804">
        <ele>11.9</ele>
        <time>2021-11-13T08:54:29Z</time>
      </trkpt>
      <trkpt lat="49.42221" lon="1.07804">
        <ele>11.8</ele>
        <time>2021-11-13T08:54:30Z</time>
      </trkpt>
      <trkpt lat="49.42225" lon="1.07804">
        <ele>11.8</ele>
        <time>2021-11-13T08:54:31Z</time>
      </trkpt>
      <trkpt lat="49.42229" lon="1.07804">
        <ele>11.7</ele>
        <time>2021-11-13T08:54:33Z</time>
      </trkpt>
      <trkpt lat="49.42234" lon="1.07805">
        <ele>11.6</ele>
        <time>2021-11-13T08:54:34Z</time>
      </trkpt>
      <trkpt lat="49.4224" lon="1.07807">
        <ele>11.6</ele>
        <time>2021-11-13T08:54:36Z</time>
      </trkpt>
      <trkpt lat="49.42245" lon="1.07809">
        <ele>11.5</ele>
        <time>2021-11-13T08:54:37Z</time>
      </trkpt>
      <trkpt lat="49.42249" lon="1.07811">
        <ele>11.5</ele>
        <time>2021-11-13T08:54:38Z</time>
      </trkpt>
      <trkpt lat="49.42253" lon="1.07812">
        <ele>11.5</ele>
        <time>2021-11-13T08:54:39Z</time>
      </trkpt>
      <trkpt lat="49.42258" lon="1.07814">
        <ele>11.4</ele>
        <time>2021-11-13T08:54:41Z</time>
      </trkpt>
      <trkpt lat="49.42262" lon="1.07816">
        <ele>11.4</ele>
        <time>2021-11-13T08:54:43Z</time>
      </trkpt>
      <trkpt lat="49.42266" lon="1.07815">
        <ele>11.4</ele>
        <time>2021-11-13T08:54:44Z</time>
      </trkpt>
      <trkpt lat="49.42266" lon="1.07814">
        <ele>11.4</ele>
        <time>2021-11-13T08:54:45Z</time>
      </trkpt>
      <trkpt lat="49.42267" lon="1.07811">
        <ele>11.3</ele>
        <time>2021-11-13T08:54:46Z</time>
      </trkpt>
      <trkpt lat="49.42268" lon="1.07809">
        <ele>11.3</ele>
        <time>2021-11-13T08:54:47Z</time>
      </trkpt>
      <trkpt lat="49.4227" lon="1.07804">
        <ele>11.3</ele>
        <time>2021-11-13T08:54:48Z</time>
      </trkpt>
      <trkpt lat="49.4227" lon="1.07802">
        <ele>11.3</ele>
        <time>2021-11-13T08:54:49Z</time>
      </trkpt>
      <trkpt lat="49.42271" lon="1.07796">
        <ele>11.3</ele>
        <time>2021-11-13T08:54:51Z</time>
      </trkpt>
      <trkpt lat="49.42272" lon="1.07791">
        <ele>11.3</ele>
        <time>2021-11-13T08:54:52Z</time>
      </trkpt>
      <trkpt lat="49.42272" lon="1.07787">
        <ele>11.3</ele>
        <time>2021-11-13T08:54:53Z</time>
      </trkpt>
      <trkpt lat="49.42272" lon="1.07784">
        <ele>11.3</ele>
        <time>2021-11-13T08:54:55Z</time>
      </trkpt>
      <trkpt lat="49.42273" lon="1.07778">
        <ele>11.4</ele>
        <time>2021-11-13T08:54:56Z</time>
      </trkpt>
      <trkpt lat="49.42274" lon="1.07773">
        <ele>11.4</ele>
        <time>2021-11-13T08:54:58Z</time>
      </trkpt>
      <trkpt lat="49.42276" lon="1.07767">
        <ele>11.4</ele>
        <time>2021-11-13T08:54:59Z</time>
      </trkpt>
      <trkpt lat="49.42278" lon="1.07761">
        <ele>11.5</ele>
        <time>2021-11-13T08:55:00Z</time>
      </trkpt>
      <trkpt lat="49.42281" lon="1.07756">
        <ele>11.6</ele>
        <time>2021-11-13T08:55:01Z</time>
      </trkpt>
      <trkpt lat="49.42283" lon="1.0775">
        <ele>11.6</ele>
        <time>2021-11-13T08:55:02Z</time>
      </trkpt>
      <trkpt lat="49.42286" lon="1.07743">
        <ele>11.9</ele>
        <time>2021-11-13T08:55:04Z</time>
      </trkpt>
      <trkpt lat="49.42288" lon="1.07739">
        <ele>12</ele>
        <time>2021-11-13T08:55:05Z</time>
      </trkpt>
      <trkpt lat="49.42289" lon="1.07734">
        <ele>12.1</ele>
        <time>2021-11-13T08:55:06Z</time>
      </trkpt>
      <trkpt lat="49.42289" lon="1.07729">
        <ele>12.3</ele>
        <time>2021-11-13T08:55:07Z</time>
      </trkpt>
      <trkpt lat="49.4229" lon="1.07724">
        <ele>12.4</ele>
        <time>2021-11-13T08:55:08Z</time>
      </trkpt>
      <trkpt lat="49.4229" lon="1.0772">
        <ele>12.6</ele>
        <time>2021-11-13T08:55:09Z</time>
      </trkpt>
      <trkpt lat="49.42289" lon="1.07715">
        <ele>12.8</ele>
        <time>2021-11-13T08:55:11Z</time>
      </trkpt>
      <trkpt lat="49.42288" lon="1.0771">
        <ele>12.9</ele>
        <time>2021-11-13T08:55:13Z</time>
      </trkpt>
      <trkpt lat="49.42287" lon="1.07704">
        <ele>13.1</ele>
        <time>2021-11-13T08:55:14Z</time>
      </trkpt>
      <trkpt lat="49.42285" lon="1.07699">
        <ele>13.3</ele>
        <time>2021-11-13T08:55:16Z</time>
      </trkpt>
      <trkpt lat="49.42284" lon="1.07693">
        <ele>13.4</ele>
        <time>2021-11-13T08:55:17Z</time>
      </trkpt>
      <trkpt lat="49.42284" lon="1.0769">
        <ele>13.5</ele>
        <time>2021-11-13T08:55:18Z</time>
      </trkpt>
      <trkpt lat="49.42283" lon="1.07686">
        <ele>13.6</ele>
        <time>2021-11-13T08:55:19Z</time>
      </trkpt>
      <trkpt lat="49.42282" lon="1.07681">
        <ele>13.6</ele>
        <time>2021-11-13T08:55:20Z</time>
      </trkpt>
      <trkpt lat="49.42281" lon="1.07677">
        <ele>13.6</ele>
        <time>2021-11-13T08:55:21Z</time>
      </trkpt>
      <trkpt lat="49.4228" lon="1.07671">
        <ele>13.6</ele>
        <time>2021-11-13T08:55:23Z</time>
      </trkpt>
      <trkpt lat="49.42279" lon="1.07667">
        <ele>13.6</ele>
        <time>2021-11-13T08:55:24Z</time>
      </trkpt>
      <trkpt lat="49.42277" lon="1.07661">
        <ele>13.5</ele>
        <time>2021-11-13T08:55:26Z</time>
      </trkpt>
      <trkpt lat="49.42275" lon="1.07655">
        <ele>13.4</ele>
        <time>2021-11-13T08:55:27Z</time>
      </trkpt>
      <trkpt lat="49.42274" lon="1.07652">
        <ele>13.3</ele>
        <time>2021-11-13T08:55:28Z</time>
      </trkpt>
      <trkpt lat="49.42271" lon="1.07647">
        <ele>13.1</ele>
        <time>2021-11-13T08:55:30Z</time>
      </trkpt>
      <trkpt lat="49.42269" lon="1.07645">
        <ele>12.9</ele>
        <time>2021-11-13T08:55:31Z</time>
      </trkpt>
      <trkpt lat="49.42265" lon="1.0764">
        <ele>12.6</ele>
        <time>2021-11-13T08:55:33Z</time>
      </trkpt>
      <trkpt lat="49.42264" lon="1.07638">
        <ele>12.5</ele>
        <time>2021-11-13T08:55:34Z</time>
      </trkpt>
      <trkpt lat="49.42263" lon="1.07636">
        <ele>12.4</ele>
        <time>2021-11-13T08:55:35Z</time>
      </trkpt>
      <trkpt lat="49.42262" lon="1.07632">
        <ele>12.2</ele>
        <time>2021-11-13T08:55:36Z</time>
      </trkpt>
      <trkpt lat="49.42262" lon="1.07628">
        <ele>12</ele>
        <time>2021-11-13T08:55:37Z</time>
      </trkpt>
      <trkpt lat="49.42261" lon="1.07623">
        <ele>12</ele>
        <time>2021-11-13T08:55:38Z</time>
      </trkpt>
      <trkpt lat="49.42259" lon="1.0762">
        <ele>12</ele>
        <time>2021-11-13T08:55:39Z</time>
      </trkpt>
      <trkpt lat="49.42256" lon="1.07616">
        <ele>12</ele>
        <time>2021-11-13T08:55:41Z</time>
      </trkpt>
      <trkpt lat="49.42255" lon="1.07611">
        <ele>12</ele>
        <time>2021-11-13T08:55:42Z</time>
      </trkpt>
      <trkpt lat="49.42253" lon="1.07605">
        <ele>12</ele>
        <time>2021-11-13T08:55:44Z</time>
      </trkpt>
      <trkpt lat="49.42252" lon="1.07601">
        <ele>12</ele>
        <time>2021-11-13T08:55:45Z</time>
      </trkpt>
      <trkpt lat="49.42249" lon="1.07596">
        <ele>12</ele>
        <time>2021-11-13T08:55:46Z</time>
      </trkpt>
      <trkpt lat="49.42248" lon="1.07593">
        <ele>12</ele>
        <time>2021-11-13T08:55:47Z</time>
      </trkpt>
      <trkpt lat="49.42246" lon="1.0759">
        <ele>12</ele>
        <time>2021-11-13T08:55:48Z</time>
      </trkpt>
      <trkpt lat="49.42244" lon="1.07585">
        <ele>12.1</ele>
        <time>2021-11-13T08:55:50Z</time>
      </trkpt>
      <trkpt lat="49.42242" lon="1.07581">
        <ele>12.1</ele>
        <time>2021-11-13T08:55:51Z</time>
      </trkpt>
      <trkpt lat="49.4224" lon="1.07577">
        <ele>12.1</ele>
        <time>2021-11-13T08:55:52Z</time>
      </trkpt>
      <trkpt lat="49.42238" lon="1.07573">
        <ele>12.2</ele>
        <time>2021-11-13T08:55:53Z</time>
      </trkpt>
      <trkpt lat="49.42236" lon="1.07569">
        <ele>12.2</ele>
        <time>2021-11-13T08:55:54Z</time>
      </trkpt>
      <trkpt lat="49.42234" lon="1.07565">
        <ele>12.3</ele>
        <time>2021-11-13T08:55:55Z</time>
      </trkpt>
      <trkpt lat="49.42232" lon="1.0756">
        <ele>12.3</ele>
        <time>2021-11-13T08:55:57Z</time>
      </trkpt>
      <trkpt lat="49.4223" lon="1.07557">
        <ele>12.4</ele>
        <time>2021-11-13T08:55:58Z</time>
      </trkpt>
      <trkpt lat="49.42228" lon="1.07553">
        <ele>12.5</ele>
        <time>2021-11-13T08:55:59Z</time>
      </trkpt>
      <trkpt lat="49.42226" lon="1.07549">
        <ele>12.5</ele>
        <time>2021-11-13T08:56:00Z</time>
      </trkpt>
      <trkpt lat="49.42223" lon="1.07545">
        <ele>12.6</ele>
        <time>2021-11-13T08:56:02Z</time>
      </trkpt>
      <trkpt lat="49.42221" lon="1.07542">
        <ele>12.7</ele>
        <time>2021-11-13T08:56:03Z</time>
      </trkpt>
      <trkpt lat="49.42216" lon="1.07537">
        <ele>12.8</ele>
        <time>2021-11-13T08:56:04Z</time>
      </trkpt>
      <trkpt lat="49.42212" lon="1.07534">
        <ele>12.9</ele>
        <time>2021-11-13T08:56:06Z</time>
      </trkpt>
      <trkpt lat="49.42208" lon="1.07531">
        <ele>13</ele>
        <time>2021-11-13T08:56:08Z</time>
      </trkpt>
      <trkpt lat="49.42204" lon="1.07528">
        <ele>13.1</ele>
        <time>2021-11-13T08:56:09Z</time>
      </trkpt>
      <trkpt lat="49.42201" lon="1.07527">
        <ele>13.1</ele>
        <time>2021-11-13T08:56:10Z</time>
      </trkpt>
      <trkpt lat="49.42197" lon="1.07525">
        <ele>13.2</ele>
        <time>2021-11-13T08:56:12Z</time>
      </trkpt>
      <trkpt lat="49.42194" lon="1.07523">
        <ele>13.3</ele>
        <time>2021-11-13T08:56:14Z</time>
      </trkpt>
      <trkpt lat="49.42192" lon="1.07519">
        <ele>13.5</ele>
        <time>2021-11-13T08:56:15Z</time>
      </trkpt>
      <trkpt lat="49.42191" lon="1.07515">
        <ele>13.5</ele>
        <time>2021-11-13T08:56:16Z</time>
      </trkpt>
      <trkpt lat="49.4219" lon="1.07511">
        <ele>13.6</ele>
        <time>2021-11-13T08:56:17Z</time>
      </trkpt>
      <trkpt lat="49.42189" lon="1.07507">
        <ele>13.7</ele>
        <time>2021-11-13T08:56:18Z</time>
      </trkpt>
      <trkpt lat="49.42188" lon="1.07503">
        <ele>13.7</ele>
        <time>2021-11-13T08:56:19Z</time>
      </trkpt>
      <trkpt lat="49.42187" lon="1.07499">
        <ele>13.8</ele>
        <time>2021-11-13T08:56:20Z</time>
      </trkpt>
      <trkpt lat="49.42186" lon="1.07494">
        <ele>13.9</ele>
        <time>2021-11-13T08:56:22Z</time>
      </trkpt>
      <trkpt lat="49.42186" lon="1.0749">
        <ele>14</ele>
        <time>2021-11-13T08:56:23Z</time>
      </trkpt>
      <trkpt lat="49.42185" lon="1.07484">
        <ele>14.1</ele>
        <time>2021-11-13T08:56:25Z</time>
      </trkpt>
      <trkpt lat="49.42183" lon="1.07479">
        <ele>14.2</ele>
        <time>2021-11-13T08:56:26Z</time>
      </trkpt>
      <trkpt lat="49.42182" lon="1.07475">
        <ele>14.3</ele>
        <time>2021-11-13T08:56:27Z</time>
      </trkpt>
      <trkpt lat="49.42181" lon="1.07472">
        <ele>14.5</ele>
        <time>2021-11-13T08:56:29Z</time>
      </trkpt>
      <trkpt lat="49.42179" lon="1.07467">
        <ele>14.7</ele>
        <time>2021-11-13T08:56:30Z</time>
      </trkpt>
      <trkpt lat="49.42176" lon="1.07461">
        <ele>15</ele>
        <time>2021-11-13T08:56:32Z</time>
      </trkpt>
      <trkpt lat="49.42175" lon="1.07459">
        <ele>15.1</ele>
        <time>2021-11-13T08:56:33Z</time>
      </trkpt>
      <trkpt lat="49.42174" lon="1.07457">
        <ele>15.2</ele>
        <time>2021-11-13T08:56:34Z</time>
      </trkpt>
      <trkpt lat="49.42172" lon="1.07453">
        <ele>15.4</ele>
        <time>2021-11-13T08:56:35Z</time>
      </trkpt>
      <trkpt lat="49.42169" lon="1.07448">
        <ele>15.6</ele>
        <time>2021-11-13T08:56:37Z</time>
      </trkpt>
      <trkpt lat="49.42167" lon="1.07445">
        <ele>15.8</ele>
        <time>2021-11-13T08:56:38Z</time>
      </trkpt>
      <trkpt lat="49.42164" lon="1.07442">
        <ele>16</ele>
        <time>2021-11-13T08:56:39Z</time>
      </trkpt>
      <trkpt lat="49.42163" lon="1.07441">
        <ele>16.1</ele>
        <time>2021-11-13T08:56:40Z</time>
      </trkpt>
      <trkpt lat="49.42161" lon="1.07438">
        <ele>16.2</ele>
        <time>2021-11-13T08:56:41Z</time>
      </trkpt>
      <trkpt lat="49.42159" lon="1.07436">
        <ele>16.4</ele>
        <time>2021-11-13T08:56:42Z</time>
      </trkpt>
      <trkpt lat="49.42156" lon="1.07433">
        <ele>16.6</ele>
        <time>2021-11-13T08:56:44Z</time>
      </trkpt>
      <trkpt lat="49.42153" lon="1.07431">
        <ele>16.8</ele>
        <time>2021-11-13T08:56:45Z</time>
      </trkpt>
      <trkpt lat="49.4215" lon="1.07429">
        <ele>17</ele>
        <time>2021-11-13T08:56:47Z</time>
      </trkpt>
      <trkpt lat="49.42146" lon="1.07427">
        <ele>17.2</ele>
        <time>2021-11-13T08:56:48Z</time>
      </trkpt>
      <trkpt lat="49.42144" lon="1.07424">
        <ele>17.4</ele>
        <time>2021-11-13T08:56:49Z</time>
      </trkpt>
      <trkpt lat="49.42141" lon="1.07423">
        <ele>17.6</ele>
        <time>2021-11-13T08:56:51Z</time>
      </trkpt>
      <trkpt lat="49.42138" lon="1.07422">
        <ele>17.7</ele>
        <time>2021-11-13T08:56:52Z</time>
      </trkpt>
      <trkpt lat="49.42135" lon="1.0742">
        <ele>17.9</ele>
        <time>2021-11-13T08:56:53Z</time>
      </trkpt>
      <trkpt lat="49.42132" lon="1.07419">
        <ele>18.1</ele>
        <time>2021-11-13T08:56:54Z</time>
      </trkpt>
      <trkpt lat="49.42129" lon="1.07418">
        <ele>18.2</ele>
        <time>2021-11-13T08:56:55Z</time>
      </trkpt>
      <trkpt lat="49.42125" lon="1.07416">
        <ele>18.4</ele>
        <time>2021-11-13T08:56:57Z</time>
      </trkpt>
      <trkpt lat="49.4212" lon="1.07414">
        <ele>18.7</ele>
        <time>2021-11-13T08:56:59Z</time>
      </trkpt>
      <trkpt lat="49.42118" lon="1.07413">
        <ele>18.8</ele>
        <time>2021-11-13T08:57:00Z</time>
      </trkpt>
      <trkpt lat="49.42116" lon="1.07412">
        <ele>18.9</ele>
        <time>2021-11-13T08:57:01Z</time>
      </trkpt>
      <trkpt lat="49.42113" lon="1.07412">
        <ele>19</ele>
        <time>2021-11-13T08:57:02Z</time>
      </trkpt>
      <trkpt lat="49.4211" lon="1.07409">
        <ele>19.2</ele>
        <time>2021-11-13T08:57:04Z</time>
      </trkpt>
      <trkpt lat="49.42106" lon="1.07407">
        <ele>19.3</ele>
        <time>2021-11-13T08:57:06Z</time>
      </trkpt>
      <trkpt lat="49.42103" lon="1.07404">
        <ele>19.5</ele>
        <time>2021-11-13T08:57:07Z</time>
      </trkpt>
      <trkpt lat="49.42101" lon="1.07401">
        <ele>19.6</ele>
        <time>2021-11-13T08:57:08Z</time>
      </trkpt>
      <trkpt lat="49.42098" lon="1.07397">
        <ele>19.8</ele>
        <time>2021-11-13T08:57:10Z</time>
      </trkpt>
      <trkpt lat="49.42096" lon="1.07394">
        <ele>20.2</ele>
        <time>2021-11-13T08:57:11Z</time>
      </trkpt>
      <trkpt lat="49.42094" lon="1.07391">
        <ele>20.9</ele>
        <time>2021-11-13T08:57:13Z</time>
      </trkpt>
      <trkpt lat="49.42092" lon="1.07386">
        <ele>21.5</ele>
        <time>2021-11-13T08:57:14Z</time>
      </trkpt>
      <trkpt lat="49.42091" lon="1.07384">
        <ele>21.7</ele>
        <time>2021-11-13T08:57:15Z</time>
      </trkpt>
      <trkpt lat="49.4209" lon="1.07378">
        <ele>22.4</ele>
        <time>2021-11-13T08:57:16Z</time>
      </trkpt>
      <trkpt lat="49.42091" lon="1.07377">
        <ele>22.6</ele>
        <time>2021-11-13T08:57:17Z</time>
      </trkpt>
      <trkpt lat="49.42092" lon="1.07375">
        <ele>22.9</ele>
        <time>2021-11-13T08:57:18Z</time>
      </trkpt>
      <trkpt lat="49.42093" lon="1.07372">
        <ele>19.7</ele>
        <time>2021-11-13T08:57:20Z</time>
      </trkpt>
      <trkpt lat="49.42094" lon="1.0737">
        <ele>19.7</ele>
        <time>2021-11-13T08:57:21Z</time>
      </trkpt>
      <trkpt lat="49.42096" lon="1.07368">
        <ele>19.6</ele>
        <time>2021-11-13T08:57:23Z</time>
      </trkpt>
      <trkpt lat="49.421" lon="1.07368">
        <ele>19.4</ele>
        <time>2021-11-13T08:57:24Z</time>
      </trkpt>
      <trkpt lat="49.42102" lon="1.07367">
        <ele>19.4</ele>
        <time>2021-11-13T08:57:25Z</time>
      </trkpt>
      <trkpt lat="49.42106" lon="1.07369">
        <ele>19.2</ele>
        <time>2021-11-13T08:57:27Z</time>
      </trkpt>
      <trkpt lat="49.42109" lon="1.07371">
        <ele>19.1</ele>
        <time>2021-11-13T08:57:28Z</time>
      </trkpt>
      <trkpt lat="49.42112" lon="1.07372">
        <ele>19</ele>
        <time>2021-11-13T08:57:30Z</time>
      </trkpt>
      <trkpt lat="49.42116" lon="1.07373">
        <ele>18.8</ele>
        <time>2021-11-13T08:57:31Z</time>
      </trkpt>
      <trkpt lat="49.42119" lon="1.07374">
        <ele>18.7</ele>
        <time>2021-11-13T08:57:32Z</time>
      </trkpt>
      <trkpt lat="49.4212" lon="1.07375">
        <ele>18.7</ele>
        <time>2021-11-13T08:57:33Z</time>
      </trkpt>
      <trkpt lat="49.42124" lon="1.07377">
        <ele>18.5</ele>
        <time>2021-11-13T08:57:35Z</time>
      </trkpt>
      <trkpt lat="49.42126" lon="1.07378">
        <ele>18.5</ele>
        <time>2021-11-13T08:57:36Z</time>
      </trkpt>
      <trkpt lat="49.42129" lon="1.0738">
        <ele>18.3</ele>
        <time>2021-11-13T08:57:37Z</time>
      </trkpt>
      <trkpt lat="49.4213" lon="1.07381">
        <ele>18.3</ele>
        <time>2021-11-13T08:57:38Z</time>
      </trkpt>
      <trkpt lat="49.42134" lon="1.07384">
        <ele>18.1</ele>
        <time>2021-11-13T08:57:40Z</time>
      </trkpt>
      <trkpt lat="49.42135" lon="1.07385">
        <ele>18.1</ele>
        <time>2021-11-13T08:57:41Z</time>
      </trkpt>
      <trkpt lat="49.42138" lon="1.07387">
        <ele>18</ele>
        <time>2021-11-13T08:57:42Z</time>
      </trkpt>
      <trkpt lat="49.4214" lon="1.0739">
        <ele>17.9</ele>
        <time>2021-11-13T08:57:43Z</time>
      </trkpt>
      <trkpt lat="49.42145" lon="1.07393">
        <ele>17.7</ele>
        <time>2021-11-13T08:57:45Z</time>
      </trkpt>
      <trkpt lat="49.42149" lon="1.07396">
        <ele>17.6</ele>
        <time>2021-11-13T08:57:46Z</time>
      </trkpt>
      <trkpt lat="49.42153" lon="1.07399">
        <ele>17.4</ele>
        <time>2021-11-13T08:57:47Z</time>
      </trkpt>
      <trkpt lat="49.42159" lon="1.07403">
        <ele>17.2</ele>
        <time>2021-11-13T08:57:49Z</time>
      </trkpt>
      <trkpt lat="49.42165" lon="1.07407">
        <ele>17</ele>
        <time>2021-11-13T08:57:50Z</time>
      </trkpt>
      <trkpt lat="49.42169" lon="1.07409">
        <ele>16.8</ele>
        <time>2021-11-13T08:57:51Z</time>
      </trkpt>
      <trkpt lat="49.42173" lon="1.07412">
        <ele>16.7</ele>
        <time>2021-11-13T08:57:53Z</time>
      </trkpt>
      <trkpt lat="49.42177" lon="1.07414">
        <ele>16.6</ele>
        <time>2021-11-13T08:57:54Z</time>
      </trkpt>
      <trkpt lat="49.42182" lon="1.07418">
        <ele>16.4</ele>
        <time>2021-11-13T08:57:55Z</time>
      </trkpt>
      <trkpt lat="49.42186" lon="1.0742">
        <ele>16.3</ele>
        <time>2021-11-13T08:57:56Z</time>
      </trkpt>
      <trkpt lat="49.42189" lon="1.07421">
        <ele>16.2</ele>
        <time>2021-11-13T08:57:57Z</time>
      </trkpt>
      <trkpt lat="49.42192" lon="1.07423">
        <ele>16.1</ele>
        <time>2021-11-13T08:57:59Z</time>
      </trkpt>
      <trkpt lat="49.42197" lon="1.07425">
        <ele>15.9</ele>
        <time>2021-11-13T08:58:00Z</time>
      </trkpt>
      <trkpt lat="49.422" lon="1.07428">
        <ele>15.8</ele>
        <time>2021-11-13T08:58:01Z</time>
      </trkpt>
      <trkpt lat="49.42204" lon="1.07429">
        <ele>15.7</ele>
        <time>2021-11-13T08:58:02Z</time>
      </trkpt>
      <trkpt lat="49.42208" lon="1.07431">
        <ele>15.6</ele>
        <time>2021-11-13T08:58:04Z</time>
      </trkpt>
      <trkpt lat="49.42212" lon="1.07435">
        <ele>15.4</ele>
        <time>2021-11-13T08:58:05Z</time>
      </trkpt>
      <trkpt lat="49.42215" lon="1.07438">
        <ele>15.3</ele>
        <time>2021-11-13T08:58:06Z</time>
      </trkpt>
      <trkpt lat="49.42218" lon="1.0744">
        <ele>15.2</ele>
        <time>2021-11-13T08:58:07Z</time>
      </trkpt>
      <trkpt lat="49.42221" lon="1.07442">
        <ele>15.1</ele>
        <time>2021-11-13T08:58:09Z</time>
      </trkpt>
      <trkpt lat="49.42224" lon="1.07444">
        <ele>15</ele>
        <time>2021-11-13T08:58:10Z</time>
      </trkpt>
      <trkpt lat="49.42228" lon="1.07447">
        <ele>14.8</ele>
        <time>2021-11-13T08:58:11Z</time>
      </trkpt>
      <trkpt lat="49.4223" lon="1.07448">
        <ele>14.7</ele>
        <time>2021-11-13T08:58:12Z</time>
      </trkpt>
      <trkpt lat="49.42234" lon="1.07451">
        <ele>14.5</ele>
        <time>2021-11-13T08:58:14Z</time>
      </trkpt>
      <trkpt lat="49.42238" lon="1.07453">
        <ele>14.4</ele>
        <time>2021-11-13T08:58:15Z</time>
      </trkpt>
      <trkpt lat="49.42241" lon="1.07456">
        <ele>14.2</ele>
        <time>2021-11-13T08:58:17Z</time>
      </trkpt>
      <trkpt lat="49.42244" lon="1.07458">
        <ele>14.1</ele>
        <time>2021-11-13T08:58:18Z</time>
      </trkpt>
      <trkpt lat="49.42246" lon="1.0746">
        <ele>14</ele>
        <time>2021-11-13T08:58:19Z</time>
      </trkpt>
      <trkpt lat="49.42251" lon="1.07463">
        <ele>13.8</ele>
        <time>2021-11-13T08:58:20Z</time>
      </trkpt>
      <trkpt lat="49.42254" lon="1.07466">
        <ele>13.7</ele>
        <time>2021-11-13T08:58:21Z</time>
      </trkpt>
      <trkpt lat="49.42257" lon="1.07469">
        <ele>13.5</ele>
        <time>2021-11-13T08:58:23Z</time>
      </trkpt>
      <trkpt lat="49.4226" lon="1.07471">
        <ele>13.4</ele>
        <time>2021-11-13T08:58:24Z</time>
      </trkpt>
      <trkpt lat="49.42264" lon="1.07474">
        <ele>13.3</ele>
        <time>2021-11-13T08:58:25Z</time>
      </trkpt>
      <trkpt lat="49.42267" lon="1.07477">
        <ele>13.1</ele>
        <time>2021-11-13T08:58:27Z</time>
      </trkpt>
      <trkpt lat="49.42271" lon="1.07479">
        <ele>13</ele>
        <time>2021-11-13T08:58:28Z</time>
      </trkpt>
      <trkpt lat="49.42275" lon="1.0748">
        <ele>12.9</ele>
        <time>2021-11-13T08:58:30Z</time>
      </trkpt>
      <trkpt lat="49.42277" lon="1.07481">
        <ele>12.8</ele>
        <time>2021-11-13T08:58:31Z</time>
      </trkpt>
      <trkpt lat="49.42278" lon="1.07481">
        <ele>12.8</ele>
        <time>2021-11-13T08:58:32Z</time>
      </trkpt>
      <trkpt lat="49.42284" lon="1.07483">
        <ele>12.6</ele>
        <time>2021-11-13T08:58:34Z</time>
      </trkpt>
      <trkpt lat="49.42286" lon="1.07484">
        <ele>12.6</ele>
        <time>2021-11-13T08:58:35Z</time>
      </trkpt>
      <trkpt lat="49.42288" lon="1.07485">
        <ele>12.5</ele>
        <time>2021-11-13T08:58:36Z</time>
      </trkpt>
      <trkpt lat="49.42291" lon="1.07486">
        <ele>12.4</ele>
        <time>2021-11-13T08:58:37Z</time>
      </trkpt>
      <trkpt lat="49.42293" lon="1.07488">
        <ele>12.3</ele>
        <time>2021-11-13T08:58:38Z</time>
      </trkpt>
      <trkpt lat="49.42297" lon="1.07491">
        <ele>12.2</ele>
        <time>2021-11-13T08:58:40Z</time>
      </trkpt>
      <trkpt lat="49.42299" lon="1.07493">
        <ele>12.1</ele>
        <time>2021-11-13T08:58:41Z</time>
      </trkpt>
      <trkpt lat="49.42301" lon="1.07496">
        <ele>12</ele>
        <time>2021-11-13T08:58:42Z</time>
      </trkpt>
      <trkpt lat="49.42304" lon="1.075">
        <ele>11.9</ele>
        <time>2021-11-13T08:58:44Z</time>
      </trkpt>
      <trkpt lat="49.42308" lon="1.07501">
        <ele>11.8</ele>
        <time>2021-11-13T08:58:45Z</time>
      </trkpt>
      <trkpt lat="49.42312" lon="1.07503">
        <ele>11.7</ele>
        <time>2021-11-13T08:58:46Z</time>
      </trkpt>
      <trkpt lat="49.42317" lon="1.07504">
        <ele>11.6</ele>
        <time>2021-11-13T08:58:48Z</time>
      </trkpt>
      <trkpt lat="49.42321" lon="1.07507">
        <ele>11.4</ele>
        <time>2021-11-13T08:58:49Z</time>
      </trkpt>
      <trkpt lat="49.42325" lon="1.0751">
        <ele>11.3</ele>
        <time>2021-11-13T08:58:50Z</time>
      </trkpt>
      <trkpt lat="49.42328" lon="1.07512">
        <ele>11.2</ele>
        <time>2021-11-13T08:58:51Z</time>
      </trkpt>
      <trkpt lat="49.42331" lon="1.07514">
        <ele>11.1</ele>
        <time>2021-11-13T08:58:52Z</time>
      </trkpt>
      <trkpt lat="49.42335" lon="1.07515">
        <ele>11.1</ele>
        <time>2021-11-13T08:58:54Z</time>
      </trkpt>
      <trkpt lat="49.42339" lon="1.07518">
        <ele>11</ele>
        <time>2021-11-13T08:58:55Z</time>
      </trkpt>
      <trkpt lat="49.42347" lon="1.07521">
        <ele>10.8</ele>
        <time>2021-11-13T08:58:56Z</time>
      </trkpt>
      <trkpt lat="49.42352" lon="1.07523">
        <ele>10.7</ele>
        <time>2021-11-13T08:58:57Z</time>
      </trkpt>
      <trkpt lat="49.42356" lon="1.07526">
        <ele>10.6</ele>
        <time>2021-11-13T08:58:59Z</time>
      </trkpt>
      <trkpt lat="49.4236" lon="1.07528">
        <ele>10.5</ele>
        <time>2021-11-13T08:59:00Z</time>
      </trkpt>
      <trkpt lat="49.42364" lon="1.0753">
        <ele>10.4</ele>
        <time>2021-11-13T08:59:01Z</time>
      </trkpt>
      <trkpt lat="49.42369" lon="1.07532">
        <ele>10.3</ele>
        <time>2021-11-13T08:59:02Z</time>
      </trkpt>
      <trkpt lat="49.42373" lon="1.07534">
        <ele>10.2</ele>
        <time>2021-11-13T08:59:03Z</time>
      </trkpt>
      <trkpt lat="49.42376" lon="1.07536">
        <ele>10.1</ele>
        <time>2021-11-13T08:59:04Z</time>
      </trkpt>
      <trkpt lat="49.4238" lon="1.07538">
        <ele>10.1</ele>
        <time>2021-11-13T08:59:05Z</time>
      </trkpt>
      <trkpt lat="49.42383" lon="1.0754">
        <ele>10</ele>
        <time>2021-11-13T08:59:06Z</time>
      </trkpt>
      <trkpt lat="49.42386" lon="1.07542">
        <ele>10</ele>
        <time>2021-11-13T08:59:07Z</time>
      </trkpt>
      <trkpt lat="49.42389" lon="1.07543">
        <ele>9.9</ele>
        <time>2021-11-13T08:59:08Z</time>
      </trkpt>
      <trkpt lat="49.42392" lon="1.07545">
        <ele>9.9</ele>
        <time>2021-11-13T08:59:09Z</time>
      </trkpt>
      <trkpt lat="49.42394" lon="1.07546">
        <ele>9.8</ele>
        <time>2021-11-13T08:59:11Z</time>
      </trkpt>
      <trkpt lat="49.42398" lon="1.07548">
        <ele>9.8</ele>
        <time>2021-11-13T08:59:12Z</time>
      </trkpt>
      <trkpt lat="49.42402" lon="1.0755">
        <ele>9.7</ele>
        <time>2021-11-13T08:59:13Z</time>
      </trkpt>
      <trkpt lat="49.42405" lon="1.07552">
        <ele>9.7</ele>
        <time>2021-11-13T08:59:14Z</time>
      </trkpt>
      <trkpt lat="49.42408" lon="1.07553">
        <ele>9.7</ele>
        <time>2021-11-13T08:59:15Z</time>
      </trkpt>
      <trkpt lat="49.42412" lon="1.07554">
        <ele>9.6</ele>
        <time>2021-11-13T08:59:17Z</time>
      </trkpt>
      <trkpt lat="49.42416" lon="1.07554">
        <ele>9.6</ele>
        <time>2021-11-13T08:59:18Z</time>
      </trkpt>
      <trkpt lat="49.42419" lon="1.07552">
        <ele>9.6</ele>
        <time>2021-11-13T08:59:19Z</time>
      </trkpt>
      <trkpt lat="49.42422" lon="1.07551">
        <ele>9.6</ele>
        <time>2021-11-13T08:59:20Z</time>
      </trkpt>
      <trkpt lat="49.42427" lon="1.07549">
        <ele>9.5</ele>
        <time>2021-11-13T08:59:22Z</time>
      </trkpt>
      <trkpt lat="49.4243" lon="1.07548">
        <ele>9.5</ele>
        <time>2021-11-13T08:59:23Z</time>
      </trkpt>
      <trkpt lat="49.42434" lon="1.07546">
        <ele>9.5</ele>
        <time>2021-11-13T08:59:25Z</time>
      </trkpt>
      <trkpt lat="49.42436" lon="1.07543">
        <ele>9.5</ele>
        <time>2021-11-13T08:59:26Z</time>
      </trkpt>
      <trkpt lat="49.42441" lon="1.0754">
        <ele>9.5</ele>
        <time>2021-11-13T08:59:27Z</time>
      </trkpt>
      <trkpt lat="49.42443" lon="1.0754">
        <ele>9.5</ele>
        <time>2021-11-13T08:59:28Z</time>
      </trkpt>
      <trkpt lat="49.42445" lon="1.07542">
        <ele>9.5</ele>
        <time>2021-11-13T08:59:29Z</time>
      </trkpt>
      <trkpt lat="49.42447" lon="1.07546">
        <ele>9.5</ele>
        <time>2021-11-13T08:59:31Z</time>
      </trkpt>
      <trkpt lat="49.42448" lon="1.07549">
        <ele>9.5</ele>
        <time>2021-11-13T08:59:32Z</time>
      </trkpt>
      <trkpt lat="49.42449" lon="1.0755">
        <ele>9.5</ele>
        <time>2021-11-13T08:59:34Z</time>
      </trkpt>
      <trkpt lat="49.42452" lon="1.07552">
        <ele>9.5</ele>
        <time>2021-11-13T08:59:35Z</time>
      </trkpt>
      <trkpt lat="49.42454" lon="1.07553">
        <ele>9.5</ele>
        <time>2021-11-13T08:59:36Z</time>
      </trkpt>
      <trkpt lat="49.42456" lon="1.07555">
        <ele>9.6</ele>
        <time>2021-11-13T08:59:38Z</time>
      </trkpt>
      <trkpt lat="49.42459" lon="1.07557">
        <ele>9.6</ele>
        <time>2021-11-13T08:59:39Z</time>
      </trkpt>
      <trkpt lat="49.42461" lon="1.0756">
        <ele>9.6</ele>
        <time>2021-11-13T08:59:40Z</time>
      </trkpt>
      <trkpt lat="49.42465" lon="1.07564">
        <ele>9.6</ele>
        <time>2021-11-13T08:59:42Z</time>
      </trkpt>
      <trkpt lat="49.42467" lon="1.07565">
        <ele>9.6</ele>
        <time>2021-11-13T08:59:43Z</time>
      </trkpt>
      <trkpt lat="49.42468" lon="1.07566">
        <ele>9.6</ele>
        <time>2021-11-13T08:59:44Z</time>
      </trkpt>
      <trkpt lat="49.42471" lon="1.0757">
        <ele>9.6</ele>
        <time>2021-11-13T08:59:45Z</time>
      </trkpt>
      <trkpt lat="49.42472" lon="1.07571">
        <ele>9.6</ele>
        <time>2021-11-13T08:59:46Z</time>
      </trkpt>
      <trkpt lat="49.42475" lon="1.07574">
        <ele>9.6</ele>
        <time>2021-11-13T08:59:47Z</time>
      </trkpt>
      <trkpt lat="49.42478" lon="1.07577">
        <ele>9.6</ele>
        <time>2021-11-13T08:59:48Z</time>
      </trkpt>
      <trkpt lat="49.42485" lon="1.07583">
        <ele>9.6</ele>
        <time>2021-11-13T08:59:51Z</time>
      </trkpt>
      <trkpt lat="49.4249" lon="1.07587">
        <ele>9.6</ele>
        <time>2021-11-13T08:59:52Z</time>
      </trkpt>
      <trkpt lat="49.42494" lon="1.07591">
        <ele>9.6</ele>
        <time>2021-11-13T08:59:53Z</time>
      </trkpt>
      <trkpt lat="49.42498" lon="1.07593">
        <ele>9.6</ele>
        <time>2021-11-13T08:59:54Z</time>
      </trkpt>
      <trkpt lat="49.42501" lon="1.07596">
        <ele>9.6</ele>
        <time>2021-11-13T08:59:55Z</time>
      </trkpt>
      <trkpt lat="49.42505" lon="1.07598">
        <ele>9.6</ele>
        <time>2021-11-13T08:59:56Z</time>
      </trkpt>
      <trkpt lat="49.42507" lon="1.076">
        <ele>9.7</ele>
        <time>2021-11-13T08:59:58Z</time>
      </trkpt>
      <trkpt lat="49.42511" lon="1.07602">
        <ele>9.7</ele>
        <time>2021-11-13T08:59:59Z</time>
      </trkpt>
      <trkpt lat="49.42514" lon="1.07604">
        <ele>9.7</ele>
        <time>2021-11-13T09:00:00Z</time>
      </trkpt>
      <trkpt lat="49.42518" lon="1.07606">
        <ele>9.7</ele>
        <time>2021-11-13T09:00:02Z</time>
      </trkpt>
      <trkpt lat="49.42521" lon="1.07607">
        <ele>9.8</ele>
        <time>2021-11-13T09:00:03Z</time>
      </trkpt>
      <trkpt lat="49.42522" lon="1.07608">
        <ele>9.8</ele>
        <time>2021-11-13T09:00:04Z</time>
      </trkpt>
      <trkpt lat="49.42525" lon="1.0761">
        <ele>9.8</ele>
        <time>2021-11-13T09:00:05Z</time>
      </trkpt>
      <trkpt lat="49.42529" lon="1.07612">
        <ele>9.8</ele>
        <time>2021-11-13T09:00:06Z</time>
      </trkpt>
      <trkpt lat="49.42532" lon="1.07613">
        <ele>9.9</ele>
        <time>2021-11-13T09:00:07Z</time>
      </trkpt>
      <trkpt lat="49.42536" lon="1.07615">
        <ele>9.9</ele>
        <time>2021-11-13T09:00:09Z</time>
      </trkpt>
      <trkpt lat="49.4254" lon="1.07617">
        <ele>10</ele>
        <time>2021-11-13T09:00:10Z</time>
      </trkpt>
      <trkpt lat="49.42546" lon="1.0762">
        <ele>10</ele>
        <time>2021-11-13T09:00:12Z</time>
      </trkpt>
      <trkpt lat="49.4255" lon="1.07625">
        <ele>10.1</ele>
        <time>2021-11-13T09:00:13Z</time>
      </trkpt>
      <trkpt lat="49.42553" lon="1.07628">
        <ele>10.1</ele>
        <time>2021-11-13T09:00:14Z</time>
      </trkpt>
      <trkpt lat="49.42556" lon="1.0763">
        <ele>10.1</ele>
        <time>2021-11-13T09:00:15Z</time>
      </trkpt>
      <trkpt lat="49.4256" lon="1.07633">
        <ele>10.2</ele>
        <time>2021-11-13T09:00:17Z</time>
      </trkpt>
      <trkpt lat="49.42562" lon="1.07635">
        <ele>10.2</ele>
        <time>2021-11-13T09:00:18Z</time>
      </trkpt>
      <trkpt lat="49.42566" lon="1.07638">
        <ele>10.3</ele>
        <time>2021-11-13T09:00:20Z</time>
      </trkpt>
      <trkpt lat="49.42571" lon="1.0764">
        <ele>10.4</ele>
        <time>2021-11-13T09:00:21Z</time>
      </trkpt>
      <trkpt lat="49.42574" lon="1.07642">
        <ele>10.5</ele>
        <time>2021-11-13T09:00:23Z</time>
      </trkpt>
      <trkpt lat="49.42576" lon="1.07644">
        <ele>10.5</ele>
        <time>2021-11-13T09:00:24Z</time>
      </trkpt>
      <trkpt lat="49.42579" lon="1.07646">
        <ele>10.6</ele>
        <time>2021-11-13T09:00:25Z</time>
      </trkpt>
      <trkpt lat="49.4258" lon="1.07646">
        <ele>10.6</ele>
        <time>2021-11-13T09:00:26Z</time>
      </trkpt>
      <trkpt lat="49.42582" lon="1.07648">
        <ele>10.6</ele>
        <time>2021-11-13T09:00:27Z</time>
      </trkpt>
      <trkpt lat="49.42584" lon="1.07649">
        <ele>10.7</ele>
        <time>2021-11-13T09:00:29Z</time>
      </trkpt>
      <trkpt lat="49.42585" lon="1.0765">
        <ele>10.7</ele>
        <time>2021-11-13T09:00:30Z</time>
      </trkpt>
      <trkpt lat="49.42587" lon="1.0765">
        <ele>10.7</ele>
        <time>2021-11-13T09:00:31Z</time>
      </trkpt>
      <trkpt lat="49.42591" lon="1.07652">
        <ele>10.8</ele>
        <time>2021-11-13T09:00:33Z</time>
      </trkpt>
      <trkpt lat="49.42594" lon="1.07653">
        <ele>10.9</ele>
        <time>2021-11-13T09:00:34Z</time>
      </trkpt>
      <trkpt lat="49.42597" lon="1.07654">
        <ele>11</ele>
        <time>2021-11-13T09:00:35Z</time>
      </trkpt>
      <trkpt lat="49.42601" lon="1.07657">
        <ele>11</ele>
        <time>2021-11-13T09:00:36Z</time>
      </trkpt>
      <trkpt lat="49.42605" lon="1.07659">
        <ele>11.1</ele>
        <time>2021-11-13T09:00:37Z</time>
      </trkpt>
      <trkpt lat="49.42609" lon="1.07661">
        <ele>11.2</ele>
        <time>2021-11-13T09:00:38Z</time>
      </trkpt>
      <trkpt lat="49.42613" lon="1.07663">
        <ele>11.3</ele>
        <time>2021-11-13T09:00:39Z</time>
      </trkpt>
      <trkpt lat="49.42617" lon="1.07665">
        <ele>11.4</ele>
        <time>2021-11-13T09:00:40Z</time>
      </trkpt>
      <trkpt lat="49.42622" lon="1.07668">
        <ele>11.5</ele>
        <time>2021-11-13T09:00:42Z</time>
      </trkpt>
      <trkpt lat="49.42625" lon="1.0767">
        <ele>11.6</ele>
        <time>2021-11-13T09:00:43Z</time>
      </trkpt>
      <trkpt lat="49.4263" lon="1.07672">
        <ele>11.7</ele>
        <time>2021-11-13T09:00:45Z</time>
      </trkpt>
      <trkpt lat="49.42634" lon="1.07673">
        <ele>11.8</ele>
        <time>2021-11-13T09:00:46Z</time>
      </trkpt>
      <trkpt lat="49.42637" lon="1.07674">
        <ele>11.9</ele>
        <time>2021-11-13T09:00:47Z</time>
      </trkpt>
      <trkpt lat="49.42641" lon="1.07676">
        <ele>12</ele>
        <time>2021-11-13T09:00:49Z</time>
      </trkpt>
      <trkpt lat="49.42644" lon="1.07678">
        <ele>12.1</ele>
        <time>2021-11-13T09:00:50Z</time>
      </trkpt>
      <trkpt lat="49.42648" lon="1.07681">
        <ele>12.2</ele>
        <time>2021-11-13T09:00:52Z</time>
      </trkpt>
      <trkpt lat="49.4265" lon="1.07682">
        <ele>12.2</ele>
        <time>2021-11-13T09:00:53Z</time>
      </trkpt>
      <trkpt lat="49.42654" lon="1.07685">
        <ele>12.3</ele>
        <time>2021-11-13T09:00:54Z</time>
      </trkpt>
      <trkpt lat="49.42658" lon="1.07687">
        <ele>12.4</ele>
        <time>2021-11-13T09:00:56Z</time>
      </trkpt>
      <trkpt lat="49.42661" lon="1.0769">
        <ele>12.5</ele>
        <time>2021-11-13T09:00:57Z</time>
      </trkpt>
      <trkpt lat="49.42665" lon="1.07693">
        <ele>12.6</ele>
        <time>2021-11-13T09:00:59Z</time>
      </trkpt>
      <trkpt lat="49.42668" lon="1.07694">
        <ele>12.7</ele>
        <time>2021-11-13T09:01:00Z</time>
      </trkpt>
      <trkpt lat="49.42672" lon="1.07695">
        <ele>12.8</ele>
        <time>2021-11-13T09:01:01Z</time>
      </trkpt>
      <trkpt lat="49.42674" lon="1.07693">
        <ele>12.8</ele>
        <time>2021-11-13T09:01:02Z</time>
      </trkpt>
      <trkpt lat="49.42677" lon="1.0769">
        <ele>12.9</ele>
        <time>2021-11-13T09:01:04Z</time>
      </trkpt>
      <trkpt lat="49.42679" lon="1.07688">
        <ele>13</ele>
        <time>2021-11-13T09:01:05Z</time>
      </trkpt>
      <trkpt lat="49.42683" lon="1.07686">
        <ele>13</ele>
        <time>2021-11-13T09:01:07Z</time>
      </trkpt>
      <trkpt lat="49.42687" lon="1.07686">
        <ele>13</ele>
        <time>2021-11-13T09:01:08Z</time>
      </trkpt>
      <trkpt lat="49.42689" lon="1.07687">
        <ele>13</ele>
        <time>2021-11-13T09:01:09Z</time>
      </trkpt>
      <trkpt lat="49.42692" lon="1.07688">
        <ele>13</ele>
        <time>2021-11-13T09:01:11Z</time>
      </trkpt>
      <trkpt lat="49.42696" lon="1.07692">
        <ele>13.1</ele>
        <time>2021-11-13T09:01:12Z</time>
      </trkpt>
      <trkpt lat="49.42699" lon="1.07695">
        <ele>13.1</ele>
        <time>2021-11-13T09:01:13Z</time>
      </trkpt>
      <trkpt lat="49.42702" lon="1.07697">
        <ele>13.2</ele>
        <time>2021-11-13T09:01:14Z</time>
      </trkpt>
      <trkpt lat="49.42705" lon="1.07698">
        <ele>13.2</ele>
        <time>2021-11-13T09:01:16Z</time>
      </trkpt>
      <trkpt lat="49.42709" lon="1.07701">
        <ele>13.2</ele>
        <time>2021-11-13T09:01:17Z</time>
      </trkpt>
      <trkpt lat="49.42712" lon="1.07704">
        <ele>13.3</ele>
        <time>2021-11-13T09:01:18Z</time>
      </trkpt>
      <trkpt lat="49.42715" lon="1.07707">
        <ele>13.2</ele>
        <time>2021-11-13T09:01:20Z</time>
      </trkpt>
      <trkpt lat="49.42717" lon="1.0771">
        <ele>13.2</ele>
        <time>2021-11-13T09:01:22Z</time>
      </trkpt>
      <trkpt lat="49.42719" lon="1.07712">
        <ele>13.2</ele>
        <time>2021-11-13T09:01:23Z</time>
      </trkpt>
      <trkpt lat="49.42722" lon="1.07713">
        <ele>13.2</ele>
        <time>2021-11-13T09:01:25Z</time>
      </trkpt>
      <trkpt lat="49.42725" lon="1.07717">
        <ele>13.2</ele>
        <time>2021-11-13T09:01:26Z</time>
      </trkpt>
      <trkpt lat="49.42728" lon="1.07718">
        <ele>13.1</ele>
        <time>2021-11-13T09:01:27Z</time>
      </trkpt>
      <trkpt lat="49.42733" lon="1.07723">
        <ele>13.1</ele>
        <time>2021-11-13T09:01:29Z</time>
      </trkpt>
      <trkpt lat="49.42735" lon="1.07725">
        <ele>13.1</ele>
        <time>2021-11-13T09:01:30Z</time>
      </trkpt>
      <trkpt lat="49.42737" lon="1.07726">
        <ele>13.1</ele>
        <time>2021-11-13T09:01:31Z</time>
      </trkpt>
      <trkpt lat="49.42742" lon="1.07727">
        <ele>13</ele>
        <time>2021-11-13T09:01:32Z</time>
      </trkpt>
      <trkpt lat="49.42746" lon="1.07731">
        <ele>13</ele>
        <time>2021-11-13T09:01:34Z</time>
      </trkpt>
      <trkpt lat="49.42748" lon="1.07734">
        <ele>13</ele>
        <time>2021-11-13T09:01:35Z</time>
      </trkpt>
      <trkpt lat="49.4275" lon="1.07736">
        <ele>13</ele>
        <time>2021-11-13T09:01:37Z</time>
      </trkpt>
      <trkpt lat="49.42753" lon="1.07738">
        <ele>13</ele>
        <time>2021-11-13T09:01:38Z</time>
      </trkpt>
      <trkpt lat="49.42754" lon="1.07738">
        <ele>13</ele>
        <time>2021-11-13T09:01:39Z</time>
      </trkpt>
      <trkpt lat="49.42757" lon="1.0774">
        <ele>13</ele>
        <time>2021-11-13T09:01:40Z</time>
      </trkpt>
      <trkpt lat="49.42761" lon="1.07743">
        <ele>13</ele>
        <time>2021-11-13T09:01:42Z</time>
      </trkpt>
      <trkpt lat="49.42765" lon="1.07747">
        <ele>13</ele>
        <time>2021-11-13T09:01:44Z</time>
      </trkpt>
      <trkpt lat="49.42769" lon="1.07749">
        <ele>13</ele>
        <time>2021-11-13T09:01:45Z</time>
      </trkpt>
      <trkpt lat="49.42776" lon="1.07752">
        <ele>12.9</ele>
        <time>2021-11-13T09:01:46Z</time>
      </trkpt>
      <trkpt lat="49.42779" lon="1.07755">
        <ele>12.9</ele>
        <time>2021-11-13T09:01:47Z</time>
      </trkpt>
      <trkpt lat="49.42782" lon="1.07756">
        <ele>12.9</ele>
        <time>2021-11-13T09:01:49Z</time>
      </trkpt>
      <trkpt lat="49.42785" lon="1.07758">
        <ele>12.9</ele>
        <time>2021-11-13T09:01:50Z</time>
      </trkpt>
      <trkpt lat="49.42791" lon="1.0776">
        <ele>12.9</ele>
        <time>2021-11-13T09:01:51Z</time>
      </trkpt>
      <trkpt lat="49.42795" lon="1.07762">
        <ele>12.9</ele>
        <time>2021-11-13T09:01:52Z</time>
      </trkpt>
      <trkpt lat="49.428" lon="1.07765">
        <ele>12.8</ele>
        <time>2021-11-13T09:01:54Z</time>
      </trkpt>
      <trkpt lat="49.42804" lon="1.07767">
        <ele>12.8</ele>
        <time>2021-11-13T09:01:55Z</time>
      </trkpt>
      <trkpt lat="49.42809" lon="1.07769">
        <ele>12.8</ele>
        <time>2021-11-13T09:01:57Z</time>
      </trkpt>
      <trkpt lat="49.42812" lon="1.07771">
        <ele>12.8</ele>
        <time>2021-11-13T09:01:58Z</time>
      </trkpt>
      <trkpt lat="49.42816" lon="1.07773">
        <ele>12.8</ele>
        <time>2021-11-13T09:01:59Z</time>
      </trkpt>
      <trkpt lat="49.42819" lon="1.07775">
        <ele>12.8</ele>
        <time>2021-11-13T09:02:00Z</time>
      </trkpt>
      <trkpt lat="49.42822" lon="1.07778">
        <ele>12.8</ele>
        <time>2021-11-13T09:02:01Z</time>
      </trkpt>
      <trkpt lat="49.42825" lon="1.0778">
        <ele>12.8</ele>
        <time>2021-11-13T09:02:03Z</time>
      </trkpt>
      <trkpt lat="49.42829" lon="1.07782">
        <ele>12.8</ele>
        <time>2021-11-13T09:02:04Z</time>
      </trkpt>
      <trkpt lat="49.42832" lon="1.07784">
        <ele>12.7</ele>
        <time>2021-11-13T09:02:05Z</time>
      </trkpt>
      <trkpt lat="49.42834" lon="1.07786">
        <ele>12.7</ele>
        <time>2021-11-13T09:02:06Z</time>
      </trkpt>
      <trkpt lat="49.42837" lon="1.07789">
        <ele>12.7</ele>
        <time>2021-11-13T09:02:08Z</time>
      </trkpt>
      <trkpt lat="49.4284" lon="1.07791">
        <ele>12.7</ele>
        <time>2021-11-13T09:02:09Z</time>
      </trkpt>
      <trkpt lat="49.42844" lon="1.07794">
        <ele>12.7</ele>
        <time>2021-11-13T09:02:11Z</time>
      </trkpt>
      <trkpt lat="49.42848" lon="1.07797">
        <ele>12.7</ele>
        <time>2021-11-13T09:02:12Z</time>
      </trkpt>
      <trkpt lat="49.42849" lon="1.07799">
        <ele>12.7</ele>
        <time>2021-11-13T09:02:13Z</time>
      </trkpt>
      <trkpt lat="49.42851" lon="1.07801">
        <ele>12.6</ele>
        <time>2021-11-13T09:02:15Z</time>
      </trkpt>
      <trkpt lat="49.42854" lon="1.07803">
        <ele>12.6</ele>
        <time>2021-11-13T09:02:16Z</time>
      </trkpt>
      <trkpt lat="49.42857" lon="1.07806">
        <ele>12.6</ele>
        <time>2021-11-13T09:02:17Z</time>
      </trkpt>
      <trkpt lat="49.42858" lon="1.07806">
        <ele>12.6</ele>
        <time>2021-11-13T09:02:18Z</time>
      </trkpt>
      <trkpt lat="49.42862" lon="1.07808">
        <ele>12.6</ele>
        <time>2021-11-13T09:02:20Z</time>
      </trkpt>
      <trkpt lat="49.42863" lon="1.07809">
        <ele>12.5</ele>
        <time>2021-11-13T09:02:21Z</time>
      </trkpt>
      <trkpt lat="49.42866" lon="1.0781">
        <ele>12.5</ele>
        <time>2021-11-13T09:02:22Z</time>
      </trkpt>
      <trkpt lat="49.42869" lon="1.07812">
        <ele>12.5</ele>
        <time>2021-11-13T09:02:23Z</time>
      </trkpt>
      <trkpt lat="49.42873" lon="1.07814">
        <ele>12.4</ele>
        <time>2021-11-13T09:02:25Z</time>
      </trkpt>
      <trkpt lat="49.42874" lon="1.07816">
        <ele>12.4</ele>
        <time>2021-11-13T09:02:26Z</time>
      </trkpt>
      <trkpt lat="49.42877" lon="1.07818">
        <ele>12.4</ele>
        <time>2021-11-13T09:02:27Z</time>
      </trkpt>
      <trkpt lat="49.42879" lon="1.0782">
        <ele>12.4</ele>
        <time>2021-11-13T09:02:28Z</time>
      </trkpt>
      <trkpt lat="49.42884" lon="1.07824">
        <ele>12.3</ele>
        <time>2021-11-13T09:02:30Z</time>
      </trkpt>
      <trkpt lat="49.42888" lon="1.07826">
        <ele>12.3</ele>
        <time>2021-11-13T09:02:31Z</time>
      </trkpt>
      <trkpt lat="49.42892" lon="1.07829">
        <ele>12.3</ele>
        <time>2021-11-13T09:02:32Z</time>
      </trkpt>
      <trkpt lat="49.42896" lon="1.07831">
        <ele>12.3</ele>
        <time>2021-11-13T09:02:33Z</time>
      </trkpt>
      <trkpt lat="49.42899" lon="1.07833">
        <ele>12.3</ele>
        <time>2021-11-13T09:02:35Z</time>
      </trkpt>
      <trkpt lat="49.42902" lon="1.07835">
        <ele>12.2</ele>
        <time>2021-11-13T09:02:36Z</time>
      </trkpt>
      <trkpt lat="49.42906" lon="1.07837">
        <ele>12.2</ele>
        <time>2021-11-13T09:02:37Z</time>
      </trkpt>
      <trkpt lat="49.4291" lon="1.07838">
        <ele>12.2</ele>
        <time>2021-11-13T09:02:39Z</time>
      </trkpt>
      <trkpt lat="49.42913" lon="1.07841">
        <ele>12.2</ele>
        <time>2021-11-13T09:02:40Z</time>
      </trkpt>
      <trkpt lat="49.42916" lon="1.07842">
        <ele>12.2</ele>
        <time>2021-11-13T09:02:41Z</time>
      </trkpt>
      <trkpt lat="49.42917" lon="1.07843">
        <ele>12.2</ele>
        <time>2021-11-13T09:02:42Z</time>
      </trkpt>
      <trkpt lat="49.42921" lon="1.07846">
        <ele>12.2</ele>
        <time>2021-11-13T09:02:44Z</time>
      </trkpt>
      <trkpt lat="49.42923" lon="1.07848">
        <ele>12.2</ele>
        <time>2021-11-13T09:02:45Z</time>
      </trkpt>
      <trkpt lat="49.42926" lon="1.07851">
        <ele>12.2</ele>
        <time>2021-11-13T09:02:46Z</time>
      </trkpt>
      <trkpt lat="49.42928" lon="1.07853">
        <ele>12.2</ele>
        <time>2021-11-13T09:02:47Z</time>
      </trkpt>
      <trkpt lat="49.42933" lon="1.07857">
        <ele>12.2</ele>
        <time>2021-11-13T09:02:49Z</time>
      </trkpt>
      <trkpt lat="49.42936" lon="1.07859">
        <ele>12.2</ele>
        <time>2021-11-13T09:02:50Z</time>
      </trkpt>
      <trkpt lat="49.42939" lon="1.07861">
        <ele>12.2</ele>
        <time>2021-11-13T09:02:51Z</time>
      </trkpt>
      <trkpt lat="49.42943" lon="1.07864">
        <ele>12.2</ele>
        <time>2021-11-13T09:02:53Z</time>
      </trkpt>
      <trkpt lat="49.42946" lon="1.07866">
        <ele>12.2</ele>
        <time>2021-11-13T09:02:54Z</time>
      </trkpt>
      <trkpt lat="49.42951" lon="1.07869">
        <ele>12.2</ele>
        <time>2021-11-13T09:02:55Z</time>
      </trkpt>
      <trkpt lat="49.42956" lon="1.07872">
        <ele>12.1</ele>
        <time>2021-11-13T09:02:56Z</time>
      </trkpt>
      <trkpt lat="49.42961" lon="1.07875">
        <ele>12.1</ele>
        <time>2021-11-13T09:02:58Z</time>
      </trkpt>
      <trkpt lat="49.42966" lon="1.07879">
        <ele>12.1</ele>
        <time>2021-11-13T09:02:59Z</time>
      </trkpt>
      <trkpt lat="49.4297" lon="1.07882">
        <ele>12.1</ele>
        <time>2021-11-13T09:03:00Z</time>
      </trkpt>
      <trkpt lat="49.42973" lon="1.07885">
        <ele>12.1</ele>
        <time>2021-11-13T09:03:01Z</time>
      </trkpt>
      <trkpt lat="49.42976" lon="1.07888">
        <ele>12.1</ele>
        <time>2021-11-13T09:03:02Z</time>
      </trkpt>
      <trkpt lat="49.42979" lon="1.07891">
        <ele>12.1</ele>
        <time>2021-11-13T09:03:04Z</time>
      </trkpt>
      <trkpt lat="49.42984" lon="1.07894">
        <ele>12</ele>
        <time>2021-11-13T09:03:05Z</time>
      </trkpt>
      <trkpt lat="49.42987" lon="1.07895">
        <ele>12</ele>
        <time>2021-11-13T09:03:06Z</time>
      </trkpt>
      <trkpt lat="49.42991" lon="1.07896">
        <ele>11.9</ele>
        <time>2021-11-13T09:03:08Z</time>
      </trkpt>
      <trkpt lat="49.42994" lon="1.07896">
        <ele>11.9</ele>
        <time>2021-11-13T09:03:09Z</time>
      </trkpt>
      <trkpt lat="49.42997" lon="1.07896">
        <ele>11.9</ele>
        <time>2021-11-13T09:03:10Z</time>
      </trkpt>
      <trkpt lat="49.43001" lon="1.07895">
        <ele>11.9</ele>
        <time>2021-11-13T09:03:12Z</time>
      </trkpt>
      <trkpt lat="49.43006" lon="1.07892">
        <ele>11.8</ele>
        <time>2021-11-13T09:03:13Z</time>
      </trkpt>
      <trkpt lat="49.43008" lon="1.07891">
        <ele>11.8</ele>
        <time>2021-11-13T09:03:14Z</time>
      </trkpt>
      <trkpt lat="49.43011" lon="1.07889">
        <ele>11.8</ele>
        <time>2021-11-13T09:03:15Z</time>
      </trkpt>
      <trkpt lat="49.43014" lon="1.07888">
        <ele>11.8</ele>
        <time>2021-11-13T09:03:16Z</time>
      </trkpt>
      <trkpt lat="49.43016" lon="1.07886">
        <ele>11.8</ele>
        <time>2021-11-13T09:03:18Z</time>
      </trkpt>
      <trkpt lat="49.4302" lon="1.07883">
        <ele>11.7</ele>
        <time>2021-11-13T09:03:19Z</time>
      </trkpt>
      <trkpt lat="49.43023" lon="1.07881">
        <ele>11.7</ele>
        <time>2021-11-13T09:03:20Z</time>
      </trkpt>
      <trkpt lat="49.43026" lon="1.07878">
        <ele>11.7</ele>
        <time>2021-11-13T09:03:21Z</time>
      </trkpt>
      <trkpt lat="49.43028" lon="1.07873">
        <ele>11.6</ele>
        <time>2021-11-13T09:03:23Z</time>
      </trkpt>
      <trkpt lat="49.43029" lon="1.07868">
        <ele>11.5</ele>
        <time>2021-11-13T09:03:24Z</time>
      </trkpt>
      <trkpt lat="49.43029" lon="1.07863">
        <ele>11.5</ele>
        <time>2021-11-13T09:03:25Z</time>
      </trkpt>
      <trkpt lat="49.43029" lon="1.07859">
        <ele>11.4</ele>
        <time>2021-11-13T09:03:26Z</time>
      </trkpt>
      <trkpt lat="49.43028" lon="1.07854">
        <ele>11.4</ele>
        <time>2021-11-13T09:03:27Z</time>
      </trkpt>
      <trkpt lat="49.43028" lon="1.0785">
        <ele>11.4</ele>
        <time>2021-11-13T09:03:29Z</time>
      </trkpt>
      <trkpt lat="49.43028" lon="1.07843">
        <ele>11.3</ele>
        <time>2021-11-13T09:03:30Z</time>
      </trkpt>
      <trkpt lat="49.43028" lon="1.07839">
        <ele>11.2</ele>
        <time>2021-11-13T09:03:31Z</time>
      </trkpt>
      <trkpt lat="49.43027" lon="1.07835">
        <ele>11.2</ele>
        <time>2021-11-13T09:03:32Z</time>
      </trkpt>
      <trkpt lat="49.43026" lon="1.07827">
        <ele>11.2</ele>
        <time>2021-11-13T09:03:34Z</time>
      </trkpt>
      <trkpt lat="49.43025" lon="1.07823">
        <ele>11.2</ele>
        <time>2021-11-13T09:03:35Z</time>
      </trkpt>
      <trkpt lat="49.43025" lon="1.07819">
        <ele>11.1</ele>
        <time>2021-11-13T09:03:36Z</time>
      </trkpt>
      <trkpt lat="49.43025" lon="1.07814">
        <ele>11.1</ele>
        <time>2021-11-13T09:03:37Z</time>
      </trkpt>
      <trkpt lat="49.43023" lon="1.07806">
        <ele>11.1</ele>
        <time>2021-11-13T09:03:39Z</time>
      </trkpt>
      <trkpt lat="49.43023" lon="1.07803">
        <ele>11.1</ele>
        <time>2021-11-13T09:03:40Z</time>
      </trkpt>
      <trkpt lat="49.43023" lon="1.078">
        <ele>11.1</ele>
        <time>2021-11-13T09:03:41Z</time>
      </trkpt>
      <trkpt lat="49.43022" lon="1.07796">
        <ele>11.1</ele>
        <time>2021-11-13T09:03:42Z</time>
      </trkpt>
      <trkpt lat="49.43021" lon="1.07791">
        <ele>11.1</ele>
        <time>2021-11-13T09:03:43Z</time>
      </trkpt>
      <trkpt lat="49.4302" lon="1.07786">
        <ele>11.1</ele>
        <time>2021-11-13T09:03:44Z</time>
      </trkpt>
      <trkpt lat="49.43018" lon="1.0778">
        <ele>11</ele>
        <time>2021-11-13T09:03:45Z</time>
      </trkpt>
      <trkpt lat="49.43018" lon="1.07776">
        <ele>11</ele>
        <time>2021-11-13T09:03:47Z</time>
      </trkpt>
      <trkpt lat="49.43016" lon="1.0777">
        <ele>11</ele>
        <time>2021-11-13T09:03:48Z</time>
      </trkpt>
      <trkpt lat="49.43015" lon="1.07765">
        <ele>11</ele>
        <time>2021-11-13T09:03:49Z</time>
      </trkpt>
      <trkpt lat="49.43014" lon="1.0776">
        <ele>11</ele>
        <time>2021-11-13T09:03:50Z</time>
      </trkpt>
      <trkpt lat="49.43013" lon="1.07756">
        <ele>11</ele>
        <time>2021-11-13T09:03:51Z</time>
      </trkpt>
      <trkpt lat="49.43011" lon="1.07748">
        <ele>10.9</ele>
        <time>2021-11-13T09:03:53Z</time>
      </trkpt>
      <trkpt lat="49.4301" lon="1.07743">
        <ele>10.9</ele>
        <time>2021-11-13T09:03:54Z</time>
      </trkpt>
      <trkpt lat="49.43009" lon="1.07737">
        <ele>10.9</ele>
        <time>2021-11-13T09:03:55Z</time>
      </trkpt>
      <trkpt lat="49.43008" lon="1.07731">
        <ele>10.9</ele>
        <time>2021-11-13T09:03:57Z</time>
      </trkpt>
      <trkpt lat="49.43007" lon="1.07727">
        <ele>10.9</ele>
        <time>2021-11-13T09:03:58Z</time>
      </trkpt>
      <trkpt lat="49.43006" lon="1.07721">
        <ele>10.8</ele>
        <time>2021-11-13T09:03:59Z</time>
      </trkpt>
      <trkpt lat="49.43004" lon="1.07715">
        <ele>10.8</ele>
        <time>2021-11-13T09:04:01Z</time>
      </trkpt>
      <trkpt lat="49.43003" lon="1.0771">
        <ele>10.8</ele>
        <time>2021-11-13T09:04:02Z</time>
      </trkpt>
      <trkpt lat="49.43002" lon="1.07709">
        <ele>10.8</ele>
        <time>2021-11-13T09:04:03Z</time>
      </trkpt>
      <trkpt lat="49.43001" lon="1.07703">
        <ele>10.8</ele>
        <time>2021-11-13T09:04:04Z</time>
      </trkpt>
      <trkpt lat="49.43001" lon="1.077">
        <ele>10.8</ele>
        <time>2021-11-13T09:04:05Z</time>
      </trkpt>
      <trkpt lat="49.43" lon="1.07697">
        <ele>10.8</ele>
        <time>2021-11-13T09:04:07Z</time>
      </trkpt>
      <trkpt lat="49.42999" lon="1.07695">
        <ele>10.8</ele>
        <time>2021-11-13T09:04:08Z</time>
      </trkpt>
      <trkpt lat="49.42999" lon="1.07692">
        <ele>10.8</ele>
        <time>2021-11-13T09:04:09Z</time>
      </trkpt>
      <trkpt lat="49.42998" lon="1.07688">
        <ele>10.8</ele>
        <time>2021-11-13T09:04:10Z</time>
      </trkpt>
      <trkpt lat="49.42997" lon="1.07685">
        <ele>10.8</ele>
        <time>2021-11-13T09:04:11Z</time>
      </trkpt>
      <trkpt lat="49.42996" lon="1.07682">
        <ele>10.8</ele>
        <time>2021-11-13T09:04:13Z</time>
      </trkpt>
      <trkpt lat="49.42995" lon="1.07677">
        <ele>10.8</ele>
        <time>2021-11-13T09:04:14Z</time>
      </trkpt>
      <trkpt lat="49.42994" lon="1.07672">
        <ele>10.8</ele>
        <time>2021-11-13T09:04:15Z</time>
      </trkpt>
      <trkpt lat="49.42993" lon="1.0767">
        <ele>10.8</ele>
        <time>2021-11-13T09:04:16Z</time>
      </trkpt>
      <trkpt lat="49.42991" lon="1.07664">
        <ele>10.8</ele>
        <time>2021-11-13T09:04:18Z</time>
      </trkpt>
      <trkpt lat="49.42991" lon="1.07661">
        <ele>10.9</ele>
        <time>2021-11-13T09:04:19Z</time>
      </trkpt>
      <trkpt lat="49.42989" lon="1.07656">
        <ele>10.9</ele>
        <time>2021-11-13T09:04:20Z</time>
      </trkpt>
      <trkpt lat="49.42988" lon="1.07652">
        <ele>10.9</ele>
        <time>2021-11-13T09:04:21Z</time>
      </trkpt>
      <trkpt lat="49.42986" lon="1.07647">
        <ele>10.9</ele>
        <time>2021-11-13T09:04:23Z</time>
      </trkpt>
      <trkpt lat="49.42984" lon="1.07639">
        <ele>10.9</ele>
        <time>2021-11-13T09:04:24Z</time>
      </trkpt>
      <trkpt lat="49.42982" lon="1.07633">
        <ele>10.9</ele>
        <time>2021-11-13T09:04:25Z</time>
      </trkpt>
      <trkpt lat="49.4298" lon="1.07628">
        <ele>10.9</ele>
        <time>2021-11-13T09:04:26Z</time>
      </trkpt>
      <trkpt lat="49.42978" lon="1.07622">
        <ele>10.9</ele>
        <time>2021-11-13T09:04:28Z</time>
      </trkpt>
      <trkpt lat="49.42977" lon="1.07615">
        <ele>11</ele>
        <time>2021-11-13T09:04:29Z</time>
      </trkpt>
      <trkpt lat="49.42973" lon="1.0761">
        <ele>10.9</ele>
        <time>2021-11-13T09:04:31Z</time>
      </trkpt>
      <trkpt lat="49.4297" lon="1.07607">
        <ele>10.9</ele>
        <time>2021-11-13T09:04:32Z</time>
      </trkpt>
      <trkpt lat="49.42967" lon="1.07603">
        <ele>10.3</ele>
        <time>2021-11-13T09:04:33Z</time>
      </trkpt>
      <trkpt lat="49.42965" lon="1.07599">
        <ele>10.7</ele>
        <time>2021-11-13T09:04:34Z</time>
      </trkpt>
      <trkpt lat="49.42964" lon="1.07599">
        <ele>10.7</ele>
        <time>2021-11-13T09:04:35Z</time>
      </trkpt>
      <trkpt lat="49.42961" lon="1.07599">
        <ele>10.7</ele>
        <time>2021-11-13T09:04:37Z</time>
      </trkpt>
      <trkpt lat="49.4296" lon="1.07599">
        <ele>10.7</ele>
        <time>2021-11-13T09:04:38Z</time>
      </trkpt>
      <trkpt lat="49.42958" lon="1.07602">
        <ele>10.7</ele>
        <time>2021-11-13T09:04:39Z</time>
      </trkpt>
      <trkpt lat="49.42957" lon="1.07606">
        <ele>10.7</ele>
        <time>2021-11-13T09:04:41Z</time>
      </trkpt>
      <trkpt lat="49.42955" lon="1.07612">
        <ele>10.7</ele>
        <time>2021-11-13T09:04:42Z</time>
      </trkpt>
      <trkpt lat="49.42954" lon="1.07614">
        <ele>10.7</ele>
        <time>2021-11-13T09:04:43Z</time>
      </trkpt>
      <trkpt lat="49.42953" lon="1.07618">
        <ele>10.7</ele>
        <time>2021-11-13T09:04:44Z</time>
      </trkpt>
      <trkpt lat="49.42952" lon="1.0762">
        <ele>10.7</ele>
        <time>2021-11-13T09:04:45Z</time>
      </trkpt>
      <trkpt lat="49.4295" lon="1.07625">
        <ele>10.7</ele>
        <time>2021-11-13T09:04:46Z</time>
      </trkpt>
      <trkpt lat="49.42949" lon="1.07626">
        <ele>10.7</ele>
        <time>2021-11-13T09:04:47Z</time>
      </trkpt>
      <trkpt lat="49.42947" lon="1.07631">
        <ele>10.8</ele>
        <time>2021-11-13T09:04:49Z</time>
      </trkpt>
      <trkpt lat="49.42946" lon="1.07633">
        <ele>10.8</ele>
        <time>2021-11-13T09:04:50Z</time>
      </trkpt>
      <trkpt lat="49.42945" lon="1.07636">
        <ele>10.8</ele>
        <time>2021-11-13T09:04:51Z</time>
      </trkpt>
      <trkpt lat="49.42941" lon="1.07641">
        <ele>10.8</ele>
        <time>2021-11-13T09:04:53Z</time>
      </trkpt>
      <trkpt lat="49.42938" lon="1.07647">
        <ele>10.8</ele>
        <time>2021-11-13T09:04:54Z</time>
      </trkpt>
      <trkpt lat="49.42936" lon="1.07651">
        <ele>10.8</ele>
        <time>2021-11-13T09:04:55Z</time>
      </trkpt>
      <trkpt lat="49.42934" lon="1.07655">
        <ele>10.9</ele>
        <time>2021-11-13T09:04:56Z</time>
      </trkpt>
      <trkpt lat="49.42931" lon="1.07659">
        <ele>10.9</ele>
        <time>2021-11-13T09:04:58Z</time>
      </trkpt>
      <trkpt lat="49.42929" lon="1.07662">
        <ele>10.9</ele>
        <time>2021-11-13T09:04:59Z</time>
      </trkpt>
      <trkpt lat="49.42926" lon="1.07669">
        <ele>10.9</ele>
        <time>2021-11-13T09:05:00Z</time>
      </trkpt>
      <trkpt lat="49.42924" lon="1.07673">
        <ele>10.9</ele>
        <time>2021-11-13T09:05:01Z</time>
      </trkpt>
      <trkpt lat="49.42923" lon="1.07678">
        <ele>10.9</ele>
        <time>2021-11-13T09:05:02Z</time>
      </trkpt>
      <trkpt lat="49.42921" lon="1.07682">
        <ele>10.9</ele>
        <time>2021-11-13T09:05:04Z</time>
      </trkpt>
      <trkpt lat="49.42919" lon="1.07687">
        <ele>10.9</ele>
        <time>2021-11-13T09:05:05Z</time>
      </trkpt>
      <trkpt lat="49.42916" lon="1.07693">
        <ele>10.9</ele>
        <time>2021-11-13T09:05:06Z</time>
      </trkpt>
      <trkpt lat="49.42914" lon="1.07697">
        <ele>10.9</ele>
        <time>2021-11-13T09:05:07Z</time>
      </trkpt>
      <trkpt lat="49.42912" lon="1.077">
        <ele>10.9</ele>
        <time>2021-11-13T09:05:09Z</time>
      </trkpt>
      <trkpt lat="49.4291" lon="1.07704">
        <ele>10.9</ele>
        <time>2021-11-13T09:05:10Z</time>
      </trkpt>
      <trkpt lat="49.42907" lon="1.0771">
        <ele>11</ele>
        <time>2021-11-13T09:05:11Z</time>
      </trkpt>
      <trkpt lat="49.42905" lon="1.07714">
        <ele>11</ele>
        <time>2021-11-13T09:05:12Z</time>
      </trkpt>
      <trkpt lat="49.42903" lon="1.07718">
        <ele>11</ele>
        <time>2021-11-13T09:05:13Z</time>
      </trkpt>
      <trkpt lat="49.42901" lon="1.07722">
        <ele>11</ele>
        <time>2021-11-13T09:05:15Z</time>
      </trkpt>
      <trkpt lat="49.42899" lon="1.07727">
        <ele>11</ele>
        <time>2021-11-13T09:05:16Z</time>
      </trkpt>
      <trkpt lat="49.42896" lon="1.07732">
        <ele>11.1</ele>
        <time>2021-11-13T09:05:18Z</time>
      </trkpt>
      <trkpt lat="49.42893" lon="1.07738">
        <ele>11.1</ele>
        <time>2021-11-13T09:05:19Z</time>
      </trkpt>
      <trkpt lat="49.42893" lon="1.07743">
        <ele>11.2</ele>
        <time>2021-11-13T09:05:20Z</time>
      </trkpt>
      <trkpt lat="49.42892" lon="1.07749">
        <ele>11.2</ele>
        <time>2021-11-13T09:05:22Z</time>
      </trkpt>
      <trkpt lat="49.42892" lon="1.0775">
        <ele>11.2</ele>
        <time>2021-11-13T09:05:23Z</time>
      </trkpt>
      <trkpt lat="49.4289" lon="1.07757">
        <ele>11.3</ele>
        <time>2021-11-13T09:05:24Z</time>
      </trkpt>
      <trkpt lat="49.42889" lon="1.0776">
        <ele>11.3</ele>
        <time>2021-11-13T09:05:25Z</time>
      </trkpt>
      <trkpt lat="49.42888" lon="1.07763">
        <ele>11.4</ele>
        <time>2021-11-13T09:05:26Z</time>
      </trkpt>
      <trkpt lat="49.42887" lon="1.07766">
        <ele>11.4</ele>
        <time>2021-11-13T09:05:28Z</time>
      </trkpt>
      <trkpt lat="49.42886" lon="1.07771">
        <ele>11.4</ele>
        <time>2021-11-13T09:05:29Z</time>
      </trkpt>
      <trkpt lat="49.42884" lon="1.07775">
        <ele>11.5</ele>
        <time>2021-11-13T09:05:30Z</time>
      </trkpt>
      <trkpt lat="49.42883" lon="1.07781">
        <ele>11.5</ele>
        <time>2021-11-13T09:05:32Z</time>
      </trkpt>
      <trkpt lat="49.42882" lon="1.07783">
        <ele>11.5</ele>
        <time>2021-11-13T09:05:33Z</time>
      </trkpt>
      <trkpt lat="49.42882" lon="1.07785">
        <ele>11.6</ele>
        <time>2021-11-13T09:05:34Z</time>
      </trkpt>
      <trkpt lat="49.42883" lon="1.07788">
        <ele>11.6</ele>
        <time>2021-11-13T09:05:36Z</time>
      </trkpt>
      <trkpt lat="49.42884" lon="1.0779">
        <ele>11.6</ele>
        <time>2021-11-13T09:05:37Z</time>
      </trkpt>
      <trkpt lat="49.42885" lon="1.07797">
        <ele>11.6</ele>
        <time>2021-11-13T09:05:38Z</time>
      </trkpt>
      <trkpt lat="49.42886" lon="1.078">
        <ele>11.8</ele>
        <time>2021-11-13T09:05:39Z</time>
      </trkpt>
      <trkpt lat="49.42887" lon="1.07805">
        <ele>12.3</ele>
        <time>2021-11-13T09:05:41Z</time>
      </trkpt>
      <trkpt lat="49.42889" lon="1.07809">
        <ele>12.3</ele>
        <time>2021-11-13T09:05:42Z</time>
      </trkpt>
      <trkpt lat="49.42892" lon="1.07816">
        <ele>12.3</ele>
        <time>2021-11-13T09:05:44Z</time>
      </trkpt>
      <trkpt lat="49.42895" lon="1.07824">
        <ele>12.3</ele>
        <time>2021-11-13T09:05:46Z</time>
      </trkpt>
      <trkpt lat="49.42897" lon="1.07828">
        <ele>12.3</ele>
        <time>2021-11-13T09:05:47Z</time>
      </trkpt>
      <trkpt lat="49.429" lon="1.07831">
        <ele>12.2</ele>
        <time>2021-11-13T09:05:48Z</time>
      </trkpt>
      <trkpt lat="49.42903" lon="1.07834">
        <ele>12.2</ele>
        <time>2021-11-13T09:05:49Z</time>
      </trkpt>
      <trkpt lat="49.42905" lon="1.07836">
        <ele>12.2</ele>
        <time>2021-11-13T09:05:50Z</time>
      </trkpt>
      <trkpt lat="49.42908" lon="1.07838">
        <ele>12.2</ele>
        <time>2021-11-13T09:05:51Z</time>
      </trkpt>
      <trkpt lat="49.4291" lon="1.0784">
        <ele>12.2</ele>
        <time>2021-11-13T09:05:52Z</time>
      </trkpt>
      <trkpt lat="49.42913" lon="1.07841">
        <ele>12.2</ele>
        <time>2021-11-13T09:05:54Z</time>
      </trkpt>
      <trkpt lat="49.42917" lon="1.07844">
        <ele>12.2</ele>
        <time>2021-11-13T09:05:55Z</time>
      </trkpt>
      <trkpt lat="49.42921" lon="1.07846">
        <ele>12.2</ele>
        <time>2021-11-13T09:05:56Z</time>
      </trkpt>
      <trkpt lat="49.42924" lon="1.07848">
        <ele>12.2</ele>
        <time>2021-11-13T09:05:58Z</time>
      </trkpt>
      <trkpt lat="49.42928" lon="1.07851">
        <ele>12.2</ele>
        <time>2021-11-13T09:05:59Z</time>
      </trkpt>
      <trkpt lat="49.42931" lon="1.07853">
        <ele>12.2</ele>
        <time>2021-11-13T09:06:00Z</time>
      </trkpt>
      <trkpt lat="49.42934" lon="1.07857">
        <ele>12.2</ele>
        <time>2021-11-13T09:06:02Z</time>
      </trkpt>
      <trkpt lat="49.42937" lon="1.07859">
        <ele>12.2</ele>
        <time>2021-11-13T09:06:03Z</time>
      </trkpt>
      <trkpt lat="49.42941" lon="1.07861">
        <ele>12.2</ele>
        <time>2021-11-13T09:06:04Z</time>
      </trkpt>
      <trkpt lat="49.42946" lon="1.07865">
        <ele>12.2</ele>
        <time>2021-11-13T09:06:05Z</time>
      </trkpt>
      <trkpt lat="49.42949" lon="1.07869">
        <ele>12.2</ele>
        <time>2021-11-13T09:06:06Z</time>
      </trkpt>
      <trkpt lat="49.42952" lon="1.07871">
        <ele>12.2</ele>
        <time>2021-11-13T09:06:08Z</time>
      </trkpt>
      <trkpt lat="49.42956" lon="1.07876">
        <ele>12.1</ele>
        <time>2021-11-13T09:06:09Z</time>
      </trkpt>
      <trkpt lat="49.42959" lon="1.07879">
        <ele>12.1</ele>
        <time>2021-11-13T09:06:10Z</time>
      </trkpt>
      <trkpt lat="49.42961" lon="1.07882">
        <ele>12.1</ele>
        <time>2021-11-13T09:06:11Z</time>
      </trkpt>
      <trkpt lat="49.42963" lon="1.07884">
        <ele>12.1</ele>
        <time>2021-11-13T09:06:13Z</time>
      </trkpt>
      <trkpt lat="49.42966" lon="1.07887">
        <ele>12.1</ele>
        <time>2021-11-13T09:06:14Z</time>
      </trkpt>
      <trkpt lat="49.4297" lon="1.07891">
        <ele>12.1</ele>
        <time>2021-11-13T09:06:16Z</time>
      </trkpt>
      <trkpt lat="49.42973" lon="1.07892">
        <ele>12.1</ele>
        <time>2021-11-13T09:06:17Z</time>
      </trkpt>
      <trkpt lat="49.42976" lon="1.07892">
        <ele>12.1</ele>
        <time>2021-11-13T09:06:18Z</time>
      </trkpt>
      <trkpt lat="49.4298" lon="1.07891">
        <ele>12.1</ele>
        <time>2021-11-13T09:06:19Z</time>
      </trkpt>
      <trkpt lat="49.42981" lon="1.0789">
        <ele>12.1</ele>
        <time>2021-11-13T09:06:20Z</time>
      </trkpt>
      <trkpt lat="49.42984" lon="1.07888">
        <ele>12</ele>
        <time>2021-11-13T09:06:21Z</time>
      </trkpt>
      <trkpt lat="49.42987" lon="1.07887">
        <ele>12</ele>
        <time>2021-11-13T09:06:22Z</time>
      </trkpt>
      <trkpt lat="49.4299" lon="1.07885">
        <ele>12</ele>
        <time>2021-11-13T09:06:24Z</time>
      </trkpt>
      <trkpt lat="49.42993" lon="1.07883">
        <ele>12</ele>
        <time>2021-11-13T09:06:25Z</time>
      </trkpt>
      <trkpt lat="49.42996" lon="1.07882">
        <ele>11.9</ele>
        <time>2021-11-13T09:06:26Z</time>
      </trkpt>
      <trkpt lat="49.42999" lon="1.0788">
        <ele>11.9</ele>
        <time>2021-11-13T09:06:27Z</time>
      </trkpt>
      <trkpt lat="49.43001" lon="1.07878">
        <ele>11.8</ele>
        <time>2021-11-13T09:06:28Z</time>
      </trkpt>
      <trkpt lat="49.43004" lon="1.07877">
        <ele>11.8</ele>
        <time>2021-11-13T09:06:29Z</time>
      </trkpt>
      <trkpt lat="49.43007" lon="1.07875">
        <ele>11.8</ele>
        <time>2021-11-13T09:06:30Z</time>
      </trkpt>
      <trkpt lat="49.43011" lon="1.07874">
        <ele>11.8</ele>
        <time>2021-11-13T09:06:31Z</time>
      </trkpt>
      <trkpt lat="49.43014" lon="1.07872">
        <ele>11.8</ele>
        <time>2021-11-13T09:06:32Z</time>
      </trkpt>
      <trkpt lat="49.43016" lon="1.07869">
        <ele>11.7</ele>
        <time>2021-11-13T09:06:33Z</time>
      </trkpt>
      <trkpt lat="49.43018" lon="1.07865">
        <ele>11.7</ele>
        <time>2021-11-13T09:06:34Z</time>
      </trkpt>
      <trkpt lat="49.43019" lon="1.0786">
        <ele>11.5</ele>
        <time>2021-11-13T09:06:36Z</time>
      </trkpt>
      <trkpt lat="49.4302" lon="1.07855">
        <ele>11.4</ele>
        <time>2021-11-13T09:06:37Z</time>
      </trkpt>
      <trkpt lat="49.43019" lon="1.0785">
        <ele>11.4</ele>
        <time>2021-11-13T09:06:38Z</time>
      </trkpt>
      <trkpt lat="49.43019" lon="1.07845">
        <ele>11.2</ele>
        <time>2021-11-13T09:06:40Z</time>
      </trkpt>
      <trkpt lat="49.43018" lon="1.07841">
        <ele>11.2</ele>
        <time>2021-11-13T09:06:41Z</time>
      </trkpt>
      <trkpt lat="49.43019" lon="1.07837">
        <ele>11.2</ele>
        <time>2021-11-13T09:06:42Z</time>
      </trkpt>
      <trkpt lat="49.43022" lon="1.07832">
        <ele>11.2</ele>
        <time>2021-11-13T09:06:44Z</time>
      </trkpt>
      <trkpt lat="49.43023" lon="1.0783">
        <ele>11.2</ele>
        <time>2021-11-13T09:06:45Z</time>
      </trkpt>
      <trkpt lat="49.43024" lon="1.07828">
        <ele>11.2</ele>
        <time>2021-11-13T09:06:46Z</time>
      </trkpt>
      <trkpt lat="49.43024" lon="1.07823">
        <ele>11.2</ele>
        <time>2021-11-13T09:06:47Z</time>
      </trkpt>
      <trkpt lat="49.43022" lon="1.07818">
        <ele>11.1</ele>
        <time>2021-11-13T09:06:49Z</time>
      </trkpt>
      <trkpt lat="49.43022" lon="1.07816">
        <ele>11.1</ele>
        <time>2021-11-13T09:06:50Z</time>
      </trkpt>
      <trkpt lat="49.43021" lon="1.07811">
        <ele>11.1</ele>
        <time>2021-11-13T09:06:51Z</time>
      </trkpt>
      <trkpt lat="49.43021" lon="1.07809">
        <ele>11.1</ele>
        <time>2021-11-13T09:06:52Z</time>
      </trkpt>
      <trkpt lat="49.4302" lon="1.07806">
        <ele>11.1</ele>
        <time>2021-11-13T09:06:53Z</time>
      </trkpt>
      <trkpt lat="49.43019" lon="1.07804">
        <ele>11.1</ele>
        <time>2021-11-13T09:06:55Z</time>
      </trkpt>
      <trkpt lat="49.43019" lon="1.07801">
        <ele>11.1</ele>
        <time>2021-11-13T09:06:56Z</time>
      </trkpt>
      <trkpt lat="49.43019" lon="1.07796">
        <ele>11.1</ele>
        <time>2021-11-13T09:06:58Z</time>
      </trkpt>
      <trkpt lat="49.43018" lon="1.07788">
        <ele>11.1</ele>
        <time>2021-11-13T09:06:59Z</time>
      </trkpt>
      <trkpt lat="49.43017" lon="1.07785">
        <ele>11.1</ele>
        <time>2021-11-13T09:07:00Z</time>
      </trkpt>
      <trkpt lat="49.43016" lon="1.07781">
        <ele>11</ele>
        <time>2021-11-13T09:07:01Z</time>
      </trkpt>
      <trkpt lat="49.43015" lon="1.07776">
        <ele>11</ele>
        <time>2021-11-13T09:07:02Z</time>
      </trkpt>
      <trkpt lat="49.43014" lon="1.07771">
        <ele>11</ele>
        <time>2021-11-13T09:07:04Z</time>
      </trkpt>
      <trkpt lat="49.43012" lon="1.07763">
        <ele>11</ele>
        <time>2021-11-13T09:07:06Z</time>
      </trkpt>
      <trkpt lat="49.43012" lon="1.07758">
        <ele>11</ele>
        <time>2021-11-13T09:07:07Z</time>
      </trkpt>
      <trkpt lat="49.4301" lon="1.0775">
        <ele>10.9</ele>
        <time>2021-11-13T09:07:08Z</time>
      </trkpt>
      <trkpt lat="49.43008" lon="1.07744">
        <ele>10.9</ele>
        <time>2021-11-13T09:07:09Z</time>
      </trkpt>
      <trkpt lat="49.43007" lon="1.07739">
        <ele>10.9</ele>
        <time>2021-11-13T09:07:10Z</time>
      </trkpt>
      <trkpt lat="49.43006" lon="1.07734">
        <ele>10.9</ele>
        <time>2021-11-13T09:07:11Z</time>
      </trkpt>
      <trkpt lat="49.43006" lon="1.07729">
        <ele>10.9</ele>
        <time>2021-11-13T09:07:13Z</time>
      </trkpt>
      <trkpt lat="49.43004" lon="1.07723">
        <ele>10.8</ele>
        <time>2021-11-13T09:07:14Z</time>
      </trkpt>
      <trkpt lat="49.43002" lon="1.07718">
        <ele>10.8</ele>
        <time>2021-11-13T09:07:16Z</time>
      </trkpt>
      <trkpt lat="49.43001" lon="1.07713">
        <ele>10.8</ele>
        <time>2021-11-13T09:07:17Z</time>
      </trkpt>
      <trkpt lat="49.43" lon="1.07708">
        <ele>10.8</ele>
        <time>2021-11-13T09:07:19Z</time>
      </trkpt>
      <trkpt lat="49.42998" lon="1.07702">
        <ele>10.8</ele>
        <time>2021-11-13T09:07:20Z</time>
      </trkpt>
      <trkpt lat="49.42997" lon="1.07698">
        <ele>10.8</ele>
        <time>2021-11-13T09:07:21Z</time>
      </trkpt>
      <trkpt lat="49.42995" lon="1.07694">
        <ele>10.8</ele>
        <time>2021-11-13T09:07:22Z</time>
      </trkpt>
      <trkpt lat="49.42994" lon="1.0769">
        <ele>10.8</ele>
        <time>2021-11-13T09:07:23Z</time>
      </trkpt>
      <trkpt lat="49.42993" lon="1.07686">
        <ele>10.8</ele>
        <time>2021-11-13T09:07:25Z</time>
      </trkpt>
      <trkpt lat="49.42992" lon="1.07681">
        <ele>10.8</ele>
        <time>2021-11-13T09:07:26Z</time>
      </trkpt>
      <trkpt lat="49.4299" lon="1.07675">
        <ele>10.8</ele>
        <time>2021-11-13T09:07:27Z</time>
      </trkpt>
      <trkpt lat="49.42989" lon="1.0767">
        <ele>10.8</ele>
        <time>2021-11-13T09:07:28Z</time>
      </trkpt>
      <trkpt lat="49.42987" lon="1.07666">
        <ele>10.8</ele>
        <time>2021-11-13T09:07:30Z</time>
      </trkpt>
      <trkpt lat="49.42987" lon="1.07662">
        <ele>10.9</ele>
        <time>2021-11-13T09:07:31Z</time>
      </trkpt>
      <trkpt lat="49.42985" lon="1.07654">
        <ele>10.9</ele>
        <time>2021-11-13T09:07:32Z</time>
      </trkpt>
      <trkpt lat="49.42984" lon="1.07649">
        <ele>10.9</ele>
        <time>2021-11-13T09:07:33Z</time>
      </trkpt>
      <trkpt lat="49.42982" lon="1.07645">
        <ele>10.9</ele>
        <time>2021-11-13T09:07:34Z</time>
      </trkpt>
      <trkpt lat="49.4298" lon="1.0764">
        <ele>10.9</ele>
        <time>2021-11-13T09:07:36Z</time>
      </trkpt>
      <trkpt lat="49.42977" lon="1.07634">
        <ele>10.9</ele>
        <time>2021-11-13T09:07:37Z</time>
      </trkpt>
      <trkpt lat="49.42975" lon="1.0763">
        <ele>10.9</ele>
        <time>2021-11-13T09:07:38Z</time>
      </trkpt>
      <trkpt lat="49.42973" lon="1.07625">
        <ele>10.9</ele>
        <time>2021-11-13T09:07:39Z</time>
      </trkpt>
      <trkpt lat="49.42971" lon="1.07621">
        <ele>10.9</ele>
        <time>2021-11-13T09:07:41Z</time>
      </trkpt>
      <trkpt lat="49.42968" lon="1.07616">
        <ele>10.9</ele>
        <time>2021-11-13T09:07:42Z</time>
      </trkpt>
      <trkpt lat="49.42967" lon="1.07612">
        <ele>10.8</ele>
        <time>2021-11-13T09:07:43Z</time>
      </trkpt>
      <trkpt lat="49.42965" lon="1.07608">
        <ele>10.8</ele>
        <time>2021-11-13T09:07:44Z</time>
      </trkpt>
      <trkpt lat="49.42964" lon="1.07607">
        <ele>10.8</ele>
        <time>2021-11-13T09:07:45Z</time>
      </trkpt>
      <trkpt lat="49.42961" lon="1.07608">
        <ele>10.7</ele>
        <time>2021-11-13T09:07:47Z</time>
      </trkpt>
      <trkpt lat="49.4296" lon="1.07608">
        <ele>10.7</ele>
        <time>2021-11-13T09:07:48Z</time>
      </trkpt>
      <trkpt lat="49.42958" lon="1.0761">
        <ele>10.7</ele>
        <time>2021-11-13T09:07:49Z</time>
      </trkpt>
      <trkpt lat="49.42957" lon="1.07611">
        <ele>10.7</ele>
        <time>2021-11-13T09:07:50Z</time>
      </trkpt>
      <trkpt lat="49.42954" lon="1.07613">
        <ele>10.7</ele>
        <time>2021-11-13T09:07:52Z</time>
      </trkpt>
      <trkpt lat="49.42953" lon="1.07614">
        <ele>10.7</ele>
        <time>2021-11-13T09:07:53Z</time>
      </trkpt>
      <trkpt lat="49.42951" lon="1.07616">
        <ele>10.7</ele>
        <time>2021-11-13T09:07:54Z</time>
      </trkpt>
      <trkpt lat="49.4295" lon="1.07618">
        <ele>10.7</ele>
        <time>2021-11-13T09:07:56Z</time>
      </trkpt>
      <trkpt lat="49.42948" lon="1.07621">
        <ele>10.7</ele>
        <time>2021-11-13T09:07:57Z</time>
      </trkpt>
      <trkpt lat="49.42947" lon="1.07621">
        <ele>10.7</ele>
        <time>2021-11-13T09:07:58Z</time>
      </trkpt>
      <trkpt lat="49.42943" lon="1.07627">
        <ele>10.8</ele>
        <time>2021-11-13T09:08:00Z</time>
      </trkpt>
      <trkpt lat="49.42943" lon="1.07629">
        <ele>10.8</ele>
        <time>2021-11-13T09:08:01Z</time>
      </trkpt>
      <trkpt lat="49.42942" lon="1.07631">
        <ele>10.8</ele>
        <time>2021-11-13T09:08:02Z</time>
      </trkpt>
      <trkpt lat="49.4294" lon="1.07636">
        <ele>10.8</ele>
        <time>2021-11-13T09:08:03Z</time>
      </trkpt>
      <trkpt lat="49.42939" lon="1.07638">
        <ele>10.8</ele>
        <time>2021-11-13T09:08:04Z</time>
      </trkpt>
      <trkpt lat="49.42936" lon="1.07643">
        <ele>10.8</ele>
        <time>2021-11-13T09:08:06Z</time>
      </trkpt>
      <trkpt lat="49.42935" lon="1.07647">
        <ele>10.8</ele>
        <time>2021-11-13T09:08:07Z</time>
      </trkpt>
      <trkpt lat="49.42931" lon="1.07657">
        <ele>10.9</ele>
        <time>2021-11-13T09:08:09Z</time>
      </trkpt>
    </trkseg>
  </trk>
</gpx>